<?xml version='1.0' encoding='UTF-8'?><gpx version="1.1" creator="JPX - https://github.com/jenetics/jpx" xmlns="http://www.topografix.com/GPX/1/1"><trk><trkseg><trkpt lat="40.7529362" lon="-3.7839227"><ele>921.0</ele><time>2026-04-17T09:14:22.791Z</time></trkpt><trkpt lat="40.7528963" lon="-3.7840174"><ele>921.0</ele><time>2026-04-17T09:14:25.791Z</time></trkpt><trkpt lat="40.7529555" lon="-3.7840539"><ele>921.0</ele><time>2026-04-17T09:14:45.873Z</time></trkpt><trkpt lat="40.7530284" lon="-3.7840548"><ele>921.0</ele><time>2026-04-17T09:14:51.616Z</time></trkpt><trkpt lat="40.7529511" lon="-3.7839908"><ele>921.0</ele><time>2026-04-17T09:15:23.762Z</time></trkpt><trkpt lat="40.7528979" lon="-3.784062"><ele>921.0</ele><time>2026-04-17T09:16:08.761Z</time></trkpt><trkpt lat="40.7529106" lon="-3.784144"><ele>921.0</ele><time>2026-04-17T09:16:14.793Z</time></trkpt><trkpt lat="40.7528679" lon="-3.784248"><ele>920.9999999999999</ele><time>2026-04-17T09:17:01.76Z</time></trkpt><trkpt lat="40.7528035" lon="-3.7842611"><ele>920.9999999999999</ele><time>2026-04-17T09:17:27.791Z</time></trkpt><trkpt lat="40.7527319" lon="-3.7840721"><ele>921.0</ele><time>2026-04-17T09:17:54.76Z</time></trkpt><trkpt lat="40.7527014" lon="-3.7839968"><ele>921.0</ele><time>2026-04-17T09:17:55.761Z</time></trkpt><trkpt lat="40.7526711" lon="-3.7838669"><ele>920.5999999999999</ele><time>2026-04-17T09:17:57.76Z</time></trkpt><trkpt lat="40.7526502" lon="-3.7837213"><ele>920.1999999999999</ele><time>2026-04-17T09:17:59.76Z</time></trkpt><trkpt lat="40.7526412" lon="-3.7836335"><ele>919.8000000000001</ele><time>2026-04-17T09:18:00.76Z</time></trkpt><trkpt lat="40.7526328" lon="-3.783549"><ele>919.4000000000001</ele><time>2026-04-17T09:18:01.76Z</time></trkpt><trkpt lat="40.7526087" lon="-3.7834183"><ele>919.0</ele><time>2026-04-17T09:18:03.761Z</time></trkpt><trkpt lat="40.7525805" lon="-3.7832823"><ele>919.0</ele><time>2026-04-17T09:18:05.76Z</time></trkpt><trkpt lat="40.7525743" lon="-3.7831638"><ele>919.0000000000001</ele><time>2026-04-17T09:18:07.76Z</time></trkpt><trkpt lat="40.7526061" lon="-3.7830731"><ele>919.0000000000001</ele><time>2026-04-17T09:18:09.76Z</time></trkpt><trkpt lat="40.7526961" lon="-3.7830375"><ele>919.0</ele><time>2026-04-17T09:18:11.76Z</time></trkpt><trkpt lat="40.7528071" lon="-3.7829922"><ele>919.0</ele><time>2026-04-17T09:18:13.76Z</time></trkpt><trkpt lat="40.7529011" lon="-3.782942"><ele>919.2</ele><time>2026-04-17T09:18:15.76Z</time></trkpt><trkpt lat="40.7529836" lon="-3.7829471"><ele>919.4000000000001</ele><time>2026-04-17T09:18:17.761Z</time></trkpt><trkpt lat="40.7530672" lon="-3.7830137"><ele>919.6</ele><time>2026-04-17T09:18:19.76Z</time></trkpt><trkpt lat="40.7530859" lon="-3.7831544"><ele>919.8</ele><time>2026-04-17T09:18:21.761Z</time></trkpt><trkpt lat="40.7531081" lon="-3.7833231"><ele>920.0</ele><time>2026-04-17T09:18:23.76Z</time></trkpt><trkpt lat="40.7531204" lon="-3.7834135"><ele>920.2</ele><time>2026-04-17T09:18:24.761Z</time></trkpt><trkpt lat="40.7531522" lon="-3.7835556"><ele>920.4</ele><time>2026-04-17T09:18:26.761Z</time></trkpt><trkpt lat="40.7531845" lon="-3.783707"><ele>920.5999999999999</ele><time>2026-04-17T09:18:28.76Z</time></trkpt><trkpt lat="40.7532237" lon="-3.7838488"><ele>920.8</ele><time>2026-04-17T09:18:30.76Z</time></trkpt><trkpt lat="40.7532502" lon="-3.7839274"><ele>921.0</ele><time>2026-04-17T09:18:31.761Z</time></trkpt><trkpt lat="40.7532709" lon="-3.7840072"><ele>921.0</ele><time>2026-04-17T09:18:32.76Z</time></trkpt><trkpt lat="40.753298" lon="-3.784097"><ele>921.0</ele><time>2026-04-17T09:18:33.76Z</time></trkpt><trkpt lat="40.7533256" lon="-3.784183"><ele>921.0</ele><time>2026-04-17T09:18:34.761Z</time></trkpt><trkpt lat="40.7533509" lon="-3.7842639"><ele>921.0</ele><time>2026-04-17T09:18:35.76Z</time></trkpt><trkpt lat="40.7534047" lon="-3.7844104"><ele>921.0</ele><time>2026-04-17T09:18:37.76Z</time></trkpt><trkpt lat="40.7534552" lon="-3.7845397"><ele>921.0</ele><time>2026-04-17T09:18:39.761Z</time></trkpt><trkpt lat="40.7534898" lon="-3.7846839"><ele>921.0</ele><time>2026-04-17T09:18:50.76Z</time></trkpt><trkpt lat="40.7535336" lon="-3.7847666"><ele>921.0</ele><time>2026-04-17T09:18:51.761Z</time></trkpt><trkpt lat="40.7535756" lon="-3.7848376"><ele>921.0</ele><time>2026-04-17T09:18:52.761Z</time></trkpt><trkpt lat="40.7536503" lon="-3.7849816"><ele>921.0</ele><time>2026-04-17T09:18:54.761Z</time></trkpt><trkpt lat="40.7536893" lon="-3.7850691"><ele>921.0</ele><time>2026-04-17T09:18:55.76Z</time></trkpt><trkpt lat="40.7537258" lon="-3.7851507"><ele>921.0</ele><time>2026-04-17T09:18:56.76Z</time></trkpt><trkpt lat="40.7537727" lon="-3.7852509"><ele>921.0</ele><time>2026-04-17T09:18:58.761Z</time></trkpt><trkpt lat="40.7538151" lon="-3.7853377"><ele>921.0</ele><time>2026-04-17T09:19:00.761Z</time></trkpt><trkpt lat="40.7538338" lon="-3.7854199"><ele>921.0</ele><time>2026-04-17T09:19:02.76Z</time></trkpt><trkpt lat="40.7538255" lon="-3.7855059"><ele>921.0</ele><time>2026-04-17T09:19:04.76Z</time></trkpt><trkpt lat="40.7538168" lon="-3.7856065"><ele>921.0</ele><time>2026-04-17T09:19:07.76Z</time></trkpt><trkpt lat="40.7539019" lon="-3.7856678"><ele>921.0</ele><time>2026-04-17T09:20:18.76Z</time></trkpt><trkpt lat="40.7539577" lon="-3.7857714"><ele>921.0</ele><time>2026-04-17T09:20:20.76Z</time></trkpt><trkpt lat="40.7540248" lon="-3.7858369"><ele>921.0</ele><time>2026-04-17T09:20:22.761Z</time></trkpt><trkpt lat="40.7541081" lon="-3.7859225"><ele>921.0</ele><time>2026-04-17T09:20:24.76Z</time></trkpt><trkpt lat="40.7541915" lon="-3.7860171"><ele>921.0</ele><time>2026-04-17T09:20:26.76Z</time></trkpt><trkpt lat="40.7542344" lon="-3.7860786"><ele>921.0</ele><time>2026-04-17T09:20:30.76Z</time></trkpt><trkpt lat="40.7542578" lon="-3.786161"><ele>921.0</ele><time>2026-04-17T09:21:00.76Z</time></trkpt><trkpt lat="40.7542771" lon="-3.7862446"><ele>921.1428571428573</ele><time>2026-04-17T09:21:06.76Z</time></trkpt><trkpt lat="40.7543016" lon="-3.7863258"><ele>921.2857142857143</ele><time>2026-04-17T09:21:12.761Z</time></trkpt><trkpt lat="40.7543278" lon="-3.786419"><ele>921.4285714285716</ele><time>2026-04-17T09:21:18.821Z</time></trkpt><trkpt lat="40.7543453" lon="-3.7865085"><ele>921.5714285714287</ele><time>2026-04-17T09:21:23.84Z</time></trkpt><trkpt lat="40.7543594" lon="-3.7866012"><ele>921.7142857142858</ele><time>2026-04-17T09:21:28.799Z</time></trkpt><trkpt lat="40.754365" lon="-3.7866975"><ele>921.8571428571429</ele><time>2026-04-17T09:21:33.826Z</time></trkpt><trkpt lat="40.7543681" lon="-3.7867863"><ele>922.0</ele><time>2026-04-17T09:21:37.759Z</time></trkpt><trkpt lat="40.7543735" lon="-3.7868707"><ele>922.0</ele><time>2026-04-17T09:21:42.761Z</time></trkpt><trkpt lat="40.7544027" lon="-3.7869494"><ele>922.0000000000001</ele><time>2026-04-17T09:21:47.76Z</time></trkpt><trkpt lat="40.7544614" lon="-3.7870039"><ele>922.0</ele><time>2026-04-17T09:21:52.662Z</time></trkpt><trkpt lat="40.7545241" lon="-3.7870192"><ele>922.0</ele><time>2026-04-17T09:21:56.806Z</time></trkpt><trkpt lat="40.7545913" lon="-3.7870306"><ele>922.0000000000001</ele><time>2026-04-17T09:22:01.76Z</time></trkpt><trkpt lat="40.7546613" lon="-3.7870401"><ele>922.0</ele><time>2026-04-17T09:22:24.772Z</time></trkpt><trkpt lat="40.7547245" lon="-3.7870714"><ele>922.0</ele><time>2026-04-17T09:24:37.761Z</time></trkpt><trkpt lat="40.7546649" lon="-3.7871034"><ele>921.9999999999999</ele><time>2026-04-17T09:29:09.786Z</time></trkpt><trkpt lat="40.7547224" lon="-3.787192"><ele>922.0</ele><time>2026-04-17T09:29:13.806Z</time></trkpt><trkpt lat="40.7546437" lon="-3.7872443"><ele>922.0</ele><time>2026-04-17T09:29:15.76Z</time></trkpt><trkpt lat="40.7545561" lon="-3.7872486"><ele>922.0</ele><time>2026-04-17T09:29:16.759Z</time></trkpt><trkpt lat="40.7544778" lon="-3.7872562"><ele>921.9999999999999</ele><time>2026-04-17T09:29:17.76Z</time></trkpt><trkpt lat="40.7544028" lon="-3.7872793"><ele>922.0</ele><time>2026-04-17T09:29:18.759Z</time></trkpt><trkpt lat="40.7543263" lon="-3.787318"><ele>921.9999999999999</ele><time>2026-04-17T09:29:19.759Z</time></trkpt><trkpt lat="40.7542475" lon="-3.7873774"><ele>922.0</ele><time>2026-04-17T09:29:20.76Z</time></trkpt><trkpt lat="40.7541723" lon="-3.7874577"><ele>922.0</ele><time>2026-04-17T09:29:21.759Z</time></trkpt><trkpt lat="40.7541123" lon="-3.7875446"><ele>922.0</ele><time>2026-04-17T09:29:22.759Z</time></trkpt><trkpt lat="40.7540637" lon="-3.7876292"><ele>921.9999999999999</ele><time>2026-04-17T09:29:23.76Z</time></trkpt><trkpt lat="40.7540193" lon="-3.7877135"><ele>922.0</ele><time>2026-04-17T09:29:24.759Z</time></trkpt><trkpt lat="40.7539794" lon="-3.7877808"><ele>922.0</ele><time>2026-04-17T09:29:25.76Z</time></trkpt><trkpt lat="40.7538763" lon="-3.7878121"><ele>922.0</ele><time>2026-04-17T09:29:27.759Z</time></trkpt><trkpt lat="40.7538144" lon="-3.7877796"><ele>922.0</ele><time>2026-04-17T09:29:28.759Z</time></trkpt><trkpt lat="40.7537622" lon="-3.7877297"><ele>922.0</ele><time>2026-04-17T09:29:29.76Z</time></trkpt><trkpt lat="40.7536906" lon="-3.7876305"><ele>922.0</ele><time>2026-04-17T09:29:31.759Z</time></trkpt><trkpt lat="40.7535812" lon="-3.787523"><ele>921.9999999999999</ele><time>2026-04-17T09:29:33.759Z</time></trkpt><trkpt lat="40.7535108" lon="-3.7874682"><ele>922.0</ele><time>2026-04-17T09:29:34.759Z</time></trkpt><trkpt lat="40.7534415" lon="-3.7874057"><ele>922.0</ele><time>2026-04-17T09:29:35.76Z</time></trkpt><trkpt lat="40.7533732" lon="-3.7873431"><ele>922.0</ele><time>2026-04-17T09:29:36.759Z</time></trkpt><trkpt lat="40.7532961" lon="-3.7872915"><ele>921.9999999999999</ele><time>2026-04-17T09:29:37.759Z</time></trkpt><trkpt lat="40.7532192" lon="-3.7872479"><ele>922.0</ele><time>2026-04-17T09:29:38.76Z</time></trkpt><trkpt lat="40.753153" lon="-3.7872043"><ele>922.0</ele><time>2026-04-17T09:29:39.76Z</time></trkpt><trkpt lat="40.7530554" lon="-3.787188"><ele>922.0</ele><time>2026-04-17T09:29:41.759Z</time></trkpt><trkpt lat="40.7529384" lon="-3.7872613"><ele>922.0</ele><time>2026-04-17T09:29:43.759Z</time></trkpt><trkpt lat="40.7528638" lon="-3.7872903"><ele>922.0</ele><time>2026-04-17T09:29:44.76Z</time></trkpt><trkpt lat="40.7527994" lon="-3.7872955"><ele>922.0</ele><time>2026-04-17T09:29:45.76Z</time></trkpt><trkpt lat="40.7526942" lon="-3.7872721"><ele>922.0</ele><time>2026-04-17T09:29:47.76Z</time></trkpt><trkpt lat="40.7526877" lon="-3.7871265"><ele>922.0</ele><time>2026-04-17T09:29:50.76Z</time></trkpt><trkpt lat="40.7527661" lon="-3.7869684"><ele>922.0</ele><time>2026-04-17T09:29:52.759Z</time></trkpt><trkpt lat="40.7528185" lon="-3.7868735"><ele>922.0</ele><time>2026-04-17T09:29:53.759Z</time></trkpt><trkpt lat="40.7528685" lon="-3.786788"><ele>922.0</ele><time>2026-04-17T09:29:54.759Z</time></trkpt><trkpt lat="40.7529199" lon="-3.7867123"><ele>922.2</ele><time>2026-04-17T09:29:55.76Z</time></trkpt><trkpt lat="40.752979" lon="-3.7866144"><ele>922.4000000000001</ele><time>2026-04-17T09:29:57.76Z</time></trkpt><trkpt lat="40.7529352" lon="-3.7865213"><ele>922.5999999999999</ele><time>2026-04-17T09:29:59.759Z</time></trkpt><trkpt lat="40.7528717" lon="-3.7864182"><ele>922.8</ele><time>2026-04-17T09:30:01.759Z</time></trkpt><trkpt lat="40.7528143" lon="-3.7863168"><ele>923.0</ele><time>2026-04-17T09:30:03.76Z</time></trkpt><trkpt lat="40.7527472" lon="-3.7862352"><ele>922.3333333333334</ele><time>2026-04-17T09:30:05.759Z</time></trkpt><trkpt lat="40.752653" lon="-3.7861383"><ele>921.6666666666667</ele><time>2026-04-17T09:30:28.759Z</time></trkpt><trkpt lat="40.7525947" lon="-3.7860815"><ele>921.0</ele><time>2026-04-17T09:30:34.76Z</time></trkpt><trkpt lat="40.7525353" lon="-3.7860057"><ele>920.3333333333333</ele><time>2026-04-17T09:30:35.76Z</time></trkpt><trkpt lat="40.752483" lon="-3.785928"><ele>919.6666666666666</ele><time>2026-04-17T09:30:36.759Z</time></trkpt><trkpt lat="40.7524173" lon="-3.7858444"><ele>919.0</ele><time>2026-04-17T09:30:37.759Z</time></trkpt><trkpt lat="40.7523471" lon="-3.7857556"><ele>918.8000000000001</ele><time>2026-04-17T09:30:38.759Z</time></trkpt><trkpt lat="40.752285" lon="-3.7856794"><ele>918.6000000000001</ele><time>2026-04-17T09:30:39.759Z</time></trkpt><trkpt lat="40.7522301" lon="-3.7856218"><ele>918.4</ele><time>2026-04-17T09:30:40.76Z</time></trkpt><trkpt lat="40.7521701" lon="-3.7855578"><ele>918.2</ele><time>2026-04-17T09:30:42.759Z</time></trkpt><trkpt lat="40.7521664" lon="-3.7854516"><ele>918.0</ele><time>2026-04-17T09:30:45.759Z</time></trkpt><trkpt lat="40.7522538" lon="-3.7853107"><ele>918.0</ele><time>2026-04-17T09:30:47.759Z</time></trkpt><trkpt lat="40.7523054" lon="-3.7852437"><ele>918.0</ele><time>2026-04-17T09:30:48.76Z</time></trkpt><trkpt lat="40.7523568" lon="-3.7851686"><ele>918.0</ele><time>2026-04-17T09:30:49.759Z</time></trkpt><trkpt lat="40.7524176" lon="-3.7850679"><ele>918.0</ele><time>2026-04-17T09:30:50.759Z</time></trkpt><trkpt lat="40.7524863" lon="-3.7849522"><ele>918.0</ele><time>2026-04-17T09:30:51.759Z</time></trkpt><trkpt lat="40.7525592" lon="-3.7848266"><ele>918.0</ele><time>2026-04-17T09:30:52.76Z</time></trkpt><trkpt lat="40.752621" lon="-3.784706"><ele>918.0</ele><time>2026-04-17T09:30:53.759Z</time></trkpt><trkpt lat="40.7526772" lon="-3.7845848"><ele>918.0</ele><time>2026-04-17T09:30:54.76Z</time></trkpt><trkpt lat="40.752727" lon="-3.7844834"><ele>918.0</ele><time>2026-04-17T09:30:55.759Z</time></trkpt><trkpt lat="40.7527576" lon="-3.7844067"><ele>918.0</ele><time>2026-04-17T09:30:56.76Z</time></trkpt><trkpt lat="40.7527704" lon="-3.7842856"><ele>918.4285714285714</ele><time>2026-04-17T09:30:58.759Z</time></trkpt><trkpt lat="40.7528178" lon="-3.7842198"><ele>918.8571428571429</ele><time>2026-04-17T09:31:01.76Z</time></trkpt><trkpt lat="40.7528916" lon="-3.7842009"><ele>919.2857142857143</ele><time>2026-04-17T09:31:18.76Z</time></trkpt><trkpt lat="40.7528763" lon="-3.7841037"><ele>919.7142857142858</ele><time>2026-04-17T09:31:21.759Z</time></trkpt><trkpt lat="40.7529317" lon="-3.7840329"><ele>920.1428571428571</ele><time>2026-04-17T09:31:25.759Z</time></trkpt><trkpt lat="40.7530081" lon="-3.7840107"><ele>920.5714285714287</ele><time>2026-04-17T09:31:27.76Z</time></trkpt><trkpt lat="40.7530668" lon="-3.7840553"><ele>921.0000000000001</ele><time>2026-04-17T09:31:32.76Z</time></trkpt><trkpt lat="40.7530035" lon="-3.7840678"><ele>921.0000000000001</ele><time>2026-04-17T09:32:42.784Z</time></trkpt><trkpt lat="40.752929" lon="-3.7840623"><ele>921.0</ele><time>2026-04-17T09:32:45.798Z</time></trkpt><trkpt lat="40.7529809" lon="-3.7841096"><ele>921.0000000000001</ele><time>2026-04-17T09:33:12.912Z</time></trkpt><trkpt lat="40.7529169" lon="-3.784094"><ele>921.0000000000001</ele><time>2026-04-17T09:33:51.251Z</time></trkpt><trkpt lat="40.7528654" lon="-3.7840372"><ele>921.0</ele><time>2026-04-17T09:33:59.759Z</time></trkpt><trkpt lat="40.7528982" lon="-3.7841337"><ele>921.0000000000001</ele><time>2026-04-17T09:34:31.76Z</time></trkpt><trkpt lat="40.752854" lon="-3.7842116"><ele>921.0000000000001</ele><time>2026-04-17T09:34:33.76Z</time></trkpt><trkpt lat="40.7527906" lon="-3.7842591"><ele>921.0</ele><time>2026-04-17T09:34:43.787Z</time></trkpt><trkpt lat="40.7527424" lon="-3.7841616"><ele>920.9999999999999</ele><time>2026-04-17T09:34:52.759Z</time></trkpt><trkpt lat="40.7527101" lon="-3.7840545"><ele>920.9999999999999</ele><time>2026-04-17T09:34:53.76Z</time></trkpt><trkpt lat="40.7526915" lon="-3.7839279"><ele>921.0</ele><time>2026-04-17T09:34:54.759Z</time></trkpt><trkpt lat="40.7526757" lon="-3.7837875"><ele>921.0</ele><time>2026-04-17T09:34:55.76Z</time></trkpt><trkpt lat="40.7526544" lon="-3.7836312"><ele>920.5999999999999</ele><time>2026-04-17T09:34:56.759Z</time></trkpt><trkpt lat="40.7526311" lon="-3.783486"><ele>920.1999999999999</ele><time>2026-04-17T09:34:57.76Z</time></trkpt><trkpt lat="40.7526056" lon="-3.7833644"><ele>919.8000000000001</ele><time>2026-04-17T09:34:58.76Z</time></trkpt><trkpt lat="40.7525846" lon="-3.7832608"><ele>919.4000000000001</ele><time>2026-04-17T09:34:59.759Z</time></trkpt><trkpt lat="40.7525761" lon="-3.7831727"><ele>919.0</ele><time>2026-04-17T09:35:00.759Z</time></trkpt><trkpt lat="40.7526377" lon="-3.7830453"><ele>919.1666666666666</ele><time>2026-04-17T09:35:02.76Z</time></trkpt><trkpt lat="40.7527129" lon="-3.7829996"><ele>919.3333333333333</ele><time>2026-04-17T09:35:03.759Z</time></trkpt><trkpt lat="40.7528049" lon="-3.7829693"><ele>919.5</ele><time>2026-04-17T09:35:04.76Z</time></trkpt><trkpt lat="40.7528913" lon="-3.7829273"><ele>919.6666666666667</ele><time>2026-04-17T09:35:05.76Z</time></trkpt><trkpt lat="40.752958" lon="-3.7829127"><ele>919.8333333333334</ele><time>2026-04-17T09:35:06.759Z</time></trkpt><trkpt lat="40.7530238" lon="-3.7829575"><ele>920.0</ele><time>2026-04-17T09:35:07.759Z</time></trkpt><trkpt lat="40.7530947" lon="-3.7830934"><ele>920.0</ele><time>2026-04-17T09:35:09.759Z</time></trkpt><trkpt lat="40.7530891" lon="-3.7832198"><ele>920.0</ele><time>2026-04-17T09:35:10.759Z</time></trkpt><trkpt lat="40.7530985" lon="-3.783362"><ele>920.0</ele><time>2026-04-17T09:35:11.759Z</time></trkpt><trkpt lat="40.7531156" lon="-3.7835235"><ele>920.0</ele><time>2026-04-17T09:35:12.76Z</time></trkpt><trkpt lat="40.7531472" lon="-3.7836825"><ele>920.2</ele><time>2026-04-17T09:35:13.759Z</time></trkpt><trkpt lat="40.7531879" lon="-3.7838319"><ele>920.4</ele><time>2026-04-17T09:35:14.759Z</time></trkpt><trkpt lat="40.7532335" lon="-3.7839697"><ele>920.5999999999999</ele><time>2026-04-17T09:35:15.759Z</time></trkpt><trkpt lat="40.7532759" lon="-3.7840998"><ele>920.8</ele><time>2026-04-17T09:35:16.76Z</time></trkpt><trkpt lat="40.753319" lon="-3.7842145"><ele>921.0</ele><time>2026-04-17T09:35:17.76Z</time></trkpt><trkpt lat="40.7533599" lon="-3.784318"><ele>921.0</ele><time>2026-04-17T09:35:18.759Z</time></trkpt><trkpt lat="40.7533977" lon="-3.7844061"><ele>921.0</ele><time>2026-04-17T09:35:19.759Z</time></trkpt><trkpt lat="40.7534378" lon="-3.7844798"><ele>921.0</ele><time>2026-04-17T09:35:20.76Z</time></trkpt><trkpt lat="40.7534694" lon="-3.7845886"><ele>921.0</ele><time>2026-04-17T09:35:22.759Z</time></trkpt><trkpt lat="40.7535017" lon="-3.7846812"><ele>921.0</ele><time>2026-04-17T09:35:24.759Z</time></trkpt><trkpt lat="40.7535221" lon="-3.7847685"><ele>921.0</ele><time>2026-04-17T09:35:25.759Z</time></trkpt><trkpt lat="40.7535611" lon="-3.7848652"><ele>921.0</ele><time>2026-04-17T09:35:26.759Z</time></trkpt><trkpt lat="40.7536079" lon="-3.7849634"><ele>921.0</ele><time>2026-04-17T09:35:27.759Z</time></trkpt><trkpt lat="40.7536374" lon="-3.7850404"><ele>921.0</ele><time>2026-04-17T09:35:28.76Z</time></trkpt><trkpt lat="40.7537095" lon="-3.7851679"><ele>921.0</ele><time>2026-04-17T09:35:30.76Z</time></trkpt><trkpt lat="40.7537769" lon="-3.7852467"><ele>921.0</ele><time>2026-04-17T09:35:32.76Z</time></trkpt><trkpt lat="40.753836" lon="-3.7853054"><ele>921.0</ele><time>2026-04-17T09:35:34.76Z</time></trkpt><trkpt lat="40.753867" lon="-3.7853905"><ele>921.0</ele><time>2026-04-17T09:35:36.759Z</time></trkpt><trkpt lat="40.7538407" lon="-3.7854899"><ele>920.9999999999999</ele><time>2026-04-17T09:35:38.76Z</time></trkpt><trkpt lat="40.7538412" lon="-3.7856229"><ele>920.9999999999999</ele><time>2026-04-17T09:35:40.759Z</time></trkpt><trkpt lat="40.7538899" lon="-3.7857096"><ele>921.0</ele><time>2026-04-17T09:35:41.759Z</time></trkpt><trkpt lat="40.7539755" lon="-3.7858004"><ele>921.0</ele><time>2026-04-17T09:35:42.76Z</time></trkpt><trkpt lat="40.7540581" lon="-3.7858969"><ele>921.0</ele><time>2026-04-17T09:35:43.759Z</time></trkpt><trkpt lat="40.7541211" lon="-3.7859741"><ele>921.0</ele><time>2026-04-17T09:35:44.759Z</time></trkpt><trkpt lat="40.7541761" lon="-3.7860399"><ele>921.0</ele><time>2026-04-17T09:35:45.759Z</time></trkpt><trkpt lat="40.7542193" lon="-3.7861403"><ele>921.0</ele><time>2026-04-17T09:35:46.76Z</time></trkpt><trkpt lat="40.7542538" lon="-3.7862641"><ele>921.0</ele><time>2026-04-17T09:35:47.76Z</time></trkpt><trkpt lat="40.7543029" lon="-3.7863807"><ele>921.0</ele><time>2026-04-17T09:35:48.759Z</time></trkpt><trkpt lat="40.7543384" lon="-3.7865012"><ele>921.1666666666666</ele><time>2026-04-17T09:35:49.76Z</time></trkpt><trkpt lat="40.7543523" lon="-3.7866311"><ele>921.3333333333333</ele><time>2026-04-17T09:35:50.76Z</time></trkpt><trkpt lat="40.7543591" lon="-3.7867463"><ele>921.5</ele><time>2026-04-17T09:35:51.76Z</time></trkpt><trkpt lat="40.7543632" lon="-3.7868356"><ele>921.6666666666666</ele><time>2026-04-17T09:35:52.759Z</time></trkpt><trkpt lat="40.7544044" lon="-3.7869637"><ele>921.8333333333333</ele><time>2026-04-17T09:35:54.759Z</time></trkpt><trkpt lat="40.7544624" lon="-3.787026"><ele>922.0</ele><time>2026-04-17T09:35:56.76Z</time></trkpt><trkpt lat="40.754524" lon="-3.787047"><ele>922.0</ele><time>2026-04-17T09:35:59.759Z</time></trkpt><trkpt lat="40.7546352" lon="-3.7870477"><ele>922.0</ele><time>2026-04-17T09:36:02.76Z</time></trkpt><trkpt lat="40.7547196" lon="-3.7870647"><ele>922.0</ele><time>2026-04-17T09:36:04.759Z</time></trkpt><trkpt lat="40.7548066" lon="-3.7870242"><ele>922.0</ele><time>2026-04-17T09:37:20.76Z</time></trkpt><trkpt lat="40.754876" lon="-3.7870451"><ele>922.0</ele><time>2026-04-17T09:37:22.759Z</time></trkpt><trkpt lat="40.7549655" lon="-3.7870486"><ele>921.9999999999999</ele><time>2026-04-17T09:37:24.76Z</time></trkpt><trkpt lat="40.755034" lon="-3.787042"><ele>922.0</ele><time>2026-04-17T09:37:25.759Z</time></trkpt><trkpt lat="40.7551032" lon="-3.7870475"><ele>922.0</ele><time>2026-04-17T09:37:26.759Z</time></trkpt><trkpt lat="40.7551692" lon="-3.7870484"><ele>922.0</ele><time>2026-04-17T09:37:27.76Z</time></trkpt><trkpt lat="40.7552626" lon="-3.7870359"><ele>921.9999999999999</ele><time>2026-04-17T09:37:29.759Z</time></trkpt><trkpt lat="40.755352" lon="-3.7870344"><ele>922.0</ele><time>2026-04-17T09:37:31.759Z</time></trkpt><trkpt lat="40.7554569" lon="-3.786992"><ele>922.4000000000001</ele><time>2026-04-17T09:37:33.759Z</time></trkpt><trkpt lat="40.7555474" lon="-3.7869724"><ele>922.8000000000001</ele><time>2026-04-17T09:37:35.76Z</time></trkpt><trkpt lat="40.7556102" lon="-3.787051"><ele>923.2</ele><time>2026-04-17T09:37:37.759Z</time></trkpt><trkpt lat="40.755574" lon="-3.7871547"><ele>923.6</ele><time>2026-04-17T09:37:39.759Z</time></trkpt><trkpt lat="40.7554504" lon="-3.7871985"><ele>924.0</ele><time>2026-04-17T09:37:41.76Z</time></trkpt><trkpt lat="40.7553746" lon="-3.7872093"><ele>924.0</ele><time>2026-04-17T09:37:42.759Z</time></trkpt><trkpt lat="40.7553055" lon="-3.7872209"><ele>924.0</ele><time>2026-04-17T09:37:43.759Z</time></trkpt><trkpt lat="40.7552252" lon="-3.7872427"><ele>924.0</ele><time>2026-04-17T09:37:44.76Z</time></trkpt><trkpt lat="40.7551389" lon="-3.7872534"><ele>924.0</ele><time>2026-04-17T09:37:45.759Z</time></trkpt><trkpt lat="40.7550444" lon="-3.7872542"><ele>924.0</ele><time>2026-04-17T09:37:46.76Z</time></trkpt><trkpt lat="40.7549432" lon="-3.7872515"><ele>924.0</ele><time>2026-04-17T09:37:47.759Z</time></trkpt><trkpt lat="40.7548577" lon="-3.7872641"><ele>923.6666666666666</ele><time>2026-04-17T09:37:48.76Z</time></trkpt><trkpt lat="40.7547735" lon="-3.7872794"><ele>923.3333333333333</ele><time>2026-04-17T09:37:49.759Z</time></trkpt><trkpt lat="40.7547019" lon="-3.7872773"><ele>923.0</ele><time>2026-04-17T09:37:50.76Z</time></trkpt><trkpt lat="40.754606" lon="-3.7872764"><ele>922.6666666666666</ele><time>2026-04-17T09:37:52.76Z</time></trkpt><trkpt lat="40.754536" lon="-3.7872798"><ele>922.3333333333333</ele><time>2026-04-17T09:37:55.759Z</time></trkpt><trkpt lat="40.754474" lon="-3.7873023"><ele>922.0</ele><time>2026-04-17T09:37:58.759Z</time></trkpt><trkpt lat="40.7543923" lon="-3.7873119"><ele>921.9999999999999</ele><time>2026-04-17T09:38:00.76Z</time></trkpt><trkpt lat="40.7543268" lon="-3.7873411"><ele>922.0</ele><time>2026-04-17T09:38:01.759Z</time></trkpt><trkpt lat="40.7542569" lon="-3.78738"><ele>922.0</ele><time>2026-04-17T09:38:02.76Z</time></trkpt><trkpt lat="40.7541913" lon="-3.7874351"><ele>922.0</ele><time>2026-04-17T09:38:03.759Z</time></trkpt><trkpt lat="40.7541293" lon="-3.7875151"><ele>921.9999999999999</ele><time>2026-04-17T09:38:04.759Z</time></trkpt><trkpt lat="40.7540768" lon="-3.7875955"><ele>922.0</ele><time>2026-04-17T09:38:05.759Z</time></trkpt><trkpt lat="40.7540342" lon="-3.787679"><ele>921.8333333333333</ele><time>2026-04-17T09:38:06.76Z</time></trkpt><trkpt lat="40.7539949" lon="-3.7877534"><ele>921.6666666666666</ele><time>2026-04-17T09:38:07.76Z</time></trkpt><trkpt lat="40.7539529" lon="-3.7878233"><ele>921.5</ele><time>2026-04-17T09:38:08.76Z</time></trkpt><trkpt lat="40.7538998" lon="-3.7878751"><ele>921.3333333333333</ele><time>2026-04-17T09:38:09.759Z</time></trkpt><trkpt lat="40.7538246" lon="-3.787909"><ele>921.1666666666666</ele><time>2026-04-17T09:38:10.759Z</time></trkpt><trkpt lat="40.7537378" lon="-3.787934"><ele>921.0</ele><time>2026-04-17T09:38:11.76Z</time></trkpt><trkpt lat="40.7536575" lon="-3.7879781"><ele>921.0000000000001</ele><time>2026-04-17T09:38:12.759Z</time></trkpt><trkpt lat="40.7535885" lon="-3.7880294"><ele>921.0</ele><time>2026-04-17T09:38:13.76Z</time></trkpt><trkpt lat="40.7535348" lon="-3.7880911"><ele>921.0000000000001</ele><time>2026-04-17T09:38:14.76Z</time></trkpt><trkpt lat="40.7534904" lon="-3.7881709"><ele>921.0000000000001</ele><time>2026-04-17T09:38:15.76Z</time></trkpt><trkpt lat="40.7534435" lon="-3.7882604"><ele>921.0</ele><time>2026-04-17T09:38:16.759Z</time></trkpt><trkpt lat="40.7534046" lon="-3.7883421"><ele>921.0000000000001</ele><time>2026-04-17T09:38:17.759Z</time></trkpt><trkpt lat="40.753368" lon="-3.7884166"><ele>921.0000000000001</ele><time>2026-04-17T09:38:18.759Z</time></trkpt><trkpt lat="40.7533526" lon="-3.7885492"><ele>921.1666666666666</ele><time>2026-04-17T09:38:20.76Z</time></trkpt><trkpt lat="40.7533787" lon="-3.7886335"><ele>921.3333333333333</ele><time>2026-04-17T09:38:21.759Z</time></trkpt><trkpt lat="40.7534247" lon="-3.7887139"><ele>921.5</ele><time>2026-04-17T09:38:22.759Z</time></trkpt><trkpt lat="40.7534771" lon="-3.788797"><ele>921.6666666666666</ele><time>2026-04-17T09:38:23.759Z</time></trkpt><trkpt lat="40.7535327" lon="-3.788872"><ele>921.8333333333333</ele><time>2026-04-17T09:38:24.76Z</time></trkpt><trkpt lat="40.7535895" lon="-3.7889411"><ele>922.0</ele><time>2026-04-17T09:38:25.759Z</time></trkpt><trkpt lat="40.7536328" lon="-3.7890275"><ele>922.0</ele><time>2026-04-17T09:38:26.759Z</time></trkpt><trkpt lat="40.7536585" lon="-3.7891266"><ele>922.0</ele><time>2026-04-17T09:38:27.759Z</time></trkpt><trkpt lat="40.7536694" lon="-3.7892313"><ele>922.0</ele><time>2026-04-17T09:38:28.759Z</time></trkpt><trkpt lat="40.7536798" lon="-3.7893412"><ele>922.0</ele><time>2026-04-17T09:38:29.759Z</time></trkpt><trkpt lat="40.7536879" lon="-3.7894649"><ele>922.0</ele><time>2026-04-17T09:38:30.76Z</time></trkpt><trkpt lat="40.7537034" lon="-3.7896121"><ele>922.0</ele><time>2026-04-17T09:38:31.759Z</time></trkpt><trkpt lat="40.7537152" lon="-3.7897604"><ele>922.0</ele><time>2026-04-17T09:38:32.759Z</time></trkpt><trkpt lat="40.7537206" lon="-3.7898939"><ele>922.0</ele><time>2026-04-17T09:38:33.76Z</time></trkpt><trkpt lat="40.7537297" lon="-3.7900105"><ele>922.0</ele><time>2026-04-17T09:38:34.759Z</time></trkpt><trkpt lat="40.753739" lon="-3.7901329"><ele>922.0</ele><time>2026-04-17T09:38:35.76Z</time></trkpt><trkpt lat="40.7537419" lon="-3.790261"><ele>922.0</ele><time>2026-04-17T09:38:36.759Z</time></trkpt><trkpt lat="40.7537467" lon="-3.7904026"><ele>922.0</ele><time>2026-04-17T09:38:37.76Z</time></trkpt><trkpt lat="40.753747" lon="-3.7905441"><ele>922.0</ele><time>2026-04-17T09:38:38.76Z</time></trkpt><trkpt lat="40.7537436" lon="-3.790688"><ele>922.0</ele><time>2026-04-17T09:38:39.759Z</time></trkpt><trkpt lat="40.7537433" lon="-3.7908328"><ele>922.0</ele><time>2026-04-17T09:38:40.76Z</time></trkpt><trkpt lat="40.753738" lon="-3.7909749"><ele>922.2</ele><time>2026-04-17T09:38:41.759Z</time></trkpt><trkpt lat="40.7537326" lon="-3.7911133"><ele>922.4000000000001</ele><time>2026-04-17T09:38:42.759Z</time></trkpt><trkpt lat="40.7537206" lon="-3.7912485"><ele>922.5999999999999</ele><time>2026-04-17T09:38:43.759Z</time></trkpt><trkpt lat="40.7537097" lon="-3.7913574"><ele>922.8</ele><time>2026-04-17T09:38:44.759Z</time></trkpt><trkpt lat="40.7536927" lon="-3.7914488"><ele>923.0</ele><time>2026-04-17T09:38:45.76Z</time></trkpt><trkpt lat="40.7536897" lon="-3.7915984"><ele>923.0000000000001</ele><time>2026-04-17T09:38:47.759Z</time></trkpt><trkpt lat="40.7537503" lon="-3.7917207"><ele>923.0</ele><time>2026-04-17T09:38:49.76Z</time></trkpt><trkpt lat="40.7537961" lon="-3.791781"><ele>923.0</ele><time>2026-04-17T09:38:50.76Z</time></trkpt><trkpt lat="40.7538555" lon="-3.7918437"><ele>923.0</ele><time>2026-04-17T09:38:51.759Z</time></trkpt><trkpt lat="40.7539147" lon="-3.7919236"><ele>923.0000000000001</ele><time>2026-04-17T09:38:52.759Z</time></trkpt><trkpt lat="40.7539744" lon="-3.792018"><ele>923.0</ele><time>2026-04-17T09:38:53.76Z</time></trkpt><trkpt lat="40.754031" lon="-3.7921142"><ele>923.2</ele><time>2026-04-17T09:38:54.759Z</time></trkpt><trkpt lat="40.7540827" lon="-3.7922107"><ele>923.4</ele><time>2026-04-17T09:38:55.759Z</time></trkpt><trkpt lat="40.7541306" lon="-3.7923042"><ele>923.6000000000001</ele><time>2026-04-17T09:38:56.759Z</time></trkpt><trkpt lat="40.7541656" lon="-3.7924175"><ele>923.8000000000001</ele><time>2026-04-17T09:38:57.76Z</time></trkpt><trkpt lat="40.7541887" lon="-3.7925404"><ele>924.0</ele><time>2026-04-17T09:38:58.76Z</time></trkpt><trkpt lat="40.7542154" lon="-3.7926723"><ele>923.8000000000001</ele><time>2026-04-17T09:38:59.759Z</time></trkpt><trkpt lat="40.7542454" lon="-3.7928034"><ele>923.6000000000001</ele><time>2026-04-17T09:39:00.759Z</time></trkpt><trkpt lat="40.7542797" lon="-3.792923"><ele>923.4</ele><time>2026-04-17T09:39:01.759Z</time></trkpt><trkpt lat="40.7543117" lon="-3.7930294"><ele>923.2</ele><time>2026-04-17T09:39:02.759Z</time></trkpt><trkpt lat="40.7543543" lon="-3.7931371"><ele>923.0</ele><time>2026-04-17T09:39:03.76Z</time></trkpt><trkpt lat="40.7543936" lon="-3.7932419"><ele>923.4</ele><time>2026-04-17T09:39:04.76Z</time></trkpt><trkpt lat="40.7544506" lon="-3.7933494"><ele>923.8</ele><time>2026-04-17T09:39:05.759Z</time></trkpt><trkpt lat="40.7545235" lon="-3.7934551"><ele>924.2</ele><time>2026-04-17T09:39:06.76Z</time></trkpt><trkpt lat="40.7546004" lon="-3.7935575"><ele>924.6</ele><time>2026-04-17T09:39:07.759Z</time></trkpt><trkpt lat="40.7546735" lon="-3.7936692"><ele>925.0</ele><time>2026-04-17T09:39:08.759Z</time></trkpt><trkpt lat="40.7547458" lon="-3.7937888"><ele>925.0</ele><time>2026-04-17T09:39:09.759Z</time></trkpt><trkpt lat="40.7548097" lon="-3.793923"><ele>925.0</ele><time>2026-04-17T09:39:10.759Z</time></trkpt><trkpt lat="40.7548652" lon="-3.79405"><ele>925.0</ele><time>2026-04-17T09:39:11.76Z</time></trkpt><trkpt lat="40.7549096" lon="-3.7941746"><ele>925.0</ele><time>2026-04-17T09:39:12.76Z</time></trkpt><trkpt lat="40.7549578" lon="-3.7942868"><ele>925.0</ele><time>2026-04-17T09:39:13.76Z</time></trkpt><trkpt lat="40.7550151" lon="-3.7943943"><ele>925.6666666666666</ele><time>2026-04-17T09:39:14.76Z</time></trkpt><trkpt lat="40.755074" lon="-3.794489"><ele>926.3333333333333</ele><time>2026-04-17T09:39:15.759Z</time></trkpt><trkpt lat="40.7551365" lon="-3.7945781"><ele>927.0</ele><time>2026-04-17T09:39:16.759Z</time></trkpt><trkpt lat="40.7551965" lon="-3.7946669"><ele>927.6666666666667</ele><time>2026-04-17T09:39:17.76Z</time></trkpt><trkpt lat="40.7552555" lon="-3.7947576"><ele>928.3333333333334</ele><time>2026-04-17T09:39:18.759Z</time></trkpt><trkpt lat="40.7553064" lon="-3.7948367"><ele>929.0</ele><time>2026-04-17T09:39:19.759Z</time></trkpt><trkpt lat="40.7553493" lon="-3.7949158"><ele>929.4000000000001</ele><time>2026-04-17T09:39:20.759Z</time></trkpt><trkpt lat="40.7553974" lon="-3.7950052"><ele>929.8000000000001</ele><time>2026-04-17T09:39:21.76Z</time></trkpt><trkpt lat="40.7554428" lon="-3.7951045"><ele>930.1999999999999</ele><time>2026-04-17T09:39:22.759Z</time></trkpt><trkpt lat="40.7554936" lon="-3.795208"><ele>930.5999999999999</ele><time>2026-04-17T09:39:23.76Z</time></trkpt><trkpt lat="40.7555552" lon="-3.7953054"><ele>931.0</ele><time>2026-04-17T09:39:24.759Z</time></trkpt><trkpt lat="40.7556287" lon="-3.7953901"><ele>930.9999999999999</ele><time>2026-04-17T09:39:25.76Z</time></trkpt><trkpt lat="40.7557137" lon="-3.7954636"><ele>931.0</ele><time>2026-04-17T09:39:26.76Z</time></trkpt><trkpt lat="40.7558032" lon="-3.7955258"><ele>931.0</ele><time>2026-04-17T09:39:27.759Z</time></trkpt><trkpt lat="40.7558798" lon="-3.7955698"><ele>931.0</ele><time>2026-04-17T09:39:28.76Z</time></trkpt><trkpt lat="40.7559481" lon="-3.795604"><ele>930.9999999999999</ele><time>2026-04-17T09:39:29.759Z</time></trkpt><trkpt lat="40.7560079" lon="-3.7956387"><ele>931.0</ele><time>2026-04-17T09:39:30.759Z</time></trkpt><trkpt lat="40.756114" lon="-3.7957096"><ele>931.4285714285714</ele><time>2026-04-17T09:39:32.759Z</time></trkpt><trkpt lat="40.7561813" lon="-3.7957658"><ele>931.8571428571429</ele><time>2026-04-17T09:39:34.759Z</time></trkpt><trkpt lat="40.7562423" lon="-3.7958189"><ele>932.2857142857142</ele><time>2026-04-17T09:39:36.76Z</time></trkpt><trkpt lat="40.7562924" lon="-3.7958738"><ele>932.7142857142857</ele><time>2026-04-17T09:39:39.759Z</time></trkpt><trkpt lat="40.7563461" lon="-3.7959228"><ele>933.1428571428571</ele><time>2026-04-17T09:39:42.759Z</time></trkpt><trkpt lat="40.7563959" lon="-3.7959749"><ele>933.5714285714284</ele><time>2026-04-17T09:39:47.76Z</time></trkpt><trkpt lat="40.7564405" lon="-3.796035"><ele>933.9999999999999</ele><time>2026-04-17T09:39:54.759Z</time></trkpt><trkpt lat="40.7565066" lon="-3.7961007"><ele>933.9999999999999</ele><time>2026-04-17T09:40:05.759Z</time></trkpt><trkpt lat="40.7565902" lon="-3.7961811"><ele>934.0</ele><time>2026-04-17T09:40:07.76Z</time></trkpt><trkpt lat="40.7566428" lon="-3.7962384"><ele>934.0</ele><time>2026-04-17T09:40:08.76Z</time></trkpt><trkpt lat="40.7566961" lon="-3.7962954"><ele>934.0</ele><time>2026-04-17T09:40:09.76Z</time></trkpt><trkpt lat="40.7567722" lon="-3.7964245"><ele>933.9999999999999</ele><time>2026-04-17T09:40:11.76Z</time></trkpt><trkpt lat="40.7567927" lon="-3.7965117"><ele>934.0</ele><time>2026-04-17T09:40:12.76Z</time></trkpt><trkpt lat="40.7568377" lon="-3.7966309"><ele>934.4000000000001</ele><time>2026-04-17T09:40:14.76Z</time></trkpt><trkpt lat="40.7569039" lon="-3.7967039"><ele>934.8000000000001</ele><time>2026-04-17T09:40:16.759Z</time></trkpt><trkpt lat="40.7569861" lon="-3.7967616"><ele>935.1999999999999</ele><time>2026-04-17T09:40:18.759Z</time></trkpt><trkpt lat="40.7570915" lon="-3.7968568"><ele>935.5999999999999</ele><time>2026-04-17T09:40:20.76Z</time></trkpt><trkpt lat="40.7571537" lon="-3.7969198"><ele>936.0</ele><time>2026-04-17T09:40:21.76Z</time></trkpt><trkpt lat="40.7572264" lon="-3.7969955"><ele>936.1999999999999</ele><time>2026-04-17T09:40:22.759Z</time></trkpt><trkpt lat="40.7573062" lon="-3.7970697"><ele>936.3999999999999</ele><time>2026-04-17T09:40:23.759Z</time></trkpt><trkpt lat="40.7573866" lon="-3.7971496"><ele>936.6</ele><time>2026-04-17T09:40:24.759Z</time></trkpt><trkpt lat="40.7574654" lon="-3.797232"><ele>936.8</ele><time>2026-04-17T09:40:25.759Z</time></trkpt><trkpt lat="40.7575415" lon="-3.7973049"><ele>937.0</ele><time>2026-04-17T09:40:26.759Z</time></trkpt><trkpt lat="40.7576213" lon="-3.7973719"><ele>937.0</ele><time>2026-04-17T09:40:27.76Z</time></trkpt><trkpt lat="40.757695" lon="-3.7974293"><ele>937.0</ele><time>2026-04-17T09:40:28.76Z</time></trkpt><trkpt lat="40.7577752" lon="-3.797488"><ele>937.0</ele><time>2026-04-17T09:40:29.759Z</time></trkpt><trkpt lat="40.7578595" lon="-3.7975507"><ele>937.0</ele><time>2026-04-17T09:40:30.759Z</time></trkpt><trkpt lat="40.7579396" lon="-3.7976077"><ele>937.0</ele><time>2026-04-17T09:40:31.759Z</time></trkpt><trkpt lat="40.7580178" lon="-3.7976664"><ele>937.3333333333333</ele><time>2026-04-17T09:40:32.759Z</time></trkpt><trkpt lat="40.7580857" lon="-3.7977243"><ele>937.6666666666666</ele><time>2026-04-17T09:40:33.759Z</time></trkpt><trkpt lat="40.7581489" lon="-3.7977822"><ele>938.0</ele><time>2026-04-17T09:40:34.76Z</time></trkpt><trkpt lat="40.7582107" lon="-3.7978459"><ele>938.3333333333333</ele><time>2026-04-17T09:40:35.759Z</time></trkpt><trkpt lat="40.7582768" lon="-3.7979086"><ele>938.6666666666666</ele><time>2026-04-17T09:40:36.759Z</time></trkpt><trkpt lat="40.7583436" lon="-3.7979656"><ele>939.0</ele><time>2026-04-17T09:40:37.759Z</time></trkpt><trkpt lat="40.7584017" lon="-3.7980029"><ele>939.0</ele><time>2026-04-17T09:40:38.76Z</time></trkpt><trkpt lat="40.758501" lon="-3.7980857"><ele>939.0000000000001</ele><time>2026-04-17T09:40:40.759Z</time></trkpt><trkpt lat="40.7585908" lon="-3.7981804"><ele>939.0000000000001</ele><time>2026-04-17T09:40:42.76Z</time></trkpt><trkpt lat="40.7586373" lon="-3.7982389"><ele>939.0</ele><time>2026-04-17T09:40:43.759Z</time></trkpt><trkpt lat="40.7587192" lon="-3.798363"><ele>939.0</ele><time>2026-04-17T09:40:45.76Z</time></trkpt><trkpt lat="40.7587985" lon="-3.7985"><ele>939.6</ele><time>2026-04-17T09:40:47.759Z</time></trkpt><trkpt lat="40.7588418" lon="-3.7985882"><ele>940.2</ele><time>2026-04-17T09:40:48.759Z</time></trkpt><trkpt lat="40.7588903" lon="-3.7986849"><ele>940.8000000000001</ele><time>2026-04-17T09:40:49.759Z</time></trkpt><trkpt lat="40.7589466" lon="-3.7987837"><ele>941.4000000000001</ele><time>2026-04-17T09:40:50.76Z</time></trkpt><trkpt lat="40.7590083" lon="-3.7988845"><ele>942.0</ele><time>2026-04-17T09:40:51.76Z</time></trkpt><trkpt lat="40.7590678" lon="-3.7989789"><ele>942.0</ele><time>2026-04-17T09:40:52.76Z</time></trkpt><trkpt lat="40.7591222" lon="-3.7990673"><ele>942.0</ele><time>2026-04-17T09:40:53.759Z</time></trkpt><trkpt lat="40.7591873" lon="-3.7991527"><ele>942.0</ele><time>2026-04-17T09:40:54.76Z</time></trkpt><trkpt lat="40.7592569" lon="-3.7992294"><ele>942.0</ele><time>2026-04-17T09:40:55.759Z</time></trkpt><trkpt lat="40.7593374" lon="-3.799307"><ele>942.0</ele><time>2026-04-17T09:40:56.76Z</time></trkpt><trkpt lat="40.7594205" lon="-3.7993796"><ele>943.0</ele><time>2026-04-17T09:40:57.759Z</time></trkpt><trkpt lat="40.7595029" lon="-3.7994596"><ele>944.0</ele><time>2026-04-17T09:40:58.759Z</time></trkpt><trkpt lat="40.7595902" lon="-3.7995377"><ele>945.0</ele><time>2026-04-17T09:40:59.759Z</time></trkpt><trkpt lat="40.759681" lon="-3.7996098"><ele>946.0</ele><time>2026-04-17T09:41:00.76Z</time></trkpt><trkpt lat="40.7597759" lon="-3.7996774"><ele>947.0</ele><time>2026-04-17T09:41:01.759Z</time></trkpt><trkpt lat="40.7598688" lon="-3.7997361"><ele>947.0000000000001</ele><time>2026-04-17T09:41:02.76Z</time></trkpt><trkpt lat="40.7599567" lon="-3.7997897"><ele>947.0</ele><time>2026-04-17T09:41:03.76Z</time></trkpt><trkpt lat="40.7600427" lon="-3.7998406"><ele>947.0</ele><time>2026-04-17T09:41:04.76Z</time></trkpt><trkpt lat="40.7601211" lon="-3.7998936"><ele>947.0</ele><time>2026-04-17T09:41:05.76Z</time></trkpt><trkpt lat="40.7601846" lon="-3.7999392"><ele>947.0000000000001</ele><time>2026-04-17T09:41:06.76Z</time></trkpt><trkpt lat="40.7602505" lon="-3.7999804"><ele>947.0</ele><time>2026-04-17T09:41:07.759Z</time></trkpt><trkpt lat="40.7603146" lon="-3.8000308"><ele>947.2</ele><time>2026-04-17T09:41:08.759Z</time></trkpt><trkpt lat="40.7603917" lon="-3.8000921"><ele>947.4000000000001</ele><time>2026-04-17T09:41:09.759Z</time></trkpt><trkpt lat="40.7604744" lon="-3.800167"><ele>947.5999999999999</ele><time>2026-04-17T09:41:10.759Z</time></trkpt><trkpt lat="40.7605559" lon="-3.8002313"><ele>947.8</ele><time>2026-04-17T09:41:11.758Z</time></trkpt><trkpt lat="40.7606415" lon="-3.8002914"><ele>948.0</ele><time>2026-04-17T09:41:12.759Z</time></trkpt><trkpt lat="40.760727" lon="-3.8003589"><ele>948.2</ele><time>2026-04-17T09:41:13.758Z</time></trkpt><trkpt lat="40.7608153" lon="-3.8004292"><ele>948.4</ele><time>2026-04-17T09:41:14.759Z</time></trkpt><trkpt lat="40.760898" lon="-3.800502"><ele>948.6000000000001</ele><time>2026-04-17T09:41:15.759Z</time></trkpt><trkpt lat="40.7609869" lon="-3.800567"><ele>948.8000000000001</ele><time>2026-04-17T09:41:16.759Z</time></trkpt><trkpt lat="40.7610774" lon="-3.8006325"><ele>949.0</ele><time>2026-04-17T09:41:17.759Z</time></trkpt><trkpt lat="40.761161" lon="-3.8006976"><ele>949.0</ele><time>2026-04-17T09:41:18.759Z</time></trkpt><trkpt lat="40.7612432" lon="-3.8007571"><ele>949.0000000000001</ele><time>2026-04-17T09:41:19.759Z</time></trkpt><trkpt lat="40.7613224" lon="-3.8008157"><ele>949.0000000000001</ele><time>2026-04-17T09:41:20.759Z</time></trkpt><trkpt lat="40.7614042" lon="-3.8008701"><ele>949.0</ele><time>2026-04-17T09:41:21.758Z</time></trkpt><trkpt lat="40.7614906" lon="-3.8009212"><ele>949.0</ele><time>2026-04-17T09:41:22.758Z</time></trkpt><trkpt lat="40.7615832" lon="-3.8009826"><ele>950.0</ele><time>2026-04-17T09:41:23.758Z</time></trkpt><trkpt lat="40.7616679" lon="-3.8010513"><ele>951.0000000000001</ele><time>2026-04-17T09:41:24.759Z</time></trkpt><trkpt lat="40.7617556" lon="-3.8011194"><ele>952.0000000000001</ele><time>2026-04-17T09:41:25.758Z</time></trkpt><trkpt lat="40.7618335" lon="-3.8011827"><ele>953.0</ele><time>2026-04-17T09:41:26.758Z</time></trkpt><trkpt lat="40.7619146" lon="-3.8012487"><ele>954.0</ele><time>2026-04-17T09:41:27.759Z</time></trkpt><trkpt lat="40.7619961" lon="-3.8013176"><ele>954.4000000000001</ele><time>2026-04-17T09:41:28.759Z</time></trkpt><trkpt lat="40.7620796" lon="-3.8013835"><ele>954.8000000000001</ele><time>2026-04-17T09:41:29.759Z</time></trkpt><trkpt lat="40.7621657" lon="-3.8014475"><ele>955.1999999999999</ele><time>2026-04-17T09:41:30.759Z</time></trkpt><trkpt lat="40.7622516" lon="-3.8015201"><ele>955.5999999999999</ele><time>2026-04-17T09:41:31.758Z</time></trkpt><trkpt lat="40.762342" lon="-3.8015976"><ele>956.0</ele><time>2026-04-17T09:41:32.758Z</time></trkpt><trkpt lat="40.762431" lon="-3.8016787"><ele>956.0</ele><time>2026-04-17T09:41:33.758Z</time></trkpt><trkpt lat="40.7625166" lon="-3.8017694"><ele>955.9999999999999</ele><time>2026-04-17T09:41:34.758Z</time></trkpt><trkpt lat="40.7625973" lon="-3.8018582"><ele>955.9999999999999</ele><time>2026-04-17T09:41:35.758Z</time></trkpt><trkpt lat="40.7626747" lon="-3.8019289"><ele>956.0</ele><time>2026-04-17T09:41:36.759Z</time></trkpt><trkpt lat="40.7627445" lon="-3.802004"><ele>956.0</ele><time>2026-04-17T09:41:37.759Z</time></trkpt><trkpt lat="40.7628128" lon="-3.8020791"><ele>957.4</ele><time>2026-04-17T09:41:38.758Z</time></trkpt><trkpt lat="40.7628787" lon="-3.8021614"><ele>958.8</ele><time>2026-04-17T09:41:39.759Z</time></trkpt><trkpt lat="40.7629507" lon="-3.802236"><ele>960.1999999999999</ele><time>2026-04-17T09:41:40.758Z</time></trkpt><trkpt lat="40.7630321" lon="-3.8023165"><ele>961.5999999999999</ele><time>2026-04-17T09:41:41.758Z</time></trkpt><trkpt lat="40.7631115" lon="-3.802399"><ele>963.0</ele><time>2026-04-17T09:41:42.759Z</time></trkpt><trkpt lat="40.7631958" lon="-3.8024836"><ele>963.0</ele><time>2026-04-17T09:41:43.759Z</time></trkpt><trkpt lat="40.7632779" lon="-3.8025679"><ele>963.0</ele><time>2026-04-17T09:41:44.758Z</time></trkpt><trkpt lat="40.763358" lon="-3.8026507"><ele>963.0</ele><time>2026-04-17T09:41:45.758Z</time></trkpt><trkpt lat="40.7634367" lon="-3.8027376"><ele>963.0</ele><time>2026-04-17T09:41:46.759Z</time></trkpt><trkpt lat="40.7635139" lon="-3.8028278"><ele>963.0</ele><time>2026-04-17T09:41:47.759Z</time></trkpt><trkpt lat="40.7635867" lon="-3.8029336"><ele>963.8</ele><time>2026-04-17T09:41:48.759Z</time></trkpt><trkpt lat="40.763663" lon="-3.8030436"><ele>964.5999999999999</ele><time>2026-04-17T09:41:49.758Z</time></trkpt><trkpt lat="40.7637394" lon="-3.8031501"><ele>965.4000000000001</ele><time>2026-04-17T09:41:50.759Z</time></trkpt><trkpt lat="40.7638092" lon="-3.8032591"><ele>966.2</ele><time>2026-04-17T09:41:51.758Z</time></trkpt><trkpt lat="40.7638816" lon="-3.8033543"><ele>967.0</ele><time>2026-04-17T09:41:52.759Z</time></trkpt><trkpt lat="40.7639514" lon="-3.8034498"><ele>967.1666666666666</ele><time>2026-04-17T09:41:53.759Z</time></trkpt><trkpt lat="40.7640164" lon="-3.8035461"><ele>967.3333333333333</ele><time>2026-04-17T09:41:54.758Z</time></trkpt><trkpt lat="40.7640764" lon="-3.8036343"><ele>967.5</ele><time>2026-04-17T09:41:55.759Z</time></trkpt><trkpt lat="40.7641311" lon="-3.803715"><ele>967.6666666666667</ele><time>2026-04-17T09:41:56.758Z</time></trkpt><trkpt lat="40.7641774" lon="-3.8037893"><ele>967.8333333333334</ele><time>2026-04-17T09:41:57.758Z</time></trkpt><trkpt lat="40.7642292" lon="-3.803859"><ele>968.0</ele><time>2026-04-17T09:41:58.759Z</time></trkpt><trkpt lat="40.7642898" lon="-3.8039106"><ele>968.0000000000001</ele><time>2026-04-17T09:41:59.759Z</time></trkpt><trkpt lat="40.7643564" lon="-3.8039564"><ele>968.0</ele><time>2026-04-17T09:42:00.758Z</time></trkpt><trkpt lat="40.7644357" lon="-3.803989"><ele>968.0</ele><time>2026-04-17T09:42:01.759Z</time></trkpt><trkpt lat="40.7645172" lon="-3.8040067"><ele>968.0</ele><time>2026-04-17T09:42:02.758Z</time></trkpt><trkpt lat="40.7645949" lon="-3.8040004"><ele>968.0000000000001</ele><time>2026-04-17T09:42:03.758Z</time></trkpt><trkpt lat="40.7646731" lon="-3.8039765"><ele>968.0</ele><time>2026-04-17T09:42:04.758Z</time></trkpt><trkpt lat="40.7647604" lon="-3.8039295"><ele>969.8</ele><time>2026-04-17T09:42:05.758Z</time></trkpt><trkpt lat="40.7648521" lon="-3.8038811"><ele>971.5999999999999</ele><time>2026-04-17T09:42:06.758Z</time></trkpt><trkpt lat="40.7649348" lon="-3.8038505"><ele>973.4000000000001</ele><time>2026-04-17T09:42:07.758Z</time></trkpt><trkpt lat="40.7650213" lon="-3.8038298"><ele>975.2</ele><time>2026-04-17T09:42:08.758Z</time></trkpt><trkpt lat="40.7651108" lon="-3.8038236"><ele>977.0</ele><time>2026-04-17T09:42:09.758Z</time></trkpt><trkpt lat="40.7652004" lon="-3.8038212"><ele>977.6666666666667</ele><time>2026-04-17T09:42:10.758Z</time></trkpt><trkpt lat="40.7652856" lon="-3.8038215"><ele>978.3333333333334</ele><time>2026-04-17T09:42:11.759Z</time></trkpt><trkpt lat="40.7653673" lon="-3.8038358"><ele>979.0</ele><time>2026-04-17T09:42:12.759Z</time></trkpt><trkpt lat="40.7654497" lon="-3.8038574"><ele>979.6666666666667</ele><time>2026-04-17T09:42:13.758Z</time></trkpt><trkpt lat="40.7655363" lon="-3.8038816"><ele>980.3333333333334</ele><time>2026-04-17T09:42:14.758Z</time></trkpt><trkpt lat="40.7656196" lon="-3.8039126"><ele>981.0</ele><time>2026-04-17T09:42:15.758Z</time></trkpt><trkpt lat="40.7656846" lon="-3.8039596"><ele>981.0</ele><time>2026-04-17T09:42:16.758Z</time></trkpt><trkpt lat="40.7657265" lon="-3.804047"><ele>980.9999999999999</ele><time>2026-04-17T09:42:17.758Z</time></trkpt><trkpt lat="40.7657673" lon="-3.8041492"><ele>980.9999999999999</ele><time>2026-04-17T09:42:18.758Z</time></trkpt><trkpt lat="40.7658081" lon="-3.8042708"><ele>981.0</ele><time>2026-04-17T09:42:19.759Z</time></trkpt><trkpt lat="40.7658613" lon="-3.8043895"><ele>981.0</ele><time>2026-04-17T09:42:20.759Z</time></trkpt><trkpt lat="40.7659226" lon="-3.8045002"><ele>981.0</ele><time>2026-04-17T09:42:21.759Z</time></trkpt><trkpt lat="40.7659709" lon="-3.804609"><ele>981.0</ele><time>2026-04-17T09:42:22.758Z</time></trkpt><trkpt lat="40.76601" lon="-3.8047122"><ele>981.0</ele><time>2026-04-17T09:42:23.759Z</time></trkpt><trkpt lat="40.7660417" lon="-3.8048006"><ele>981.0</ele><time>2026-04-17T09:42:24.758Z</time></trkpt><trkpt lat="40.7660682" lon="-3.804885"><ele>981.0</ele><time>2026-04-17T09:42:25.758Z</time></trkpt><trkpt lat="40.7660997" lon="-3.8049587"><ele>981.0</ele><time>2026-04-17T09:42:26.759Z</time></trkpt><trkpt lat="40.7661516" lon="-3.8050291"><ele>981.8333333333334</ele><time>2026-04-17T09:42:27.758Z</time></trkpt><trkpt lat="40.7662036" lon="-3.8051035"><ele>982.6666666666667</ele><time>2026-04-17T09:42:28.758Z</time></trkpt><trkpt lat="40.7662512" lon="-3.8051637"><ele>983.5</ele><time>2026-04-17T09:42:29.759Z</time></trkpt><trkpt lat="40.7663071" lon="-3.8052142"><ele>984.3333333333334</ele><time>2026-04-17T09:42:30.758Z</time></trkpt><trkpt lat="40.7663676" lon="-3.8053235"><ele>985.1666666666667</ele><time>2026-04-17T09:42:32.759Z</time></trkpt><trkpt lat="40.7663528" lon="-3.8054061"><ele>986.0</ele><time>2026-04-17T09:42:33.758Z</time></trkpt><trkpt lat="40.766323" lon="-3.8055134"><ele>986.4</ele><time>2026-04-17T09:42:34.758Z</time></trkpt><trkpt lat="40.7662801" lon="-3.8056292"><ele>986.8</ele><time>2026-04-17T09:42:35.759Z</time></trkpt><trkpt lat="40.7662313" lon="-3.8057517"><ele>987.1999999999999</ele><time>2026-04-17T09:42:36.759Z</time></trkpt><trkpt lat="40.7661837" lon="-3.8058856"><ele>987.5999999999999</ele><time>2026-04-17T09:42:37.758Z</time></trkpt><trkpt lat="40.7661295" lon="-3.8060242"><ele>988.0</ele><time>2026-04-17T09:42:38.758Z</time></trkpt><trkpt lat="40.7660768" lon="-3.8061548"><ele>987.8</ele><time>2026-04-17T09:42:39.758Z</time></trkpt><trkpt lat="40.7660316" lon="-3.8062918"><ele>987.5999999999999</ele><time>2026-04-17T09:42:40.758Z</time></trkpt><trkpt lat="40.7659904" lon="-3.806422"><ele>987.4000000000001</ele><time>2026-04-17T09:42:41.758Z</time></trkpt><trkpt lat="40.7659487" lon="-3.8065582"><ele>987.2</ele><time>2026-04-17T09:42:42.759Z</time></trkpt><trkpt lat="40.7659091" lon="-3.8067028"><ele>987.0</ele><time>2026-04-17T09:42:43.758Z</time></trkpt><trkpt lat="40.7658652" lon="-3.8068506"><ele>987.0</ele><time>2026-04-17T09:42:44.758Z</time></trkpt><trkpt lat="40.7658126" lon="-3.8069971"><ele>987.0</ele><time>2026-04-17T09:42:45.758Z</time></trkpt><trkpt lat="40.7657622" lon="-3.8071371"><ele>987.0</ele><time>2026-04-17T09:42:46.758Z</time></trkpt><trkpt lat="40.7657207" lon="-3.80728"><ele>987.0</ele><time>2026-04-17T09:42:47.758Z</time></trkpt><trkpt lat="40.7656891" lon="-3.8074223"><ele>987.0</ele><time>2026-04-17T09:42:48.758Z</time></trkpt><trkpt lat="40.7656633" lon="-3.8075569"><ele>987.0</ele><time>2026-04-17T09:42:49.758Z</time></trkpt><trkpt lat="40.7656455" lon="-3.8076878"><ele>987.0</ele><time>2026-04-17T09:42:50.759Z</time></trkpt><trkpt lat="40.7656267" lon="-3.8078197"><ele>987.0</ele><time>2026-04-17T09:42:51.758Z</time></trkpt><trkpt lat="40.7656035" lon="-3.8079393"><ele>987.0</ele><time>2026-04-17T09:42:52.758Z</time></trkpt><trkpt lat="40.7655866" lon="-3.8080596"><ele>987.6666666666666</ele><time>2026-04-17T09:42:53.758Z</time></trkpt><trkpt lat="40.7655813" lon="-3.8081896"><ele>988.3333333333333</ele><time>2026-04-17T09:42:54.758Z</time></trkpt><trkpt lat="40.765592" lon="-3.8083227"><ele>989.0</ele><time>2026-04-17T09:42:55.759Z</time></trkpt><trkpt lat="40.7656007" lon="-3.808443"><ele>989.6666666666666</ele><time>2026-04-17T09:42:56.759Z</time></trkpt><trkpt lat="40.7656209" lon="-3.8085438"><ele>990.3333333333333</ele><time>2026-04-17T09:42:57.758Z</time></trkpt><trkpt lat="40.7656454" lon="-3.808632"><ele>991.0</ele><time>2026-04-17T09:42:58.758Z</time></trkpt><trkpt lat="40.7656761" lon="-3.8087231"><ele>991.8</ele><time>2026-04-17T09:42:59.758Z</time></trkpt><trkpt lat="40.7657044" lon="-3.8088064"><ele>992.5999999999999</ele><time>2026-04-17T09:43:00.759Z</time></trkpt><trkpt lat="40.7657369" lon="-3.8088811"><ele>993.4</ele><time>2026-04-17T09:43:01.758Z</time></trkpt><trkpt lat="40.76582" lon="-3.8089887"><ele>994.2</ele><time>2026-04-17T09:43:03.758Z</time></trkpt><trkpt lat="40.7659078" lon="-3.809096"><ele>995.0</ele><time>2026-04-17T09:43:05.758Z</time></trkpt><trkpt lat="40.7660042" lon="-3.8092274"><ele>995.6</ele><time>2026-04-17T09:43:07.759Z</time></trkpt><trkpt lat="40.7660567" lon="-3.8093126"><ele>996.2</ele><time>2026-04-17T09:43:08.758Z</time></trkpt><trkpt lat="40.7661167" lon="-3.8093994"><ele>996.8</ele><time>2026-04-17T09:43:09.758Z</time></trkpt><trkpt lat="40.7661792" lon="-3.8094838"><ele>997.4</ele><time>2026-04-17T09:43:10.758Z</time></trkpt><trkpt lat="40.7662465" lon="-3.8095746"><ele>998.0</ele><time>2026-04-17T09:43:11.759Z</time></trkpt><trkpt lat="40.7663109" lon="-3.8096616"><ele>998.4</ele><time>2026-04-17T09:43:12.758Z</time></trkpt><trkpt lat="40.766377" lon="-3.8097445"><ele>998.8</ele><time>2026-04-17T09:43:13.759Z</time></trkpt><trkpt lat="40.7664444" lon="-3.8098246"><ele>999.2</ele><time>2026-04-17T09:43:14.759Z</time></trkpt><trkpt lat="40.7665063" lon="-3.8099072"><ele>999.6</ele><time>2026-04-17T09:43:15.758Z</time></trkpt><trkpt lat="40.7665676" lon="-3.8099971"><ele>1000.0</ele><time>2026-04-17T09:43:16.758Z</time></trkpt><trkpt lat="40.7666276" lon="-3.8101047"><ele>1000.5</ele><time>2026-04-17T09:43:17.759Z</time></trkpt><trkpt lat="40.7666843" lon="-3.8102427"><ele>1001.0</ele><time>2026-04-17T09:43:18.758Z</time></trkpt><trkpt lat="40.7667206" lon="-3.8103905"><ele>1001.5</ele><time>2026-04-17T09:43:19.758Z</time></trkpt><trkpt lat="40.7667513" lon="-3.8105563"><ele>1002.0</ele><time>2026-04-17T09:43:20.758Z</time></trkpt><trkpt lat="40.7667836" lon="-3.8107226"><ele>1002.0</ele><time>2026-04-17T09:43:21.758Z</time></trkpt><trkpt lat="40.7668128" lon="-3.8109064"><ele>1002.0</ele><time>2026-04-17T09:43:22.759Z</time></trkpt><trkpt lat="40.766842" lon="-3.8110983"><ele>1002.0</ele><time>2026-04-17T09:43:23.758Z</time></trkpt><trkpt lat="40.7668717" lon="-3.8112792"><ele>1002.0</ele><time>2026-04-17T09:43:24.758Z</time></trkpt><trkpt lat="40.7668998" lon="-3.8114654"><ele>1004.6666666666667</ele><time>2026-04-17T09:43:25.759Z</time></trkpt><trkpt lat="40.7669151" lon="-3.8116591"><ele>1007.3333333333334</ele><time>2026-04-17T09:43:26.758Z</time></trkpt><trkpt lat="40.7669252" lon="-3.811864"><ele>1010.0</ele><time>2026-04-17T09:43:27.758Z</time></trkpt><trkpt lat="40.7669327" lon="-3.8120664"><ele>1010.5</ele><time>2026-04-17T09:43:28.759Z</time></trkpt><trkpt lat="40.7669443" lon="-3.8122548"><ele>1011.0</ele><time>2026-04-17T09:43:29.758Z</time></trkpt><trkpt lat="40.7669442" lon="-3.812437"><ele>1011.5</ele><time>2026-04-17T09:43:30.759Z</time></trkpt><trkpt lat="40.7669429" lon="-3.8126071"><ele>1012.0</ele><time>2026-04-17T09:43:31.759Z</time></trkpt><trkpt lat="40.7669413" lon="-3.8127583"><ele>1012.0</ele><time>2026-04-17T09:43:32.759Z</time></trkpt><trkpt lat="40.7669437" lon="-3.8129066"><ele>1012.0</ele><time>2026-04-17T09:43:33.758Z</time></trkpt><trkpt lat="40.7669506" lon="-3.8130528"><ele>1012.0</ele><time>2026-04-17T09:43:34.758Z</time></trkpt><trkpt lat="40.7669717" lon="-3.8131909"><ele>1012.0</ele><time>2026-04-17T09:43:35.758Z</time></trkpt><trkpt lat="40.7670093" lon="-3.8133161"><ele>1012.0</ele><time>2026-04-17T09:43:36.759Z</time></trkpt><trkpt lat="40.7670555" lon="-3.8134371"><ele>1011.9999999999999</ele><time>2026-04-17T09:43:37.758Z</time></trkpt><trkpt lat="40.7671002" lon="-3.8135458"><ele>1012.0</ele><time>2026-04-17T09:43:38.759Z</time></trkpt><trkpt lat="40.7671474" lon="-3.8136369"><ele>1012.0</ele><time>2026-04-17T09:43:39.758Z</time></trkpt><trkpt lat="40.7671949" lon="-3.8137171"><ele>1012.0</ele><time>2026-04-17T09:43:40.758Z</time></trkpt><trkpt lat="40.767246" lon="-3.8137865"><ele>1011.9999999999999</ele><time>2026-04-17T09:43:41.758Z</time></trkpt><trkpt lat="40.7673052" lon="-3.8138488"><ele>1012.0</ele><time>2026-04-17T09:43:42.759Z</time></trkpt><trkpt lat="40.767386" lon="-3.8139016"><ele>1012.0</ele><time>2026-04-17T09:43:43.758Z</time></trkpt><trkpt lat="40.7674823" lon="-3.8139421"><ele>1012.0</ele><time>2026-04-17T09:43:44.759Z</time></trkpt><trkpt lat="40.7675899" lon="-3.8139813"><ele>1012.0</ele><time>2026-04-17T09:43:45.758Z</time></trkpt><trkpt lat="40.7676966" lon="-3.8140202"><ele>1012.0</ele><time>2026-04-17T09:43:46.759Z</time></trkpt><trkpt lat="40.7677944" lon="-3.8140735"><ele>1012.0</ele><time>2026-04-17T09:43:47.759Z</time></trkpt><trkpt lat="40.7678818" lon="-3.8141433"><ele>1012.6666666666666</ele><time>2026-04-17T09:43:48.758Z</time></trkpt><trkpt lat="40.7679517" lon="-3.8142334"><ele>1013.3333333333333</ele><time>2026-04-17T09:43:49.759Z</time></trkpt><trkpt lat="40.7680073" lon="-3.8143078"><ele>1014.0</ele><time>2026-04-17T09:43:50.758Z</time></trkpt><trkpt lat="40.7680544" lon="-3.8143742"><ele>1014.6666666666667</ele><time>2026-04-17T09:43:51.759Z</time></trkpt><trkpt lat="40.7681036" lon="-3.8144355"><ele>1015.3333333333334</ele><time>2026-04-17T09:43:52.759Z</time></trkpt><trkpt lat="40.7681899" lon="-3.8145159"><ele>1016.0</ele><time>2026-04-17T09:43:54.758Z</time></trkpt><trkpt lat="40.7682619" lon="-3.8144606"><ele>1016.0000000000001</ele><time>2026-04-17T09:43:56.758Z</time></trkpt><trkpt lat="40.7683087" lon="-3.814329"><ele>1016.0</ele><time>2026-04-17T09:43:58.759Z</time></trkpt><trkpt lat="40.7683109" lon="-3.8142426"><ele>1016.0</ele><time>2026-04-17T09:43:59.758Z</time></trkpt><trkpt lat="40.7683215" lon="-3.8141297"><ele>1016.0</ele><time>2026-04-17T09:44:00.758Z</time></trkpt><trkpt lat="40.7683287" lon="-3.8140108"><ele>1016.0000000000001</ele><time>2026-04-17T09:44:01.759Z</time></trkpt><trkpt lat="40.7683262" lon="-3.8138863"><ele>1016.0</ele><time>2026-04-17T09:44:02.758Z</time></trkpt><trkpt lat="40.7683103" lon="-3.813781"><ele>1016.0000000000001</ele><time>2026-04-17T09:44:03.758Z</time></trkpt><trkpt lat="40.7683097" lon="-3.8136952"><ele>1016.0</ele><time>2026-04-17T09:44:04.758Z</time></trkpt><trkpt lat="40.7683515" lon="-3.8135481"><ele>1016.0</ele><time>2026-04-17T09:44:06.759Z</time></trkpt><trkpt lat="40.7683875" lon="-3.8134745"><ele>1016.0</ele><time>2026-04-17T09:44:07.758Z</time></trkpt><trkpt lat="40.7684414" lon="-3.8134289"><ele>1016.0000000000001</ele><time>2026-04-17T09:44:08.759Z</time></trkpt><trkpt lat="40.7685144" lon="-3.8133891"><ele>1016.0</ele><time>2026-04-17T09:44:09.758Z</time></trkpt><trkpt lat="40.7685877" lon="-3.8133287"><ele>1016.5999999999999</ele><time>2026-04-17T09:44:10.758Z</time></trkpt><trkpt lat="40.7686714" lon="-3.8132774"><ele>1017.1999999999999</ele><time>2026-04-17T09:44:11.759Z</time></trkpt><trkpt lat="40.7687538" lon="-3.8132186"><ele>1017.8000000000001</ele><time>2026-04-17T09:44:12.759Z</time></trkpt><trkpt lat="40.7688374" lon="-3.813149"><ele>1018.4000000000001</ele><time>2026-04-17T09:44:13.758Z</time></trkpt><trkpt lat="40.7689265" lon="-3.8130639"><ele>1019.0</ele><time>2026-04-17T09:44:14.758Z</time></trkpt><trkpt lat="40.7690197" lon="-3.8129754"><ele>1019.0</ele><time>2026-04-17T09:44:15.759Z</time></trkpt><trkpt lat="40.7691024" lon="-3.8128919"><ele>1019.0000000000001</ele><time>2026-04-17T09:44:16.758Z</time></trkpt><trkpt lat="40.7691866" lon="-3.8128029"><ele>1019.0000000000001</ele><time>2026-04-17T09:44:17.759Z</time></trkpt><trkpt lat="40.769265" lon="-3.8127084"><ele>1019.0</ele><time>2026-04-17T09:44:18.758Z</time></trkpt><trkpt lat="40.769334" lon="-3.8126044"><ele>1019.0</ele><time>2026-04-17T09:44:19.758Z</time></trkpt><trkpt lat="40.769391" lon="-3.8124937"><ele>1021.4000000000001</ele><time>2026-04-17T09:44:20.758Z</time></trkpt><trkpt lat="40.7694449" lon="-3.8123801"><ele>1023.8000000000001</ele><time>2026-04-17T09:44:21.758Z</time></trkpt><trkpt lat="40.7694982" lon="-3.8122603"><ele>1026.1999999999998</ele><time>2026-04-17T09:44:22.759Z</time></trkpt><trkpt lat="40.7695367" lon="-3.8121379"><ele>1028.6</ele><time>2026-04-17T09:44:23.758Z</time></trkpt><trkpt lat="40.7695733" lon="-3.8120208"><ele>1031.0</ele><time>2026-04-17T09:44:24.758Z</time></trkpt><trkpt lat="40.7696114" lon="-3.8118991"><ele>1030.3999999999999</ele><time>2026-04-17T09:44:25.758Z</time></trkpt><trkpt lat="40.7696432" lon="-3.8117767"><ele>1029.8</ele><time>2026-04-17T09:44:26.759Z</time></trkpt><trkpt lat="40.7696698" lon="-3.8116535"><ele>1029.1999999999998</ele><time>2026-04-17T09:44:27.759Z</time></trkpt><trkpt lat="40.7697002" lon="-3.8115326"><ele>1028.6</ele><time>2026-04-17T09:44:28.758Z</time></trkpt><trkpt lat="40.7697398" lon="-3.8114145"><ele>1028.0</ele><time>2026-04-17T09:44:29.758Z</time></trkpt><trkpt lat="40.7697929" lon="-3.8113077"><ele>1028.0</ele><time>2026-04-17T09:44:30.759Z</time></trkpt><trkpt lat="40.7698441" lon="-3.8112142"><ele>1028.0</ele><time>2026-04-17T09:44:31.758Z</time></trkpt><trkpt lat="40.7699048" lon="-3.811146"><ele>1028.0</ele><time>2026-04-17T09:44:32.758Z</time></trkpt><trkpt lat="40.7699656" lon="-3.8110919"><ele>1028.0</ele><time>2026-04-17T09:44:33.758Z</time></trkpt><trkpt lat="40.7700329" lon="-3.8110594"><ele>1028.0</ele><time>2026-04-17T09:44:34.758Z</time></trkpt><trkpt lat="40.7701042" lon="-3.8110518"><ele>1028.0</ele><time>2026-04-17T09:44:35.758Z</time></trkpt><trkpt lat="40.770177" lon="-3.8110721"><ele>1029.3333333333335</ele><time>2026-04-17T09:44:36.758Z</time></trkpt><trkpt lat="40.7702389" lon="-3.8111167"><ele>1030.6666666666667</ele><time>2026-04-17T09:44:37.758Z</time></trkpt><trkpt lat="40.7703074" lon="-3.8111734"><ele>1032.0</ele><time>2026-04-17T09:44:38.759Z</time></trkpt><trkpt lat="40.770384" lon="-3.8112261"><ele>1033.3333333333333</ele><time>2026-04-17T09:44:39.759Z</time></trkpt><trkpt lat="40.7704702" lon="-3.811281"><ele>1034.6666666666665</ele><time>2026-04-17T09:44:40.758Z</time></trkpt><trkpt lat="40.7705704" lon="-3.8113418"><ele>1036.0</ele><time>2026-04-17T09:44:41.758Z</time></trkpt><trkpt lat="40.7706725" lon="-3.8114151"><ele>1036.0</ele><time>2026-04-17T09:44:42.759Z</time></trkpt><trkpt lat="40.7707657" lon="-3.8114867"><ele>1036.0</ele><time>2026-04-17T09:44:43.759Z</time></trkpt><trkpt lat="40.7708509" lon="-3.8115704"><ele>1036.0</ele><time>2026-04-17T09:44:44.758Z</time></trkpt><trkpt lat="40.7709167" lon="-3.8116597"><ele>1036.0</ele><time>2026-04-17T09:44:45.758Z</time></trkpt><trkpt lat="40.7709613" lon="-3.8117542"><ele>1036.0</ele><time>2026-04-17T09:44:46.759Z</time></trkpt><trkpt lat="40.7710057" lon="-3.8118379"><ele>1037.6666666666665</ele><time>2026-04-17T09:44:47.759Z</time></trkpt><trkpt lat="40.7710725" lon="-3.8119078"><ele>1039.3333333333333</ele><time>2026-04-17T09:44:48.759Z</time></trkpt><trkpt lat="40.771143" lon="-3.8119449"><ele>1041.0</ele><time>2026-04-17T09:44:49.759Z</time></trkpt><trkpt lat="40.7712165" lon="-3.8119534"><ele>1042.6666666666667</ele><time>2026-04-17T09:44:50.758Z</time></trkpt><trkpt lat="40.7712958" lon="-3.8119385"><ele>1044.3333333333335</ele><time>2026-04-17T09:44:51.758Z</time></trkpt><trkpt lat="40.771375" lon="-3.8119097"><ele>1046.0</ele><time>2026-04-17T09:44:52.758Z</time></trkpt><trkpt lat="40.7714498" lon="-3.8118683"><ele>1046.0</ele><time>2026-04-17T09:44:53.758Z</time></trkpt><trkpt lat="40.7715346" lon="-3.8118445"><ele>1046.0</ele><time>2026-04-17T09:44:54.759Z</time></trkpt><trkpt lat="40.7716208" lon="-3.8118206"><ele>1046.0</ele><time>2026-04-17T09:44:55.759Z</time></trkpt><trkpt lat="40.7717134" lon="-3.8118094"><ele>1046.0</ele><time>2026-04-17T09:44:56.759Z</time></trkpt><trkpt lat="40.7718093" lon="-3.8118063"><ele>1046.0</ele><time>2026-04-17T09:44:57.759Z</time></trkpt><trkpt lat="40.7719181" lon="-3.8118068"><ele>1046.3999999999999</ele><time>2026-04-17T09:44:58.758Z</time></trkpt><trkpt lat="40.7720295" lon="-3.8118048"><ele>1046.8</ele><time>2026-04-17T09:44:59.758Z</time></trkpt><trkpt lat="40.7721392" lon="-3.8118194"><ele>1047.1999999999998</ele><time>2026-04-17T09:45:00.758Z</time></trkpt><trkpt lat="40.7722456" lon="-3.8118497"><ele>1047.6</ele><time>2026-04-17T09:45:01.758Z</time></trkpt><trkpt lat="40.7723497" lon="-3.8118912"><ele>1048.0</ele><time>2026-04-17T09:45:02.758Z</time></trkpt><trkpt lat="40.7724599" lon="-3.8119361"><ele>1048.0</ele><time>2026-04-17T09:45:03.759Z</time></trkpt><trkpt lat="40.7725783" lon="-3.8119812"><ele>1048.0</ele><time>2026-04-17T09:45:04.758Z</time></trkpt><trkpt lat="40.7726936" lon="-3.8120155"><ele>1048.0</ele><time>2026-04-17T09:45:05.758Z</time></trkpt><trkpt lat="40.7728121" lon="-3.8120405"><ele>1048.0</ele><time>2026-04-17T09:45:06.758Z</time></trkpt><trkpt lat="40.7729256" lon="-3.8120633"><ele>1048.4</ele><time>2026-04-17T09:45:07.759Z</time></trkpt><trkpt lat="40.7730352" lon="-3.812087"><ele>1048.8</ele><time>2026-04-17T09:45:08.759Z</time></trkpt><trkpt lat="40.7731458" lon="-3.8120979"><ele>1049.2</ele><time>2026-04-17T09:45:09.758Z</time></trkpt><trkpt lat="40.7732542" lon="-3.812092"><ele>1049.6</ele><time>2026-04-17T09:45:10.759Z</time></trkpt><trkpt lat="40.7733643" lon="-3.8120752"><ele>1050.0</ele><time>2026-04-17T09:45:11.758Z</time></trkpt><trkpt lat="40.773477" lon="-3.8120503"><ele>1051.0</ele><time>2026-04-17T09:45:12.758Z</time></trkpt><trkpt lat="40.7735816" lon="-3.8120261"><ele>1052.0</ele><time>2026-04-17T09:45:13.758Z</time></trkpt><trkpt lat="40.7736894" lon="-3.8120036"><ele>1053.0</ele><time>2026-04-17T09:45:14.759Z</time></trkpt><trkpt lat="40.7737918" lon="-3.8119742"><ele>1054.0</ele><time>2026-04-17T09:45:15.758Z</time></trkpt><trkpt lat="40.7738925" lon="-3.8119372"><ele>1055.0</ele><time>2026-04-17T09:45:16.758Z</time></trkpt><trkpt lat="40.7739879" lon="-3.8118942"><ele>1055.0</ele><time>2026-04-17T09:45:17.759Z</time></trkpt><trkpt lat="40.7740867" lon="-3.8118406"><ele>1055.0</ele><time>2026-04-17T09:45:18.758Z</time></trkpt><trkpt lat="40.7741838" lon="-3.811784"><ele>1055.0</ele><time>2026-04-17T09:45:19.759Z</time></trkpt><trkpt lat="40.7742829" lon="-3.811718"><ele>1055.0</ele><time>2026-04-17T09:45:20.758Z</time></trkpt><trkpt lat="40.7743821" lon="-3.8116419"><ele>1055.0</ele><time>2026-04-17T09:45:21.759Z</time></trkpt><trkpt lat="40.7744766" lon="-3.8115591"><ele>1056.75</ele><time>2026-04-17T09:45:22.758Z</time></trkpt><trkpt lat="40.7745767" lon="-3.811482"><ele>1058.5</ele><time>2026-04-17T09:45:23.758Z</time></trkpt><trkpt lat="40.7746827" lon="-3.8114066"><ele>1060.25</ele><time>2026-04-17T09:45:24.758Z</time></trkpt><trkpt lat="40.7747925" lon="-3.8113298"><ele>1062.0</ele><time>2026-04-17T09:45:25.759Z</time></trkpt><trkpt lat="40.7749054" lon="-3.8112435"><ele>1062.0</ele><time>2026-04-17T09:45:26.758Z</time></trkpt><trkpt lat="40.7750079" lon="-3.8111623"><ele>1062.0</ele><time>2026-04-17T09:45:27.759Z</time></trkpt><trkpt lat="40.7751033" lon="-3.8110862"><ele>1062.0</ele><time>2026-04-17T09:45:28.758Z</time></trkpt><trkpt lat="40.7751935" lon="-3.8110254"><ele>1062.0</ele><time>2026-04-17T09:45:29.759Z</time></trkpt><trkpt lat="40.7752823" lon="-3.8109712"><ele>1062.0</ele><time>2026-04-17T09:45:30.759Z</time></trkpt><trkpt lat="40.775368" lon="-3.8109063"><ele>1061.6</ele><time>2026-04-17T09:45:31.758Z</time></trkpt><trkpt lat="40.77546" lon="-3.8108288"><ele>1061.2</ele><time>2026-04-17T09:45:32.758Z</time></trkpt><trkpt lat="40.7755501" lon="-3.8107456"><ele>1060.8</ele><time>2026-04-17T09:45:33.759Z</time></trkpt><trkpt lat="40.7756378" lon="-3.8106515"><ele>1060.4</ele><time>2026-04-17T09:45:34.759Z</time></trkpt><trkpt lat="40.7757158" lon="-3.8105449"><ele>1060.0</ele><time>2026-04-17T09:45:35.758Z</time></trkpt><trkpt lat="40.7757892" lon="-3.8104206"><ele>1060.0</ele><time>2026-04-17T09:45:36.759Z</time></trkpt><trkpt lat="40.7758544" lon="-3.8103056"><ele>1060.0</ele><time>2026-04-17T09:45:37.758Z</time></trkpt><trkpt lat="40.7759241" lon="-3.8101839"><ele>1060.0</ele><time>2026-04-17T09:45:38.758Z</time></trkpt><trkpt lat="40.7759966" lon="-3.8100655"><ele>1060.0</ele><time>2026-04-17T09:45:39.758Z</time></trkpt><trkpt lat="40.7760505" lon="-3.8099458"><ele>1060.0</ele><time>2026-04-17T09:45:40.759Z</time></trkpt><trkpt lat="40.7761074" lon="-3.8098123"><ele>1059.75</ele><time>2026-04-17T09:45:41.759Z</time></trkpt><trkpt lat="40.7761706" lon="-3.8096845"><ele>1059.5</ele><time>2026-04-17T09:45:42.758Z</time></trkpt><trkpt lat="40.7762496" lon="-3.8095622"><ele>1059.25</ele><time>2026-04-17T09:45:43.759Z</time></trkpt><trkpt lat="40.7763354" lon="-3.8094546"><ele>1059.0</ele><time>2026-04-17T09:45:44.758Z</time></trkpt><trkpt lat="40.7764146" lon="-3.8093437"><ele>1058.5</ele><time>2026-04-17T09:45:45.758Z</time></trkpt><trkpt lat="40.7764886" lon="-3.8092209"><ele>1058.0</ele><time>2026-04-17T09:45:46.758Z</time></trkpt><trkpt lat="40.7765562" lon="-3.8090899"><ele>1057.5</ele><time>2026-04-17T09:45:47.758Z</time></trkpt><trkpt lat="40.7766229" lon="-3.8089769"><ele>1057.0</ele><time>2026-04-17T09:45:48.759Z</time></trkpt><trkpt lat="40.7766844" lon="-3.8088594"><ele>1057.0</ele><time>2026-04-17T09:45:49.758Z</time></trkpt><trkpt lat="40.7767404" lon="-3.8087464"><ele>1057.0</ele><time>2026-04-17T09:45:50.758Z</time></trkpt><trkpt lat="40.7767912" lon="-3.8086312"><ele>1057.0</ele><time>2026-04-17T09:45:51.758Z</time></trkpt><trkpt lat="40.7768272" lon="-3.8085247"><ele>1057.0</ele><time>2026-04-17T09:45:52.759Z</time></trkpt><trkpt lat="40.7768615" lon="-3.8084202"><ele>1057.0</ele><time>2026-04-17T09:45:53.758Z</time></trkpt><trkpt lat="40.7768771" lon="-3.8083145"><ele>1056.8</ele><time>2026-04-17T09:45:54.759Z</time></trkpt><trkpt lat="40.7768772" lon="-3.8082044"><ele>1056.6</ele><time>2026-04-17T09:45:55.758Z</time></trkpt><trkpt lat="40.7768882" lon="-3.8080863"><ele>1056.3999999999999</ele><time>2026-04-17T09:45:56.759Z</time></trkpt><trkpt lat="40.7769061" lon="-3.80795"><ele>1056.2</ele><time>2026-04-17T09:45:57.758Z</time></trkpt><trkpt lat="40.7769305" lon="-3.8077972"><ele>1056.0</ele><time>2026-04-17T09:45:58.758Z</time></trkpt><trkpt lat="40.7769841" lon="-3.8076384"><ele>1056.0</ele><time>2026-04-17T09:45:59.759Z</time></trkpt><trkpt lat="40.7770412" lon="-3.8074929"><ele>1056.0</ele><time>2026-04-17T09:46:00.758Z</time></trkpt><trkpt lat="40.7770906" lon="-3.8073439"><ele>1056.0</ele><time>2026-04-17T09:46:01.758Z</time></trkpt><trkpt lat="40.777143" lon="-3.8071775"><ele>1056.0</ele><time>2026-04-17T09:46:02.759Z</time></trkpt><trkpt lat="40.7772041" lon="-3.8070126"><ele>1056.0</ele><time>2026-04-17T09:46:03.758Z</time></trkpt><trkpt lat="40.7772634" lon="-3.8068388"><ele>1056.0</ele><time>2026-04-17T09:46:04.758Z</time></trkpt><trkpt lat="40.7773266" lon="-3.8066586"><ele>1056.0</ele><time>2026-04-17T09:46:05.758Z</time></trkpt><trkpt lat="40.7773993" lon="-3.8064686"><ele>1054.6666666666667</ele><time>2026-04-17T09:46:06.758Z</time></trkpt><trkpt lat="40.7774799" lon="-3.8062723"><ele>1053.3333333333335</ele><time>2026-04-17T09:46:07.758Z</time></trkpt><trkpt lat="40.777553" lon="-3.80609"><ele>1052.0</ele><time>2026-04-17T09:46:08.759Z</time></trkpt><trkpt lat="40.7776176" lon="-3.8059183"><ele>1051.0</ele><time>2026-04-17T09:46:09.758Z</time></trkpt><trkpt lat="40.7776799" lon="-3.8057489"><ele>1050.0</ele><time>2026-04-17T09:46:10.758Z</time></trkpt><trkpt lat="40.7777427" lon="-3.8055886"><ele>1049.0</ele><time>2026-04-17T09:46:11.758Z</time></trkpt><trkpt lat="40.7778047" lon="-3.8054385"><ele>1048.0</ele><time>2026-04-17T09:46:12.759Z</time></trkpt><trkpt lat="40.7778664" lon="-3.805291"><ele>1048.75</ele><time>2026-04-17T09:46:13.758Z</time></trkpt><trkpt lat="40.7779212" lon="-3.8051464"><ele>1049.5</ele><time>2026-04-17T09:46:14.758Z</time></trkpt><trkpt lat="40.7779721" lon="-3.8049991"><ele>1050.25</ele><time>2026-04-17T09:46:15.758Z</time></trkpt><trkpt lat="40.7780223" lon="-3.8048702"><ele>1051.0</ele><time>2026-04-17T09:46:16.758Z</time></trkpt><trkpt lat="40.7780735" lon="-3.8047364"><ele>1051.0</ele><time>2026-04-17T09:46:17.759Z</time></trkpt><trkpt lat="40.7781317" lon="-3.8045975"><ele>1051.0</ele><time>2026-04-17T09:46:18.758Z</time></trkpt><trkpt lat="40.7781892" lon="-3.804458"><ele>1051.0</ele><time>2026-04-17T09:46:19.758Z</time></trkpt><trkpt lat="40.7782447" lon="-3.8043278"><ele>1051.0</ele><time>2026-04-17T09:46:20.758Z</time></trkpt><trkpt lat="40.7783009" lon="-3.8042064"><ele>1050.5</ele><time>2026-04-17T09:46:21.759Z</time></trkpt><trkpt lat="40.7783634" lon="-3.8040784"><ele>1050.0</ele><time>2026-04-17T09:46:22.759Z</time></trkpt><trkpt lat="40.7784142" lon="-3.8039398"><ele>1049.5</ele><time>2026-04-17T09:46:23.759Z</time></trkpt><trkpt lat="40.778469" lon="-3.8038039"><ele>1049.0</ele><time>2026-04-17T09:46:24.758Z</time></trkpt><trkpt lat="40.7785155" lon="-3.8036535"><ele>1050.25</ele><time>2026-04-17T09:46:25.758Z</time></trkpt><trkpt lat="40.778554" lon="-3.8034957"><ele>1051.5</ele><time>2026-04-17T09:46:26.758Z</time></trkpt><trkpt lat="40.7785912" lon="-3.8033517"><ele>1052.75</ele><time>2026-04-17T09:46:27.759Z</time></trkpt><trkpt lat="40.7786239" lon="-3.8032142"><ele>1054.0</ele><time>2026-04-17T09:46:28.758Z</time></trkpt><trkpt lat="40.7786555" lon="-3.8030746"><ele>1054.0</ele><time>2026-04-17T09:46:29.758Z</time></trkpt><trkpt lat="40.7786724" lon="-3.8029307"><ele>1054.0</ele><time>2026-04-17T09:46:30.759Z</time></trkpt><trkpt lat="40.7786752" lon="-3.8027832"><ele>1054.0</ele><time>2026-04-17T09:46:31.758Z</time></trkpt><trkpt lat="40.7786876" lon="-3.8026266"><ele>1054.0</ele><time>2026-04-17T09:46:32.759Z</time></trkpt><trkpt lat="40.778703" lon="-3.8024728"><ele>1053.4</ele><time>2026-04-17T09:46:33.759Z</time></trkpt><trkpt lat="40.7787241" lon="-3.8023383"><ele>1052.8000000000002</ele><time>2026-04-17T09:46:34.758Z</time></trkpt><trkpt lat="40.7787517" lon="-3.8022158"><ele>1052.1999999999998</ele><time>2026-04-17T09:46:35.758Z</time></trkpt><trkpt lat="40.77878" lon="-3.8021066"><ele>1051.6</ele><time>2026-04-17T09:46:36.759Z</time></trkpt><trkpt lat="40.7788172" lon="-3.8019976"><ele>1051.0</ele><time>2026-04-17T09:46:37.758Z</time></trkpt><trkpt lat="40.7788656" lon="-3.8018931"><ele>1050.5</ele><time>2026-04-17T09:46:38.758Z</time></trkpt><trkpt lat="40.7789222" lon="-3.8018017"><ele>1050.0</ele><time>2026-04-17T09:46:39.758Z</time></trkpt><trkpt lat="40.7789684" lon="-3.8017147"><ele>1049.5</ele><time>2026-04-17T09:46:40.759Z</time></trkpt><trkpt lat="40.7789992" lon="-3.8016251"><ele>1049.0</ele><time>2026-04-17T09:46:41.759Z</time></trkpt><trkpt lat="40.7790034" lon="-3.8015283"><ele>1048.5</ele><time>2026-04-17T09:46:42.759Z</time></trkpt><trkpt lat="40.7789814" lon="-3.801439"><ele>1048.0</ele><time>2026-04-17T09:46:43.759Z</time></trkpt><trkpt lat="40.7789698" lon="-3.8013522"><ele>1048.0</ele><time>2026-04-17T09:46:44.759Z</time></trkpt><trkpt lat="40.7789657" lon="-3.8012566"><ele>1048.0</ele><time>2026-04-17T09:46:45.759Z</time></trkpt><trkpt lat="40.7789739" lon="-3.8011715"><ele>1048.0</ele><time>2026-04-17T09:46:46.758Z</time></trkpt><trkpt lat="40.7790043" lon="-3.8010949"><ele>1048.0</ele><time>2026-04-17T09:46:47.759Z</time></trkpt><trkpt lat="40.7790979" lon="-3.8010025"><ele>1048.0</ele><time>2026-04-17T09:46:49.759Z</time></trkpt><trkpt lat="40.7791564" lon="-3.8009579"><ele>1048.0</ele><time>2026-04-17T09:46:50.759Z</time></trkpt><trkpt lat="40.7792323" lon="-3.8009091"><ele>1047.2</ele><time>2026-04-17T09:46:51.758Z</time></trkpt><trkpt lat="40.7793148" lon="-3.8008616"><ele>1046.4</ele><time>2026-04-17T09:46:52.758Z</time></trkpt><trkpt lat="40.7793973" lon="-3.8008065"><ele>1045.6000000000001</ele><time>2026-04-17T09:46:53.758Z</time></trkpt><trkpt lat="40.7794804" lon="-3.8007575"><ele>1044.8</ele><time>2026-04-17T09:46:54.759Z</time></trkpt><trkpt lat="40.7795615" lon="-3.8007077"><ele>1044.0</ele><time>2026-04-17T09:46:55.759Z</time></trkpt><trkpt lat="40.7796407" lon="-3.8006408"><ele>1046.2</ele><time>2026-04-17T09:46:56.758Z</time></trkpt><trkpt lat="40.7797176" lon="-3.8005653"><ele>1048.4</ele><time>2026-04-17T09:46:57.758Z</time></trkpt><trkpt lat="40.7797823" lon="-3.8004748"><ele>1050.6</ele><time>2026-04-17T09:46:58.759Z</time></trkpt><trkpt lat="40.7798382" lon="-3.8003943"><ele>1052.8</ele><time>2026-04-17T09:46:59.758Z</time></trkpt><trkpt lat="40.7798863" lon="-3.8002998"><ele>1055.0</ele><time>2026-04-17T09:47:00.758Z</time></trkpt><trkpt lat="40.7799268" lon="-3.8001721"><ele>1054.0</ele><time>2026-04-17T09:47:01.759Z</time></trkpt><trkpt lat="40.7799602" lon="-3.8000397"><ele>1053.0</ele><time>2026-04-17T09:47:02.759Z</time></trkpt><trkpt lat="40.7799865" lon="-3.7999121"><ele>1052.0</ele><time>2026-04-17T09:47:03.759Z</time></trkpt><trkpt lat="40.7800101" lon="-3.7998168"><ele>1051.0</ele><time>2026-04-17T09:47:04.759Z</time></trkpt><trkpt lat="40.7800301" lon="-3.7997138"><ele>1050.0</ele><time>2026-04-17T09:47:05.758Z</time></trkpt><trkpt lat="40.7800385" lon="-3.799624"><ele>1049.0</ele><time>2026-04-17T09:47:06.758Z</time></trkpt><trkpt lat="40.780027" lon="-3.7994739"><ele>1049.0</ele><time>2026-04-17T09:47:08.758Z</time></trkpt><trkpt lat="40.7800118" lon="-3.7993855"><ele>1049.0</ele><time>2026-04-17T09:47:10.758Z</time></trkpt><trkpt lat="40.7800241" lon="-3.7992606"><ele>1049.0</ele><time>2026-04-17T09:47:13.758Z</time></trkpt><trkpt lat="40.7800381" lon="-3.7991565"><ele>1049.0</ele><time>2026-04-17T09:47:15.759Z</time></trkpt><trkpt lat="40.7800316" lon="-3.7989732"><ele>1049.0</ele><time>2026-04-17T09:47:17.759Z</time></trkpt><trkpt lat="40.7800184" lon="-3.798861"><ele>1048.2</ele><time>2026-04-17T09:47:18.759Z</time></trkpt><trkpt lat="40.7800055" lon="-3.7987404"><ele>1047.4</ele><time>2026-04-17T09:47:19.758Z</time></trkpt><trkpt lat="40.7799898" lon="-3.7986102"><ele>1046.6</ele><time>2026-04-17T09:47:20.758Z</time></trkpt><trkpt lat="40.7799726" lon="-3.7984756"><ele>1045.8</ele><time>2026-04-17T09:47:21.758Z</time></trkpt><trkpt lat="40.7799638" lon="-3.7983201"><ele>1045.0</ele><time>2026-04-17T09:47:22.758Z</time></trkpt><trkpt lat="40.7799664" lon="-3.7981642"><ele>1044.8</ele><time>2026-04-17T09:47:23.759Z</time></trkpt><trkpt lat="40.7799569" lon="-3.7980225"><ele>1044.6</ele><time>2026-04-17T09:47:24.759Z</time></trkpt><trkpt lat="40.7799355" lon="-3.7978833"><ele>1044.4</ele><time>2026-04-17T09:47:25.758Z</time></trkpt><trkpt lat="40.7799198" lon="-3.7977431"><ele>1044.2</ele><time>2026-04-17T09:47:26.759Z</time></trkpt><trkpt lat="40.7799084" lon="-3.7976048"><ele>1044.0</ele><time>2026-04-17T09:47:27.758Z</time></trkpt><trkpt lat="40.7799096" lon="-3.7974678"><ele>1043.2</ele><time>2026-04-17T09:47:28.758Z</time></trkpt><trkpt lat="40.7799441" lon="-3.7973487"><ele>1042.4</ele><time>2026-04-17T09:47:29.758Z</time></trkpt><trkpt lat="40.7800031" lon="-3.7972428"><ele>1041.6</ele><time>2026-04-17T09:47:30.758Z</time></trkpt><trkpt lat="40.7800615" lon="-3.7971311"><ele>1040.8</ele><time>2026-04-17T09:47:31.758Z</time></trkpt><trkpt lat="40.7800969" lon="-3.7970101"><ele>1040.0</ele><time>2026-04-17T09:47:32.758Z</time></trkpt><trkpt lat="40.7800996" lon="-3.7969042"><ele>1039.8</ele><time>2026-04-17T09:47:33.758Z</time></trkpt><trkpt lat="40.7799977" lon="-3.7968133"><ele>1039.6</ele><time>2026-04-17T09:47:35.758Z</time></trkpt><trkpt lat="40.7799156" lon="-3.7967678"><ele>1039.4</ele><time>2026-04-17T09:47:36.758Z</time></trkpt><trkpt lat="40.7798284" lon="-3.7967296"><ele>1039.2</ele><time>2026-04-17T09:47:37.758Z</time></trkpt><trkpt lat="40.779742" lon="-3.796684"><ele>1039.0</ele><time>2026-04-17T09:47:38.759Z</time></trkpt><trkpt lat="40.7796713" lon="-3.7966179"><ele>1039.0</ele><time>2026-04-17T09:47:39.758Z</time></trkpt><trkpt lat="40.7796249" lon="-3.7965278"><ele>1039.0</ele><time>2026-04-17T09:47:40.758Z</time></trkpt><trkpt lat="40.7796008" lon="-3.7963931"><ele>1039.0</ele><time>2026-04-17T09:47:41.758Z</time></trkpt><trkpt lat="40.7795829" lon="-3.7962328"><ele>1039.0</ele><time>2026-04-17T09:47:42.759Z</time></trkpt><trkpt lat="40.7795667" lon="-3.7960717"><ele>1039.0</ele><time>2026-04-17T09:47:43.758Z</time></trkpt><trkpt lat="40.7795514" lon="-3.7959229"><ele>1038.8</ele><time>2026-04-17T09:47:44.758Z</time></trkpt><trkpt lat="40.7795439" lon="-3.7957931"><ele>1038.6000000000001</ele><time>2026-04-17T09:47:45.758Z</time></trkpt><trkpt lat="40.7795581" lon="-3.7956701"><ele>1038.4</ele><time>2026-04-17T09:47:46.758Z</time></trkpt><trkpt lat="40.7795913" lon="-3.79555"><ele>1038.2</ele><time>2026-04-17T09:47:47.759Z</time></trkpt><trkpt lat="40.779626" lon="-3.7954266"><ele>1038.0</ele><time>2026-04-17T09:47:48.758Z</time></trkpt><trkpt lat="40.7796675" lon="-3.7952857"><ele>1038.3333333333333</ele><time>2026-04-17T09:47:49.758Z</time></trkpt><trkpt lat="40.7797095" lon="-3.7951645"><ele>1038.6666666666667</ele><time>2026-04-17T09:47:50.759Z</time></trkpt><trkpt lat="40.7797586" lon="-3.795051"><ele>1039.0</ele><time>2026-04-17T09:47:51.758Z</time></trkpt><trkpt lat="40.7798117" lon="-3.7949482"><ele>1039.3333333333335</ele><time>2026-04-17T09:47:52.758Z</time></trkpt><trkpt lat="40.7798402" lon="-3.7948534"><ele>1039.6666666666667</ele><time>2026-04-17T09:47:53.758Z</time></trkpt><trkpt lat="40.7798368" lon="-3.7947634"><ele>1040.0</ele><time>2026-04-17T09:47:54.758Z</time></trkpt><trkpt lat="40.7798171" lon="-3.7946541"><ele>1040.0</ele><time>2026-04-17T09:47:55.758Z</time></trkpt><trkpt lat="40.7798162" lon="-3.7945358"><ele>1040.0</ele><time>2026-04-17T09:47:56.758Z</time></trkpt><trkpt lat="40.7798246" lon="-3.7944017"><ele>1040.0</ele><time>2026-04-17T09:47:57.758Z</time></trkpt><trkpt lat="40.7798486" lon="-3.7942632"><ele>1040.0</ele><time>2026-04-17T09:47:58.758Z</time></trkpt><trkpt lat="40.7798734" lon="-3.7941157"><ele>1040.0</ele><time>2026-04-17T09:47:59.758Z</time></trkpt><trkpt lat="40.7798996" lon="-3.7939802"><ele>1039.6</ele><time>2026-04-17T09:48:00.759Z</time></trkpt><trkpt lat="40.7799219" lon="-3.793854"><ele>1039.2</ele><time>2026-04-17T09:48:01.759Z</time></trkpt><trkpt lat="40.7799251" lon="-3.79373"><ele>1038.8</ele><time>2026-04-17T09:48:02.758Z</time></trkpt><trkpt lat="40.7799344" lon="-3.7936058"><ele>1038.4</ele><time>2026-04-17T09:48:03.759Z</time></trkpt><trkpt lat="40.7799516" lon="-3.7934759"><ele>1038.0</ele><time>2026-04-17T09:48:04.759Z</time></trkpt><trkpt lat="40.7799814" lon="-3.7933395"><ele>1037.6</ele><time>2026-04-17T09:48:05.759Z</time></trkpt><trkpt lat="40.7800141" lon="-3.7932072"><ele>1037.1999999999998</ele><time>2026-04-17T09:48:06.758Z</time></trkpt><trkpt lat="40.7800311" lon="-3.7930737"><ele>1036.8</ele><time>2026-04-17T09:48:07.759Z</time></trkpt><trkpt lat="40.7800496" lon="-3.7929507"><ele>1036.3999999999999</ele><time>2026-04-17T09:48:08.759Z</time></trkpt><trkpt lat="40.7800731" lon="-3.7928333"><ele>1036.0</ele><time>2026-04-17T09:48:09.759Z</time></trkpt><trkpt lat="40.7801158" lon="-3.7927104"><ele>1035.3999999999999</ele><time>2026-04-17T09:48:10.758Z</time></trkpt><trkpt lat="40.7801654" lon="-3.7925864"><ele>1034.8</ele><time>2026-04-17T09:48:11.759Z</time></trkpt><trkpt lat="40.7802234" lon="-3.7924613"><ele>1034.1999999999998</ele><time>2026-04-17T09:48:12.759Z</time></trkpt><trkpt lat="40.7802838" lon="-3.7923323"><ele>1033.6</ele><time>2026-04-17T09:48:13.759Z</time></trkpt><trkpt lat="40.7803381" lon="-3.7922141"><ele>1033.0</ele><time>2026-04-17T09:48:14.758Z</time></trkpt><trkpt lat="40.7803721" lon="-3.7920981"><ele>1033.6666666666665</ele><time>2026-04-17T09:48:15.758Z</time></trkpt><trkpt lat="40.7804029" lon="-3.7919946"><ele>1034.3333333333333</ele><time>2026-04-17T09:48:16.758Z</time></trkpt><trkpt lat="40.7804432" lon="-3.7919017"><ele>1035.0</ele><time>2026-04-17T09:48:17.758Z</time></trkpt><trkpt lat="40.7804857" lon="-3.791829"><ele>1035.6666666666667</ele><time>2026-04-17T09:48:18.758Z</time></trkpt><trkpt lat="40.7805759" lon="-3.7917002"><ele>1036.3333333333335</ele><time>2026-04-17T09:48:20.758Z</time></trkpt><trkpt lat="40.7806274" lon="-3.7916353"><ele>1037.0</ele><time>2026-04-17T09:48:21.759Z</time></trkpt><trkpt lat="40.7806752" lon="-3.7915657"><ele>1037.0</ele><time>2026-04-17T09:48:22.758Z</time></trkpt><trkpt lat="40.7807248" lon="-3.7914151"><ele>1037.0</ele><time>2026-04-17T09:48:24.758Z</time></trkpt><trkpt lat="40.7807354" lon="-3.7913216"><ele>1037.0</ele><time>2026-04-17T09:48:25.758Z</time></trkpt><trkpt lat="40.7807393" lon="-3.7912069"><ele>1037.0</ele><time>2026-04-17T09:48:26.758Z</time></trkpt><trkpt lat="40.7807436" lon="-3.7910744"><ele>1037.0</ele><time>2026-04-17T09:48:27.758Z</time></trkpt><trkpt lat="40.7807484" lon="-3.790931"><ele>1037.2</ele><time>2026-04-17T09:48:28.758Z</time></trkpt><trkpt lat="40.7807428" lon="-3.7907905"><ele>1037.4</ele><time>2026-04-17T09:48:29.758Z</time></trkpt><trkpt lat="40.7807304" lon="-3.7906608"><ele>1037.6</ele><time>2026-04-17T09:48:30.758Z</time></trkpt><trkpt lat="40.7807222" lon="-3.7905399"><ele>1037.8</ele><time>2026-04-17T09:48:31.758Z</time></trkpt><trkpt lat="40.7807195" lon="-3.7904176"><ele>1038.0</ele><time>2026-04-17T09:48:32.758Z</time></trkpt><trkpt lat="40.7807189" lon="-3.7902996"><ele>1037.4</ele><time>2026-04-17T09:48:33.758Z</time></trkpt><trkpt lat="40.7807368" lon="-3.790171"><ele>1036.8</ele><time>2026-04-17T09:48:34.759Z</time></trkpt><trkpt lat="40.7807589" lon="-3.7900314"><ele>1036.2</ele><time>2026-04-17T09:48:35.758Z</time></trkpt><trkpt lat="40.7807856" lon="-3.7898969"><ele>1035.6</ele><time>2026-04-17T09:48:36.759Z</time></trkpt><trkpt lat="40.7808061" lon="-3.7897683"><ele>1035.0</ele><time>2026-04-17T09:48:37.758Z</time></trkpt><trkpt lat="40.7808249" lon="-3.7896504"><ele>1035.0</ele><time>2026-04-17T09:48:38.758Z</time></trkpt><trkpt lat="40.7808456" lon="-3.789526"><ele>1035.0</ele><time>2026-04-17T09:48:39.758Z</time></trkpt><trkpt lat="40.7808643" lon="-3.7894026"><ele>1035.0</ele><time>2026-04-17T09:48:40.758Z</time></trkpt><trkpt lat="40.7808861" lon="-3.7892796"><ele>1035.0</ele><time>2026-04-17T09:48:41.758Z</time></trkpt><trkpt lat="40.7809054" lon="-3.7891551"><ele>1035.0</ele><time>2026-04-17T09:48:42.759Z</time></trkpt><trkpt lat="40.7809231" lon="-3.7890192"><ele>1035.0</ele><time>2026-04-17T09:48:43.759Z</time></trkpt><trkpt lat="40.7809356" lon="-3.788882"><ele>1035.0</ele><time>2026-04-17T09:48:44.758Z</time></trkpt><trkpt lat="40.780949" lon="-3.7887458"><ele>1035.0</ele><time>2026-04-17T09:48:45.758Z</time></trkpt><trkpt lat="40.7809697" lon="-3.7886145"><ele>1035.0</ele><time>2026-04-17T09:48:46.758Z</time></trkpt><trkpt lat="40.7810002" lon="-3.7884827"><ele>1035.0</ele><time>2026-04-17T09:48:47.759Z</time></trkpt><trkpt lat="40.7810354" lon="-3.7883491"><ele>1035.0</ele><time>2026-04-17T09:48:48.759Z</time></trkpt><trkpt lat="40.7810728" lon="-3.7882216"><ele>1035.0</ele><time>2026-04-17T09:48:49.759Z</time></trkpt><trkpt lat="40.7810981" lon="-3.7881023"><ele>1035.0</ele><time>2026-04-17T09:48:50.759Z</time></trkpt><trkpt lat="40.7811068" lon="-3.7879909"><ele>1035.0</ele><time>2026-04-17T09:48:51.759Z</time></trkpt><trkpt lat="40.7810915" lon="-3.7878862"><ele>1035.0</ele><time>2026-04-17T09:48:52.759Z</time></trkpt><trkpt lat="40.7810521" lon="-3.7877826"><ele>1033.2</ele><time>2026-04-17T09:48:53.758Z</time></trkpt><trkpt lat="40.7810086" lon="-3.7876763"><ele>1031.4</ele><time>2026-04-17T09:48:54.759Z</time></trkpt><trkpt lat="40.7809664" lon="-3.7875714"><ele>1029.6</ele><time>2026-04-17T09:48:55.758Z</time></trkpt><trkpt lat="40.7809341" lon="-3.7874634"><ele>1027.8</ele><time>2026-04-17T09:48:56.758Z</time></trkpt><trkpt lat="40.7809132" lon="-3.7873456"><ele>1026.0</ele><time>2026-04-17T09:48:57.759Z</time></trkpt><trkpt lat="40.7809049" lon="-3.787206"><ele>1026.0</ele><time>2026-04-17T09:48:58.758Z</time></trkpt><trkpt lat="40.7808872" lon="-3.7870636"><ele>1026.0</ele><time>2026-04-17T09:48:59.758Z</time></trkpt><trkpt lat="40.7808629" lon="-3.7869174"><ele>1026.0</ele><time>2026-04-17T09:49:00.759Z</time></trkpt><trkpt lat="40.7808312" lon="-3.7867838"><ele>1026.0</ele><time>2026-04-17T09:49:01.759Z</time></trkpt><trkpt lat="40.7807985" lon="-3.7866698"><ele>1026.0</ele><time>2026-04-17T09:49:02.758Z</time></trkpt><trkpt lat="40.7807779" lon="-3.7865568"><ele>1026.0</ele><time>2026-04-17T09:49:03.759Z</time></trkpt><trkpt lat="40.7807698" lon="-3.7864458"><ele>1026.0</ele><time>2026-04-17T09:49:04.759Z</time></trkpt><trkpt lat="40.7807848" lon="-3.7863238"><ele>1026.0</ele><time>2026-04-17T09:49:05.759Z</time></trkpt><trkpt lat="40.7808203" lon="-3.7861936"><ele>1026.0</ele><time>2026-04-17T09:49:06.759Z</time></trkpt><trkpt lat="40.7808501" lon="-3.7860593"><ele>1026.0</ele><time>2026-04-17T09:49:07.758Z</time></trkpt><trkpt lat="40.780875" lon="-3.7859188"><ele>1025.8</ele><time>2026-04-17T09:49:08.759Z</time></trkpt><trkpt lat="40.7808992" lon="-3.7857685"><ele>1025.6</ele><time>2026-04-17T09:49:09.758Z</time></trkpt><trkpt lat="40.7809212" lon="-3.7856182"><ele>1025.4</ele><time>2026-04-17T09:49:10.759Z</time></trkpt><trkpt lat="40.7809415" lon="-3.7854758"><ele>1025.2</ele><time>2026-04-17T09:49:11.758Z</time></trkpt><trkpt lat="40.7809521" lon="-3.7853439"><ele>1025.0</ele><time>2026-04-17T09:49:12.758Z</time></trkpt><trkpt lat="40.7809532" lon="-3.785208"><ele>1024.5</ele><time>2026-04-17T09:49:13.758Z</time></trkpt><trkpt lat="40.780944" lon="-3.7850626"><ele>1024.0</ele><time>2026-04-17T09:49:14.758Z</time></trkpt><trkpt lat="40.7809437" lon="-3.7849158"><ele>1023.5</ele><time>2026-04-17T09:49:15.758Z</time></trkpt><trkpt lat="40.7809361" lon="-3.7847666"><ele>1023.0</ele><time>2026-04-17T09:49:16.758Z</time></trkpt><trkpt lat="40.7809351" lon="-3.7846118"><ele>1023.0</ele><time>2026-04-17T09:49:17.758Z</time></trkpt><trkpt lat="40.7809454" lon="-3.7844579"><ele>1023.0</ele><time>2026-04-17T09:49:18.758Z</time></trkpt><trkpt lat="40.7809581" lon="-3.7842998"><ele>1023.0</ele><time>2026-04-17T09:49:19.758Z</time></trkpt><trkpt lat="40.7809624" lon="-3.7841346"><ele>1023.0</ele><time>2026-04-17T09:49:20.759Z</time></trkpt><trkpt lat="40.7809405" lon="-3.7839706"><ele>1022.5</ele><time>2026-04-17T09:49:21.758Z</time></trkpt><trkpt lat="40.7809142" lon="-3.7838056"><ele>1022.0</ele><time>2026-04-17T09:49:22.758Z</time></trkpt><trkpt lat="40.7808863" lon="-3.783641"><ele>1021.5</ele><time>2026-04-17T09:49:23.759Z</time></trkpt><trkpt lat="40.7808695" lon="-3.7834742"><ele>1021.0</ele><time>2026-04-17T09:49:24.758Z</time></trkpt><trkpt lat="40.780857" lon="-3.7832998"><ele>1021.0</ele><time>2026-04-17T09:49:25.759Z</time></trkpt><trkpt lat="40.7808546" lon="-3.7831321"><ele>1021.0</ele><time>2026-04-17T09:49:26.759Z</time></trkpt><trkpt lat="40.7808667" lon="-3.7829749"><ele>1021.0</ele><time>2026-04-17T09:49:27.759Z</time></trkpt><trkpt lat="40.7808907" lon="-3.7828161"><ele>1021.0</ele><time>2026-04-17T09:49:28.758Z</time></trkpt><trkpt lat="40.7809229" lon="-3.7826447"><ele>1021.25</ele><time>2026-04-17T09:49:29.758Z</time></trkpt><trkpt lat="40.7809555" lon="-3.7824745"><ele>1021.5</ele><time>2026-04-17T09:49:30.759Z</time></trkpt><trkpt lat="40.7809901" lon="-3.7823046"><ele>1021.75</ele><time>2026-04-17T09:49:31.758Z</time></trkpt><trkpt lat="40.781021" lon="-3.7821432"><ele>1022.0</ele><time>2026-04-17T09:49:32.758Z</time></trkpt><trkpt lat="40.7810592" lon="-3.7819912"><ele>1022.8</ele><time>2026-04-17T09:49:33.759Z</time></trkpt><trkpt lat="40.7811009" lon="-3.7818675"><ele>1023.6</ele><time>2026-04-17T09:49:34.758Z</time></trkpt><trkpt lat="40.7811496" lon="-3.7817439"><ele>1024.3999999999999</ele><time>2026-04-17T09:49:35.758Z</time></trkpt><trkpt lat="40.7812103" lon="-3.7816199"><ele>1025.2</ele><time>2026-04-17T09:49:36.759Z</time></trkpt><trkpt lat="40.781286" lon="-3.781497"><ele>1026.0</ele><time>2026-04-17T09:49:37.758Z</time></trkpt><trkpt lat="40.7813616" lon="-3.7813739"><ele>1027.0</ele><time>2026-04-17T09:49:38.758Z</time></trkpt><trkpt lat="40.781431" lon="-3.7812419"><ele>1028.0</ele><time>2026-04-17T09:49:39.758Z</time></trkpt><trkpt lat="40.7814927" lon="-3.7811021"><ele>1029.0</ele><time>2026-04-17T09:49:40.758Z</time></trkpt><trkpt lat="40.7815464" lon="-3.7809516"><ele>1030.0</ele><time>2026-04-17T09:49:41.758Z</time></trkpt><trkpt lat="40.7816043" lon="-3.7808121"><ele>1030.6</ele><time>2026-04-17T09:49:42.758Z</time></trkpt><trkpt lat="40.7816575" lon="-3.7806795"><ele>1031.2</ele><time>2026-04-17T09:49:43.758Z</time></trkpt><trkpt lat="40.7817198" lon="-3.7805607"><ele>1031.8</ele><time>2026-04-17T09:49:44.758Z</time></trkpt><trkpt lat="40.7817727" lon="-3.780442"><ele>1032.4</ele><time>2026-04-17T09:49:45.758Z</time></trkpt><trkpt lat="40.781803" lon="-3.7803302"><ele>1033.0</ele><time>2026-04-17T09:49:46.758Z</time></trkpt><trkpt lat="40.7818191" lon="-3.7802061"><ele>1033.2</ele><time>2026-04-17T09:49:47.758Z</time></trkpt><trkpt lat="40.781826" lon="-3.780084"><ele>1033.4</ele><time>2026-04-17T09:49:48.759Z</time></trkpt><trkpt lat="40.7818293" lon="-3.7799696"><ele>1033.6000000000001</ele><time>2026-04-17T09:49:49.758Z</time></trkpt><trkpt lat="40.7818226" lon="-3.7798476"><ele>1033.8</ele><time>2026-04-17T09:49:50.758Z</time></trkpt><trkpt lat="40.7817877" lon="-3.7797336"><ele>1034.0</ele><time>2026-04-17T09:49:51.758Z</time></trkpt><trkpt lat="40.7817418" lon="-3.7796289"><ele>1034.0</ele><time>2026-04-17T09:49:52.758Z</time></trkpt><trkpt lat="40.7816864" lon="-3.7795278"><ele>1034.0</ele><time>2026-04-17T09:49:53.758Z</time></trkpt><trkpt lat="40.7816242" lon="-3.779436"><ele>1034.0</ele><time>2026-04-17T09:49:54.758Z</time></trkpt><trkpt lat="40.7815602" lon="-3.7793446"><ele>1034.0</ele><time>2026-04-17T09:49:55.758Z</time></trkpt><trkpt lat="40.7814912" lon="-3.7792491"><ele>1034.0</ele><time>2026-04-17T09:49:56.759Z</time></trkpt><trkpt lat="40.7814133" lon="-3.7791495"><ele>1035.75</ele><time>2026-04-17T09:49:57.758Z</time></trkpt><trkpt lat="40.7813299" lon="-3.7790393"><ele>1037.5</ele><time>2026-04-17T09:49:58.758Z</time></trkpt><trkpt lat="40.7812527" lon="-3.7789276"><ele>1039.25</ele><time>2026-04-17T09:49:59.758Z</time></trkpt><trkpt lat="40.7811723" lon="-3.7788129"><ele>1041.0</ele><time>2026-04-17T09:50:00.759Z</time></trkpt><trkpt lat="40.7811418" lon="-3.7786854"><ele>1041.0</ele><time>2026-04-17T09:50:01.758Z</time></trkpt><trkpt lat="40.7811253" lon="-3.7785573"><ele>1041.0</ele><time>2026-04-17T09:50:02.759Z</time></trkpt><trkpt lat="40.7811184" lon="-3.7784196"><ele>1041.0</ele><time>2026-04-17T09:50:03.758Z</time></trkpt><trkpt lat="40.7811245" lon="-3.7782651"><ele>1041.0</ele><time>2026-04-17T09:50:04.759Z</time></trkpt><trkpt lat="40.7811394" lon="-3.7781023"><ele>1041.0</ele><time>2026-04-17T09:50:05.758Z</time></trkpt><trkpt lat="40.7811562" lon="-3.7779383"><ele>1041.6</ele><time>2026-04-17T09:50:06.758Z</time></trkpt><trkpt lat="40.7811762" lon="-3.7777829"><ele>1042.1999999999998</ele><time>2026-04-17T09:50:07.759Z</time></trkpt><trkpt lat="40.7811883" lon="-3.7776407"><ele>1042.8000000000002</ele><time>2026-04-17T09:50:08.758Z</time></trkpt><trkpt lat="40.7811864" lon="-3.7775139"><ele>1043.4</ele><time>2026-04-17T09:50:09.759Z</time></trkpt><trkpt lat="40.7811701" lon="-3.7773962"><ele>1044.0</ele><time>2026-04-17T09:50:10.759Z</time></trkpt><trkpt lat="40.7811532" lon="-3.7772671"><ele>1044.0</ele><time>2026-04-17T09:50:11.758Z</time></trkpt><trkpt lat="40.7811451" lon="-3.7771317"><ele>1044.0</ele><time>2026-04-17T09:50:12.759Z</time></trkpt><trkpt lat="40.7811435" lon="-3.77699"><ele>1044.0</ele><time>2026-04-17T09:50:13.759Z</time></trkpt><trkpt lat="40.7811614" lon="-3.7768598"><ele>1044.0</ele><time>2026-04-17T09:50:14.758Z</time></trkpt><trkpt lat="40.7811868" lon="-3.7767152"><ele>1044.0</ele><time>2026-04-17T09:50:15.758Z</time></trkpt><trkpt lat="40.7812164" lon="-3.77655"><ele>1043.25</ele><time>2026-04-17T09:50:16.759Z</time></trkpt><trkpt lat="40.7812505" lon="-3.7763723"><ele>1042.5</ele><time>2026-04-17T09:50:17.759Z</time></trkpt><trkpt lat="40.7812787" lon="-3.7762052"><ele>1041.75</ele><time>2026-04-17T09:50:18.759Z</time></trkpt><trkpt lat="40.7813131" lon="-3.7760347"><ele>1041.0</ele><time>2026-04-17T09:50:19.758Z</time></trkpt><trkpt lat="40.7813531" lon="-3.7758692"><ele>1039.8</ele><time>2026-04-17T09:50:20.758Z</time></trkpt><trkpt lat="40.7813913" lon="-3.7757144"><ele>1038.6</ele><time>2026-04-17T09:50:21.759Z</time></trkpt><trkpt lat="40.7814292" lon="-3.7755715"><ele>1037.4</ele><time>2026-04-17T09:50:22.758Z</time></trkpt><trkpt lat="40.7814611" lon="-3.7754358"><ele>1036.2</ele><time>2026-04-17T09:50:23.759Z</time></trkpt><trkpt lat="40.7814921" lon="-3.7753119"><ele>1035.0</ele><time>2026-04-17T09:50:24.758Z</time></trkpt><trkpt lat="40.7815159" lon="-3.775197"><ele>1034.4</ele><time>2026-04-17T09:50:25.758Z</time></trkpt><trkpt lat="40.7815316" lon="-3.7750967"><ele>1033.8</ele><time>2026-04-17T09:50:26.758Z</time></trkpt><trkpt lat="40.7815369" lon="-3.7750028"><ele>1033.2</ele><time>2026-04-17T09:50:27.758Z</time></trkpt><trkpt lat="40.7815106" lon="-3.7748548"><ele>1032.6</ele><time>2026-04-17T09:50:29.758Z</time></trkpt><trkpt lat="40.7814613" lon="-3.7747169"><ele>1032.0</ele><time>2026-04-17T09:50:31.758Z</time></trkpt><trkpt lat="40.78143" lon="-3.7745785"><ele>1032.0</ele><time>2026-04-17T09:50:33.758Z</time></trkpt><trkpt lat="40.7814014" lon="-3.7744871"><ele>1032.0</ele><time>2026-04-17T09:50:35.758Z</time></trkpt><trkpt lat="40.7813018" lon="-3.774434"><ele>1032.0</ele><time>2026-04-17T09:50:38.759Z</time></trkpt><trkpt lat="40.7811635" lon="-3.7744699"><ele>1032.0</ele><time>2026-04-17T09:50:40.758Z</time></trkpt><trkpt lat="40.7810686" lon="-3.7744941"><ele>1032.0</ele><time>2026-04-17T09:50:41.758Z</time></trkpt><trkpt lat="40.7809679" lon="-3.7745325"><ele>1030.8</ele><time>2026-04-17T09:50:42.758Z</time></trkpt><trkpt lat="40.780861" lon="-3.7745667"><ele>1029.6</ele><time>2026-04-17T09:50:43.759Z</time></trkpt><trkpt lat="40.7807696" lon="-3.7745964"><ele>1028.3999999999999</ele><time>2026-04-17T09:50:44.758Z</time></trkpt><trkpt lat="40.7806838" lon="-3.7746205"><ele>1027.2</ele><time>2026-04-17T09:50:45.759Z</time></trkpt><trkpt lat="40.780615" lon="-3.7746202"><ele>1026.0</ele><time>2026-04-17T09:50:46.758Z</time></trkpt><trkpt lat="40.7805189" lon="-3.7745465"><ele>1026.0000000000002</ele><time>2026-04-17T09:50:48.759Z</time></trkpt><trkpt lat="40.7805355" lon="-3.7744639"><ele>1026.0</ele><time>2026-04-17T09:50:50.758Z</time></trkpt><trkpt lat="40.7806025" lon="-3.7744175"><ele>1026.0</ele><time>2026-04-17T09:50:53.759Z</time></trkpt><trkpt lat="40.7806737" lon="-3.7743978"><ele>1026.0</ele><time>2026-04-17T09:50:57.759Z</time></trkpt><trkpt lat="40.7807445" lon="-3.7743533"><ele>1026.0</ele><time>2026-04-17T09:52:02.758Z</time></trkpt><trkpt lat="40.7806851" lon="-3.7742967"><ele>1026.0000000000002</ele><time>2026-04-17T09:52:31.758Z</time></trkpt><trkpt lat="40.780744" lon="-3.7743342"><ele>1026.0</ele><time>2026-04-17T09:54:02.759Z</time></trkpt><trkpt lat="40.7808342" lon="-3.7743784"><ele>1026.0</ele><time>2026-04-17T09:54:39.758Z</time></trkpt><trkpt lat="40.7809046" lon="-3.7744447"><ele>1026.0</ele><time>2026-04-17T09:54:42.759Z</time></trkpt><trkpt lat="40.7810125" lon="-3.7744433"><ele>1026.0</ele><time>2026-04-17T09:54:44.758Z</time></trkpt><trkpt lat="40.7811212" lon="-3.7744122"><ele>1026.0</ele><time>2026-04-17T09:54:46.759Z</time></trkpt><trkpt lat="40.7812365" lon="-3.7743822"><ele>1026.0</ele><time>2026-04-17T09:54:48.759Z</time></trkpt><trkpt lat="40.7813395" lon="-3.7743919"><ele>1027.0</ele><time>2026-04-17T09:54:50.758Z</time></trkpt><trkpt lat="40.7813903" lon="-3.7744424"><ele>1028.0</ele><time>2026-04-17T09:54:51.758Z</time></trkpt><trkpt lat="40.7814262" lon="-3.774513"><ele>1029.0</ele><time>2026-04-17T09:54:52.758Z</time></trkpt><trkpt lat="40.7814542" lon="-3.7746098"><ele>1030.0</ele><time>2026-04-17T09:54:53.759Z</time></trkpt><trkpt lat="40.7814788" lon="-3.7747249"><ele>1031.0</ele><time>2026-04-17T09:54:54.758Z</time></trkpt><trkpt lat="40.7815022" lon="-3.7748523"><ele>1032.0</ele><time>2026-04-17T09:54:55.759Z</time></trkpt><trkpt lat="40.7815181" lon="-3.7749517"><ele>1032.0</ele><time>2026-04-17T09:54:56.759Z</time></trkpt><trkpt lat="40.7815195" lon="-3.7750457"><ele>1032.0</ele><time>2026-04-17T09:54:57.759Z</time></trkpt><trkpt lat="40.7815049" lon="-3.7751383"><ele>1032.0</ele><time>2026-04-17T09:54:58.758Z</time></trkpt><trkpt lat="40.7814764" lon="-3.7752326"><ele>1032.0</ele><time>2026-04-17T09:54:59.758Z</time></trkpt><trkpt lat="40.7814466" lon="-3.7753433"><ele>1032.0</ele><time>2026-04-17T09:55:00.758Z</time></trkpt><trkpt lat="40.7814152" lon="-3.7754636"><ele>1032.0</ele><time>2026-04-17T09:55:01.758Z</time></trkpt><trkpt lat="40.7813813" lon="-3.7755856"><ele>1032.6</ele><time>2026-04-17T09:55:02.758Z</time></trkpt><trkpt lat="40.7813532" lon="-3.7757126"><ele>1033.2</ele><time>2026-04-17T09:55:03.758Z</time></trkpt><trkpt lat="40.7813207" lon="-3.7758482"><ele>1033.8</ele><time>2026-04-17T09:55:04.758Z</time></trkpt><trkpt lat="40.7812904" lon="-3.7759923"><ele>1034.4</ele><time>2026-04-17T09:55:05.759Z</time></trkpt><trkpt lat="40.7812632" lon="-3.7761387"><ele>1035.0</ele><time>2026-04-17T09:55:06.759Z</time></trkpt><trkpt lat="40.7812405" lon="-3.7762776"><ele>1036.2</ele><time>2026-04-17T09:55:07.758Z</time></trkpt><trkpt lat="40.7812198" lon="-3.7764098"><ele>1037.4</ele><time>2026-04-17T09:55:08.758Z</time></trkpt><trkpt lat="40.7811965" lon="-3.7765355"><ele>1038.6</ele><time>2026-04-17T09:55:09.758Z</time></trkpt><trkpt lat="40.7811707" lon="-3.776659"><ele>1039.8</ele><time>2026-04-17T09:55:10.759Z</time></trkpt><trkpt lat="40.7811486" lon="-3.7767829"><ele>1041.0</ele><time>2026-04-17T09:55:11.758Z</time></trkpt><trkpt lat="40.7811385" lon="-3.7769012"><ele>1041.5</ele><time>2026-04-17T09:55:12.758Z</time></trkpt><trkpt lat="40.781136" lon="-3.7770228"><ele>1042.0</ele><time>2026-04-17T09:55:13.758Z</time></trkpt><trkpt lat="40.7811347" lon="-3.7771488"><ele>1042.5</ele><time>2026-04-17T09:55:14.758Z</time></trkpt><trkpt lat="40.7811451" lon="-3.7772742"><ele>1043.0</ele><time>2026-04-17T09:55:15.759Z</time></trkpt><trkpt lat="40.7811631" lon="-3.777385"><ele>1043.5</ele><time>2026-04-17T09:55:16.758Z</time></trkpt><trkpt lat="40.7811768" lon="-3.7774824"><ele>1044.0</ele><time>2026-04-17T09:55:17.758Z</time></trkpt><trkpt lat="40.7811845" lon="-3.7775815"><ele>1044.0</ele><time>2026-04-17T09:55:18.759Z</time></trkpt><trkpt lat="40.7811823" lon="-3.7776991"><ele>1044.0</ele><time>2026-04-17T09:55:19.759Z</time></trkpt><trkpt lat="40.781177" lon="-3.7778233"><ele>1044.0</ele><time>2026-04-17T09:55:20.758Z</time></trkpt><trkpt lat="40.7811601" lon="-3.7779629"><ele>1044.0</ele><time>2026-04-17T09:55:21.758Z</time></trkpt><trkpt lat="40.7811438" lon="-3.7781095"><ele>1044.0</ele><time>2026-04-17T09:55:22.759Z</time></trkpt><trkpt lat="40.7811367" lon="-3.7782567"><ele>1044.0</ele><time>2026-04-17T09:55:23.759Z</time></trkpt><trkpt lat="40.7811379" lon="-3.7783933"><ele>1044.0</ele><time>2026-04-17T09:55:24.758Z</time></trkpt><trkpt lat="40.7811459" lon="-3.7785174"><ele>1044.0</ele><time>2026-04-17T09:55:25.758Z</time></trkpt><trkpt lat="40.7811625" lon="-3.778634"><ele>1044.0</ele><time>2026-04-17T09:55:26.759Z</time></trkpt><trkpt lat="40.7812008" lon="-3.7787532"><ele>1044.0</ele><time>2026-04-17T09:55:27.758Z</time></trkpt><trkpt lat="40.7812428" lon="-3.7788685"><ele>1043.4</ele><time>2026-04-17T09:55:28.759Z</time></trkpt><trkpt lat="40.7812971" lon="-3.7789705"><ele>1042.8000000000002</ele><time>2026-04-17T09:55:29.759Z</time></trkpt><trkpt lat="40.7813624" lon="-3.7790666"><ele>1042.1999999999998</ele><time>2026-04-17T09:55:30.758Z</time></trkpt><trkpt lat="40.7814361" lon="-3.7791624"><ele>1041.6</ele><time>2026-04-17T09:55:31.758Z</time></trkpt><trkpt lat="40.7815035" lon="-3.7792561"><ele>1041.0</ele><time>2026-04-17T09:55:32.758Z</time></trkpt><trkpt lat="40.7815771" lon="-3.7793527"><ele>1039.6</ele><time>2026-04-17T09:55:33.759Z</time></trkpt><trkpt lat="40.7816595" lon="-3.7794408"><ele>1038.1999999999998</ele><time>2026-04-17T09:55:34.759Z</time></trkpt><trkpt lat="40.7817301" lon="-3.7795333"><ele>1036.8000000000002</ele><time>2026-04-17T09:55:35.759Z</time></trkpt><trkpt lat="40.7817826" lon="-3.7796369"><ele>1035.4</ele><time>2026-04-17T09:55:36.758Z</time></trkpt><trkpt lat="40.7818179" lon="-3.7797529"><ele>1034.0</ele><time>2026-04-17T09:55:37.758Z</time></trkpt><trkpt lat="40.7818254" lon="-3.7798734"><ele>1034.0</ele><time>2026-04-17T09:55:38.759Z</time></trkpt><trkpt lat="40.7818158" lon="-3.7800043"><ele>1034.0</ele><time>2026-04-17T09:55:39.758Z</time></trkpt><trkpt lat="40.7817979" lon="-3.7801389"><ele>1034.0</ele><time>2026-04-17T09:55:40.759Z</time></trkpt><trkpt lat="40.781775" lon="-3.7802671"><ele>1034.0</ele><time>2026-04-17T09:55:41.759Z</time></trkpt><trkpt lat="40.7817473" lon="-3.7803977"><ele>1034.0</ele><time>2026-04-17T09:55:42.759Z</time></trkpt><trkpt lat="40.7816996" lon="-3.7805344"><ele>1033.75</ele><time>2026-04-17T09:55:43.758Z</time></trkpt><trkpt lat="40.7816419" lon="-3.7806755"><ele>1033.5</ele><time>2026-04-17T09:55:44.759Z</time></trkpt><trkpt lat="40.7815802" lon="-3.7808197"><ele>1033.25</ele><time>2026-04-17T09:55:45.758Z</time></trkpt><trkpt lat="40.7815227" lon="-3.780959"><ele>1033.0</ele><time>2026-04-17T09:55:46.758Z</time></trkpt><trkpt lat="40.7814634" lon="-3.7811011"><ele>1032.25</ele><time>2026-04-17T09:55:47.758Z</time></trkpt><trkpt lat="40.7813998" lon="-3.7812395"><ele>1031.5</ele><time>2026-04-17T09:55:48.758Z</time></trkpt><trkpt lat="40.7813315" lon="-3.7813701"><ele>1030.75</ele><time>2026-04-17T09:55:49.758Z</time></trkpt><trkpt lat="40.7812686" lon="-3.7814949"><ele>1030.0</ele><time>2026-04-17T09:55:50.758Z</time></trkpt><trkpt lat="40.7812023" lon="-3.7816063"><ele>1030.0</ele><time>2026-04-17T09:55:51.759Z</time></trkpt><trkpt lat="40.7811382" lon="-3.7817197"><ele>1030.0</ele><time>2026-04-17T09:55:52.758Z</time></trkpt><trkpt lat="40.7810835" lon="-3.7818423"><ele>1030.0</ele><time>2026-04-17T09:55:53.758Z</time></trkpt><trkpt lat="40.781041" lon="-3.7819826"><ele>1030.0</ele><time>2026-04-17T09:55:54.759Z</time></trkpt><trkpt lat="40.7810086" lon="-3.782135"><ele>1030.0</ele><time>2026-04-17T09:55:55.758Z</time></trkpt><trkpt lat="40.7809777" lon="-3.7822945"><ele>1028.0</ele><time>2026-04-17T09:55:56.758Z</time></trkpt><trkpt lat="40.7809441" lon="-3.7824532"><ele>1026.0</ele><time>2026-04-17T09:55:57.759Z</time></trkpt><trkpt lat="40.7809128" lon="-3.782613"><ele>1024.0</ele><time>2026-04-17T09:55:58.758Z</time></trkpt><trkpt lat="40.7808865" lon="-3.7827704"><ele>1022.0</ele><time>2026-04-17T09:55:59.759Z</time></trkpt><trkpt lat="40.7808695" lon="-3.7829181"><ele>1021.75</ele><time>2026-04-17T09:56:00.758Z</time></trkpt><trkpt lat="40.7808569" lon="-3.7830711"><ele>1021.5</ele><time>2026-04-17T09:56:01.759Z</time></trkpt><trkpt lat="40.7808506" lon="-3.7832283"><ele>1021.25</ele><time>2026-04-17T09:56:02.759Z</time></trkpt><trkpt lat="40.780858" lon="-3.7833913"><ele>1021.0</ele><time>2026-04-17T09:56:03.758Z</time></trkpt><trkpt lat="40.7808789" lon="-3.7835597"><ele>1021.0</ele><time>2026-04-17T09:56:04.759Z</time></trkpt><trkpt lat="40.7809074" lon="-3.7837369"><ele>1021.0</ele><time>2026-04-17T09:56:05.759Z</time></trkpt><trkpt lat="40.7809326" lon="-3.7839249"><ele>1021.0</ele><time>2026-04-17T09:56:06.759Z</time></trkpt><trkpt lat="40.7809398" lon="-3.7841223"><ele>1021.0</ele><time>2026-04-17T09:56:07.758Z</time></trkpt><trkpt lat="40.7809265" lon="-3.7843332"><ele>1021.6666666666666</ele><time>2026-04-17T09:56:08.758Z</time></trkpt><trkpt lat="40.7809097" lon="-3.7845385"><ele>1022.3333333333333</ele><time>2026-04-17T09:56:09.759Z</time></trkpt><trkpt lat="40.7808978" lon="-3.7847371"><ele>1023.0</ele><time>2026-04-17T09:56:10.758Z</time></trkpt><trkpt lat="40.7808924" lon="-3.7849261"><ele>1023.0</ele><time>2026-04-17T09:56:11.759Z</time></trkpt><trkpt lat="40.780904" lon="-3.7851118"><ele>1023.0</ele><time>2026-04-17T09:56:12.759Z</time></trkpt><trkpt lat="40.7809118" lon="-3.7852968"><ele>1023.0</ele><time>2026-04-17T09:56:13.759Z</time></trkpt><trkpt lat="40.7809097" lon="-3.7854766"><ele>1023.0</ele><time>2026-04-17T09:56:14.758Z</time></trkpt><trkpt lat="40.7809009" lon="-3.7856532"><ele>1023.5</ele><time>2026-04-17T09:56:15.758Z</time></trkpt><trkpt lat="40.7808748" lon="-3.7858286"><ele>1024.0</ele><time>2026-04-17T09:56:16.758Z</time></trkpt><trkpt lat="40.7808421" lon="-3.7860019"><ele>1024.5</ele><time>2026-04-17T09:56:17.758Z</time></trkpt><trkpt lat="40.7808122" lon="-3.786158"><ele>1025.0</ele><time>2026-04-17T09:56:18.759Z</time></trkpt><trkpt lat="40.7807839" lon="-3.7862922"><ele>1025.1666666666667</ele><time>2026-04-17T09:56:19.758Z</time></trkpt><trkpt lat="40.7807732" lon="-3.7864113"><ele>1025.3333333333335</ele><time>2026-04-17T09:56:20.759Z</time></trkpt><trkpt lat="40.7807694" lon="-3.786523"><ele>1025.5</ele><time>2026-04-17T09:56:21.759Z</time></trkpt><trkpt lat="40.7807828" lon="-3.7866232"><ele>1025.6666666666667</ele><time>2026-04-17T09:56:22.758Z</time></trkpt><trkpt lat="40.7808039" lon="-3.7867246"><ele>1025.8333333333333</ele><time>2026-04-17T09:56:23.758Z</time></trkpt><trkpt lat="40.7808329" lon="-3.7868385"><ele>1026.0</ele><time>2026-04-17T09:56:24.758Z</time></trkpt><trkpt lat="40.7808539" lon="-3.7869698"><ele>1026.0</ele><time>2026-04-17T09:56:25.758Z</time></trkpt><trkpt lat="40.7808692" lon="-3.7871088"><ele>1026.0</ele><time>2026-04-17T09:56:26.759Z</time></trkpt><trkpt lat="40.7808813" lon="-3.7872495"><ele>1026.0</ele><time>2026-04-17T09:56:27.759Z</time></trkpt><trkpt lat="40.7809082" lon="-3.7873868"><ele>1026.0</ele><time>2026-04-17T09:56:28.758Z</time></trkpt><trkpt lat="40.7809528" lon="-3.7875138"><ele>1026.0</ele><time>2026-04-17T09:56:29.759Z</time></trkpt><trkpt lat="40.780998" lon="-3.7876416"><ele>1027.8</ele><time>2026-04-17T09:56:30.758Z</time></trkpt><trkpt lat="40.7810387" lon="-3.7877654"><ele>1029.6</ele><time>2026-04-17T09:56:31.758Z</time></trkpt><trkpt lat="40.781063" lon="-3.7878923"><ele>1031.4</ele><time>2026-04-17T09:56:32.759Z</time></trkpt><trkpt lat="40.7810727" lon="-3.7880049"><ele>1033.2</ele><time>2026-04-17T09:56:33.758Z</time></trkpt><trkpt lat="40.7810599" lon="-3.7881157"><ele>1035.0</ele><time>2026-04-17T09:56:34.758Z</time></trkpt><trkpt lat="40.7810303" lon="-3.7882412"><ele>1034.75</ele><time>2026-04-17T09:56:35.758Z</time></trkpt><trkpt lat="40.7809954" lon="-3.7883655"><ele>1034.5</ele><time>2026-04-17T09:56:36.758Z</time></trkpt><trkpt lat="40.7809603" lon="-3.7884989"><ele>1034.25</ele><time>2026-04-17T09:56:37.758Z</time></trkpt><trkpt lat="40.7809316" lon="-3.7886538"><ele>1034.0</ele><time>2026-04-17T09:56:38.758Z</time></trkpt><trkpt lat="40.7809071" lon="-3.7888109"><ele>1034.0</ele><time>2026-04-17T09:56:39.759Z</time></trkpt><trkpt lat="40.7808838" lon="-3.7889762"><ele>1034.0</ele><time>2026-04-17T09:56:40.759Z</time></trkpt><trkpt lat="40.7808579" lon="-3.7891475"><ele>1034.0</ele><time>2026-04-17T09:56:41.758Z</time></trkpt><trkpt lat="40.7808283" lon="-3.7893221"><ele>1034.0</ele><time>2026-04-17T09:56:42.759Z</time></trkpt><trkpt lat="40.7808011" lon="-3.7894937"><ele>1034.25</ele><time>2026-04-17T09:56:43.758Z</time></trkpt><trkpt lat="40.780774" lon="-3.7896702"><ele>1034.5</ele><time>2026-04-17T09:56:44.758Z</time></trkpt><trkpt lat="40.7807519" lon="-3.789834"><ele>1034.75</ele><time>2026-04-17T09:56:45.758Z</time></trkpt><trkpt lat="40.7807369" lon="-3.7899995"><ele>1035.0</ele><time>2026-04-17T09:56:46.758Z</time></trkpt><trkpt lat="40.7807202" lon="-3.790166"><ele>1035.75</ele><time>2026-04-17T09:56:47.759Z</time></trkpt><trkpt lat="40.7807179" lon="-3.7903302"><ele>1036.5</ele><time>2026-04-17T09:56:48.759Z</time></trkpt><trkpt lat="40.7807266" lon="-3.7904882"><ele>1037.25</ele><time>2026-04-17T09:56:49.758Z</time></trkpt><trkpt lat="40.7807392" lon="-3.7906447"><ele>1038.0</ele><time>2026-04-17T09:56:50.759Z</time></trkpt><trkpt lat="40.7807404" lon="-3.7908047"><ele>1038.0</ele><time>2026-04-17T09:56:51.758Z</time></trkpt><trkpt lat="40.7807404" lon="-3.790953"><ele>1038.0</ele><time>2026-04-17T09:56:52.758Z</time></trkpt><trkpt lat="40.7807439" lon="-3.7910871"><ele>1038.0</ele><time>2026-04-17T09:56:53.759Z</time></trkpt><trkpt lat="40.780747" lon="-3.7912164"><ele>1038.0</ele><time>2026-04-17T09:56:54.758Z</time></trkpt><trkpt lat="40.7807473" lon="-3.7913369"><ele>1038.0</ele><time>2026-04-17T09:56:55.758Z</time></trkpt><trkpt lat="40.7807301" lon="-3.7914436"><ele>1037.8333333333333</ele><time>2026-04-17T09:56:56.758Z</time></trkpt><trkpt lat="40.7806873" lon="-3.791541"><ele>1037.6666666666667</ele><time>2026-04-17T09:56:57.758Z</time></trkpt><trkpt lat="40.7806319" lon="-3.7916317"><ele>1037.5</ele><time>2026-04-17T09:56:58.759Z</time></trkpt><trkpt lat="40.7805714" lon="-3.7917242"><ele>1037.3333333333335</ele><time>2026-04-17T09:56:59.758Z</time></trkpt><trkpt lat="40.7805124" lon="-3.7918137"><ele>1037.1666666666667</ele><time>2026-04-17T09:57:00.758Z</time></trkpt><trkpt lat="40.7804559" lon="-3.7918971"><ele>1037.0</ele><time>2026-04-17T09:57:01.759Z</time></trkpt><trkpt lat="40.7804089" lon="-3.7919765"><ele>1037.6666666666667</ele><time>2026-04-17T09:57:02.758Z</time></trkpt><trkpt lat="40.7803746" lon="-3.7920754"><ele>1038.3333333333335</ele><time>2026-04-17T09:57:03.759Z</time></trkpt><trkpt lat="40.7803487" lon="-3.7921764"><ele>1039.0</ele><time>2026-04-17T09:57:04.758Z</time></trkpt><trkpt lat="40.7803176" lon="-3.7922791"><ele>1039.6666666666667</ele><time>2026-04-17T09:57:05.759Z</time></trkpt><trkpt lat="40.7802782" lon="-3.7923905"><ele>1040.3333333333333</ele><time>2026-04-17T09:57:06.759Z</time></trkpt><trkpt lat="40.7802297" lon="-3.7925014"><ele>1041.0</ele><time>2026-04-17T09:57:07.758Z</time></trkpt><trkpt lat="40.7801741" lon="-3.7926054"><ele>1040.1666666666667</ele><time>2026-04-17T09:57:08.759Z</time></trkpt><trkpt lat="40.7801236" lon="-3.7927091"><ele>1039.3333333333333</ele><time>2026-04-17T09:57:09.759Z</time></trkpt><trkpt lat="40.7800761" lon="-3.7928045"><ele>1038.5</ele><time>2026-04-17T09:57:10.758Z</time></trkpt><trkpt lat="40.7800385" lon="-3.7929014"><ele>1037.6666666666665</ele><time>2026-04-17T09:57:11.758Z</time></trkpt><trkpt lat="40.7800143" lon="-3.7930006"><ele>1036.8333333333333</ele><time>2026-04-17T09:57:12.759Z</time></trkpt><trkpt lat="40.7799989" lon="-3.7930879"><ele>1036.0</ele><time>2026-04-17T09:57:13.758Z</time></trkpt><trkpt lat="40.7799774" lon="-3.793203"><ele>1036.0</ele><time>2026-04-17T09:57:15.758Z</time></trkpt><trkpt lat="40.7799593" lon="-3.7933024"><ele>1036.0</ele><time>2026-04-17T09:57:17.758Z</time></trkpt><trkpt lat="40.7799443" lon="-3.7933834"><ele>1036.0</ele><time>2026-04-17T09:57:19.758Z</time></trkpt><trkpt lat="40.7799062" lon="-3.7935233"><ele>1036.0</ele><time>2026-04-17T09:58:05.758Z</time></trkpt><trkpt lat="40.7799071" lon="-3.7936069"><ele>1036.0</ele><time>2026-04-17T09:58:06.758Z</time></trkpt><trkpt lat="40.7799089" lon="-3.7937018"><ele>1036.0</ele><time>2026-04-17T09:58:07.759Z</time></trkpt><trkpt lat="40.7799089" lon="-3.7938053"><ele>1036.3999999999999</ele><time>2026-04-17T09:58:08.758Z</time></trkpt><trkpt lat="40.7798977" lon="-3.7939137"><ele>1036.8</ele><time>2026-04-17T09:58:09.758Z</time></trkpt><trkpt lat="40.7798778" lon="-3.7940327"><ele>1037.1999999999998</ele><time>2026-04-17T09:58:10.759Z</time></trkpt><trkpt lat="40.7798503" lon="-3.7941554"><ele>1037.6</ele><time>2026-04-17T09:58:11.758Z</time></trkpt><trkpt lat="40.7798171" lon="-3.7942869"><ele>1038.0</ele><time>2026-04-17T09:58:12.759Z</time></trkpt><trkpt lat="40.7797944" lon="-3.7944239"><ele>1038.3333333333333</ele><time>2026-04-17T09:58:13.758Z</time></trkpt><trkpt lat="40.7797841" lon="-3.7945529"><ele>1038.6666666666667</ele><time>2026-04-17T09:58:14.758Z</time></trkpt><trkpt lat="40.7797876" lon="-3.7946765"><ele>1039.0</ele><time>2026-04-17T09:58:15.758Z</time></trkpt><trkpt lat="40.7798004" lon="-3.7947864"><ele>1039.3333333333335</ele><time>2026-04-17T09:58:16.759Z</time></trkpt><trkpt lat="40.7798001" lon="-3.794896"><ele>1039.6666666666667</ele><time>2026-04-17T09:58:17.759Z</time></trkpt><trkpt lat="40.7797788" lon="-3.795001"><ele>1040.0</ele><time>2026-04-17T09:58:18.758Z</time></trkpt><trkpt lat="40.7797223" lon="-3.7950994"><ele>1039.6666666666667</ele><time>2026-04-17T09:58:19.759Z</time></trkpt><trkpt lat="40.7796664" lon="-3.7952077"><ele>1039.3333333333335</ele><time>2026-04-17T09:58:20.759Z</time></trkpt><trkpt lat="40.7796308" lon="-3.7953171"><ele>1039.0</ele><time>2026-04-17T09:58:21.758Z</time></trkpt><trkpt lat="40.7796037" lon="-3.7954221"><ele>1038.6666666666667</ele><time>2026-04-17T09:58:22.759Z</time></trkpt><trkpt lat="40.7795733" lon="-3.7955193"><ele>1038.3333333333333</ele><time>2026-04-17T09:58:23.758Z</time></trkpt><trkpt lat="40.7795508" lon="-3.7956177"><ele>1038.0</ele><time>2026-04-17T09:58:24.758Z</time></trkpt><trkpt lat="40.7795403" lon="-3.7957246"><ele>1038.0</ele><time>2026-04-17T09:58:25.758Z</time></trkpt><trkpt lat="40.7795428" lon="-3.7958443"><ele>1038.0</ele><time>2026-04-17T09:58:26.758Z</time></trkpt><trkpt lat="40.7795537" lon="-3.7959733"><ele>1038.0</ele><time>2026-04-17T09:58:27.758Z</time></trkpt><trkpt lat="40.7795669" lon="-3.7961035"><ele>1038.0</ele><time>2026-04-17T09:58:28.758Z</time></trkpt><trkpt lat="40.7795808" lon="-3.796238"><ele>1038.0</ele><time>2026-04-17T09:58:29.759Z</time></trkpt><trkpt lat="40.7795966" lon="-3.7963548"><ele>1038.1666666666667</ele><time>2026-04-17T09:58:30.758Z</time></trkpt><trkpt lat="40.7796194" lon="-3.7964567"><ele>1038.3333333333333</ele><time>2026-04-17T09:58:31.758Z</time></trkpt><trkpt lat="40.779662" lon="-3.7965494"><ele>1038.5</ele><time>2026-04-17T09:58:32.759Z</time></trkpt><trkpt lat="40.7797219" lon="-3.7966145"><ele>1038.6666666666665</ele><time>2026-04-17T09:58:33.759Z</time></trkpt><trkpt lat="40.7797928" lon="-3.7966652"><ele>1038.8333333333333</ele><time>2026-04-17T09:58:34.758Z</time></trkpt><trkpt lat="40.7798577" lon="-3.7967027"><ele>1039.0</ele><time>2026-04-17T09:58:35.758Z</time></trkpt><trkpt lat="40.7799216" lon="-3.7967334"><ele>1039.0</ele><time>2026-04-17T09:58:36.759Z</time></trkpt><trkpt lat="40.7800341" lon="-3.7967995"><ele>1039.0</ele><time>2026-04-17T09:58:38.758Z</time></trkpt><trkpt lat="40.7800969" lon="-3.7969184"><ele>1039.0</ele><time>2026-04-17T09:58:40.759Z</time></trkpt><trkpt lat="40.7800868" lon="-3.7970109"><ele>1039.0</ele><time>2026-04-17T09:58:41.758Z</time></trkpt><trkpt lat="40.7800578" lon="-3.7971129"><ele>1039.0</ele><time>2026-04-17T09:58:42.759Z</time></trkpt><trkpt lat="40.7800135" lon="-3.7972092"><ele>1039.1666666666665</ele><time>2026-04-17T09:58:43.759Z</time></trkpt><trkpt lat="40.7799615" lon="-3.7973063"><ele>1039.3333333333333</ele><time>2026-04-17T09:58:44.758Z</time></trkpt><trkpt lat="40.7799225" lon="-3.7973958"><ele>1039.5</ele><time>2026-04-17T09:58:45.758Z</time></trkpt><trkpt lat="40.7799042" lon="-3.7974838"><ele>1039.6666666666667</ele><time>2026-04-17T09:58:46.758Z</time></trkpt><trkpt lat="40.7799089" lon="-3.7975807"><ele>1039.8333333333335</ele><time>2026-04-17T09:58:47.759Z</time></trkpt><trkpt lat="40.7799146" lon="-3.7976739"><ele>1040.0</ele><time>2026-04-17T09:58:48.758Z</time></trkpt><trkpt lat="40.7799261" lon="-3.7977759"><ele>1040.8</ele><time>2026-04-17T09:58:49.758Z</time></trkpt><trkpt lat="40.7799339" lon="-3.7978837"><ele>1041.6</ele><time>2026-04-17T09:58:50.758Z</time></trkpt><trkpt lat="40.7799458" lon="-3.7980008"><ele>1042.4</ele><time>2026-04-17T09:58:51.758Z</time></trkpt><trkpt lat="40.7799555" lon="-3.7981358"><ele>1043.2</ele><time>2026-04-17T09:58:52.759Z</time></trkpt><trkpt lat="40.7799656" lon="-3.7982979"><ele>1044.0</ele><time>2026-04-17T09:58:53.759Z</time></trkpt><trkpt lat="40.7799825" lon="-3.7984578"><ele>1044.2</ele><time>2026-04-17T09:58:54.759Z</time></trkpt><trkpt lat="40.7800005" lon="-3.7986065"><ele>1044.4</ele><time>2026-04-17T09:58:55.758Z</time></trkpt><trkpt lat="40.7800261" lon="-3.7987425"><ele>1044.6</ele><time>2026-04-17T09:58:56.759Z</time></trkpt><trkpt lat="40.780066" lon="-3.7988591"><ele>1044.8</ele><time>2026-04-17T09:58:57.758Z</time></trkpt><trkpt lat="40.7801231" lon="-3.7989717"><ele>1045.0</ele><time>2026-04-17T09:58:58.759Z</time></trkpt><trkpt lat="40.7801543" lon="-3.7990831"><ele>1045.0</ele><time>2026-04-17T09:58:59.758Z</time></trkpt><trkpt lat="40.780141" lon="-3.7991947"><ele>1045.0</ele><time>2026-04-17T09:59:00.759Z</time></trkpt><trkpt lat="40.7801097" lon="-3.7993124"><ele>1045.0</ele><time>2026-04-17T09:59:01.758Z</time></trkpt><trkpt lat="40.7800706" lon="-3.7994362"><ele>1045.0</ele><time>2026-04-17T09:59:02.758Z</time></trkpt><trkpt lat="40.7800361" lon="-3.7995636"><ele>1045.0</ele><time>2026-04-17T09:59:03.759Z</time></trkpt><trkpt lat="40.7800077" lon="-3.7996988"><ele>1045.8</ele><time>2026-04-17T09:59:04.759Z</time></trkpt><trkpt lat="40.7799841" lon="-3.7998429"><ele>1046.6</ele><time>2026-04-17T09:59:05.758Z</time></trkpt><trkpt lat="40.7799578" lon="-3.7999898"><ele>1047.4</ele><time>2026-04-17T09:59:06.758Z</time></trkpt><trkpt lat="40.7799268" lon="-3.8001319"><ele>1048.2</ele><time>2026-04-17T09:59:07.758Z</time></trkpt><trkpt lat="40.7798911" lon="-3.8002669"><ele>1049.0</ele><time>2026-04-17T09:59:08.759Z</time></trkpt><trkpt lat="40.7798408" lon="-3.8003842"><ele>1050.2</ele><time>2026-04-17T09:59:09.758Z</time></trkpt><trkpt lat="40.7797813" lon="-3.8004913"><ele>1051.4</ele><time>2026-04-17T09:59:10.759Z</time></trkpt><trkpt lat="40.7797041" lon="-3.8005802"><ele>1052.6</ele><time>2026-04-17T09:59:11.758Z</time></trkpt><trkpt lat="40.7796166" lon="-3.8006555"><ele>1053.8</ele><time>2026-04-17T09:59:12.759Z</time></trkpt><trkpt lat="40.7795215" lon="-3.8007254"><ele>1055.0</ele><time>2026-04-17T09:59:13.758Z</time></trkpt><trkpt lat="40.7794048" lon="-3.8007898"><ele>1053.6</ele><time>2026-04-17T09:59:14.758Z</time></trkpt><trkpt lat="40.7792922" lon="-3.8008629"><ele>1052.2</ele><time>2026-04-17T09:59:15.758Z</time></trkpt><trkpt lat="40.7791948" lon="-3.8009303"><ele>1050.8</ele><time>2026-04-17T09:59:16.758Z</time></trkpt><trkpt lat="40.7791155" lon="-3.8009845"><ele>1049.4</ele><time>2026-04-17T09:59:17.758Z</time></trkpt><trkpt lat="40.7790555" lon="-3.8010207"><ele>1048.0</ele><time>2026-04-17T09:59:18.758Z</time></trkpt><trkpt lat="40.7789738" lon="-3.8011205"><ele>1048.0</ele><time>2026-04-17T09:59:20.759Z</time></trkpt><trkpt lat="40.7789627" lon="-3.8012697"><ele>1048.0</ele><time>2026-04-17T09:59:22.758Z</time></trkpt><trkpt lat="40.778989" lon="-3.8014232"><ele>1048.0</ele><time>2026-04-17T09:59:24.758Z</time></trkpt><trkpt lat="40.7789968" lon="-3.8015134"><ele>1048.0</ele><time>2026-04-17T09:59:25.759Z</time></trkpt><trkpt lat="40.7789855" lon="-3.8016109"><ele>1048.0</ele><time>2026-04-17T09:59:26.759Z</time></trkpt><trkpt lat="40.7789438" lon="-3.8017082"><ele>1048.0</ele><time>2026-04-17T09:59:27.758Z</time></trkpt><trkpt lat="40.7788923" lon="-3.8018175"><ele>1048.0</ele><time>2026-04-17T09:59:28.758Z</time></trkpt><trkpt lat="40.7788372" lon="-3.8019267"><ele>1048.0</ele><time>2026-04-17T09:59:29.758Z</time></trkpt><trkpt lat="40.7787824" lon="-3.8020424"><ele>1048.0</ele><time>2026-04-17T09:59:30.758Z</time></trkpt><trkpt lat="40.7787457" lon="-3.8021628"><ele>1048.0</ele><time>2026-04-17T09:59:31.758Z</time></trkpt><trkpt lat="40.7787251" lon="-3.802281"><ele>1048.6</ele><time>2026-04-17T09:59:32.758Z</time></trkpt><trkpt lat="40.7787197" lon="-3.8024162"><ele>1049.1999999999998</ele><time>2026-04-17T09:59:33.759Z</time></trkpt><trkpt lat="40.7787066" lon="-3.8025562"><ele>1049.8</ele><time>2026-04-17T09:59:34.758Z</time></trkpt><trkpt lat="40.778689" lon="-3.8026847"><ele>1050.3999999999999</ele><time>2026-04-17T09:59:35.759Z</time></trkpt><trkpt lat="40.7786792" lon="-3.8028162"><ele>1051.0</ele><time>2026-04-17T09:59:36.758Z</time></trkpt><trkpt lat="40.7786721" lon="-3.8029224"><ele>1051.0</ele><time>2026-04-17T09:59:37.758Z</time></trkpt><trkpt lat="40.7786846" lon="-3.8027762"><ele>1051.0</ele><time>2026-04-17T09:59:48.759Z</time></trkpt><trkpt lat="40.7786995" lon="-3.802646"><ele>1051.0</ele><time>2026-04-17T09:59:49.758Z</time></trkpt><trkpt lat="40.7787146" lon="-3.8025086"><ele>1051.0</ele><time>2026-04-17T09:59:50.759Z</time></trkpt><trkpt lat="40.7787281" lon="-3.8023744"><ele>1051.0</ele><time>2026-04-17T09:59:51.758Z</time></trkpt><trkpt lat="40.778741" lon="-3.8022526"><ele>1051.0</ele><time>2026-04-17T09:59:52.759Z</time></trkpt><trkpt lat="40.7787738" lon="-3.8021422"><ele>1051.0</ele><time>2026-04-17T09:59:53.758Z</time></trkpt><trkpt lat="40.7788041" lon="-3.8020333"><ele>1051.0</ele><time>2026-04-17T09:59:54.759Z</time></trkpt><trkpt lat="40.7788383" lon="-3.8019351"><ele>1051.0</ele><time>2026-04-17T09:59:55.759Z</time></trkpt><trkpt lat="40.778874" lon="-3.8018598"><ele>1051.0</ele><time>2026-04-17T09:59:56.758Z</time></trkpt><trkpt lat="40.7789349" lon="-3.8017491"><ele>1051.0</ele><time>2026-04-17T09:59:58.759Z</time></trkpt><trkpt lat="40.7789686" lon="-3.8016756"><ele>1050.5714285714287</ele><time>2026-04-17T10:00:00.758Z</time></trkpt><trkpt lat="40.7789899" lon="-3.8015664"><ele>1050.142857142857</ele><time>2026-04-17T10:00:07.759Z</time></trkpt><trkpt lat="40.7789777" lon="-3.8014663"><ele>1049.7142857142858</ele><time>2026-04-17T10:00:09.758Z</time></trkpt><trkpt lat="40.778979" lon="-3.8015627"><ele>1049.2857142857142</ele><time>2026-04-17T10:00:37.759Z</time></trkpt><trkpt lat="40.7789883" lon="-3.8016474"><ele>1048.857142857143</ele><time>2026-04-17T10:00:48.809Z</time></trkpt><trkpt lat="40.77897" lon="-3.8015664"><ele>1048.4285714285716</ele><time>2026-04-17T10:01:14.758Z</time></trkpt><trkpt lat="40.7789651" lon="-3.8014592"><ele>1048.0</ele><time>2026-04-17T10:01:23.81Z</time></trkpt><trkpt lat="40.7789907" lon="-3.8016214"><ele>1048.0</ele><time>2026-04-17T10:01:51.758Z</time></trkpt><trkpt lat="40.7789167" lon="-3.8018119"><ele>1048.0</ele><time>2026-04-17T10:01:54.759Z</time></trkpt><trkpt lat="40.7788668" lon="-3.8019335"><ele>1048.0</ele><time>2026-04-17T10:01:55.759Z</time></trkpt><trkpt lat="40.7788278" lon="-3.8020559"><ele>1048.0</ele><time>2026-04-17T10:01:56.758Z</time></trkpt><trkpt lat="40.7788" lon="-3.8021745"><ele>1048.6</ele><time>2026-04-17T10:01:57.759Z</time></trkpt><trkpt lat="40.778778" lon="-3.8022918"><ele>1049.1999999999998</ele><time>2026-04-17T10:01:58.758Z</time></trkpt><trkpt lat="40.7787565" lon="-3.8024111"><ele>1049.8</ele><time>2026-04-17T10:01:59.758Z</time></trkpt><trkpt lat="40.7787316" lon="-3.8025411"><ele>1050.3999999999999</ele><time>2026-04-17T10:02:00.758Z</time></trkpt><trkpt lat="40.7787149" lon="-3.8026732"><ele>1051.0</ele><time>2026-04-17T10:02:01.758Z</time></trkpt><trkpt lat="40.7786975" lon="-3.802808"><ele>1051.6</ele><time>2026-04-17T10:02:02.759Z</time></trkpt><trkpt lat="40.7786816" lon="-3.8029435"><ele>1052.1999999999998</ele><time>2026-04-17T10:02:03.758Z</time></trkpt><trkpt lat="40.7786652" lon="-3.803071"><ele>1052.8000000000002</ele><time>2026-04-17T10:02:04.758Z</time></trkpt><trkpt lat="40.7786395" lon="-3.8031938"><ele>1053.4</ele><time>2026-04-17T10:02:05.758Z</time></trkpt><trkpt lat="40.7786057" lon="-3.8033197"><ele>1054.0</ele><time>2026-04-17T10:02:06.759Z</time></trkpt><trkpt lat="40.7785652" lon="-3.8034543"><ele>1055.0</ele><time>2026-04-17T10:02:07.759Z</time></trkpt><trkpt lat="40.7785225" lon="-3.8035989"><ele>1056.0</ele><time>2026-04-17T10:02:08.758Z</time></trkpt><trkpt lat="40.7784707" lon="-3.8037492"><ele>1057.0</ele><time>2026-04-17T10:02:09.759Z</time></trkpt><trkpt lat="40.7784193" lon="-3.8038996"><ele>1058.0</ele><time>2026-04-17T10:02:10.758Z</time></trkpt><trkpt lat="40.7783653" lon="-3.8040438"><ele>1056.25</ele><time>2026-04-17T10:02:11.758Z</time></trkpt><trkpt lat="40.7783015" lon="-3.8041931"><ele>1054.5</ele><time>2026-04-17T10:02:12.758Z</time></trkpt><trkpt lat="40.7782325" lon="-3.8043456"><ele>1052.75</ele><time>2026-04-17T10:02:13.758Z</time></trkpt><trkpt lat="40.7781605" lon="-3.8045072"><ele>1051.0</ele><time>2026-04-17T10:02:14.758Z</time></trkpt><trkpt lat="40.7780919" lon="-3.8046707"><ele>1051.0</ele><time>2026-04-17T10:02:15.758Z</time></trkpt><trkpt lat="40.7780262" lon="-3.8048257"><ele>1051.0</ele><time>2026-04-17T10:02:16.759Z</time></trkpt><trkpt lat="40.7779653" lon="-3.8049815"><ele>1051.0</ele><time>2026-04-17T10:02:17.758Z</time></trkpt><trkpt lat="40.7779081" lon="-3.8051347"><ele>1051.0</ele><time>2026-04-17T10:02:18.758Z</time></trkpt><trkpt lat="40.7778521" lon="-3.8052813"><ele>1050.25</ele><time>2026-04-17T10:02:19.759Z</time></trkpt><trkpt lat="40.7777999" lon="-3.8054316"><ele>1049.5</ele><time>2026-04-17T10:02:20.758Z</time></trkpt><trkpt lat="40.7777532" lon="-3.8055961"><ele>1048.75</ele><time>2026-04-17T10:02:21.758Z</time></trkpt><trkpt lat="40.7776948" lon="-3.8057627"><ele>1048.0</ele><time>2026-04-17T10:02:22.758Z</time></trkpt><trkpt lat="40.777626" lon="-3.8059165"><ele>1049.0</ele><time>2026-04-17T10:02:23.759Z</time></trkpt><trkpt lat="40.77756" lon="-3.806078"><ele>1050.0</ele><time>2026-04-17T10:02:24.758Z</time></trkpt><trkpt lat="40.7774939" lon="-3.8062436"><ele>1051.0</ele><time>2026-04-17T10:02:25.758Z</time></trkpt><trkpt lat="40.7774207" lon="-3.8064222"><ele>1052.0</ele><time>2026-04-17T10:02:26.758Z</time></trkpt><trkpt lat="40.777345" lon="-3.8066137"><ele>1052.0</ele><time>2026-04-17T10:02:27.759Z</time></trkpt><trkpt lat="40.7772722" lon="-3.806811"><ele>1052.0</ele><time>2026-04-17T10:02:28.759Z</time></trkpt><trkpt lat="40.7771973" lon="-3.8070144"><ele>1052.0</ele><time>2026-04-17T10:02:29.758Z</time></trkpt><trkpt lat="40.7771299" lon="-3.8072054"><ele>1053.3333333333335</ele><time>2026-04-17T10:02:30.758Z</time></trkpt><trkpt lat="40.7770653" lon="-3.8074003"><ele>1054.6666666666667</ele><time>2026-04-17T10:02:31.758Z</time></trkpt><trkpt lat="40.7770007" lon="-3.8075929"><ele>1056.0</ele><time>2026-04-17T10:02:32.758Z</time></trkpt><trkpt lat="40.7769421" lon="-3.8077826"><ele>1055.75</ele><time>2026-04-17T10:02:33.758Z</time></trkpt><trkpt lat="40.7768938" lon="-3.8079714"><ele>1055.5</ele><time>2026-04-17T10:02:34.758Z</time></trkpt><trkpt lat="40.776857" lon="-3.8081578"><ele>1055.25</ele><time>2026-04-17T10:02:35.758Z</time></trkpt><trkpt lat="40.7768324" lon="-3.8083381"><ele>1055.0</ele><time>2026-04-17T10:02:36.758Z</time></trkpt><trkpt lat="40.7768009" lon="-3.8085117"><ele>1055.5</ele><time>2026-04-17T10:02:37.758Z</time></trkpt><trkpt lat="40.776746" lon="-3.808676"><ele>1056.0</ele><time>2026-04-17T10:02:38.759Z</time></trkpt><trkpt lat="40.7766798" lon="-3.8088454"><ele>1056.5</ele><time>2026-04-17T10:02:39.758Z</time></trkpt><trkpt lat="40.7766029" lon="-3.8090089"><ele>1057.0</ele><time>2026-04-17T10:02:40.759Z</time></trkpt><trkpt lat="40.7765138" lon="-3.8091635"><ele>1057.0</ele><time>2026-04-17T10:02:41.759Z</time></trkpt><trkpt lat="40.7764225" lon="-3.8093064"><ele>1057.0</ele><time>2026-04-17T10:02:42.759Z</time></trkpt><trkpt lat="40.7763224" lon="-3.8094395"><ele>1057.0</ele><time>2026-04-17T10:02:43.758Z</time></trkpt><trkpt lat="40.7762208" lon="-3.809571"><ele>1057.0</ele><time>2026-04-17T10:02:44.759Z</time></trkpt><trkpt lat="40.7761314" lon="-3.8097191"><ele>1057.0</ele><time>2026-04-17T10:02:45.758Z</time></trkpt><trkpt lat="40.7760567" lon="-3.8098772"><ele>1057.0</ele><time>2026-04-17T10:02:46.758Z</time></trkpt><trkpt lat="40.7759796" lon="-3.8100422"><ele>1057.0</ele><time>2026-04-17T10:02:47.758Z</time></trkpt><trkpt lat="40.7759026" lon="-3.8101971"><ele>1057.0</ele><time>2026-04-17T10:02:48.759Z</time></trkpt><trkpt lat="40.7758269" lon="-3.8103454"><ele>1057.75</ele><time>2026-04-17T10:02:49.758Z</time></trkpt><trkpt lat="40.7757501" lon="-3.8104811"><ele>1058.5</ele><time>2026-04-17T10:02:50.758Z</time></trkpt><trkpt lat="40.7756711" lon="-3.8106029"><ele>1059.25</ele><time>2026-04-17T10:02:51.758Z</time></trkpt><trkpt lat="40.775587" lon="-3.8107086"><ele>1060.0</ele><time>2026-04-17T10:02:52.759Z</time></trkpt><trkpt lat="40.7754916" lon="-3.8107972"><ele>1060.0</ele><time>2026-04-17T10:02:53.759Z</time></trkpt><trkpt lat="40.7753819" lon="-3.8108734"><ele>1060.0</ele><time>2026-04-17T10:02:54.758Z</time></trkpt><trkpt lat="40.7752729" lon="-3.8109602"><ele>1060.0</ele><time>2026-04-17T10:02:55.758Z</time></trkpt><trkpt lat="40.7751607" lon="-3.8110471"><ele>1060.0</ele><time>2026-04-17T10:02:56.759Z</time></trkpt><trkpt lat="40.7750424" lon="-3.8111357"><ele>1060.5</ele><time>2026-04-17T10:02:57.758Z</time></trkpt><trkpt lat="40.7749209" lon="-3.8112218"><ele>1061.0</ele><time>2026-04-17T10:02:58.759Z</time></trkpt><trkpt lat="40.7748062" lon="-3.8113148"><ele>1061.5</ele><time>2026-04-17T10:02:59.758Z</time></trkpt><trkpt lat="40.774692" lon="-3.8114067"><ele>1062.0</ele><time>2026-04-17T10:03:00.759Z</time></trkpt><trkpt lat="40.7745778" lon="-3.811492"><ele>1062.0</ele><time>2026-04-17T10:03:01.758Z</time></trkpt><trkpt lat="40.774463" lon="-3.8115808"><ele>1062.0</ele><time>2026-04-17T10:03:02.758Z</time></trkpt><trkpt lat="40.7743483" lon="-3.8116625"><ele>1062.0</ele><time>2026-04-17T10:03:03.758Z</time></trkpt><trkpt lat="40.7742312" lon="-3.8117498"><ele>1062.0</ele><time>2026-04-17T10:03:04.759Z</time></trkpt><trkpt lat="40.7741114" lon="-3.8118217"><ele>1060.25</ele><time>2026-04-17T10:03:05.758Z</time></trkpt><trkpt lat="40.7739893" lon="-3.8118902"><ele>1058.5</ele><time>2026-04-17T10:03:06.759Z</time></trkpt><trkpt lat="40.7738634" lon="-3.8119416"><ele>1056.75</ele><time>2026-04-17T10:03:07.759Z</time></trkpt><trkpt lat="40.7737361" lon="-3.8119912"><ele>1055.0</ele><time>2026-04-17T10:03:08.759Z</time></trkpt><trkpt lat="40.7736095" lon="-3.8120313"><ele>1053.75</ele><time>2026-04-17T10:03:09.758Z</time></trkpt><trkpt lat="40.7734801" lon="-3.8120611"><ele>1052.5</ele><time>2026-04-17T10:03:10.759Z</time></trkpt><trkpt lat="40.7733495" lon="-3.8120776"><ele>1051.25</ele><time>2026-04-17T10:03:11.759Z</time></trkpt><trkpt lat="40.7732192" lon="-3.8120803"><ele>1050.0</ele><time>2026-04-17T10:03:12.758Z</time></trkpt><trkpt lat="40.7730828" lon="-3.8120699"><ele>1050.0</ele><time>2026-04-17T10:03:13.759Z</time></trkpt><trkpt lat="40.772945" lon="-3.8120502"><ele>1050.0</ele><time>2026-04-17T10:03:14.759Z</time></trkpt><trkpt lat="40.7728043" lon="-3.812015"><ele>1050.0</ele><time>2026-04-17T10:03:15.758Z</time></trkpt><trkpt lat="40.7726575" lon="-3.811977"><ele>1050.0</ele><time>2026-04-17T10:03:16.758Z</time></trkpt><trkpt lat="40.7725108" lon="-3.8119357"><ele>1049.5</ele><time>2026-04-17T10:03:17.758Z</time></trkpt><trkpt lat="40.7723691" lon="-3.811898"><ele>1049.0</ele><time>2026-04-17T10:03:18.759Z</time></trkpt><trkpt lat="40.7722332" lon="-3.8118593"><ele>1048.5</ele><time>2026-04-17T10:03:19.758Z</time></trkpt><trkpt lat="40.7721057" lon="-3.8118232"><ele>1048.0</ele><time>2026-04-17T10:03:20.758Z</time></trkpt><trkpt lat="40.771986" lon="-3.8117995"><ele>1048.0</ele><time>2026-04-17T10:03:21.759Z</time></trkpt><trkpt lat="40.7718684" lon="-3.8117944"><ele>1048.0</ele><time>2026-04-17T10:03:22.758Z</time></trkpt><trkpt lat="40.7717585" lon="-3.8118003"><ele>1048.0</ele><time>2026-04-17T10:03:23.759Z</time></trkpt><trkpt lat="40.7716554" lon="-3.8118151"><ele>1048.0</ele><time>2026-04-17T10:03:24.759Z</time></trkpt><trkpt lat="40.7715541" lon="-3.8118446"><ele>1048.0</ele><time>2026-04-17T10:03:25.758Z</time></trkpt><trkpt lat="40.771464" lon="-3.8118748"><ele>1047.6666666666665</ele><time>2026-04-17T10:03:26.759Z</time></trkpt><trkpt lat="40.7713884" lon="-3.8119074"><ele>1047.3333333333333</ele><time>2026-04-17T10:03:27.758Z</time></trkpt><trkpt lat="40.7713199" lon="-3.8119322"><ele>1047.0</ele><time>2026-04-17T10:03:28.758Z</time></trkpt><trkpt lat="40.7712558" lon="-3.8119544"><ele>1046.6666666666667</ele><time>2026-04-17T10:03:29.758Z</time></trkpt><trkpt lat="40.7711852" lon="-3.8119689"><ele>1046.3333333333335</ele><time>2026-04-17T10:03:30.758Z</time></trkpt><trkpt lat="40.7710714" lon="-3.8119279"><ele>1046.0</ele><time>2026-04-17T10:03:32.758Z</time></trkpt><trkpt lat="40.7710194" lon="-3.8118703"><ele>1044.0</ele><time>2026-04-17T10:03:33.759Z</time></trkpt><trkpt lat="40.7709684" lon="-3.8117806"><ele>1042.0</ele><time>2026-04-17T10:03:34.759Z</time></trkpt><trkpt lat="40.770915" lon="-3.8116787"><ele>1040.0</ele><time>2026-04-17T10:03:35.758Z</time></trkpt><trkpt lat="40.7708443" lon="-3.8115794"><ele>1038.0</ele><time>2026-04-17T10:03:36.758Z</time></trkpt><trkpt lat="40.7707515" lon="-3.8114893"><ele>1036.0</ele><time>2026-04-17T10:03:37.758Z</time></trkpt><trkpt lat="40.7706453" lon="-3.8114"><ele>1036.0</ele><time>2026-04-17T10:03:38.758Z</time></trkpt><trkpt lat="40.7705304" lon="-3.8113165"><ele>1036.0</ele><time>2026-04-17T10:03:39.759Z</time></trkpt><trkpt lat="40.770418" lon="-3.8112367"><ele>1036.0</ele><time>2026-04-17T10:03:40.758Z</time></trkpt><trkpt lat="40.7703199" lon="-3.8111652"><ele>1036.0</ele><time>2026-04-17T10:03:41.758Z</time></trkpt><trkpt lat="40.7702423" lon="-3.8111091"><ele>1034.6666666666665</ele><time>2026-04-17T10:03:42.759Z</time></trkpt><trkpt lat="40.7701724" lon="-3.8110714"><ele>1033.3333333333333</ele><time>2026-04-17T10:03:43.759Z</time></trkpt><trkpt lat="40.7701035" lon="-3.811052"><ele>1032.0</ele><time>2026-04-17T10:03:44.759Z</time></trkpt><trkpt lat="40.7700205" lon="-3.811062"><ele>1030.6666666666667</ele><time>2026-04-17T10:03:45.758Z</time></trkpt><trkpt lat="40.7699406" lon="-3.8111131"><ele>1029.3333333333335</ele><time>2026-04-17T10:03:46.758Z</time></trkpt><trkpt lat="40.769862" lon="-3.8112003"><ele>1028.0</ele><time>2026-04-17T10:03:47.758Z</time></trkpt><trkpt lat="40.769795" lon="-3.8112959"><ele>1028.0</ele><time>2026-04-17T10:03:48.758Z</time></trkpt><trkpt lat="40.7697383" lon="-3.8114084"><ele>1028.0</ele><time>2026-04-17T10:03:49.759Z</time></trkpt><trkpt lat="40.7696942" lon="-3.8115308"><ele>1028.0</ele><time>2026-04-17T10:03:50.758Z</time></trkpt><trkpt lat="40.7696513" lon="-3.81166"><ele>1028.0</ele><time>2026-04-17T10:03:51.758Z</time></trkpt><trkpt lat="40.7696241" lon="-3.8117916"><ele>1028.0</ele><time>2026-04-17T10:03:52.758Z</time></trkpt><trkpt lat="40.7695989" lon="-3.8119149"><ele>1028.6</ele><time>2026-04-17T10:03:53.759Z</time></trkpt><trkpt lat="40.7695613" lon="-3.8120425"><ele>1029.1999999999998</ele><time>2026-04-17T10:03:54.758Z</time></trkpt><trkpt lat="40.7695152" lon="-3.8121739"><ele>1029.8</ele><time>2026-04-17T10:03:55.759Z</time></trkpt><trkpt lat="40.7694645" lon="-3.8123144"><ele>1030.3999999999999</ele><time>2026-04-17T10:03:56.758Z</time></trkpt><trkpt lat="40.7694111" lon="-3.8124493"><ele>1031.0</ele><time>2026-04-17T10:03:57.758Z</time></trkpt><trkpt lat="40.7693436" lon="-3.8125786"><ele>1028.0</ele><time>2026-04-17T10:03:58.758Z</time></trkpt><trkpt lat="40.7692668" lon="-3.812703"><ele>1025.0</ele><time>2026-04-17T10:03:59.759Z</time></trkpt><trkpt lat="40.7691825" lon="-3.8128085"><ele>1022.0</ele><time>2026-04-17T10:04:00.758Z</time></trkpt><trkpt lat="40.7690847" lon="-3.8129059"><ele>1019.0</ele><time>2026-04-17T10:04:01.759Z</time></trkpt><trkpt lat="40.7689848" lon="-3.8129993"><ele>1019.0</ele><time>2026-04-17T10:04:02.758Z</time></trkpt><trkpt lat="40.7688792" lon="-3.8130842"><ele>1019.0</ele><time>2026-04-17T10:04:03.759Z</time></trkpt><trkpt lat="40.7687696" lon="-3.8131698"><ele>1019.0</ele><time>2026-04-17T10:04:04.758Z</time></trkpt><trkpt lat="40.7686661" lon="-3.81325"><ele>1019.0</ele><time>2026-04-17T10:04:05.758Z</time></trkpt><trkpt lat="40.7685645" lon="-3.8133169"><ele>1018.4000000000001</ele><time>2026-04-17T10:04:06.759Z</time></trkpt><trkpt lat="40.7684722" lon="-3.8133807"><ele>1017.8000000000001</ele><time>2026-04-17T10:04:07.758Z</time></trkpt><trkpt lat="40.7683964" lon="-3.8134433"><ele>1017.1999999999999</ele><time>2026-04-17T10:04:08.758Z</time></trkpt><trkpt lat="40.768344" lon="-3.8135215"><ele>1016.5999999999999</ele><time>2026-04-17T10:04:09.759Z</time></trkpt><trkpt lat="40.7683017" lon="-3.8136684"><ele>1016.0</ele><time>2026-04-17T10:04:11.758Z</time></trkpt><trkpt lat="40.7683106" lon="-3.8138255"><ele>1016.0000000000001</ele><time>2026-04-17T10:04:13.759Z</time></trkpt><trkpt lat="40.7683228" lon="-3.8139153"><ele>1016.0</ele><time>2026-04-17T10:04:14.758Z</time></trkpt><trkpt lat="40.7683254" lon="-3.8140256"><ele>1016.0</ele><time>2026-04-17T10:04:15.759Z</time></trkpt><trkpt lat="40.7683174" lon="-3.8141489"><ele>1016.0</ele><time>2026-04-17T10:04:16.758Z</time></trkpt><trkpt lat="40.7683071" lon="-3.8142725"><ele>1016.0000000000001</ele><time>2026-04-17T10:04:17.759Z</time></trkpt><trkpt lat="40.7682963" lon="-3.8143957"><ele>1016.0</ele><time>2026-04-17T10:04:18.758Z</time></trkpt><trkpt lat="40.7682942" lon="-3.8145134"><ele>1016.5000000000001</ele><time>2026-04-17T10:04:19.759Z</time></trkpt><trkpt lat="40.7683066" lon="-3.8146259"><ele>1017.0</ele><time>2026-04-17T10:04:20.758Z</time></trkpt><trkpt lat="40.768331" lon="-3.8147258"><ele>1017.5</ele><time>2026-04-17T10:04:21.758Z</time></trkpt><trkpt lat="40.7683721" lon="-3.814813"><ele>1018.0</ele><time>2026-04-17T10:04:22.759Z</time></trkpt><trkpt lat="40.7684307" lon="-3.814896"><ele>1018.5000000000001</ele><time>2026-04-17T10:04:23.758Z</time></trkpt><trkpt lat="40.7685022" lon="-3.8149641"><ele>1019.0</ele><time>2026-04-17T10:04:24.759Z</time></trkpt><trkpt lat="40.7685808" lon="-3.815024"><ele>1020.6</ele><time>2026-04-17T10:04:25.759Z</time></trkpt><trkpt lat="40.7686682" lon="-3.8150748"><ele>1022.2</ele><time>2026-04-17T10:04:26.758Z</time></trkpt><trkpt lat="40.76876" lon="-3.8151181"><ele>1023.8000000000001</ele><time>2026-04-17T10:04:27.758Z</time></trkpt><trkpt lat="40.7688506" lon="-3.8151442"><ele>1025.4</ele><time>2026-04-17T10:04:28.759Z</time></trkpt><trkpt lat="40.7689467" lon="-3.8151715"><ele>1027.0</ele><time>2026-04-17T10:04:29.758Z</time></trkpt><trkpt lat="40.7690448" lon="-3.8151972"><ele>1027.0</ele><time>2026-04-17T10:04:30.758Z</time></trkpt><trkpt lat="40.7691397" lon="-3.8152337"><ele>1027.0</ele><time>2026-04-17T10:04:31.758Z</time></trkpt><trkpt lat="40.7692218" lon="-3.8152728"><ele>1027.0</ele><time>2026-04-17T10:04:32.758Z</time></trkpt><trkpt lat="40.7692855" lon="-3.8153246"><ele>1027.0</ele><time>2026-04-17T10:04:33.759Z</time></trkpt><trkpt lat="40.7693329" lon="-3.8153804"><ele>1027.0</ele><time>2026-04-17T10:04:34.759Z</time></trkpt><trkpt lat="40.7693575" lon="-3.8155123"><ele>1027.0</ele><time>2026-04-17T10:04:36.759Z</time></trkpt><trkpt lat="40.7693161" lon="-3.8156643"><ele>1027.0</ele><time>2026-04-17T10:04:38.759Z</time></trkpt><trkpt lat="40.7692751" lon="-3.8157511"><ele>1027.0</ele><time>2026-04-17T10:04:39.758Z</time></trkpt><trkpt lat="40.7692312" lon="-3.8158456"><ele>1027.0</ele><time>2026-04-17T10:04:40.759Z</time></trkpt><trkpt lat="40.7691841" lon="-3.8159523"><ele>1027.0</ele><time>2026-04-17T10:04:41.759Z</time></trkpt><trkpt lat="40.7691484" lon="-3.8160632"><ele>1027.0</ele><time>2026-04-17T10:04:42.758Z</time></trkpt><trkpt lat="40.7691274" lon="-3.8161622"><ele>1027.0</ele><time>2026-04-17T10:04:43.758Z</time></trkpt><trkpt lat="40.7691198" lon="-3.816247"><ele>1027.5</ele><time>2026-04-17T10:04:44.758Z</time></trkpt><trkpt lat="40.7691407" lon="-3.8164208"><ele>1028.0</ele><time>2026-04-17T10:04:46.759Z</time></trkpt><trkpt lat="40.7691631" lon="-3.8165187"><ele>1028.5</ele><time>2026-04-17T10:04:47.758Z</time></trkpt><trkpt lat="40.7691866" lon="-3.8166217"><ele>1029.0</ele><time>2026-04-17T10:04:48.759Z</time></trkpt><trkpt lat="40.769208" lon="-3.8167196"><ele>1029.5</ele><time>2026-04-17T10:04:49.758Z</time></trkpt><trkpt lat="40.7692189" lon="-3.8168083"><ele>1030.0</ele><time>2026-04-17T10:04:50.758Z</time></trkpt><trkpt lat="40.7692075" lon="-3.8168985"><ele>1030.8</ele><time>2026-04-17T10:04:51.759Z</time></trkpt><trkpt lat="40.7691773" lon="-3.8169821"><ele>1031.6</ele><time>2026-04-17T10:04:52.759Z</time></trkpt><trkpt lat="40.7691221" lon="-3.8170751"><ele>1032.4</ele><time>2026-04-17T10:04:53.759Z</time></trkpt><trkpt lat="40.7690541" lon="-3.8171598"><ele>1033.2</ele><time>2026-04-17T10:04:54.758Z</time></trkpt><trkpt lat="40.7689801" lon="-3.8172416"><ele>1034.0</ele><time>2026-04-17T10:04:55.759Z</time></trkpt><trkpt lat="40.7688969" lon="-3.817339"><ele>1034.0</ele><time>2026-04-17T10:04:56.759Z</time></trkpt><trkpt lat="40.7688157" lon="-3.8174439"><ele>1034.0</ele><time>2026-04-17T10:04:57.758Z</time></trkpt><trkpt lat="40.768735" lon="-3.8175438"><ele>1034.0</ele><time>2026-04-17T10:04:58.758Z</time></trkpt><trkpt lat="40.7686512" lon="-3.8176389"><ele>1034.0</ele><time>2026-04-17T10:04:59.759Z</time></trkpt><trkpt lat="40.7685782" lon="-3.8177414"><ele>1034.0</ele><time>2026-04-17T10:05:00.758Z</time></trkpt><trkpt lat="40.7685135" lon="-3.8178395"><ele>1033.8</ele><time>2026-04-17T10:05:01.758Z</time></trkpt><trkpt lat="40.7684508" lon="-3.8179373"><ele>1033.6000000000001</ele><time>2026-04-17T10:05:02.758Z</time></trkpt><trkpt lat="40.7683832" lon="-3.8180378"><ele>1033.4</ele><time>2026-04-17T10:05:03.758Z</time></trkpt><trkpt lat="40.7683172" lon="-3.8181355"><ele>1033.2</ele><time>2026-04-17T10:05:04.758Z</time></trkpt><trkpt lat="40.7682588" lon="-3.8182208"><ele>1033.0</ele><time>2026-04-17T10:05:05.758Z</time></trkpt><trkpt lat="40.7682018" lon="-3.8183147"><ele>1033.0</ele><time>2026-04-17T10:05:06.759Z</time></trkpt><trkpt lat="40.7681504" lon="-3.8184093"><ele>1033.0</ele><time>2026-04-17T10:05:07.759Z</time></trkpt><trkpt lat="40.7680997" lon="-3.8184966"><ele>1033.0</ele><time>2026-04-17T10:05:08.759Z</time></trkpt><trkpt lat="40.7680399" lon="-3.8185641"><ele>1033.0</ele><time>2026-04-17T10:05:09.759Z</time></trkpt><trkpt lat="40.7679808" lon="-3.8186214"><ele>1033.0</ele><time>2026-04-17T10:05:10.759Z</time></trkpt><trkpt lat="40.7679049" lon="-3.8186653"><ele>1033.0</ele><time>2026-04-17T10:05:11.758Z</time></trkpt><trkpt lat="40.7678158" lon="-3.8186926"><ele>1032.5</ele><time>2026-04-17T10:05:12.759Z</time></trkpt><trkpt lat="40.7677183" lon="-3.8187048"><ele>1032.0</ele><time>2026-04-17T10:05:13.758Z</time></trkpt><trkpt lat="40.7676266" lon="-3.8187054"><ele>1031.5</ele><time>2026-04-17T10:05:14.758Z</time></trkpt><trkpt lat="40.7675414" lon="-3.8186974"><ele>1031.0</ele><time>2026-04-17T10:05:15.758Z</time></trkpt><trkpt lat="40.7674603" lon="-3.8187021"><ele>1030.5</ele><time>2026-04-17T10:05:16.759Z</time></trkpt><trkpt lat="40.7673903" lon="-3.8187063"><ele>1030.0</ele><time>2026-04-17T10:05:17.758Z</time></trkpt><trkpt lat="40.7672765" lon="-3.8187564"><ele>1029.3333333333333</ele><time>2026-04-17T10:05:19.758Z</time></trkpt><trkpt lat="40.7671931" lon="-3.8188023"><ele>1028.6666666666665</ele><time>2026-04-17T10:05:21.758Z</time></trkpt><trkpt lat="40.767113" lon="-3.8188505"><ele>1028.0</ele><time>2026-04-17T10:05:24.759Z</time></trkpt><trkpt lat="40.7670975" lon="-3.8189428"><ele>1027.3333333333333</ele><time>2026-04-17T10:05:27.759Z</time></trkpt><trkpt lat="40.7671334" lon="-3.8190424"><ele>1026.6666666666667</ele><time>2026-04-17T10:05:31.758Z</time></trkpt><trkpt lat="40.7671609" lon="-3.8191387"><ele>1026.0</ele><time>2026-04-17T10:05:33.758Z</time></trkpt><trkpt lat="40.7671208" lon="-3.8192652"><ele>1026.0</ele><time>2026-04-17T10:05:36.758Z</time></trkpt><trkpt lat="40.7670616" lon="-3.819332"><ele>1026.0</ele><time>2026-04-17T10:05:37.758Z</time></trkpt><trkpt lat="40.766982" lon="-3.8193934"><ele>1026.0</ele><time>2026-04-17T10:05:38.758Z</time></trkpt><trkpt lat="40.7668936" lon="-3.8194428"><ele>1026.0</ele><time>2026-04-17T10:05:39.758Z</time></trkpt><trkpt lat="40.766801" lon="-3.819476"><ele>1026.0</ele><time>2026-04-17T10:05:40.758Z</time></trkpt><trkpt lat="40.766698" lon="-3.8195047"><ele>1026.0</ele><time>2026-04-17T10:05:41.758Z</time></trkpt><trkpt lat="40.7665978" lon="-3.8195375"><ele>1026.0</ele><time>2026-04-17T10:05:42.758Z</time></trkpt><trkpt lat="40.7665023" lon="-3.8195877"><ele>1026.0</ele><time>2026-04-17T10:05:43.758Z</time></trkpt><trkpt lat="40.7664115" lon="-3.8196443"><ele>1026.0</ele><time>2026-04-17T10:05:44.759Z</time></trkpt><trkpt lat="40.7663163" lon="-3.8197225"><ele>1026.0</ele><time>2026-04-17T10:05:45.758Z</time></trkpt><trkpt lat="40.7662157" lon="-3.8198025"><ele>1026.0</ele><time>2026-04-17T10:05:46.759Z</time></trkpt><trkpt lat="40.7661253" lon="-3.8198911"><ele>1026.0</ele><time>2026-04-17T10:05:47.758Z</time></trkpt><trkpt lat="40.7660303" lon="-3.8199822"><ele>1026.0</ele><time>2026-04-17T10:05:48.758Z</time></trkpt><trkpt lat="40.7659328" lon="-3.8200693"><ele>1026.0</ele><time>2026-04-17T10:05:49.759Z</time></trkpt><trkpt lat="40.7658263" lon="-3.8201442"><ele>1025.25</ele><time>2026-04-17T10:05:50.759Z</time></trkpt><trkpt lat="40.7657065" lon="-3.8202042"><ele>1024.5</ele><time>2026-04-17T10:05:51.758Z</time></trkpt><trkpt lat="40.7655848" lon="-3.8202589"><ele>1023.75</ele><time>2026-04-17T10:05:52.758Z</time></trkpt><trkpt lat="40.7654648" lon="-3.8203161"><ele>1023.0</ele><time>2026-04-17T10:05:53.759Z</time></trkpt><trkpt lat="40.7653463" lon="-3.8203621"><ele>1023.0</ele><time>2026-04-17T10:05:54.758Z</time></trkpt><trkpt lat="40.7652248" lon="-3.8204124"><ele>1023.0</ele><time>2026-04-17T10:05:55.759Z</time></trkpt><trkpt lat="40.7651099" lon="-3.8204644"><ele>1023.0</ele><time>2026-04-17T10:05:56.758Z</time></trkpt><trkpt lat="40.7649975" lon="-3.8205208"><ele>1023.0</ele><time>2026-04-17T10:05:57.758Z</time></trkpt><trkpt lat="40.7648858" lon="-3.8205704"><ele>1021.4</ele><time>2026-04-17T10:05:58.759Z</time></trkpt><trkpt lat="40.7647806" lon="-3.8206166"><ele>1019.8</ele><time>2026-04-17T10:05:59.758Z</time></trkpt><trkpt lat="40.764683" lon="-3.8206642"><ele>1018.2</ele><time>2026-04-17T10:06:00.758Z</time></trkpt><trkpt lat="40.7645985" lon="-3.8207135"><ele>1016.6</ele><time>2026-04-17T10:06:01.759Z</time></trkpt><trkpt lat="40.7645159" lon="-3.8207615"><ele>1015.0</ele><time>2026-04-17T10:06:02.758Z</time></trkpt><trkpt lat="40.7644237" lon="-3.8207943"><ele>1013.75</ele><time>2026-04-17T10:06:03.759Z</time></trkpt><trkpt lat="40.7643224" lon="-3.8208269"><ele>1012.5</ele><time>2026-04-17T10:06:04.758Z</time></trkpt><trkpt lat="40.7642095" lon="-3.8208472"><ele>1011.25</ele><time>2026-04-17T10:06:05.759Z</time></trkpt><trkpt lat="40.7640916" lon="-3.8208682"><ele>1010.0</ele><time>2026-04-17T10:06:06.759Z</time></trkpt><trkpt lat="40.7639744" lon="-3.8209073"><ele>1010.0</ele><time>2026-04-17T10:06:07.758Z</time></trkpt><trkpt lat="40.7638649" lon="-3.8209463"><ele>1010.0</ele><time>2026-04-17T10:06:08.759Z</time></trkpt><trkpt lat="40.7637641" lon="-3.8209947"><ele>1010.0</ele><time>2026-04-17T10:06:09.758Z</time></trkpt><trkpt lat="40.7636728" lon="-3.8210546"><ele>1010.0</ele><time>2026-04-17T10:06:10.758Z</time></trkpt><trkpt lat="40.7635899" lon="-3.8211268"><ele>1010.0</ele><time>2026-04-17T10:06:11.758Z</time></trkpt><trkpt lat="40.7634995" lon="-3.82121"><ele>1008.6</ele><time>2026-04-17T10:06:12.759Z</time></trkpt><trkpt lat="40.7634079" lon="-3.8212863"><ele>1007.2</ele><time>2026-04-17T10:06:13.759Z</time></trkpt><trkpt lat="40.7633225" lon="-3.8213496"><ele>1005.8</ele><time>2026-04-17T10:06:14.759Z</time></trkpt><trkpt lat="40.7632457" lon="-3.8213994"><ele>1004.4</ele><time>2026-04-17T10:06:15.758Z</time></trkpt><trkpt lat="40.7631675" lon="-3.821461"><ele>1003.0</ele><time>2026-04-17T10:06:16.758Z</time></trkpt><trkpt lat="40.763097" lon="-3.8215525"><ele>1003.0</ele><time>2026-04-17T10:06:17.759Z</time></trkpt><trkpt lat="40.763021" lon="-3.8216593"><ele>1003.0</ele><time>2026-04-17T10:06:18.758Z</time></trkpt><trkpt lat="40.7629516" lon="-3.8217687"><ele>1003.0</ele><time>2026-04-17T10:06:19.758Z</time></trkpt><trkpt lat="40.7628797" lon="-3.8218879"><ele>1003.0</ele><time>2026-04-17T10:06:20.758Z</time></trkpt><trkpt lat="40.7628156" lon="-3.822009"><ele>1003.0</ele><time>2026-04-17T10:06:21.758Z</time></trkpt><trkpt lat="40.7627593" lon="-3.8221158"><ele>1002.8333333333333</ele><time>2026-04-17T10:06:22.759Z</time></trkpt><trkpt lat="40.7627059" lon="-3.8221975"><ele>1002.6666666666666</ele><time>2026-04-17T10:06:23.758Z</time></trkpt><trkpt lat="40.7626352" lon="-3.8222611"><ele>1002.5</ele><time>2026-04-17T10:06:24.758Z</time></trkpt><trkpt lat="40.7625541" lon="-3.8223064"><ele>1002.3333333333333</ele><time>2026-04-17T10:06:25.758Z</time></trkpt><trkpt lat="40.7624711" lon="-3.8223461"><ele>1002.1666666666666</ele><time>2026-04-17T10:06:26.758Z</time></trkpt><trkpt lat="40.7623824" lon="-3.822389"><ele>1002.0</ele><time>2026-04-17T10:06:27.759Z</time></trkpt><trkpt lat="40.7622896" lon="-3.8224454"><ele>1001.6</ele><time>2026-04-17T10:06:28.758Z</time></trkpt><trkpt lat="40.7621958" lon="-3.8225215"><ele>1001.2</ele><time>2026-04-17T10:06:29.758Z</time></trkpt><trkpt lat="40.7621086" lon="-3.8226052"><ele>1000.8</ele><time>2026-04-17T10:06:30.759Z</time></trkpt><trkpt lat="40.7620264" lon="-3.8226848"><ele>1000.4</ele><time>2026-04-17T10:06:31.759Z</time></trkpt><trkpt lat="40.7619557" lon="-3.8227697"><ele>1000.0</ele><time>2026-04-17T10:06:32.758Z</time></trkpt><trkpt lat="40.7618875" lon="-3.8228576"><ele>999.4</ele><time>2026-04-17T10:06:33.758Z</time></trkpt><trkpt lat="40.7618153" lon="-3.8229457"><ele>998.8</ele><time>2026-04-17T10:06:34.758Z</time></trkpt><trkpt lat="40.7617439" lon="-3.8230544"><ele>998.2</ele><time>2026-04-17T10:06:35.758Z</time></trkpt><trkpt lat="40.7616775" lon="-3.8231581"><ele>997.6</ele><time>2026-04-17T10:06:36.758Z</time></trkpt><trkpt lat="40.7616153" lon="-3.8232554"><ele>997.0</ele><time>2026-04-17T10:06:37.758Z</time></trkpt><trkpt lat="40.7615503" lon="-3.8233573"><ele>997.0</ele><time>2026-04-17T10:06:38.759Z</time></trkpt><trkpt lat="40.7614811" lon="-3.8234679"><ele>997.0</ele><time>2026-04-17T10:06:39.758Z</time></trkpt><trkpt lat="40.7614176" lon="-3.82357"><ele>997.0</ele><time>2026-04-17T10:06:40.758Z</time></trkpt><trkpt lat="40.7613582" lon="-3.8236602"><ele>997.0</ele><time>2026-04-17T10:06:41.758Z</time></trkpt><trkpt lat="40.7612989" lon="-3.8237429"><ele>997.0</ele><time>2026-04-17T10:06:42.759Z</time></trkpt><trkpt lat="40.7612377" lon="-3.8238169"><ele>996.6666666666666</ele><time>2026-04-17T10:06:43.758Z</time></trkpt><trkpt lat="40.7611626" lon="-3.8238882"><ele>996.3333333333333</ele><time>2026-04-17T10:06:44.759Z</time></trkpt><trkpt lat="40.7610763" lon="-3.8239456"><ele>996.0</ele><time>2026-04-17T10:06:45.758Z</time></trkpt><trkpt lat="40.7609885" lon="-3.8239921"><ele>995.6666666666667</ele><time>2026-04-17T10:06:46.758Z</time></trkpt><trkpt lat="40.7609088" lon="-3.8240388"><ele>995.3333333333334</ele><time>2026-04-17T10:06:47.759Z</time></trkpt><trkpt lat="40.7608447" lon="-3.8240798"><ele>995.0</ele><time>2026-04-17T10:06:48.758Z</time></trkpt><trkpt lat="40.7607885" lon="-3.8241214"><ele>995.0</ele><time>2026-04-17T10:06:49.758Z</time></trkpt><trkpt lat="40.7606941" lon="-3.8241617"><ele>995.0</ele><time>2026-04-17T10:06:51.758Z</time></trkpt><trkpt lat="40.7606003" lon="-3.8241788"><ele>995.0</ele><time>2026-04-17T10:06:53.759Z</time></trkpt><trkpt lat="40.7604862" lon="-3.8241618"><ele>995.0</ele><time>2026-04-17T10:06:55.758Z</time></trkpt><trkpt lat="40.7604122" lon="-3.8241555"><ele>995.0</ele><time>2026-04-17T10:06:56.759Z</time></trkpt><trkpt lat="40.7603272" lon="-3.8241407"><ele>995.0</ele><time>2026-04-17T10:06:57.759Z</time></trkpt><trkpt lat="40.7602415" lon="-3.8241221"><ele>995.0</ele><time>2026-04-17T10:06:58.758Z</time></trkpt><trkpt lat="40.76015" lon="-3.8241049"><ele>995.0</ele><time>2026-04-17T10:06:59.758Z</time></trkpt><trkpt lat="40.7600527" lon="-3.8240859"><ele>995.0</ele><time>2026-04-17T10:07:00.759Z</time></trkpt><trkpt lat="40.7599448" lon="-3.8240502"><ele>995.0</ele><time>2026-04-17T10:07:01.758Z</time></trkpt><trkpt lat="40.7598311" lon="-3.8240118"><ele>994.0</ele><time>2026-04-17T10:07:02.758Z</time></trkpt><trkpt lat="40.759714" lon="-3.8239694"><ele>993.0</ele><time>2026-04-17T10:07:03.758Z</time></trkpt><trkpt lat="40.7595944" lon="-3.8239236"><ele>992.0</ele><time>2026-04-17T10:07:04.758Z</time></trkpt><trkpt lat="40.7594746" lon="-3.8238744"><ele>991.0</ele><time>2026-04-17T10:07:05.759Z</time></trkpt><trkpt lat="40.7593481" lon="-3.8238241"><ele>990.5</ele><time>2026-04-17T10:07:06.758Z</time></trkpt><trkpt lat="40.7592126" lon="-3.8237662"><ele>990.0</ele><time>2026-04-17T10:07:07.758Z</time></trkpt><trkpt lat="40.7590679" lon="-3.823724"><ele>989.5</ele><time>2026-04-17T10:07:08.758Z</time></trkpt><trkpt lat="40.7589294" lon="-3.8236931"><ele>989.0</ele><time>2026-04-17T10:07:09.758Z</time></trkpt><trkpt lat="40.7587965" lon="-3.8236573"><ele>989.0</ele><time>2026-04-17T10:07:10.758Z</time></trkpt><trkpt lat="40.7586668" lon="-3.8236222"><ele>989.0</ele><time>2026-04-17T10:07:11.758Z</time></trkpt><trkpt lat="40.7585455" lon="-3.8235928"><ele>989.0</ele><time>2026-04-17T10:07:12.758Z</time></trkpt><trkpt lat="40.7584322" lon="-3.8235874"><ele>989.0</ele><time>2026-04-17T10:07:13.758Z</time></trkpt><trkpt lat="40.758324" lon="-3.8235955"><ele>988.1666666666667</ele><time>2026-04-17T10:07:14.758Z</time></trkpt><trkpt lat="40.7582231" lon="-3.8236086"><ele>987.3333333333334</ele><time>2026-04-17T10:07:15.759Z</time></trkpt><trkpt lat="40.7581367" lon="-3.8236061"><ele>986.5</ele><time>2026-04-17T10:07:16.758Z</time></trkpt><trkpt lat="40.7580543" lon="-3.8235983"><ele>985.6666666666667</ele><time>2026-04-17T10:07:17.758Z</time></trkpt><trkpt lat="40.7579802" lon="-3.8235658"><ele>984.8333333333334</ele><time>2026-04-17T10:07:18.758Z</time></trkpt><trkpt lat="40.7579084" lon="-3.8235064"><ele>984.0</ele><time>2026-04-17T10:07:19.759Z</time></trkpt><trkpt lat="40.7578341" lon="-3.8234228"><ele>983.1666666666666</ele><time>2026-04-17T10:07:20.759Z</time></trkpt><trkpt lat="40.7577655" lon="-3.8233394"><ele>982.3333333333333</ele><time>2026-04-17T10:07:21.759Z</time></trkpt><trkpt lat="40.7576996" lon="-3.8232651"><ele>981.5</ele><time>2026-04-17T10:07:22.758Z</time></trkpt><trkpt lat="40.7576316" lon="-3.8231923"><ele>980.6666666666666</ele><time>2026-04-17T10:07:23.759Z</time></trkpt><trkpt lat="40.7575656" lon="-3.8231279"><ele>979.8333333333333</ele><time>2026-04-17T10:07:24.759Z</time></trkpt><trkpt lat="40.7574946" lon="-3.8230811"><ele>979.0</ele><time>2026-04-17T10:07:25.758Z</time></trkpt><trkpt lat="40.7574225" lon="-3.8230556"><ele>978.4999999999999</ele><time>2026-04-17T10:07:26.758Z</time></trkpt><trkpt lat="40.7573462" lon="-3.8230284"><ele>978.0</ele><time>2026-04-17T10:07:27.758Z</time></trkpt><trkpt lat="40.7572655" lon="-3.823008"><ele>977.5</ele><time>2026-04-17T10:07:28.758Z</time></trkpt><trkpt lat="40.7571825" lon="-3.8230193"><ele>977.0</ele><time>2026-04-17T10:07:29.758Z</time></trkpt><trkpt lat="40.7570934" lon="-3.8230279"><ele>976.4999999999999</ele><time>2026-04-17T10:07:30.758Z</time></trkpt><trkpt lat="40.7569983" lon="-3.8230256"><ele>976.0</ele><time>2026-04-17T10:07:31.759Z</time></trkpt><trkpt lat="40.7568926" lon="-3.8230181"><ele>974.4</ele><time>2026-04-17T10:07:32.758Z</time></trkpt><trkpt lat="40.7567901" lon="-3.8230088"><ele>972.8</ele><time>2026-04-17T10:07:33.758Z</time></trkpt><trkpt lat="40.7566898" lon="-3.8230029"><ele>971.1999999999999</ele><time>2026-04-17T10:07:34.759Z</time></trkpt><trkpt lat="40.7565753" lon="-3.8229892"><ele>969.5999999999999</ele><time>2026-04-17T10:07:35.759Z</time></trkpt><trkpt lat="40.7564638" lon="-3.8229712"><ele>968.0</ele><time>2026-04-17T10:07:36.759Z</time></trkpt><trkpt lat="40.7563568" lon="-3.8229415"><ele>968.0</ele><time>2026-04-17T10:07:37.759Z</time></trkpt><trkpt lat="40.7562608" lon="-3.8229126"><ele>968.0</ele><time>2026-04-17T10:07:38.758Z</time></trkpt><trkpt lat="40.7561745" lon="-3.8228685"><ele>968.0</ele><time>2026-04-17T10:07:39.758Z</time></trkpt><trkpt lat="40.7560903" lon="-3.8228184"><ele>968.0</ele><time>2026-04-17T10:07:40.758Z</time></trkpt><trkpt lat="40.7560017" lon="-3.8227555"><ele>968.0</ele><time>2026-04-17T10:07:41.759Z</time></trkpt><trkpt lat="40.75592" lon="-3.8226841"><ele>967.5000000000001</ele><time>2026-04-17T10:07:42.758Z</time></trkpt><trkpt lat="40.7558452" lon="-3.8226026"><ele>967.0</ele><time>2026-04-17T10:07:43.758Z</time></trkpt><trkpt lat="40.7557697" lon="-3.8225389"><ele>966.5</ele><time>2026-04-17T10:07:44.758Z</time></trkpt><trkpt lat="40.755688" lon="-3.8225018"><ele>966.0</ele><time>2026-04-17T10:07:45.759Z</time></trkpt><trkpt lat="40.7556062" lon="-3.8224794"><ele>965.5000000000001</ele><time>2026-04-17T10:07:46.758Z</time></trkpt><trkpt lat="40.7555216" lon="-3.822481"><ele>965.0</ele><time>2026-04-17T10:07:47.759Z</time></trkpt><trkpt lat="40.7554332" lon="-3.8225239"><ele>965.0</ele><time>2026-04-17T10:07:48.758Z</time></trkpt><trkpt lat="40.7553443" lon="-3.8225877"><ele>965.0</ele><time>2026-04-17T10:07:49.758Z</time></trkpt><trkpt lat="40.7552544" lon="-3.8226709"><ele>965.0</ele><time>2026-04-17T10:07:50.758Z</time></trkpt><trkpt lat="40.7551636" lon="-3.8227727"><ele>965.0</ele><time>2026-04-17T10:07:51.758Z</time></trkpt><trkpt lat="40.7550755" lon="-3.8228655"><ele>965.0</ele><time>2026-04-17T10:07:52.759Z</time></trkpt><trkpt lat="40.7550001" lon="-3.8229658"><ele>964.4</ele><time>2026-04-17T10:07:53.758Z</time></trkpt><trkpt lat="40.754924" lon="-3.8230625"><ele>963.8</ele><time>2026-04-17T10:07:54.759Z</time></trkpt><trkpt lat="40.754847" lon="-3.8231592"><ele>963.2</ele><time>2026-04-17T10:07:55.758Z</time></trkpt><trkpt lat="40.7547647" lon="-3.8232485"><ele>962.6</ele><time>2026-04-17T10:07:56.758Z</time></trkpt><trkpt lat="40.7546785" lon="-3.8233335"><ele>962.0</ele><time>2026-04-17T10:07:57.758Z</time></trkpt><trkpt lat="40.7545948" lon="-3.8234146"><ele>961.8</ele><time>2026-04-17T10:07:58.758Z</time></trkpt><trkpt lat="40.7545054" lon="-3.823485"><ele>961.6</ele><time>2026-04-17T10:07:59.758Z</time></trkpt><trkpt lat="40.7544085" lon="-3.8235501"><ele>961.3999999999999</ele><time>2026-04-17T10:08:00.758Z</time></trkpt><trkpt lat="40.7543104" lon="-3.8236053"><ele>961.1999999999999</ele><time>2026-04-17T10:08:01.759Z</time></trkpt><trkpt lat="40.7542113" lon="-3.8236592"><ele>961.0</ele><time>2026-04-17T10:08:02.759Z</time></trkpt><trkpt lat="40.7541125" lon="-3.8237176"><ele>960.1666666666666</ele><time>2026-04-17T10:08:03.758Z</time></trkpt><trkpt lat="40.754028" lon="-3.8237726"><ele>959.3333333333333</ele><time>2026-04-17T10:08:04.759Z</time></trkpt><trkpt lat="40.7539564" lon="-3.8238243"><ele>958.5</ele><time>2026-04-17T10:08:05.758Z</time></trkpt><trkpt lat="40.7539001" lon="-3.8238789"><ele>957.6666666666667</ele><time>2026-04-17T10:08:06.759Z</time></trkpt><trkpt lat="40.7538483" lon="-3.8239277"><ele>956.8333333333334</ele><time>2026-04-17T10:08:07.759Z</time></trkpt><trkpt lat="40.7537864" lon="-3.8239466"><ele>956.0</ele><time>2026-04-17T10:08:08.758Z</time></trkpt><trkpt lat="40.753707" lon="-3.8239425"><ele>956.0</ele><time>2026-04-17T10:08:09.758Z</time></trkpt><trkpt lat="40.7536183" lon="-3.8239171"><ele>955.9999999999999</ele><time>2026-04-17T10:08:10.758Z</time></trkpt><trkpt lat="40.753523" lon="-3.8238872"><ele>955.9999999999999</ele><time>2026-04-17T10:08:11.759Z</time></trkpt><trkpt lat="40.7534202" lon="-3.8238577"><ele>956.0</ele><time>2026-04-17T10:08:12.759Z</time></trkpt><trkpt lat="40.753325" lon="-3.82383"><ele>956.0</ele><time>2026-04-17T10:08:13.758Z</time></trkpt><trkpt lat="40.7532394" lon="-3.8238091"><ele>955.0000000000001</ele><time>2026-04-17T10:08:14.758Z</time></trkpt><trkpt lat="40.7531698" lon="-3.8237883"><ele>954.0</ele><time>2026-04-17T10:08:15.758Z</time></trkpt><trkpt lat="40.7530814" lon="-3.8237508"><ele>953.0</ele><time>2026-04-17T10:08:17.758Z</time></trkpt><trkpt lat="40.7530185" lon="-3.8237316"><ele>952.0</ele><time>2026-04-17T10:08:21.758Z</time></trkpt><trkpt lat="40.7529409" lon="-3.8237235"><ele>951.0000000000001</ele><time>2026-04-17T10:09:00.758Z</time></trkpt><trkpt lat="40.7528607" lon="-3.8237215"><ele>950.0</ele><time>2026-04-17T10:09:11.758Z</time></trkpt><trkpt lat="40.7527724" lon="-3.8237309"><ele>950.0</ele><time>2026-04-17T10:09:16.759Z</time></trkpt><trkpt lat="40.7528504" lon="-3.8236983"><ele>950.0</ele><time>2026-04-17T10:09:27.758Z</time></trkpt><trkpt lat="40.7529603" lon="-3.8236861"><ele>950.0</ele><time>2026-04-17T10:09:29.758Z</time></trkpt><trkpt lat="40.7530659" lon="-3.8237181"><ele>950.0</ele><time>2026-04-17T10:09:31.758Z</time></trkpt><trkpt lat="40.7531291" lon="-3.8237504"><ele>950.0</ele><time>2026-04-17T10:09:32.759Z</time></trkpt><trkpt lat="40.7532422" lon="-3.8238091"><ele>950.0</ele><time>2026-04-17T10:09:34.758Z</time></trkpt><trkpt lat="40.7533574" lon="-3.8238391"><ele>950.0</ele><time>2026-04-17T10:09:36.759Z</time></trkpt><trkpt lat="40.7534588" lon="-3.8238726"><ele>950.0</ele><time>2026-04-17T10:09:38.758Z</time></trkpt><trkpt lat="40.7535356" lon="-3.8238936"><ele>950.0</ele><time>2026-04-17T10:09:41.759Z</time></trkpt><trkpt lat="40.7536278" lon="-3.8239274"><ele>950.0</ele><time>2026-04-17T10:09:52.759Z</time></trkpt><trkpt lat="40.7537" lon="-3.8239179"><ele>950.0</ele><time>2026-04-17T10:12:38.758Z</time></trkpt><trkpt lat="40.7536217" lon="-3.8238775"><ele>950.0000000000001</ele><time>2026-04-17T10:14:13.758Z</time></trkpt><trkpt lat="40.7535559" lon="-3.8238341"><ele>950.0</ele><time>2026-04-17T10:14:17.759Z</time></trkpt><trkpt lat="40.7534858" lon="-3.8238265"><ele>950.0</ele><time>2026-04-17T10:14:26.758Z</time></trkpt><trkpt lat="40.7534217" lon="-3.8238277"><ele>950.0000000000001</ele><time>2026-04-17T10:14:39.758Z</time></trkpt><trkpt lat="40.7533506" lon="-3.8238174"><ele>950.0</ele><time>2026-04-17T10:14:47.758Z</time></trkpt><trkpt lat="40.7532789" lon="-3.823806"><ele>950.0</ele><time>2026-04-17T10:14:51.759Z</time></trkpt><trkpt lat="40.7533404" lon="-3.8238331"><ele>950.0</ele><time>2026-04-17T10:15:19.759Z</time></trkpt><trkpt lat="40.7534059" lon="-3.8238511"><ele>950.0000000000001</ele><time>2026-04-17T10:15:26.759Z</time></trkpt><trkpt lat="40.7533452" lon="-3.8238167"><ele>950.0</ele><time>2026-04-17T10:16:13.759Z</time></trkpt><trkpt lat="40.7532713" lon="-3.8238059"><ele>950.0</ele><time>2026-04-17T10:16:19.815Z</time></trkpt><trkpt lat="40.753207" lon="-3.8238023"><ele>950.0000000000001</ele><time>2026-04-17T10:16:26.768Z</time></trkpt><trkpt lat="40.7531383" lon="-3.8237779"><ele>950.0</ele><time>2026-04-17T10:16:50.794Z</time></trkpt><trkpt lat="40.7530661" lon="-3.823733"><ele>950.0</ele><time>2026-04-17T10:16:53.825Z</time></trkpt><trkpt lat="40.7529795" lon="-3.8237214"><ele>950.0000000000001</ele><time>2026-04-17T10:16:56.758Z</time></trkpt><trkpt lat="40.7528938" lon="-3.8237203"><ele>950.0</ele><time>2026-04-17T10:16:59.823Z</time></trkpt><trkpt lat="40.7528178" lon="-3.8237145"><ele>950.0</ele><time>2026-04-17T10:17:05.759Z</time></trkpt><trkpt lat="40.752698" lon="-3.8237396"><ele>950.0</ele><time>2026-04-17T10:17:07.758Z</time></trkpt><trkpt lat="40.7526305" lon="-3.8237494"><ele>950.0000000000001</ele><time>2026-04-17T10:17:08.758Z</time></trkpt><trkpt lat="40.7525582" lon="-3.8237468"><ele>950.0</ele><time>2026-04-17T10:17:09.758Z</time></trkpt><trkpt lat="40.7524824" lon="-3.8237453"><ele>948.8333333333334</ele><time>2026-04-17T10:17:10.759Z</time></trkpt><trkpt lat="40.7524052" lon="-3.8237334"><ele>947.6666666666667</ele><time>2026-04-17T10:17:11.759Z</time></trkpt><trkpt lat="40.7523217" lon="-3.8237136"><ele>946.5</ele><time>2026-04-17T10:17:12.758Z</time></trkpt><trkpt lat="40.7522366" lon="-3.8236916"><ele>945.3333333333333</ele><time>2026-04-17T10:17:13.758Z</time></trkpt><trkpt lat="40.7521498" lon="-3.8236755"><ele>944.1666666666666</ele><time>2026-04-17T10:17:14.758Z</time></trkpt><trkpt lat="40.7520652" lon="-3.8236577"><ele>943.0</ele><time>2026-04-17T10:17:15.758Z</time></trkpt><trkpt lat="40.7519889" lon="-3.8236392"><ele>942.9999999999999</ele><time>2026-04-17T10:17:16.759Z</time></trkpt><trkpt lat="40.7519116" lon="-3.8236251"><ele>943.0</ele><time>2026-04-17T10:17:17.759Z</time></trkpt><trkpt lat="40.7518298" lon="-3.8236152"><ele>943.0</ele><time>2026-04-17T10:17:18.759Z</time></trkpt><trkpt lat="40.751745" lon="-3.8236086"><ele>943.0</ele><time>2026-04-17T10:17:19.758Z</time></trkpt><trkpt lat="40.751653" lon="-3.8236048"><ele>942.9999999999999</ele><time>2026-04-17T10:17:20.758Z</time></trkpt><trkpt lat="40.7515553" lon="-3.8236017"><ele>943.0</ele><time>2026-04-17T10:17:21.758Z</time></trkpt><trkpt lat="40.7514533" lon="-3.8235847"><ele>942.5999999999999</ele><time>2026-04-17T10:17:22.759Z</time></trkpt><trkpt lat="40.7513471" lon="-3.8235594"><ele>942.1999999999999</ele><time>2026-04-17T10:17:23.758Z</time></trkpt><trkpt lat="40.7512391" lon="-3.8235303"><ele>941.8</ele><time>2026-04-17T10:17:24.758Z</time></trkpt><trkpt lat="40.7511293" lon="-3.8235024"><ele>941.4</ele><time>2026-04-17T10:17:25.759Z</time></trkpt><trkpt lat="40.751019" lon="-3.8234781"><ele>941.0</ele><time>2026-04-17T10:17:26.758Z</time></trkpt><trkpt lat="40.7509103" lon="-3.8234581"><ele>940.0</ele><time>2026-04-17T10:17:27.758Z</time></trkpt><trkpt lat="40.7508045" lon="-3.8234364"><ele>938.9999999999999</ele><time>2026-04-17T10:17:28.758Z</time></trkpt><trkpt lat="40.7506979" lon="-3.8234142"><ele>937.9999999999999</ele><time>2026-04-17T10:17:29.758Z</time></trkpt><trkpt lat="40.7505921" lon="-3.8233919"><ele>937.0</ele><time>2026-04-17T10:17:30.759Z</time></trkpt><trkpt lat="40.7504838" lon="-3.8233677"><ele>936.0</ele><time>2026-04-17T10:17:31.758Z</time></trkpt><trkpt lat="40.7503822" lon="-3.8233405"><ele>936.0</ele><time>2026-04-17T10:17:32.759Z</time></trkpt><trkpt lat="40.7502792" lon="-3.8233092"><ele>935.9999999999999</ele><time>2026-04-17T10:17:33.759Z</time></trkpt><trkpt lat="40.7501726" lon="-3.8232781"><ele>935.9999999999999</ele><time>2026-04-17T10:17:34.758Z</time></trkpt><trkpt lat="40.7500698" lon="-3.8232489"><ele>936.0</ele><time>2026-04-17T10:17:35.758Z</time></trkpt><trkpt lat="40.7499635" lon="-3.823213"><ele>936.0</ele><time>2026-04-17T10:17:36.758Z</time></trkpt><trkpt lat="40.7498687" lon="-3.8231798"><ele>935.1999999999999</ele><time>2026-04-17T10:17:37.759Z</time></trkpt><trkpt lat="40.7497712" lon="-3.823145"><ele>934.3999999999999</ele><time>2026-04-17T10:17:38.758Z</time></trkpt><trkpt lat="40.7496793" lon="-3.8231113"><ele>933.6</ele><time>2026-04-17T10:17:39.759Z</time></trkpt><trkpt lat="40.7495876" lon="-3.8230731"><ele>932.8</ele><time>2026-04-17T10:17:40.758Z</time></trkpt><trkpt lat="40.7494929" lon="-3.8230309"><ele>932.0</ele><time>2026-04-17T10:17:41.759Z</time></trkpt><trkpt lat="40.7493929" lon="-3.822988"><ele>931.0</ele><time>2026-04-17T10:17:42.758Z</time></trkpt><trkpt lat="40.7492947" lon="-3.8229506"><ele>930.0</ele><time>2026-04-17T10:17:43.759Z</time></trkpt><trkpt lat="40.7491933" lon="-3.8229112"><ele>929.0</ele><time>2026-04-17T10:17:44.758Z</time></trkpt><trkpt lat="40.7490831" lon="-3.8228634"><ele>928.0</ele><time>2026-04-17T10:17:45.759Z</time></trkpt><trkpt lat="40.7489743" lon="-3.8228091"><ele>927.0</ele><time>2026-04-17T10:17:46.759Z</time></trkpt><trkpt lat="40.748858" lon="-3.8227575"><ele>927.0</ele><time>2026-04-17T10:17:47.758Z</time></trkpt><trkpt lat="40.7487334" lon="-3.8227052"><ele>927.0</ele><time>2026-04-17T10:17:48.759Z</time></trkpt><trkpt lat="40.7486158" lon="-3.8226559"><ele>927.0</ele><time>2026-04-17T10:17:49.759Z</time></trkpt><trkpt lat="40.7484923" lon="-3.8226138"><ele>927.0</ele><time>2026-04-17T10:17:50.758Z</time></trkpt><trkpt lat="40.7483701" lon="-3.8225819"><ele>925.6</ele><time>2026-04-17T10:17:51.758Z</time></trkpt><trkpt lat="40.748251" lon="-3.8225535"><ele>924.2</ele><time>2026-04-17T10:17:52.758Z</time></trkpt><trkpt lat="40.7481383" lon="-3.8225213"><ele>922.8</ele><time>2026-04-17T10:17:53.759Z</time></trkpt><trkpt lat="40.7480341" lon="-3.8225055"><ele>921.4</ele><time>2026-04-17T10:17:54.758Z</time></trkpt><trkpt lat="40.7479282" lon="-3.8225099"><ele>920.0</ele><time>2026-04-17T10:17:55.758Z</time></trkpt><trkpt lat="40.7478169" lon="-3.8225383"><ele>920.25</ele><time>2026-04-17T10:17:56.758Z</time></trkpt><trkpt lat="40.7477052" lon="-3.8225788"><ele>920.5</ele><time>2026-04-17T10:17:57.758Z</time></trkpt><trkpt lat="40.7475921" lon="-3.8226219"><ele>920.75</ele><time>2026-04-17T10:17:58.759Z</time></trkpt><trkpt lat="40.7474787" lon="-3.8226727"><ele>921.0</ele><time>2026-04-17T10:17:59.758Z</time></trkpt><trkpt lat="40.7473684" lon="-3.8227104"><ele>920.25</ele><time>2026-04-17T10:18:00.758Z</time></trkpt><trkpt lat="40.7472536" lon="-3.8227412"><ele>919.5</ele><time>2026-04-17T10:18:01.758Z</time></trkpt><trkpt lat="40.7471318" lon="-3.8227762"><ele>918.75</ele><time>2026-04-17T10:18:02.758Z</time></trkpt><trkpt lat="40.7470095" lon="-3.822811"><ele>918.0</ele><time>2026-04-17T10:18:03.758Z</time></trkpt><trkpt lat="40.7468927" lon="-3.8228564"><ele>918.0</ele><time>2026-04-17T10:18:04.758Z</time></trkpt><trkpt lat="40.7467821" lon="-3.8229043"><ele>918.0</ele><time>2026-04-17T10:18:05.759Z</time></trkpt><trkpt lat="40.7466743" lon="-3.8229611"><ele>918.0</ele><time>2026-04-17T10:18:06.759Z</time></trkpt><trkpt lat="40.7465736" lon="-3.8230247"><ele>918.0</ele><time>2026-04-17T10:18:07.759Z</time></trkpt><trkpt lat="40.7464825" lon="-3.8230788"><ele>918.0</ele><time>2026-04-17T10:18:08.759Z</time></trkpt><trkpt lat="40.7463941" lon="-3.8231261"><ele>918.0</ele><time>2026-04-17T10:18:09.759Z</time></trkpt><trkpt lat="40.7463122" lon="-3.8231621"><ele>918.0</ele><time>2026-04-17T10:18:10.758Z</time></trkpt><trkpt lat="40.7462229" lon="-3.8231969"><ele>918.0</ele><time>2026-04-17T10:18:11.758Z</time></trkpt><trkpt lat="40.7461281" lon="-3.8232431"><ele>918.0</ele><time>2026-04-17T10:18:12.759Z</time></trkpt><trkpt lat="40.7460271" lon="-3.8232991"><ele>918.0</ele><time>2026-04-17T10:18:13.759Z</time></trkpt><trkpt lat="40.7459251" lon="-3.8233644"><ele>918.25</ele><time>2026-04-17T10:18:14.758Z</time></trkpt><trkpt lat="40.7458289" lon="-3.8234628"><ele>918.5</ele><time>2026-04-17T10:18:15.759Z</time></trkpt><trkpt lat="40.7457343" lon="-3.8235875"><ele>918.75</ele><time>2026-04-17T10:18:16.759Z</time></trkpt><trkpt lat="40.7456474" lon="-3.8237257"><ele>919.0</ele><time>2026-04-17T10:18:17.758Z</time></trkpt><trkpt lat="40.7455691" lon="-3.8238655"><ele>918.25</ele><time>2026-04-17T10:18:18.759Z</time></trkpt><trkpt lat="40.7454976" lon="-3.823993"><ele>917.5</ele><time>2026-04-17T10:18:19.758Z</time></trkpt><trkpt lat="40.7454234" lon="-3.8241159"><ele>916.75</ele><time>2026-04-17T10:18:20.758Z</time></trkpt><trkpt lat="40.7453548" lon="-3.8242387"><ele>916.0</ele><time>2026-04-17T10:18:21.759Z</time></trkpt><trkpt lat="40.7452798" lon="-3.824354"><ele>915.25</ele><time>2026-04-17T10:18:22.758Z</time></trkpt><trkpt lat="40.7452057" lon="-3.8244691"><ele>914.5</ele><time>2026-04-17T10:18:23.759Z</time></trkpt><trkpt lat="40.7451312" lon="-3.824592"><ele>913.75</ele><time>2026-04-17T10:18:24.759Z</time></trkpt><trkpt lat="40.7450582" lon="-3.8247166"><ele>913.0</ele><time>2026-04-17T10:18:25.758Z</time></trkpt><trkpt lat="40.7449898" lon="-3.8248429"><ele>913.0</ele><time>2026-04-17T10:18:26.759Z</time></trkpt><trkpt lat="40.7449218" lon="-3.8249617"><ele>913.0</ele><time>2026-04-17T10:18:27.758Z</time></trkpt><trkpt lat="40.7448591" lon="-3.8250693"><ele>913.0</ele><time>2026-04-17T10:18:28.758Z</time></trkpt><trkpt lat="40.7447983" lon="-3.8251633"><ele>913.0</ele><time>2026-04-17T10:18:29.758Z</time></trkpt><trkpt lat="40.7447248" lon="-3.8252475"><ele>913.0</ele><time>2026-04-17T10:18:30.758Z</time></trkpt><trkpt lat="40.7446446" lon="-3.8253273"><ele>913.4</ele><time>2026-04-17T10:18:31.758Z</time></trkpt><trkpt lat="40.7445573" lon="-3.825402"><ele>913.8</ele><time>2026-04-17T10:18:32.758Z</time></trkpt><trkpt lat="40.744458" lon="-3.8254651"><ele>914.2</ele><time>2026-04-17T10:18:33.759Z</time></trkpt><trkpt lat="40.7443509" lon="-3.825518"><ele>914.6</ele><time>2026-04-17T10:18:34.759Z</time></trkpt><trkpt lat="40.744234" lon="-3.8255548"><ele>915.0</ele><time>2026-04-17T10:18:35.758Z</time></trkpt><trkpt lat="40.7441182" lon="-3.825588"><ele>913.0</ele><time>2026-04-17T10:18:36.759Z</time></trkpt><trkpt lat="40.7439997" lon="-3.8256124"><ele>911.0</ele><time>2026-04-17T10:18:37.759Z</time></trkpt><trkpt lat="40.7438771" lon="-3.8256361"><ele>909.0</ele><time>2026-04-17T10:18:38.758Z</time></trkpt><trkpt lat="40.7437518" lon="-3.8256585"><ele>907.0</ele><time>2026-04-17T10:18:39.759Z</time></trkpt><trkpt lat="40.743622" lon="-3.825673"><ele>905.5</ele><time>2026-04-17T10:18:40.759Z</time></trkpt><trkpt lat="40.7434894" lon="-3.8256795"><ele>904.0</ele><time>2026-04-17T10:18:41.758Z</time></trkpt><trkpt lat="40.7433572" lon="-3.8256815"><ele>902.5</ele><time>2026-04-17T10:18:42.759Z</time></trkpt><trkpt lat="40.7432236" lon="-3.8256796"><ele>901.0</ele><time>2026-04-17T10:18:43.758Z</time></trkpt><trkpt lat="40.7430921" lon="-3.825675"><ele>901.0</ele><time>2026-04-17T10:18:44.758Z</time></trkpt><trkpt lat="40.7429662" lon="-3.825669"><ele>901.0</ele><time>2026-04-17T10:18:45.758Z</time></trkpt><trkpt lat="40.7428427" lon="-3.8256505"><ele>901.0</ele><time>2026-04-17T10:18:46.759Z</time></trkpt><trkpt lat="40.7427205" lon="-3.8256275"><ele>901.0</ele><time>2026-04-17T10:18:47.759Z</time></trkpt><trkpt lat="40.7425934" lon="-3.8256034"><ele>900.75</ele><time>2026-04-17T10:18:48.758Z</time></trkpt><trkpt lat="40.7424633" lon="-3.8255754"><ele>900.5</ele><time>2026-04-17T10:18:49.758Z</time></trkpt><trkpt lat="40.7423334" lon="-3.8255532"><ele>900.25</ele><time>2026-04-17T10:18:50.759Z</time></trkpt><trkpt lat="40.7422001" lon="-3.8255331"><ele>900.0</ele><time>2026-04-17T10:18:51.759Z</time></trkpt><trkpt lat="40.7420695" lon="-3.8255107"><ele>900.0</ele><time>2026-04-17T10:18:52.759Z</time></trkpt><trkpt lat="40.7419439" lon="-3.8254812"><ele>900.0</ele><time>2026-04-17T10:18:53.758Z</time></trkpt><trkpt lat="40.7418195" lon="-3.8254547"><ele>900.0</ele><time>2026-04-17T10:18:54.759Z</time></trkpt><trkpt lat="40.7416919" lon="-3.8254337"><ele>900.0</ele><time>2026-04-17T10:18:55.759Z</time></trkpt><trkpt lat="40.7415632" lon="-3.8254143"><ele>899.75</ele><time>2026-04-17T10:18:56.759Z</time></trkpt><trkpt lat="40.7414414" lon="-3.8253925"><ele>899.5</ele><time>2026-04-17T10:18:57.759Z</time></trkpt><trkpt lat="40.7413289" lon="-3.8253729"><ele>899.25</ele><time>2026-04-17T10:18:58.759Z</time></trkpt><trkpt lat="40.7412166" lon="-3.825348"><ele>899.0</ele><time>2026-04-17T10:18:59.759Z</time></trkpt><trkpt lat="40.7411086" lon="-3.8253237"><ele>898.6</ele><time>2026-04-17T10:19:00.759Z</time></trkpt><trkpt lat="40.7410013" lon="-3.8252989"><ele>898.2</ele><time>2026-04-17T10:19:01.759Z</time></trkpt><trkpt lat="40.7409033" lon="-3.8252802"><ele>897.8000000000001</ele><time>2026-04-17T10:19:02.758Z</time></trkpt><trkpt lat="40.7408109" lon="-3.8252611"><ele>897.4000000000001</ele><time>2026-04-17T10:19:03.759Z</time></trkpt><trkpt lat="40.740724" lon="-3.8252469"><ele>897.0</ele><time>2026-04-17T10:19:04.758Z</time></trkpt><trkpt lat="40.740639" lon="-3.8252313"><ele>897.0</ele><time>2026-04-17T10:19:05.758Z</time></trkpt><trkpt lat="40.7405649" lon="-3.8252218"><ele>897.0</ele><time>2026-04-17T10:19:06.758Z</time></trkpt><trkpt lat="40.7405005" lon="-3.8252093"><ele>897.0</ele><time>2026-04-17T10:19:07.759Z</time></trkpt><trkpt lat="40.7404031" lon="-3.8252014"><ele>897.0</ele><time>2026-04-17T10:19:09.758Z</time></trkpt><trkpt lat="40.7403359" lon="-3.8252099"><ele>897.0</ele><time>2026-04-17T10:19:14.758Z</time></trkpt><trkpt lat="40.7402522" lon="-3.8252201"><ele>897.0</ele><time>2026-04-17T10:19:21.759Z</time></trkpt><trkpt lat="40.7401545" lon="-3.8251435"><ele>897.0</ele><time>2026-04-17T10:19:23.758Z</time></trkpt><trkpt lat="40.740066" lon="-3.8251065"><ele>897.0</ele><time>2026-04-17T10:19:25.758Z</time></trkpt><trkpt lat="40.7400035" lon="-3.8251508"><ele>897.0</ele><time>2026-04-17T10:19:28.759Z</time></trkpt><trkpt lat="40.7399994" lon="-3.8252373"><ele>897.0</ele><time>2026-04-17T10:19:31.758Z</time></trkpt><trkpt lat="40.7400414" lon="-3.8253265"><ele>897.0</ele><time>2026-04-17T10:19:33.759Z</time></trkpt><trkpt lat="40.7401218" lon="-3.8254182"><ele>897.0</ele><time>2026-04-17T10:19:35.759Z</time></trkpt><trkpt lat="40.7401649" lon="-3.825481"><ele>897.0</ele><time>2026-04-17T10:19:36.758Z</time></trkpt><trkpt lat="40.7402137" lon="-3.8255465"><ele>897.0</ele><time>2026-04-17T10:19:37.758Z</time></trkpt><trkpt lat="40.7402565" lon="-3.8256289"><ele>897.0</ele><time>2026-04-17T10:19:38.758Z</time></trkpt><trkpt lat="40.7403071" lon="-3.8257117"><ele>897.0</ele><time>2026-04-17T10:19:39.758Z</time></trkpt><trkpt lat="40.7403616" lon="-3.8257866"><ele>897.0</ele><time>2026-04-17T10:19:40.758Z</time></trkpt><trkpt lat="40.7404269" lon="-3.8258489"><ele>897.0</ele><time>2026-04-17T10:19:41.758Z</time></trkpt><trkpt lat="40.7405044" lon="-3.8258955"><ele>897.0</ele><time>2026-04-17T10:19:42.759Z</time></trkpt><trkpt lat="40.7405887" lon="-3.825941"><ele>897.0</ele><time>2026-04-17T10:19:43.758Z</time></trkpt><trkpt lat="40.7406732" lon="-3.8259952"><ele>897.0</ele><time>2026-04-17T10:19:44.759Z</time></trkpt><trkpt lat="40.7407542" lon="-3.8260467"><ele>897.0</ele><time>2026-04-17T10:19:45.759Z</time></trkpt><trkpt lat="40.7408202" lon="-3.8260912"><ele>897.0</ele><time>2026-04-17T10:19:46.758Z</time></trkpt><trkpt lat="40.7409119" lon="-3.8261621"><ele>896.8571428571429</ele><time>2026-04-17T10:19:48.758Z</time></trkpt><trkpt lat="40.7409604" lon="-3.8262194"><ele>896.7142857142857</ele><time>2026-04-17T10:19:50.759Z</time></trkpt><trkpt lat="40.7409843" lon="-3.8263037"><ele>896.5714285714286</ele><time>2026-04-17T10:19:53.758Z</time></trkpt><trkpt lat="40.7409641" lon="-3.8263862"><ele>896.4285714285714</ele><time>2026-04-17T10:19:58.759Z</time></trkpt><trkpt lat="40.740948" lon="-3.826467"><ele>896.2857142857142</ele><time>2026-04-17T10:20:15.758Z</time></trkpt><trkpt lat="40.7409688" lon="-3.8265582"><ele>896.1428571428571</ele><time>2026-04-17T10:20:23.759Z</time></trkpt><trkpt lat="40.741012" lon="-3.8266217"><ele>896.0</ele><time>2026-04-17T10:20:26.759Z</time></trkpt><trkpt lat="40.741089" lon="-3.8267079"><ele>896.1999999999999</ele><time>2026-04-17T10:20:28.758Z</time></trkpt><trkpt lat="40.7411645" lon="-3.8268097"><ele>896.3999999999999</ele><time>2026-04-17T10:20:30.758Z</time></trkpt><trkpt lat="40.7412484" lon="-3.8268999"><ele>896.6</ele><time>2026-04-17T10:20:32.759Z</time></trkpt><trkpt lat="40.7412892" lon="-3.8270084"><ele>896.8</ele><time>2026-04-17T10:20:34.759Z</time></trkpt><trkpt lat="40.7413087" lon="-3.8271429"><ele>897.0</ele><time>2026-04-17T10:20:36.758Z</time></trkpt><trkpt lat="40.7413723" lon="-3.8272309"><ele>897.0</ele><time>2026-04-17T10:20:38.759Z</time></trkpt><trkpt lat="40.741448" lon="-3.8273074"><ele>897.0</ele><time>2026-04-17T10:20:40.758Z</time></trkpt><trkpt lat="40.7414952" lon="-3.8274102"><ele>897.0</ele><time>2026-04-17T10:20:42.759Z</time></trkpt><trkpt lat="40.7415062" lon="-3.8275478"><ele>897.0</ele><time>2026-04-17T10:20:44.759Z</time></trkpt><trkpt lat="40.7415057" lon="-3.8276341"><ele>897.0</ele><time>2026-04-17T10:20:45.759Z</time></trkpt><trkpt lat="40.7415121" lon="-3.827729"><ele>897.0</ele><time>2026-04-17T10:20:46.758Z</time></trkpt><trkpt lat="40.7415304" lon="-3.8278144"><ele>897.0</ele><time>2026-04-17T10:20:47.758Z</time></trkpt><trkpt lat="40.7415586" lon="-3.8278989"><ele>897.0</ele><time>2026-04-17T10:20:48.759Z</time></trkpt><trkpt lat="40.741588" lon="-3.8279853"><ele>897.0</ele><time>2026-04-17T10:20:49.758Z</time></trkpt><trkpt lat="40.7416164" lon="-3.8280703"><ele>897.0</ele><time>2026-04-17T10:20:50.758Z</time></trkpt><trkpt lat="40.7416371" lon="-3.8281718"><ele>897.0</ele><time>2026-04-17T10:20:51.758Z</time></trkpt><trkpt lat="40.7416506" lon="-3.8282788"><ele>897.0</ele><time>2026-04-17T10:20:52.759Z</time></trkpt><trkpt lat="40.7416724" lon="-3.8283827"><ele>896.6</ele><time>2026-04-17T10:20:53.758Z</time></trkpt><trkpt lat="40.7416968" lon="-3.8284836"><ele>896.2</ele><time>2026-04-17T10:20:54.758Z</time></trkpt><trkpt lat="40.7417143" lon="-3.8285744"><ele>895.8</ele><time>2026-04-17T10:20:55.758Z</time></trkpt><trkpt lat="40.7417528" lon="-3.8287225"><ele>895.4</ele><time>2026-04-17T10:20:57.759Z</time></trkpt><trkpt lat="40.7417716" lon="-3.8288321"><ele>895.0</ele><time>2026-04-17T10:20:59.758Z</time></trkpt><trkpt lat="40.7417158" lon="-3.8289447"><ele>894.9999999999999</ele><time>2026-04-17T10:21:01.759Z</time></trkpt><trkpt lat="40.7416895" lon="-3.8290267"><ele>895.0</ele><time>2026-04-17T10:21:02.759Z</time></trkpt><trkpt lat="40.7416851" lon="-3.8291131"><ele>895.0</ele><time>2026-04-17T10:21:03.759Z</time></trkpt><trkpt lat="40.741693" lon="-3.829199"><ele>895.0</ele><time>2026-04-17T10:21:04.759Z</time></trkpt><trkpt lat="40.741684" lon="-3.8293676"><ele>894.9999999999999</ele><time>2026-04-17T10:21:06.759Z</time></trkpt><trkpt lat="40.7416682" lon="-3.8294569"><ele>895.0</ele><time>2026-04-17T10:21:07.758Z</time></trkpt><trkpt lat="40.7416586" lon="-3.8295556"><ele>895.1666666666666</ele><time>2026-04-17T10:21:08.759Z</time></trkpt><trkpt lat="40.7416526" lon="-3.829652"><ele>895.3333333333333</ele><time>2026-04-17T10:21:09.758Z</time></trkpt><trkpt lat="40.7416463" lon="-3.8297442"><ele>895.5</ele><time>2026-04-17T10:21:10.758Z</time></trkpt><trkpt lat="40.7416346" lon="-3.82984"><ele>895.6666666666667</ele><time>2026-04-17T10:21:11.759Z</time></trkpt><trkpt lat="40.7416208" lon="-3.8299439"><ele>895.8333333333334</ele><time>2026-04-17T10:21:12.759Z</time></trkpt><trkpt lat="40.741598" lon="-3.8300454"><ele>896.0</ele><time>2026-04-17T10:21:13.758Z</time></trkpt><trkpt lat="40.741565" lon="-3.830147"><ele>896.0</ele><time>2026-04-17T10:21:14.758Z</time></trkpt><trkpt lat="40.7415344" lon="-3.8302584"><ele>895.9999999999999</ele><time>2026-04-17T10:21:15.759Z</time></trkpt><trkpt lat="40.7415095" lon="-3.8303776"><ele>895.9999999999999</ele><time>2026-04-17T10:21:16.759Z</time></trkpt><trkpt lat="40.7414886" lon="-3.8305054"><ele>896.0</ele><time>2026-04-17T10:21:17.759Z</time></trkpt><trkpt lat="40.7414688" lon="-3.8306414"><ele>896.0</ele><time>2026-04-17T10:21:18.758Z</time></trkpt><trkpt lat="40.7414528" lon="-3.8307842"><ele>896.0</ele><time>2026-04-17T10:21:19.759Z</time></trkpt><trkpt lat="40.7414327" lon="-3.8309224"><ele>896.0</ele><time>2026-04-17T10:21:20.758Z</time></trkpt><trkpt lat="40.7414128" lon="-3.8310701"><ele>896.0</ele><time>2026-04-17T10:21:21.758Z</time></trkpt><trkpt lat="40.7413896" lon="-3.8312232"><ele>896.0</ele><time>2026-04-17T10:21:22.759Z</time></trkpt><trkpt lat="40.741361" lon="-3.8313726"><ele>896.4</ele><time>2026-04-17T10:21:23.758Z</time></trkpt><trkpt lat="40.7413288" lon="-3.8315232"><ele>896.8</ele><time>2026-04-17T10:21:24.759Z</time></trkpt><trkpt lat="40.7412968" lon="-3.8316668"><ele>897.1999999999999</ele><time>2026-04-17T10:21:25.758Z</time></trkpt><trkpt lat="40.741266" lon="-3.831805"><ele>897.5999999999999</ele><time>2026-04-17T10:21:26.758Z</time></trkpt><trkpt lat="40.741244" lon="-3.8319373"><ele>898.0</ele><time>2026-04-17T10:21:27.758Z</time></trkpt><trkpt lat="40.741236" lon="-3.832063"><ele>898.4</ele><time>2026-04-17T10:21:28.759Z</time></trkpt><trkpt lat="40.7412299" lon="-3.8321887"><ele>898.8</ele><time>2026-04-17T10:21:29.758Z</time></trkpt><trkpt lat="40.7412156" lon="-3.832309"><ele>899.2</ele><time>2026-04-17T10:21:30.758Z</time></trkpt><trkpt lat="40.7411913" lon="-3.8324288"><ele>899.6</ele><time>2026-04-17T10:21:31.758Z</time></trkpt><trkpt lat="40.7411673" lon="-3.8325436"><ele>900.0</ele><time>2026-04-17T10:21:32.758Z</time></trkpt><trkpt lat="40.7411594" lon="-3.8326498"><ele>900.5</ele><time>2026-04-17T10:21:33.758Z</time></trkpt><trkpt lat="40.7411653" lon="-3.8327481"><ele>901.0</ele><time>2026-04-17T10:21:34.759Z</time></trkpt><trkpt lat="40.74118" lon="-3.8328413"><ele>901.5</ele><time>2026-04-17T10:21:35.759Z</time></trkpt><trkpt lat="40.7411742" lon="-3.8330056"><ele>902.0</ele><time>2026-04-17T10:21:37.758Z</time></trkpt><trkpt lat="40.7411444" lon="-3.8331064"><ele>902.5</ele><time>2026-04-17T10:21:38.759Z</time></trkpt><trkpt lat="40.7411154" lon="-3.8332157"><ele>903.0</ele><time>2026-04-17T10:21:39.758Z</time></trkpt><trkpt lat="40.7411012" lon="-3.8333234"><ele>903.0</ele><time>2026-04-17T10:21:40.758Z</time></trkpt><trkpt lat="40.7411038" lon="-3.8334337"><ele>903.0</ele><time>2026-04-17T10:21:41.759Z</time></trkpt><trkpt lat="40.7411101" lon="-3.8335473"><ele>903.0</ele><time>2026-04-17T10:21:42.759Z</time></trkpt><trkpt lat="40.7411205" lon="-3.8336703"><ele>903.0</ele><time>2026-04-17T10:21:43.759Z</time></trkpt><trkpt lat="40.7411369" lon="-3.8338031"><ele>903.0</ele><time>2026-04-17T10:21:44.759Z</time></trkpt><trkpt lat="40.7411568" lon="-3.8339317"><ele>903.0</ele><time>2026-04-17T10:21:45.759Z</time></trkpt><trkpt lat="40.7411697" lon="-3.8340683"><ele>903.0</ele><time>2026-04-17T10:21:46.759Z</time></trkpt><trkpt lat="40.7411861" lon="-3.8342063"><ele>903.0</ele><time>2026-04-17T10:21:47.759Z</time></trkpt><trkpt lat="40.7412056" lon="-3.8343417"><ele>903.0</ele><time>2026-04-17T10:21:48.759Z</time></trkpt><trkpt lat="40.7412063" lon="-3.8344735"><ele>903.0</ele><time>2026-04-17T10:21:49.758Z</time></trkpt><trkpt lat="40.7411977" lon="-3.8345763"><ele>903.0</ele><time>2026-04-17T10:21:50.759Z</time></trkpt><trkpt lat="40.7411621" lon="-3.8346781"><ele>903.0</ele><time>2026-04-17T10:21:51.758Z</time></trkpt><trkpt lat="40.7411151" lon="-3.8347979"><ele>903.0</ele><time>2026-04-17T10:21:52.759Z</time></trkpt><trkpt lat="40.7410789" lon="-3.8349178"><ele>903.0</ele><time>2026-04-17T10:21:53.759Z</time></trkpt><trkpt lat="40.7410501" lon="-3.8350188"><ele>903.0</ele><time>2026-04-17T10:21:54.759Z</time></trkpt><trkpt lat="40.7410211" lon="-3.835161"><ele>902.5</ele><time>2026-04-17T10:21:56.759Z</time></trkpt><trkpt lat="40.7410318" lon="-3.8352711"><ele>902.0</ele><time>2026-04-17T10:21:58.758Z</time></trkpt><trkpt lat="40.7410481" lon="-3.8353819"><ele>901.5</ele><time>2026-04-17T10:22:00.759Z</time></trkpt><trkpt lat="40.741104" lon="-3.8354709"><ele>901.0</ele><time>2026-04-17T10:22:03.758Z</time></trkpt><trkpt lat="40.7411496" lon="-3.8355487"><ele>900.5</ele><time>2026-04-17T10:22:05.759Z</time></trkpt><trkpt lat="40.7411975" lon="-3.8356518"><ele>900.0</ele><time>2026-04-17T10:22:07.759Z</time></trkpt><trkpt lat="40.7412806" lon="-3.8357662"><ele>900.0</ele><time>2026-04-17T10:22:09.759Z</time></trkpt><trkpt lat="40.7414074" lon="-3.835787"><ele>900.0</ele><time>2026-04-17T10:22:11.758Z</time></trkpt><trkpt lat="40.741488" lon="-3.8358984"><ele>900.0</ele><time>2026-04-17T10:22:13.758Z</time></trkpt><trkpt lat="40.7415088" lon="-3.8359968"><ele>900.0</ele><time>2026-04-17T10:22:14.758Z</time></trkpt><trkpt lat="40.7415216" lon="-3.8361106"><ele>900.0</ele><time>2026-04-17T10:22:15.759Z</time></trkpt><trkpt lat="40.7415405" lon="-3.8362351"><ele>899.4</ele><time>2026-04-17T10:22:16.758Z</time></trkpt><trkpt lat="40.7415621" lon="-3.8363687"><ele>898.8</ele><time>2026-04-17T10:22:17.759Z</time></trkpt><trkpt lat="40.7415668" lon="-3.8364879"><ele>898.2</ele><time>2026-04-17T10:22:18.759Z</time></trkpt><trkpt lat="40.7415663" lon="-3.836603"><ele>897.6</ele><time>2026-04-17T10:22:19.758Z</time></trkpt><trkpt lat="40.7415569" lon="-3.8367185"><ele>897.0</ele><time>2026-04-17T10:22:20.758Z</time></trkpt><trkpt lat="40.7415466" lon="-3.836833"><ele>897.0</ele><time>2026-04-17T10:22:21.758Z</time></trkpt><trkpt lat="40.7415403" lon="-3.8369397"><ele>897.0</ele><time>2026-04-17T10:22:22.759Z</time></trkpt><trkpt lat="40.7415399" lon="-3.8370315"><ele>897.0</ele><time>2026-04-17T10:22:23.758Z</time></trkpt><trkpt lat="40.7415357" lon="-3.8371622"><ele>897.0</ele><time>2026-04-17T10:22:25.759Z</time></trkpt><trkpt lat="40.7415542" lon="-3.8372454"><ele>897.0</ele><time>2026-04-17T10:22:29.758Z</time></trkpt><trkpt lat="40.7415994" lon="-3.8373429"><ele>897.0</ele><time>2026-04-17T10:22:34.758Z</time></trkpt><trkpt lat="40.7416148" lon="-3.8374467"><ele>897.0</ele><time>2026-04-17T10:22:37.759Z</time></trkpt><trkpt lat="40.7415886" lon="-3.8375272"><ele>897.0</ele><time>2026-04-17T10:22:39.758Z</time></trkpt><trkpt lat="40.7415399" lon="-3.837641"><ele>897.0</ele><time>2026-04-17T10:22:41.758Z</time></trkpt><trkpt lat="40.7415127" lon="-3.8377513"><ele>897.0</ele><time>2026-04-17T10:22:43.759Z</time></trkpt><trkpt lat="40.7414928" lon="-3.8378543"><ele>897.0</ele><time>2026-04-17T10:22:45.758Z</time></trkpt><trkpt lat="40.7414725" lon="-3.8379918"><ele>897.0</ele><time>2026-04-17T10:22:47.758Z</time></trkpt><trkpt lat="40.7414581" lon="-3.8380812"><ele>897.5</ele><time>2026-04-17T10:22:48.758Z</time></trkpt><trkpt lat="40.741447" lon="-3.8381804"><ele>898.0</ele><time>2026-04-17T10:22:49.759Z</time></trkpt><trkpt lat="40.7414292" lon="-3.8382814"><ele>898.5</ele><time>2026-04-17T10:22:50.758Z</time></trkpt><trkpt lat="40.7414027" lon="-3.8383776"><ele>899.0</ele><time>2026-04-17T10:22:51.759Z</time></trkpt><trkpt lat="40.741378" lon="-3.838461"><ele>899.5</ele><time>2026-04-17T10:22:52.758Z</time></trkpt><trkpt lat="40.7413312" lon="-3.8386024"><ele>900.0</ele><time>2026-04-17T10:22:54.758Z</time></trkpt><trkpt lat="40.741293" lon="-3.838683"><ele>900.3333333333334</ele><time>2026-04-17T10:22:55.759Z</time></trkpt><trkpt lat="40.7412571" lon="-3.8387691"><ele>900.6666666666667</ele><time>2026-04-17T10:22:56.758Z</time></trkpt><trkpt lat="40.7412241" lon="-3.8388594"><ele>901.0</ele><time>2026-04-17T10:22:57.758Z</time></trkpt><trkpt lat="40.7411894" lon="-3.8389518"><ele>901.3333333333334</ele><time>2026-04-17T10:22:58.759Z</time></trkpt><trkpt lat="40.7411503" lon="-3.8390401"><ele>901.6666666666667</ele><time>2026-04-17T10:22:59.758Z</time></trkpt><trkpt lat="40.7411061" lon="-3.8391402"><ele>902.0</ele><time>2026-04-17T10:23:00.759Z</time></trkpt><trkpt lat="40.7410637" lon="-3.8392513"><ele>901.6666666666667</ele><time>2026-04-17T10:23:01.759Z</time></trkpt><trkpt lat="40.7410307" lon="-3.8393545"><ele>901.3333333333334</ele><time>2026-04-17T10:23:02.759Z</time></trkpt><trkpt lat="40.7409921" lon="-3.8394503"><ele>901.0</ele><time>2026-04-17T10:23:03.758Z</time></trkpt><trkpt lat="40.7409536" lon="-3.8395394"><ele>900.6666666666667</ele><time>2026-04-17T10:23:04.758Z</time></trkpt><trkpt lat="40.7409069" lon="-3.8396241"><ele>900.3333333333334</ele><time>2026-04-17T10:23:05.759Z</time></trkpt><trkpt lat="40.7408597" lon="-3.8397058"><ele>900.0</ele><time>2026-04-17T10:23:06.759Z</time></trkpt><trkpt lat="40.7408123" lon="-3.8397773"><ele>900.0000000000001</ele><time>2026-04-17T10:23:07.758Z</time></trkpt><trkpt lat="40.7407719" lon="-3.8398523"><ele>900.0</ele><time>2026-04-17T10:23:08.758Z</time></trkpt><trkpt lat="40.7407468" lon="-3.8399288"><ele>900.0000000000001</ele><time>2026-04-17T10:23:09.759Z</time></trkpt><trkpt lat="40.7407319" lon="-3.8400176"><ele>900.0000000000001</ele><time>2026-04-17T10:23:10.758Z</time></trkpt><trkpt lat="40.7407125" lon="-3.8401105"><ele>900.0</ele><time>2026-04-17T10:23:11.758Z</time></trkpt><trkpt lat="40.7406899" lon="-3.8402012"><ele>900.0000000000001</ele><time>2026-04-17T10:23:12.758Z</time></trkpt><trkpt lat="40.7406534" lon="-3.8402906"><ele>900.0000000000001</ele><time>2026-04-17T10:23:13.759Z</time></trkpt><trkpt lat="40.7406067" lon="-3.8403639"><ele>900.5</ele><time>2026-04-17T10:23:14.758Z</time></trkpt><trkpt lat="40.7405454" lon="-3.8404451"><ele>901.0</ele><time>2026-04-17T10:23:15.758Z</time></trkpt><trkpt lat="40.7404838" lon="-3.8405286"><ele>901.5</ele><time>2026-04-17T10:23:16.759Z</time></trkpt><trkpt lat="40.740417" lon="-3.8406135"><ele>902.0</ele><time>2026-04-17T10:23:17.759Z</time></trkpt><trkpt lat="40.7403575" lon="-3.8406988"><ele>902.5</ele><time>2026-04-17T10:23:18.758Z</time></trkpt><trkpt lat="40.740301" lon="-3.8407972"><ele>903.0</ele><time>2026-04-17T10:23:19.759Z</time></trkpt><trkpt lat="40.7402502" lon="-3.8409115"><ele>902.8333333333334</ele><time>2026-04-17T10:23:20.759Z</time></trkpt><trkpt lat="40.7402071" lon="-3.8410217"><ele>902.6666666666667</ele><time>2026-04-17T10:23:21.759Z</time></trkpt><trkpt lat="40.7401611" lon="-3.8411212"><ele>902.5</ele><time>2026-04-17T10:23:22.758Z</time></trkpt><trkpt lat="40.7401201" lon="-3.8412209"><ele>902.3333333333334</ele><time>2026-04-17T10:23:23.759Z</time></trkpt><trkpt lat="40.7400901" lon="-3.8413071"><ele>902.1666666666667</ele><time>2026-04-17T10:23:24.759Z</time></trkpt><trkpt lat="40.7400647" lon="-3.8413837"><ele>902.0</ele><time>2026-04-17T10:23:25.759Z</time></trkpt><trkpt lat="40.7400078" lon="-3.8415247"><ele>902.0</ele><time>2026-04-17T10:23:27.758Z</time></trkpt><trkpt lat="40.7399658" lon="-3.8416712"><ele>902.0</ele><time>2026-04-17T10:23:29.759Z</time></trkpt><trkpt lat="40.7399261" lon="-3.8418161"><ele>902.0</ele><time>2026-04-17T10:23:31.759Z</time></trkpt><trkpt lat="40.7398852" lon="-3.8419582"><ele>902.0</ele><time>2026-04-17T10:23:33.759Z</time></trkpt><trkpt lat="40.7398158" lon="-3.8420914"><ele>902.1666666666667</ele><time>2026-04-17T10:23:35.758Z</time></trkpt><trkpt lat="40.7397524" lon="-3.8422186"><ele>902.3333333333334</ele><time>2026-04-17T10:23:37.758Z</time></trkpt><trkpt lat="40.7397192" lon="-3.8422989"><ele>902.5</ele><time>2026-04-17T10:23:38.758Z</time></trkpt><trkpt lat="40.7396796" lon="-3.8423641"><ele>902.6666666666667</ele><time>2026-04-17T10:23:39.758Z</time></trkpt><trkpt lat="40.7395991" lon="-3.8424896"><ele>902.8333333333334</ele><time>2026-04-17T10:23:41.759Z</time></trkpt><trkpt lat="40.739558" lon="-3.8425543"><ele>903.0</ele><time>2026-04-17T10:23:42.758Z</time></trkpt><trkpt lat="40.7394689" lon="-3.8426644"><ele>903.6666666666666</ele><time>2026-04-17T10:23:44.758Z</time></trkpt><trkpt lat="40.7394177" lon="-3.8427245"><ele>904.3333333333333</ele><time>2026-04-17T10:23:45.758Z</time></trkpt><trkpt lat="40.7393237" lon="-3.8428192"><ele>905.0</ele><time>2026-04-17T10:23:47.758Z</time></trkpt><trkpt lat="40.7392663" lon="-3.8428598"><ele>905.6666666666666</ele><time>2026-04-17T10:23:48.759Z</time></trkpt><trkpt lat="40.7392075" lon="-3.8429019"><ele>906.3333333333333</ele><time>2026-04-17T10:23:49.759Z</time></trkpt><trkpt lat="40.7391504" lon="-3.8429429"><ele>907.0</ele><time>2026-04-17T10:23:50.758Z</time></trkpt><trkpt lat="40.73909" lon="-3.8429883"><ele>905.4999999999999</ele><time>2026-04-17T10:23:51.759Z</time></trkpt><trkpt lat="40.7390244" lon="-3.8430372"><ele>904.0</ele><time>2026-04-17T10:23:52.758Z</time></trkpt><trkpt lat="40.7389611" lon="-3.8430963"><ele>902.5</ele><time>2026-04-17T10:23:53.758Z</time></trkpt><trkpt lat="40.7389054" lon="-3.8431412"><ele>901.0</ele><time>2026-04-17T10:23:54.759Z</time></trkpt><trkpt lat="40.7388132" lon="-3.8432161"><ele>899.4999999999999</ele><time>2026-04-17T10:23:56.759Z</time></trkpt><trkpt lat="40.7387609" lon="-3.8432863"><ele>898.0</ele><time>2026-04-17T10:23:58.758Z</time></trkpt><trkpt lat="40.7386924" lon="-3.8432974"><ele>897.9999999999999</ele><time>2026-04-17T10:24:01.758Z</time></trkpt><trkpt lat="40.7386106" lon="-3.8433128"><ele>898.0</ele><time>2026-04-17T10:24:03.759Z</time></trkpt><trkpt lat="40.7385226" lon="-3.8434366"><ele>898.0</ele><time>2026-04-17T10:24:05.758Z</time></trkpt><trkpt lat="40.7384658" lon="-3.8435036"><ele>898.0</ele><time>2026-04-17T10:24:06.758Z</time></trkpt><trkpt lat="40.7384114" lon="-3.8435719"><ele>897.9999999999999</ele><time>2026-04-17T10:24:07.758Z</time></trkpt><trkpt lat="40.7383518" lon="-3.8436435"><ele>898.0</ele><time>2026-04-17T10:24:08.758Z</time></trkpt><trkpt lat="40.7382851" lon="-3.8437095"><ele>898.3333333333333</ele><time>2026-04-17T10:24:09.758Z</time></trkpt><trkpt lat="40.7382106" lon="-3.8437689"><ele>898.6666666666666</ele><time>2026-04-17T10:24:10.759Z</time></trkpt><trkpt lat="40.7381372" lon="-3.8438306"><ele>899.0</ele><time>2026-04-17T10:24:11.759Z</time></trkpt><trkpt lat="40.7380693" lon="-3.843878"><ele>899.3333333333333</ele><time>2026-04-17T10:24:12.759Z</time></trkpt><trkpt lat="40.7380008" lon="-3.8439209"><ele>899.6666666666666</ele><time>2026-04-17T10:24:13.758Z</time></trkpt><trkpt lat="40.737929" lon="-3.84398"><ele>900.0</ele><time>2026-04-17T10:24:14.758Z</time></trkpt><trkpt lat="40.7378539" lon="-3.8440379"><ele>900.0</ele><time>2026-04-17T10:24:15.758Z</time></trkpt><trkpt lat="40.7377724" lon="-3.844097"><ele>900.0</ele><time>2026-04-17T10:24:16.759Z</time></trkpt><trkpt lat="40.7376957" lon="-3.8441659"><ele>900.0</ele><time>2026-04-17T10:24:17.758Z</time></trkpt><trkpt lat="40.7376156" lon="-3.8442365"><ele>900.0</ele><time>2026-04-17T10:24:18.758Z</time></trkpt><trkpt lat="40.7375373" lon="-3.8443124"><ele>900.0</ele><time>2026-04-17T10:24:19.758Z</time></trkpt><trkpt lat="40.7374612" lon="-3.8443977"><ele>900.0</ele><time>2026-04-17T10:24:20.759Z</time></trkpt><trkpt lat="40.7373849" lon="-3.8444886"><ele>900.0</ele><time>2026-04-17T10:24:21.758Z</time></trkpt><trkpt lat="40.7373098" lon="-3.8445896"><ele>900.0</ele><time>2026-04-17T10:24:22.758Z</time></trkpt><trkpt lat="40.7372395" lon="-3.8446947"><ele>900.0</ele><time>2026-04-17T10:24:23.758Z</time></trkpt><trkpt lat="40.7371705" lon="-3.8447807"><ele>900.0</ele><time>2026-04-17T10:24:24.759Z</time></trkpt><trkpt lat="40.7371056" lon="-3.8448537"><ele>900.0</ele><time>2026-04-17T10:24:25.758Z</time></trkpt><trkpt lat="40.7370501" lon="-3.8449173"><ele>900.0</ele><time>2026-04-17T10:24:26.759Z</time></trkpt><trkpt lat="40.7369822" lon="-3.8450561"><ele>900.0</ele><time>2026-04-17T10:24:28.758Z</time></trkpt><trkpt lat="40.7369525" lon="-3.8451319"><ele>900.0</ele><time>2026-04-17T10:24:29.758Z</time></trkpt><trkpt lat="40.7369181" lon="-3.8452045"><ele>900.0</ele><time>2026-04-17T10:24:30.758Z</time></trkpt><trkpt lat="40.7368727" lon="-3.8452911"><ele>900.0</ele><time>2026-04-17T10:24:31.758Z</time></trkpt><trkpt lat="40.7368183" lon="-3.8453826"><ele>899.6</ele><time>2026-04-17T10:24:32.758Z</time></trkpt><trkpt lat="40.7367578" lon="-3.8454743"><ele>899.2</ele><time>2026-04-17T10:24:33.759Z</time></trkpt><trkpt lat="40.736689" lon="-3.8455623"><ele>898.8</ele><time>2026-04-17T10:24:34.758Z</time></trkpt><trkpt lat="40.736619" lon="-3.8456534"><ele>898.4</ele><time>2026-04-17T10:24:35.759Z</time></trkpt><trkpt lat="40.7365537" lon="-3.8457406"><ele>898.0</ele><time>2026-04-17T10:24:36.758Z</time></trkpt><trkpt lat="40.7364937" lon="-3.8458204"><ele>897.9999999999999</ele><time>2026-04-17T10:24:37.759Z</time></trkpt><trkpt lat="40.7364487" lon="-3.8458936"><ele>898.0</ele><time>2026-04-17T10:24:38.758Z</time></trkpt><trkpt lat="40.7363892" lon="-3.8460146"><ele>898.0</ele><time>2026-04-17T10:24:40.758Z</time></trkpt><trkpt lat="40.7363401" lon="-3.8461549"><ele>898.0</ele><time>2026-04-17T10:24:42.758Z</time></trkpt><trkpt lat="40.7362992" lon="-3.8462321"><ele>897.9999999999999</ele><time>2026-04-17T10:24:43.759Z</time></trkpt><trkpt lat="40.7362482" lon="-3.8463072"><ele>898.0</ele><time>2026-04-17T10:24:44.758Z</time></trkpt><trkpt lat="40.7361864" lon="-3.8463841"><ele>897.5999999999999</ele><time>2026-04-17T10:24:45.758Z</time></trkpt><trkpt lat="40.7361213" lon="-3.8464777"><ele>897.1999999999999</ele><time>2026-04-17T10:24:46.758Z</time></trkpt><trkpt lat="40.7360587" lon="-3.8465886"><ele>896.8</ele><time>2026-04-17T10:24:47.759Z</time></trkpt><trkpt lat="40.7359973" lon="-3.8466939"><ele>896.4</ele><time>2026-04-17T10:24:48.758Z</time></trkpt><trkpt lat="40.7359319" lon="-3.8467999"><ele>896.0</ele><time>2026-04-17T10:24:49.759Z</time></trkpt><trkpt lat="40.7358792" lon="-3.8468993"><ele>897.1666666666667</ele><time>2026-04-17T10:24:50.758Z</time></trkpt><trkpt lat="40.7358248" lon="-3.8469843"><ele>898.3333333333334</ele><time>2026-04-17T10:24:51.758Z</time></trkpt><trkpt lat="40.7357693" lon="-3.8470334"><ele>899.5</ele><time>2026-04-17T10:24:52.758Z</time></trkpt><trkpt lat="40.7356756" lon="-3.847134"><ele>900.6666666666667</ele><time>2026-04-17T10:24:54.758Z</time></trkpt><trkpt lat="40.7356402" lon="-3.8472093"><ele>901.8333333333334</ele><time>2026-04-17T10:24:55.758Z</time></trkpt><trkpt lat="40.735597" lon="-3.8472925"><ele>903.0</ele><time>2026-04-17T10:24:56.759Z</time></trkpt><trkpt lat="40.7355506" lon="-3.8473805"><ele>903.0</ele><time>2026-04-17T10:24:57.758Z</time></trkpt><trkpt lat="40.7355066" lon="-3.8474782"><ele>903.0</ele><time>2026-04-17T10:24:58.758Z</time></trkpt><trkpt lat="40.7354551" lon="-3.8475814"><ele>903.0</ele><time>2026-04-17T10:24:59.758Z</time></trkpt><trkpt lat="40.7354013" lon="-3.8476847"><ele>903.0</ele><time>2026-04-17T10:25:00.758Z</time></trkpt><trkpt lat="40.7353495" lon="-3.847782"><ele>903.0</ele><time>2026-04-17T10:25:01.759Z</time></trkpt><trkpt lat="40.7353035" lon="-3.8478667"><ele>903.0</ele><time>2026-04-17T10:25:02.758Z</time></trkpt><trkpt lat="40.7352565" lon="-3.8479513"><ele>901.8</ele><time>2026-04-17T10:25:03.759Z</time></trkpt><trkpt lat="40.7352214" lon="-3.8480257"><ele>900.5999999999999</ele><time>2026-04-17T10:25:04.758Z</time></trkpt><trkpt lat="40.7351586" lon="-3.8481612"><ele>899.4000000000001</ele><time>2026-04-17T10:25:06.759Z</time></trkpt><trkpt lat="40.735067" lon="-3.8482808"><ele>898.2</ele><time>2026-04-17T10:25:08.758Z</time></trkpt><trkpt lat="40.7350131" lon="-3.8483363"><ele>897.0</ele><time>2026-04-17T10:25:09.759Z</time></trkpt><trkpt lat="40.7349581" lon="-3.8483881"><ele>897.0</ele><time>2026-04-17T10:25:10.759Z</time></trkpt><trkpt lat="40.7348982" lon="-3.8484342"><ele>897.0</ele><time>2026-04-17T10:25:11.759Z</time></trkpt><trkpt lat="40.7348253" lon="-3.8484741"><ele>897.0</ele><time>2026-04-17T10:25:12.759Z</time></trkpt><trkpt lat="40.7347534" lon="-3.8485025"><ele>897.0</ele><time>2026-04-17T10:25:13.759Z</time></trkpt><trkpt lat="40.7346866" lon="-3.8485207"><ele>897.0</ele><time>2026-04-17T10:25:14.758Z</time></trkpt><trkpt lat="40.7345674" lon="-3.8485372"><ele>897.0</ele><time>2026-04-17T10:25:16.758Z</time></trkpt><trkpt lat="40.7344493" lon="-3.848514"><ele>897.4000000000001</ele><time>2026-04-17T10:25:18.758Z</time></trkpt><trkpt lat="40.7343375" lon="-3.8485083"><ele>897.8000000000001</ele><time>2026-04-17T10:25:20.758Z</time></trkpt><trkpt lat="40.7342459" lon="-3.8485507"><ele>898.2</ele><time>2026-04-17T10:25:22.758Z</time></trkpt><trkpt lat="40.7341403" lon="-3.8486605"><ele>898.6</ele><time>2026-04-17T10:25:24.759Z</time></trkpt><trkpt lat="40.7340807" lon="-3.8487316"><ele>899.0</ele><time>2026-04-17T10:25:25.758Z</time></trkpt><trkpt lat="40.7340192" lon="-3.8488113"><ele>899.0000000000001</ele><time>2026-04-17T10:25:26.758Z</time></trkpt><trkpt lat="40.7339695" lon="-3.8488797"><ele>899.0</ele><time>2026-04-17T10:25:27.758Z</time></trkpt><trkpt lat="40.733928" lon="-3.8489646"><ele>899.0</ele><time>2026-04-17T10:25:28.759Z</time></trkpt><trkpt lat="40.7338799" lon="-3.8490562"><ele>899.0</ele><time>2026-04-17T10:25:29.758Z</time></trkpt><trkpt lat="40.7338312" lon="-3.8491471"><ele>899.0000000000001</ele><time>2026-04-17T10:25:30.759Z</time></trkpt><trkpt lat="40.7337814" lon="-3.8492286"><ele>899.0</ele><time>2026-04-17T10:25:31.759Z</time></trkpt><trkpt lat="40.733728" lon="-3.8492999"><ele>900.3333333333334</ele><time>2026-04-17T10:25:32.758Z</time></trkpt><trkpt lat="40.7336609" lon="-3.849347"><ele>901.6666666666667</ele><time>2026-04-17T10:25:33.759Z</time></trkpt><trkpt lat="40.7335882" lon="-3.8493815"><ele>903.0</ele><time>2026-04-17T10:25:34.758Z</time></trkpt><trkpt lat="40.7335125" lon="-3.8494175"><ele>904.3333333333333</ele><time>2026-04-17T10:25:35.758Z</time></trkpt><trkpt lat="40.7334389" lon="-3.8494557"><ele>905.6666666666666</ele><time>2026-04-17T10:25:36.758Z</time></trkpt><trkpt lat="40.7333588" lon="-3.8494889"><ele>907.0</ele><time>2026-04-17T10:25:37.758Z</time></trkpt><trkpt lat="40.7332812" lon="-3.849517"><ele>906.9999999999999</ele><time>2026-04-17T10:25:38.758Z</time></trkpt><trkpt lat="40.7332053" lon="-3.8495488"><ele>907.0</ele><time>2026-04-17T10:25:39.758Z</time></trkpt><trkpt lat="40.7331379" lon="-3.8495967"><ele>907.0</ele><time>2026-04-17T10:25:40.758Z</time></trkpt><trkpt lat="40.7330821" lon="-3.849646"><ele>907.0</ele><time>2026-04-17T10:25:41.759Z</time></trkpt><trkpt lat="40.7329829" lon="-3.8497068"><ele>906.9999999999999</ele><time>2026-04-17T10:25:43.759Z</time></trkpt><trkpt lat="40.7328788" lon="-3.849765"><ele>907.0</ele><time>2026-04-17T10:25:45.758Z</time></trkpt><trkpt lat="40.7327619" lon="-3.8498707"><ele>906.1666666666666</ele><time>2026-04-17T10:25:47.758Z</time></trkpt><trkpt lat="40.7326998" lon="-3.8499362"><ele>905.3333333333333</ele><time>2026-04-17T10:25:48.759Z</time></trkpt><trkpt lat="40.732636" lon="-3.8500051"><ele>904.5</ele><time>2026-04-17T10:25:49.759Z</time></trkpt><trkpt lat="40.7325739" lon="-3.8500648"><ele>903.6666666666667</ele><time>2026-04-17T10:25:50.759Z</time></trkpt><trkpt lat="40.7325238" lon="-3.8501286"><ele>902.8333333333334</ele><time>2026-04-17T10:25:51.758Z</time></trkpt><trkpt lat="40.7324784" lon="-3.8502043"><ele>902.0</ele><time>2026-04-17T10:25:52.758Z</time></trkpt><trkpt lat="40.7324362" lon="-3.8502929"><ele>902.0000000000001</ele><time>2026-04-17T10:25:53.757Z</time></trkpt><trkpt lat="40.7323833" lon="-3.8503883"><ele>902.0</ele><time>2026-04-17T10:25:54.757Z</time></trkpt><trkpt lat="40.7323323" lon="-3.8504749"><ele>902.0</ele><time>2026-04-17T10:25:55.758Z</time></trkpt><trkpt lat="40.7322777" lon="-3.8505557"><ele>902.0</ele><time>2026-04-17T10:25:56.757Z</time></trkpt><trkpt lat="40.7322362" lon="-3.8506299"><ele>902.0000000000001</ele><time>2026-04-17T10:25:57.757Z</time></trkpt><trkpt lat="40.7322161" lon="-3.850709"><ele>902.0</ele><time>2026-04-17T10:25:58.758Z</time></trkpt><trkpt lat="40.7321798" lon="-3.8508377"><ele>902.0</ele><time>2026-04-17T10:26:00.757Z</time></trkpt><trkpt lat="40.7321227" lon="-3.8509195"><ele>902.0</ele><time>2026-04-17T10:26:02.757Z</time></trkpt><trkpt lat="40.7320506" lon="-3.8510234"><ele>902.0</ele><time>2026-04-17T10:26:04.758Z</time></trkpt><trkpt lat="40.7319551" lon="-3.8511268"><ele>902.0</ele><time>2026-04-17T10:26:06.758Z</time></trkpt><trkpt lat="40.7319036" lon="-3.8511749"><ele>902.0</ele><time>2026-04-17T10:26:07.758Z</time></trkpt><trkpt lat="40.7318063" lon="-3.8512806"><ele>901.5000000000001</ele><time>2026-04-17T10:26:09.757Z</time></trkpt><trkpt lat="40.7317494" lon="-3.8513268"><ele>901.0</ele><time>2026-04-17T10:26:10.757Z</time></trkpt><trkpt lat="40.7316909" lon="-3.8513838"><ele>900.5</ele><time>2026-04-17T10:26:11.758Z</time></trkpt><trkpt lat="40.7316303" lon="-3.8514369"><ele>900.0</ele><time>2026-04-17T10:26:12.757Z</time></trkpt><trkpt lat="40.7315684" lon="-3.8514978"><ele>899.5000000000001</ele><time>2026-04-17T10:26:13.757Z</time></trkpt><trkpt lat="40.7315048" lon="-3.8515729"><ele>899.0</ele><time>2026-04-17T10:26:14.758Z</time></trkpt><trkpt lat="40.7314502" lon="-3.8516608"><ele>899.0</ele><time>2026-04-17T10:26:15.758Z</time></trkpt><trkpt lat="40.7313932" lon="-3.851758"><ele>899.0000000000001</ele><time>2026-04-17T10:26:16.757Z</time></trkpt><trkpt lat="40.7313285" lon="-3.8518369"><ele>899.0000000000001</ele><time>2026-04-17T10:26:17.758Z</time></trkpt><trkpt lat="40.7312589" lon="-3.8519158"><ele>899.0</ele><time>2026-04-17T10:26:18.758Z</time></trkpt><trkpt lat="40.7311856" lon="-3.8519991"><ele>899.0</ele><time>2026-04-17T10:26:19.758Z</time></trkpt><trkpt lat="40.7311146" lon="-3.852091"><ele>898.6</ele><time>2026-04-17T10:26:20.758Z</time></trkpt><trkpt lat="40.731045" lon="-3.8521916"><ele>898.2</ele><time>2026-04-17T10:26:21.757Z</time></trkpt><trkpt lat="40.7309815" lon="-3.8522919"><ele>897.8000000000001</ele><time>2026-04-17T10:26:22.757Z</time></trkpt><trkpt lat="40.7309268" lon="-3.8523821"><ele>897.4000000000001</ele><time>2026-04-17T10:26:23.757Z</time></trkpt><trkpt lat="40.7308687" lon="-3.8524633"><ele>897.0</ele><time>2026-04-17T10:26:24.758Z</time></trkpt><trkpt lat="40.7308127" lon="-3.8525369"><ele>897.0</ele><time>2026-04-17T10:26:25.758Z</time></trkpt><trkpt lat="40.7307584" lon="-3.8526106"><ele>897.0</ele><time>2026-04-17T10:26:26.757Z</time></trkpt><trkpt lat="40.7306975" lon="-3.8526863"><ele>897.0</ele><time>2026-04-17T10:26:27.757Z</time></trkpt><trkpt lat="40.730645" lon="-3.8527576"><ele>897.0</ele><time>2026-04-17T10:26:28.758Z</time></trkpt><trkpt lat="40.7305958" lon="-3.8528301"><ele>897.0</ele><time>2026-04-17T10:26:29.758Z</time></trkpt><trkpt lat="40.7305583" lon="-3.852898"><ele>897.0</ele><time>2026-04-17T10:26:30.757Z</time></trkpt><trkpt lat="40.7304853" lon="-3.8530135"><ele>897.0</ele><time>2026-04-17T10:26:32.757Z</time></trkpt><trkpt lat="40.7303855" lon="-3.8530782"><ele>897.0</ele><time>2026-04-17T10:26:34.758Z</time></trkpt><trkpt lat="40.7303221" lon="-3.8530982"><ele>897.0</ele><time>2026-04-17T10:26:35.758Z</time></trkpt><trkpt lat="40.7302092" lon="-3.853158"><ele>897.0</ele><time>2026-04-17T10:26:37.758Z</time></trkpt><trkpt lat="40.7301202" lon="-3.8532804"><ele>897.0</ele><time>2026-04-17T10:26:39.757Z</time></trkpt><trkpt lat="40.7300718" lon="-3.8533582"><ele>897.0</ele><time>2026-04-17T10:26:40.757Z</time></trkpt><trkpt lat="40.7300138" lon="-3.8534493"><ele>897.0</ele><time>2026-04-17T10:26:41.757Z</time></trkpt><trkpt lat="40.7299517" lon="-3.853547"><ele>897.0</ele><time>2026-04-17T10:26:42.757Z</time></trkpt><trkpt lat="40.7298814" lon="-3.8536558"><ele>897.0</ele><time>2026-04-17T10:26:43.758Z</time></trkpt><trkpt lat="40.7298101" lon="-3.8537708"><ele>897.0</ele><time>2026-04-17T10:26:44.757Z</time></trkpt><trkpt lat="40.7297367" lon="-3.853892"><ele>898.75</ele><time>2026-04-17T10:26:45.758Z</time></trkpt><trkpt lat="40.7296612" lon="-3.8540185"><ele>900.5</ele><time>2026-04-17T10:26:46.757Z</time></trkpt><trkpt lat="40.7295845" lon="-3.8541525"><ele>902.25</ele><time>2026-04-17T10:26:47.758Z</time></trkpt><trkpt lat="40.7295008" lon="-3.8542947"><ele>904.0</ele><time>2026-04-17T10:26:48.758Z</time></trkpt><trkpt lat="40.7294222" lon="-3.8544307"><ele>903.0</ele><time>2026-04-17T10:26:49.757Z</time></trkpt><trkpt lat="40.7293512" lon="-3.854569"><ele>902.0</ele><time>2026-04-17T10:26:50.758Z</time></trkpt><trkpt lat="40.7292778" lon="-3.8547115"><ele>901.0</ele><time>2026-04-17T10:26:51.758Z</time></trkpt><trkpt lat="40.7292074" lon="-3.8548553"><ele>900.0</ele><time>2026-04-17T10:26:52.757Z</time></trkpt><trkpt lat="40.7291394" lon="-3.8549927"><ele>900.75</ele><time>2026-04-17T10:26:53.757Z</time></trkpt><trkpt lat="40.7290742" lon="-3.855128"><ele>901.5</ele><time>2026-04-17T10:26:54.757Z</time></trkpt><trkpt lat="40.7290175" lon="-3.8552586"><ele>902.25</ele><time>2026-04-17T10:26:55.758Z</time></trkpt><trkpt lat="40.7289623" lon="-3.8553849"><ele>903.0</ele><time>2026-04-17T10:26:56.758Z</time></trkpt><trkpt lat="40.7289206" lon="-3.8555134"><ele>903.0</ele><time>2026-04-17T10:26:57.757Z</time></trkpt><trkpt lat="40.7288927" lon="-3.8556444"><ele>903.0</ele><time>2026-04-17T10:26:58.757Z</time></trkpt><trkpt lat="40.728875" lon="-3.8557746"><ele>903.0</ele><time>2026-04-17T10:26:59.757Z</time></trkpt><trkpt lat="40.7288493" lon="-3.8558973"><ele>903.0</ele><time>2026-04-17T10:27:00.758Z</time></trkpt><trkpt lat="40.7288106" lon="-3.8560135"><ele>903.0</ele><time>2026-04-17T10:27:01.757Z</time></trkpt><trkpt lat="40.72876" lon="-3.8561225"><ele>902.2</ele><time>2026-04-17T10:27:02.758Z</time></trkpt><trkpt lat="40.7287114" lon="-3.8562339"><ele>901.4</ele><time>2026-04-17T10:27:03.758Z</time></trkpt><trkpt lat="40.7286693" lon="-3.8563536"><ele>900.6000000000001</ele><time>2026-04-17T10:27:04.758Z</time></trkpt><trkpt lat="40.7286299" lon="-3.8564777"><ele>899.8000000000001</ele><time>2026-04-17T10:27:05.757Z</time></trkpt><trkpt lat="40.7285916" lon="-3.8565945"><ele>899.0</ele><time>2026-04-17T10:27:06.758Z</time></trkpt><trkpt lat="40.7285547" lon="-3.8566987"><ele>899.2</ele><time>2026-04-17T10:27:07.757Z</time></trkpt><trkpt lat="40.7285136" lon="-3.8567954"><ele>899.4000000000001</ele><time>2026-04-17T10:27:08.757Z</time></trkpt><trkpt lat="40.7284752" lon="-3.8568892"><ele>899.6</ele><time>2026-04-17T10:27:09.758Z</time></trkpt><trkpt lat="40.7284441" lon="-3.8569703"><ele>899.8</ele><time>2026-04-17T10:27:10.758Z</time></trkpt><trkpt lat="40.7283846" lon="-3.8571153"><ele>900.0</ele><time>2026-04-17T10:27:12.757Z</time></trkpt><trkpt lat="40.7283406" lon="-3.8572762"><ele>900.0</ele><time>2026-04-17T10:27:14.757Z</time></trkpt><trkpt lat="40.7282964" lon="-3.85741"><ele>900.0</ele><time>2026-04-17T10:27:16.757Z</time></trkpt><trkpt lat="40.7282661" lon="-3.8575326"><ele>900.0</ele><time>2026-04-17T10:27:18.758Z</time></trkpt><trkpt lat="40.728281" lon="-3.8576548"><ele>900.0</ele><time>2026-04-17T10:27:20.757Z</time></trkpt><trkpt lat="40.7283553" lon="-3.8577631"><ele>900.0</ele><time>2026-04-17T10:27:22.758Z</time></trkpt><trkpt lat="40.7283961" lon="-3.8578309"><ele>900.4</ele><time>2026-04-17T10:27:24.757Z</time></trkpt><trkpt lat="40.7284055" lon="-3.8579229"><ele>900.8</ele><time>2026-04-17T10:27:26.757Z</time></trkpt><trkpt lat="40.7283623" lon="-3.858067"><ele>901.2</ele><time>2026-04-17T10:27:28.758Z</time></trkpt><trkpt lat="40.7283305" lon="-3.8582112"><ele>901.6</ele><time>2026-04-17T10:27:30.758Z</time></trkpt><trkpt lat="40.7282854" lon="-3.858356"><ele>902.0</ele><time>2026-04-17T10:27:32.757Z</time></trkpt><trkpt lat="40.7282349" lon="-3.8584836"><ele>902.1666666666667</ele><time>2026-04-17T10:27:34.757Z</time></trkpt><trkpt lat="40.7282069" lon="-3.8585781"><ele>902.3333333333334</ele><time>2026-04-17T10:27:36.757Z</time></trkpt><trkpt lat="40.7281318" lon="-3.85861"><ele>902.5</ele><time>2026-04-17T10:27:39.757Z</time></trkpt><trkpt lat="40.7280439" lon="-3.8585431"><ele>902.6666666666667</ele><time>2026-04-17T10:27:41.758Z</time></trkpt><trkpt lat="40.7279733" lon="-3.8585071"><ele>902.8333333333334</ele><time>2026-04-17T10:27:43.757Z</time></trkpt><trkpt lat="40.7279038" lon="-3.8585545"><ele>903.0</ele><time>2026-04-17T10:27:46.757Z</time></trkpt><trkpt lat="40.7278782" lon="-3.8586654"><ele>903.0</ele><time>2026-04-17T10:27:48.758Z</time></trkpt><trkpt lat="40.7278414" lon="-3.8588246"><ele>903.0</ele><time>2026-04-17T10:27:50.758Z</time></trkpt><trkpt lat="40.7278166" lon="-3.8589819"><ele>903.0</ele><time>2026-04-17T10:27:52.758Z</time></trkpt><trkpt lat="40.7277909" lon="-3.8591155"><ele>903.0</ele><time>2026-04-17T10:27:54.758Z</time></trkpt><trkpt lat="40.7277775" lon="-3.8592032"><ele>903.0</ele><time>2026-04-17T10:27:56.758Z</time></trkpt><trkpt lat="40.7277541" lon="-3.8593066"><ele>902.8333333333334</ele><time>2026-04-17T10:27:59.757Z</time></trkpt><trkpt lat="40.7277022" lon="-3.8593995"><ele>902.6666666666667</ele><time>2026-04-17T10:28:02.758Z</time></trkpt><trkpt lat="40.7276084" lon="-3.8593959"><ele>902.5</ele><time>2026-04-17T10:28:04.757Z</time></trkpt><trkpt lat="40.7275447" lon="-3.8593968"><ele>902.3333333333334</ele><time>2026-04-17T10:28:05.758Z</time></trkpt><trkpt lat="40.7274686" lon="-3.8594072"><ele>902.1666666666667</ele><time>2026-04-17T10:28:06.757Z</time></trkpt><trkpt lat="40.7273922" lon="-3.8594245"><ele>902.0</ele><time>2026-04-17T10:28:07.757Z</time></trkpt><trkpt lat="40.7273206" lon="-3.8594326"><ele>902.0000000000001</ele><time>2026-04-17T10:28:08.758Z</time></trkpt><trkpt lat="40.7272008" lon="-3.859441"><ele>902.0</ele><time>2026-04-17T10:28:10.758Z</time></trkpt><trkpt lat="40.7270905" lon="-3.8594602"><ele>902.0</ele><time>2026-04-17T10:28:12.758Z</time></trkpt><trkpt lat="40.7270343" lon="-3.8595083"><ele>902.0</ele><time>2026-04-17T10:28:13.758Z</time></trkpt><trkpt lat="40.7269867" lon="-3.8595752"><ele>902.0000000000001</ele><time>2026-04-17T10:28:14.758Z</time></trkpt><trkpt lat="40.7269354" lon="-3.8596588"><ele>902.0</ele><time>2026-04-17T10:28:15.758Z</time></trkpt><trkpt lat="40.7268736" lon="-3.8597486"><ele>901.6666666666667</ele><time>2026-04-17T10:28:16.759Z</time></trkpt><trkpt lat="40.7268083" lon="-3.8598273"><ele>901.3333333333334</ele><time>2026-04-17T10:28:17.758Z</time></trkpt><trkpt lat="40.7267481" lon="-3.8599088"><ele>901.0</ele><time>2026-04-17T10:28:18.758Z</time></trkpt><trkpt lat="40.7266866" lon="-3.8599854"><ele>900.6666666666667</ele><time>2026-04-17T10:28:19.758Z</time></trkpt><trkpt lat="40.7266291" lon="-3.8600569"><ele>900.3333333333334</ele><time>2026-04-17T10:28:20.759Z</time></trkpt><trkpt lat="40.7265793" lon="-3.8601282"><ele>900.0</ele><time>2026-04-17T10:28:21.758Z</time></trkpt><trkpt lat="40.726536" lon="-3.8602017"><ele>900.5714285714287</ele><time>2026-04-17T10:28:22.758Z</time></trkpt><trkpt lat="40.7265072" lon="-3.8602857"><ele>901.1428571428571</ele><time>2026-04-17T10:28:23.759Z</time></trkpt><trkpt lat="40.7264883" lon="-3.8603707"><ele>901.7142857142858</ele><time>2026-04-17T10:28:24.758Z</time></trkpt><trkpt lat="40.7264775" lon="-3.8604661"><ele>902.2857142857143</ele><time>2026-04-17T10:28:25.758Z</time></trkpt><trkpt lat="40.7264629" lon="-3.8605632"><ele>902.8571428571429</ele><time>2026-04-17T10:28:26.758Z</time></trkpt><trkpt lat="40.726444" lon="-3.8606619"><ele>903.4285714285714</ele><time>2026-04-17T10:28:27.758Z</time></trkpt><trkpt lat="40.7264146" lon="-3.8607519"><ele>904.0</ele><time>2026-04-17T10:28:28.759Z</time></trkpt><trkpt lat="40.7263677" lon="-3.8608266"><ele>904.0</ele><time>2026-04-17T10:28:29.759Z</time></trkpt><trkpt lat="40.7263068" lon="-3.8608989"><ele>904.0000000000001</ele><time>2026-04-17T10:28:30.758Z</time></trkpt><trkpt lat="40.7262389" lon="-3.8609643"><ele>904.0000000000001</ele><time>2026-04-17T10:28:31.758Z</time></trkpt><trkpt lat="40.7261627" lon="-3.8610343"><ele>904.0</ele><time>2026-04-17T10:28:32.759Z</time></trkpt><trkpt lat="40.726087" lon="-3.8611155"><ele>904.0</ele><time>2026-04-17T10:28:33.759Z</time></trkpt><trkpt lat="40.7260066" lon="-3.8612075"><ele>903.8000000000001</ele><time>2026-04-17T10:28:34.759Z</time></trkpt><trkpt lat="40.7259286" lon="-3.8613042"><ele>903.6000000000001</ele><time>2026-04-17T10:28:35.758Z</time></trkpt><trkpt lat="40.7258535" lon="-3.861413"><ele>903.4</ele><time>2026-04-17T10:28:36.759Z</time></trkpt><trkpt lat="40.7257778" lon="-3.8615249"><ele>903.2</ele><time>2026-04-17T10:28:37.758Z</time></trkpt><trkpt lat="40.7257056" lon="-3.861633"><ele>903.0</ele><time>2026-04-17T10:28:38.758Z</time></trkpt><trkpt lat="40.7256421" lon="-3.8617334"><ele>902.8333333333334</ele><time>2026-04-17T10:28:39.758Z</time></trkpt><trkpt lat="40.7255868" lon="-3.861831"><ele>902.6666666666667</ele><time>2026-04-17T10:28:40.758Z</time></trkpt><trkpt lat="40.7255375" lon="-3.8619279"><ele>902.5</ele><time>2026-04-17T10:28:41.758Z</time></trkpt><trkpt lat="40.7254981" lon="-3.8620268"><ele>902.3333333333334</ele><time>2026-04-17T10:28:42.758Z</time></trkpt><trkpt lat="40.7254606" lon="-3.8621243"><ele>902.1666666666667</ele><time>2026-04-17T10:28:43.759Z</time></trkpt><trkpt lat="40.7254223" lon="-3.8622271"><ele>902.0</ele><time>2026-04-17T10:28:44.758Z</time></trkpt><trkpt lat="40.7253788" lon="-3.8623269"><ele>902.0000000000001</ele><time>2026-04-17T10:28:45.759Z</time></trkpt><trkpt lat="40.7253385" lon="-3.8624158"><ele>902.0</ele><time>2026-04-17T10:28:46.758Z</time></trkpt><trkpt lat="40.7253056" lon="-3.8624995"><ele>902.0</ele><time>2026-04-17T10:28:47.758Z</time></trkpt><trkpt lat="40.7252799" lon="-3.8625761"><ele>902.0</ele><time>2026-04-17T10:28:48.758Z</time></trkpt><trkpt lat="40.725265" lon="-3.8626951"><ele>902.0000000000001</ele><time>2026-04-17T10:28:50.759Z</time></trkpt><trkpt lat="40.7253223" lon="-3.8627979"><ele>902.0</ele><time>2026-04-17T10:28:59.759Z</time></trkpt><trkpt lat="40.7253158" lon="-3.862882"><ele>901.8</ele><time>2026-04-17T10:29:01.758Z</time></trkpt><trkpt lat="40.7252785" lon="-3.8630212"><ele>901.6</ele><time>2026-04-17T10:29:03.758Z</time></trkpt><trkpt lat="40.7252572" lon="-3.8631136"><ele>901.3999999999999</ele><time>2026-04-17T10:29:04.759Z</time></trkpt><trkpt lat="40.7252385" lon="-3.8632229"><ele>901.1999999999999</ele><time>2026-04-17T10:29:05.759Z</time></trkpt><trkpt lat="40.7252207" lon="-3.863342"><ele>901.0</ele><time>2026-04-17T10:29:06.758Z</time></trkpt><trkpt lat="40.7252061" lon="-3.8634684"><ele>901.0</ele><time>2026-04-17T10:29:07.758Z</time></trkpt><trkpt lat="40.7251875" lon="-3.8636059"><ele>901.0</ele><time>2026-04-17T10:29:08.759Z</time></trkpt><trkpt lat="40.7251709" lon="-3.8637549"><ele>901.0</ele><time>2026-04-17T10:29:09.758Z</time></trkpt><trkpt lat="40.7251615" lon="-3.8639056"><ele>901.0</ele><time>2026-04-17T10:29:10.759Z</time></trkpt><trkpt lat="40.7251559" lon="-3.8640593"><ele>901.0</ele><time>2026-04-17T10:29:11.758Z</time></trkpt><trkpt lat="40.7251575" lon="-3.8642208"><ele>901.0</ele><time>2026-04-17T10:29:12.758Z</time></trkpt><trkpt lat="40.7251616" lon="-3.8643871"><ele>901.0</ele><time>2026-04-17T10:29:13.759Z</time></trkpt><trkpt lat="40.725157" lon="-3.8645565"><ele>901.0</ele><time>2026-04-17T10:29:14.758Z</time></trkpt><trkpt lat="40.7251537" lon="-3.8647286"><ele>901.25</ele><time>2026-04-17T10:29:15.758Z</time></trkpt><trkpt lat="40.7251509" lon="-3.8649059"><ele>901.5</ele><time>2026-04-17T10:29:16.759Z</time></trkpt><trkpt lat="40.7251583" lon="-3.8650869"><ele>901.75</ele><time>2026-04-17T10:29:17.759Z</time></trkpt><trkpt lat="40.7251574" lon="-3.8652681"><ele>902.0</ele><time>2026-04-17T10:29:18.758Z</time></trkpt><trkpt lat="40.7251533" lon="-3.8654447"><ele>902.0</ele><time>2026-04-17T10:29:19.759Z</time></trkpt><trkpt lat="40.7251475" lon="-3.8656118"><ele>902.0</ele><time>2026-04-17T10:29:20.759Z</time></trkpt><trkpt lat="40.7251429" lon="-3.8657824"><ele>902.0</ele><time>2026-04-17T10:29:21.759Z</time></trkpt><trkpt lat="40.7251394" lon="-3.8659478"><ele>902.0</ele><time>2026-04-17T10:29:22.759Z</time></trkpt><trkpt lat="40.7251389" lon="-3.8661124"><ele>902.25</ele><time>2026-04-17T10:29:23.759Z</time></trkpt><trkpt lat="40.725141" lon="-3.866277"><ele>902.5</ele><time>2026-04-17T10:29:24.759Z</time></trkpt><trkpt lat="40.7251421" lon="-3.8664387"><ele>902.75</ele><time>2026-04-17T10:29:25.758Z</time></trkpt><trkpt lat="40.7251435" lon="-3.8666012"><ele>903.0</ele><time>2026-04-17T10:29:26.758Z</time></trkpt><trkpt lat="40.7251428" lon="-3.8667691"><ele>903.5</ele><time>2026-04-17T10:29:27.759Z</time></trkpt><trkpt lat="40.725142" lon="-3.8669299"><ele>904.0</ele><time>2026-04-17T10:29:28.759Z</time></trkpt><trkpt lat="40.7251391" lon="-3.8670945"><ele>904.5</ele><time>2026-04-17T10:29:29.758Z</time></trkpt><trkpt lat="40.7251428" lon="-3.8672475"><ele>905.0</ele><time>2026-04-17T10:29:30.758Z</time></trkpt><trkpt lat="40.7251468" lon="-3.8673896"><ele>905.0000000000001</ele><time>2026-04-17T10:29:31.758Z</time></trkpt><trkpt lat="40.7251537" lon="-3.8675148"><ele>905.0</ele><time>2026-04-17T10:29:32.759Z</time></trkpt><trkpt lat="40.7251636" lon="-3.8676286"><ele>905.0</ele><time>2026-04-17T10:29:33.758Z</time></trkpt><trkpt lat="40.7251801" lon="-3.8677308"><ele>905.0</ele><time>2026-04-17T10:29:34.758Z</time></trkpt><trkpt lat="40.7251834" lon="-3.8678477"><ele>905.0000000000001</ele><time>2026-04-17T10:29:36.758Z</time></trkpt><trkpt lat="40.7252199" lon="-3.8679438"><ele>905.0</ele><time>2026-04-17T10:29:39.758Z</time></trkpt><trkpt lat="40.7252923" lon="-3.8680483"><ele>906.2</ele><time>2026-04-17T10:29:41.759Z</time></trkpt><trkpt lat="40.7253289" lon="-3.8682079"><ele>907.4</ele><time>2026-04-17T10:29:43.758Z</time></trkpt><trkpt lat="40.7253165" lon="-3.8683083"><ele>908.5999999999999</ele><time>2026-04-17T10:29:44.758Z</time></trkpt><trkpt lat="40.7252798" lon="-3.8684116"><ele>909.8</ele><time>2026-04-17T10:29:45.758Z</time></trkpt><trkpt lat="40.7252374" lon="-3.8685035"><ele>911.0</ele><time>2026-04-17T10:29:46.758Z</time></trkpt><trkpt lat="40.7251928" lon="-3.8685913"><ele>911.0</ele><time>2026-04-17T10:29:47.758Z</time></trkpt><trkpt lat="40.7251593" lon="-3.8686967"><ele>910.9999999999999</ele><time>2026-04-17T10:29:48.758Z</time></trkpt><trkpt lat="40.7251307" lon="-3.8688107"><ele>910.9999999999999</ele><time>2026-04-17T10:29:49.759Z</time></trkpt><trkpt lat="40.7251074" lon="-3.8689369"><ele>911.0</ele><time>2026-04-17T10:29:50.759Z</time></trkpt><trkpt lat="40.7250829" lon="-3.8690718"><ele>911.0</ele><time>2026-04-17T10:29:51.759Z</time></trkpt><trkpt lat="40.7250562" lon="-3.8692138"><ele>912.0</ele><time>2026-04-17T10:29:52.759Z</time></trkpt><trkpt lat="40.7250271" lon="-3.8693591"><ele>913.0</ele><time>2026-04-17T10:29:53.759Z</time></trkpt><trkpt lat="40.7249908" lon="-3.8695002"><ele>914.0</ele><time>2026-04-17T10:29:54.758Z</time></trkpt><trkpt lat="40.7249536" lon="-3.8696412"><ele>915.0</ele><time>2026-04-17T10:29:55.758Z</time></trkpt><trkpt lat="40.7249083" lon="-3.8697866"><ele>915.0</ele><time>2026-04-17T10:29:56.758Z</time></trkpt><trkpt lat="40.7248583" lon="-3.8699389"><ele>915.0</ele><time>2026-04-17T10:29:57.759Z</time></trkpt><trkpt lat="40.7248065" lon="-3.8701064"><ele>915.0</ele><time>2026-04-17T10:29:58.758Z</time></trkpt><trkpt lat="40.7247497" lon="-3.870286"><ele>915.0</ele><time>2026-04-17T10:29:59.758Z</time></trkpt><trkpt lat="40.7246844" lon="-3.8704717"><ele>915.3333333333333</ele><time>2026-04-17T10:30:00.758Z</time></trkpt><trkpt lat="40.7246111" lon="-3.8706589"><ele>915.6666666666666</ele><time>2026-04-17T10:30:01.758Z</time></trkpt><trkpt lat="40.7245406" lon="-3.8708412"><ele>916.0</ele><time>2026-04-17T10:30:02.758Z</time></trkpt><trkpt lat="40.7244691" lon="-3.8710201"><ele>916.75</ele><time>2026-04-17T10:30:03.759Z</time></trkpt><trkpt lat="40.7244003" lon="-3.8712002"><ele>917.5</ele><time>2026-04-17T10:30:04.759Z</time></trkpt><trkpt lat="40.7243365" lon="-3.8713711"><ele>918.25</ele><time>2026-04-17T10:30:05.758Z</time></trkpt><trkpt lat="40.724277" lon="-3.8715307"><ele>919.0</ele><time>2026-04-17T10:30:06.758Z</time></trkpt><trkpt lat="40.7242256" lon="-3.871684"><ele>918.5</ele><time>2026-04-17T10:30:07.759Z</time></trkpt><trkpt lat="40.7241837" lon="-3.8718354"><ele>918.0</ele><time>2026-04-17T10:30:08.759Z</time></trkpt><trkpt lat="40.7241489" lon="-3.8719951"><ele>917.5</ele><time>2026-04-17T10:30:09.758Z</time></trkpt><trkpt lat="40.7241114" lon="-3.8721594"><ele>917.0</ele><time>2026-04-17T10:30:10.758Z</time></trkpt><trkpt lat="40.7240764" lon="-3.8723292"><ele>917.0</ele><time>2026-04-17T10:30:11.758Z</time></trkpt><trkpt lat="40.7240533" lon="-3.8725053"><ele>917.0</ele><time>2026-04-17T10:30:12.758Z</time></trkpt><trkpt lat="40.7240406" lon="-3.8726915"><ele>917.0</ele><time>2026-04-17T10:30:13.758Z</time></trkpt><trkpt lat="40.7240386" lon="-3.8728936"><ele>917.0</ele><time>2026-04-17T10:30:14.759Z</time></trkpt><trkpt lat="40.7240363" lon="-3.8731034"><ele>917.0</ele><time>2026-04-17T10:30:15.759Z</time></trkpt><trkpt lat="40.7240394" lon="-3.8733158"><ele>917.0</ele><time>2026-04-17T10:30:16.759Z</time></trkpt><trkpt lat="40.7240461" lon="-3.8735147"><ele>917.0</ele><time>2026-04-17T10:30:17.758Z</time></trkpt><trkpt lat="40.7260066" lon="-3.889466"><ele>920.8</ele><time>2026-04-17T10:33:21.758Z</time></trkpt><trkpt lat="40.72607" lon="-3.8895562"><ele>924.6</ele><time>2026-04-17T10:33:22.757Z</time></trkpt><trkpt lat="40.7261325" lon="-3.8896498"><ele>928.3999999999999</ele><time>2026-04-17T10:33:23.757Z</time></trkpt><trkpt lat="40.7261946" lon="-3.8897518"><ele>932.1999999999999</ele><time>2026-04-17T10:33:24.758Z</time></trkpt><trkpt lat="40.7262584" lon="-3.8898564"><ele>936.0</ele><time>2026-04-17T10:33:25.758Z</time></trkpt><trkpt lat="40.7263279" lon="-3.8899613"><ele>936.0</ele><time>2026-04-17T10:33:26.758Z</time></trkpt><trkpt lat="40.7264119" lon="-3.8900709"><ele>936.0</ele><time>2026-04-17T10:33:27.758Z</time></trkpt><trkpt lat="40.726503" lon="-3.8901847"><ele>936.0</ele><time>2026-04-17T10:33:28.758Z</time></trkpt><trkpt lat="40.7265867" lon="-3.8902922"><ele>936.0</ele><time>2026-04-17T10:33:29.757Z</time></trkpt><trkpt lat="40.7266655" lon="-3.8903982"><ele>937.4</ele><time>2026-04-17T10:33:30.757Z</time></trkpt><trkpt lat="40.726738" lon="-3.8905069"><ele>938.8</ele><time>2026-04-17T10:33:31.757Z</time></trkpt><trkpt lat="40.7267958" lon="-3.8906124"><ele>940.1999999999999</ele><time>2026-04-17T10:33:32.757Z</time></trkpt><trkpt lat="40.726848" lon="-3.8907136"><ele>941.5999999999999</ele><time>2026-04-17T10:33:33.758Z</time></trkpt><trkpt lat="40.7268984" lon="-3.8908173"><ele>943.0</ele><time>2026-04-17T10:33:34.757Z</time></trkpt><trkpt lat="40.7269597" lon="-3.8909184"><ele>944.0</ele><time>2026-04-17T10:33:35.758Z</time></trkpt><trkpt lat="40.7270293" lon="-3.8910188"><ele>945.0</ele><time>2026-04-17T10:33:36.757Z</time></trkpt><trkpt lat="40.7271066" lon="-3.8911322"><ele>946.0</ele><time>2026-04-17T10:33:37.757Z</time></trkpt><trkpt lat="40.7272771" lon="-3.891369"><ele>946.0</ele><time>2026-04-17T10:33:39.758Z</time></trkpt><trkpt lat="40.7273752" lon="-3.8914831"><ele>946.0</ele><time>2026-04-17T10:33:40.757Z</time></trkpt><trkpt lat="40.7274694" lon="-3.8915943"><ele>946.0</ele><time>2026-04-17T10:33:41.757Z</time></trkpt><trkpt lat="40.7275524" lon="-3.8916897"><ele>946.0</ele><time>2026-04-17T10:33:42.758Z</time></trkpt><trkpt lat="40.7276247" lon="-3.8917825"><ele>947.4</ele><time>2026-04-17T10:33:43.758Z</time></trkpt><trkpt lat="40.7277025" lon="-3.8918676"><ele>948.8</ele><time>2026-04-17T10:33:44.758Z</time></trkpt><trkpt lat="40.7277844" lon="-3.891955"><ele>950.1999999999999</ele><time>2026-04-17T10:33:45.757Z</time></trkpt><trkpt lat="40.7278668" lon="-3.8920505"><ele>951.5999999999999</ele><time>2026-04-17T10:33:46.758Z</time></trkpt><trkpt lat="40.7279528" lon="-3.8921457"><ele>953.0</ele><time>2026-04-17T10:33:47.757Z</time></trkpt><trkpt lat="40.7280446" lon="-3.8922449"><ele>953.0</ele><time>2026-04-17T10:33:48.757Z</time></trkpt><trkpt lat="40.7281349" lon="-3.8923436"><ele>953.0</ele><time>2026-04-17T10:33:49.758Z</time></trkpt><trkpt lat="40.7282213" lon="-3.8924468"><ele>953.0</ele><time>2026-04-17T10:33:50.757Z</time></trkpt><trkpt lat="40.7283002" lon="-3.8925547"><ele>953.0</ele><time>2026-04-17T10:33:51.758Z</time></trkpt><trkpt lat="40.7283766" lon="-3.8926653"><ele>954.5999999999999</ele><time>2026-04-17T10:33:52.758Z</time></trkpt><trkpt lat="40.7284508" lon="-3.8927619"><ele>956.1999999999999</ele><time>2026-04-17T10:33:53.758Z</time></trkpt><trkpt lat="40.7285288" lon="-3.8928423"><ele>957.8</ele><time>2026-04-17T10:33:54.758Z</time></trkpt><trkpt lat="40.7286032" lon="-3.892907"><ele>959.4</ele><time>2026-04-17T10:33:55.758Z</time></trkpt><trkpt lat="40.7286748" lon="-3.8929817"><ele>961.0</ele><time>2026-04-17T10:33:56.757Z</time></trkpt><trkpt lat="40.7287353" lon="-3.893078"><ele>961.0</ele><time>2026-04-17T10:33:57.757Z</time></trkpt><trkpt lat="40.7287867" lon="-3.8931803"><ele>961.0</ele><time>2026-04-17T10:33:58.757Z</time></trkpt><trkpt lat="40.7288845" lon="-3.8934235"><ele>961.0</ele><time>2026-04-17T10:34:00.757Z</time></trkpt><trkpt lat="40.728939" lon="-3.8935512"><ele>961.0</ele><time>2026-04-17T10:34:01.758Z</time></trkpt><trkpt lat="40.7290016" lon="-3.8936962"><ele>963.25</ele><time>2026-04-17T10:34:02.758Z</time></trkpt><trkpt lat="40.7290688" lon="-3.8938341"><ele>965.5</ele><time>2026-04-17T10:34:03.757Z</time></trkpt><trkpt lat="40.7291362" lon="-3.8939889"><ele>967.75</ele><time>2026-04-17T10:34:04.757Z</time></trkpt><trkpt lat="40.7292009" lon="-3.8941415"><ele>970.0</ele><time>2026-04-17T10:34:05.757Z</time></trkpt><trkpt lat="40.7292634" lon="-3.8943051"><ele>970.25</ele><time>2026-04-17T10:34:06.757Z</time></trkpt><trkpt lat="40.7293211" lon="-3.8944609"><ele>970.5</ele><time>2026-04-17T10:34:07.757Z</time></trkpt><trkpt lat="40.7293779" lon="-3.8946111"><ele>970.75</ele><time>2026-04-17T10:34:08.758Z</time></trkpt><trkpt lat="40.7294337" lon="-3.8947555"><ele>971.0</ele><time>2026-04-17T10:34:09.757Z</time></trkpt><trkpt lat="40.7294874" lon="-3.8949009"><ele>971.0</ele><time>2026-04-17T10:34:10.758Z</time></trkpt><trkpt lat="40.7295405" lon="-3.8950444"><ele>971.0</ele><time>2026-04-17T10:34:11.757Z</time></trkpt><trkpt lat="40.7295871" lon="-3.8951827"><ele>971.0</ele><time>2026-04-17T10:34:12.758Z</time></trkpt><trkpt lat="40.7296184" lon="-3.8953256"><ele>971.0</ele><time>2026-04-17T10:34:13.758Z</time></trkpt><trkpt lat="40.7296496" lon="-3.8954706"><ele>972.0</ele><time>2026-04-17T10:34:14.758Z</time></trkpt><trkpt lat="40.7296654" lon="-3.8956206"><ele>972.9999999999999</ele><time>2026-04-17T10:34:15.757Z</time></trkpt><trkpt lat="40.7296777" lon="-3.8957716"><ele>973.9999999999999</ele><time>2026-04-17T10:34:16.757Z</time></trkpt><trkpt lat="40.7296884" lon="-3.8959105"><ele>975.0</ele><time>2026-04-17T10:34:17.758Z</time></trkpt><trkpt lat="40.7296955" lon="-3.8960335"><ele>976.0</ele><time>2026-04-17T10:34:18.757Z</time></trkpt><trkpt lat="40.7296963" lon="-3.8961272"><ele>977.4</ele><time>2026-04-17T10:34:19.757Z</time></trkpt><trkpt lat="40.7298062" lon="-3.8963128"><ele>978.8</ele><time>2026-04-17T10:34:22.758Z</time></trkpt><trkpt lat="40.7298846" lon="-3.8963143"><ele>980.1999999999999</ele><time>2026-04-17T10:34:23.757Z</time></trkpt><trkpt lat="40.7299678" lon="-3.8963035"><ele>981.5999999999999</ele><time>2026-04-17T10:34:24.757Z</time></trkpt><trkpt lat="40.7300561" lon="-3.8962737"><ele>983.0</ele><time>2026-04-17T10:34:25.758Z</time></trkpt><trkpt lat="40.7301518" lon="-3.896255"><ele>984.0</ele><time>2026-04-17T10:34:26.757Z</time></trkpt><trkpt lat="40.7302589" lon="-3.8962384"><ele>985.0</ele><time>2026-04-17T10:34:27.757Z</time></trkpt><trkpt lat="40.7303564" lon="-3.8962339"><ele>986.0</ele><time>2026-04-17T10:34:28.758Z</time></trkpt><trkpt lat="40.7304508" lon="-3.8962563"><ele>987.0</ele><time>2026-04-17T10:34:29.757Z</time></trkpt><trkpt lat="40.7305452" lon="-3.8962973"><ele>988.0</ele><time>2026-04-17T10:34:30.758Z</time></trkpt><trkpt lat="40.730638" lon="-3.8963719"><ele>988.0</ele><time>2026-04-17T10:34:31.757Z</time></trkpt><trkpt lat="40.7307239" lon="-3.8964501"><ele>988.0</ele><time>2026-04-17T10:34:32.757Z</time></trkpt><trkpt lat="40.7308027" lon="-3.8965446"><ele>988.0</ele><time>2026-04-17T10:34:33.758Z</time></trkpt><trkpt lat="40.7308795" lon="-3.8966505"><ele>988.0</ele><time>2026-04-17T10:34:34.757Z</time></trkpt><trkpt lat="40.7309533" lon="-3.8967587"><ele>988.0</ele><time>2026-04-17T10:34:35.757Z</time></trkpt><trkpt lat="40.7310299" lon="-3.8968609"><ele>991.4</ele><time>2026-04-17T10:34:36.757Z</time></trkpt><trkpt lat="40.731105" lon="-3.8969593"><ele>994.8</ele><time>2026-04-17T10:34:37.757Z</time></trkpt><trkpt lat="40.7311716" lon="-3.8970648"><ele>998.2</ele><time>2026-04-17T10:34:38.758Z</time></trkpt><trkpt lat="40.7312224" lon="-3.8971725"><ele>1001.6</ele><time>2026-04-17T10:34:39.757Z</time></trkpt><trkpt lat="40.7312527" lon="-3.8972713"><ele>1005.0</ele><time>2026-04-17T10:34:40.757Z</time></trkpt><trkpt lat="40.731312" lon="-3.8974804"><ele>1003.8333333333334</ele><time>2026-04-17T10:34:43.757Z</time></trkpt><trkpt lat="40.731351" lon="-3.8976204"><ele>1002.6666666666667</ele><time>2026-04-17T10:34:45.758Z</time></trkpt><trkpt lat="40.731376" lon="-3.8977066"><ele>1001.5</ele><time>2026-04-17T10:34:46.758Z</time></trkpt><trkpt lat="40.7314038" lon="-3.8978024"><ele>1000.3333333333334</ele><time>2026-04-17T10:34:47.757Z</time></trkpt><trkpt lat="40.731434" lon="-3.8978939"><ele>999.1666666666667</ele><time>2026-04-17T10:34:48.758Z</time></trkpt><trkpt lat="40.7314821" lon="-3.897989"><ele>998.0</ele><time>2026-04-17T10:34:49.758Z</time></trkpt><trkpt lat="40.7315444" lon="-3.8980759"><ele>998.0</ele><time>2026-04-17T10:34:50.758Z</time></trkpt><trkpt lat="40.731608" lon="-3.8981667"><ele>998.0</ele><time>2026-04-17T10:34:51.759Z</time></trkpt><trkpt lat="40.731675" lon="-3.898259"><ele>998.0</ele><time>2026-04-17T10:34:52.758Z</time></trkpt><trkpt lat="40.7317372" lon="-3.8983499"><ele>998.0</ele><time>2026-04-17T10:34:53.759Z</time></trkpt><trkpt lat="40.7317898" lon="-3.8984364"><ele>998.0</ele><time>2026-04-17T10:34:54.759Z</time></trkpt><trkpt lat="40.7318451" lon="-3.8985239"><ele>997.0</ele><time>2026-04-17T10:34:55.759Z</time></trkpt><trkpt lat="40.7319001" lon="-3.8986103"><ele>996.0</ele><time>2026-04-17T10:34:56.758Z</time></trkpt><trkpt lat="40.7319487" lon="-3.8986862"><ele>995.0</ele><time>2026-04-17T10:34:57.758Z</time></trkpt><trkpt lat="40.7319898" lon="-3.898756"><ele>994.0</ele><time>2026-04-17T10:34:58.758Z</time></trkpt><trkpt lat="40.732082" lon="-3.8988604"><ele>993.0</ele><time>2026-04-17T10:35:00.759Z</time></trkpt><trkpt lat="40.7321736" lon="-3.8989453"><ele>993.0</ele><time>2026-04-17T10:35:02.759Z</time></trkpt><trkpt lat="40.7323463" lon="-3.8990033"><ele>993.0</ele><time>2026-04-17T10:35:05.759Z</time></trkpt><trkpt lat="40.7324133" lon="-3.8990002"><ele>993.0</ele><time>2026-04-17T10:35:06.758Z</time></trkpt><trkpt lat="40.7324779" lon="-3.8989868"><ele>993.0</ele><time>2026-04-17T10:35:07.759Z</time></trkpt><trkpt lat="40.7325955" lon="-3.898993"><ele>993.0</ele><time>2026-04-17T10:35:09.758Z</time></trkpt><trkpt lat="40.7326686" lon="-3.8990998"><ele>993.0</ele><time>2026-04-17T10:35:11.758Z</time></trkpt><trkpt lat="40.7326666" lon="-3.8992285"><ele>993.0</ele><time>2026-04-17T10:35:13.758Z</time></trkpt><trkpt lat="40.732557" lon="-3.8993394"><ele>993.0</ele><time>2026-04-17T10:35:15.759Z</time></trkpt><trkpt lat="40.7324755" lon="-3.8993876"><ele>993.0</ele><time>2026-04-17T10:35:16.758Z</time></trkpt><trkpt lat="40.7323993" lon="-3.8994337"><ele>993.0</ele><time>2026-04-17T10:35:17.759Z</time></trkpt><trkpt lat="40.7323262" lon="-3.8994831"><ele>994.8333333333334</ele><time>2026-04-17T10:35:18.759Z</time></trkpt><trkpt lat="40.7322597" lon="-3.899537"><ele>996.6666666666667</ele><time>2026-04-17T10:35:19.759Z</time></trkpt><trkpt lat="40.7321945" lon="-3.8995835"><ele>998.5</ele><time>2026-04-17T10:35:20.759Z</time></trkpt><trkpt lat="40.7321407" lon="-3.8996402"><ele>1000.3333333333334</ele><time>2026-04-17T10:35:21.758Z</time></trkpt><trkpt lat="40.732096" lon="-3.8997051"><ele>1002.1666666666667</ele><time>2026-04-17T10:35:22.759Z</time></trkpt><trkpt lat="40.7320409" lon="-3.8998729"><ele>1004.0</ele><time>2026-04-17T10:35:24.758Z</time></trkpt><trkpt lat="40.7320133" lon="-3.8999641"><ele>1004.0000000000001</ele><time>2026-04-17T10:35:25.758Z</time></trkpt><trkpt lat="40.7319808" lon="-3.9000594"><ele>1004.0</ele><time>2026-04-17T10:35:26.758Z</time></trkpt><trkpt lat="40.7319611" lon="-3.9001658"><ele>1004.0</ele><time>2026-04-17T10:35:27.759Z</time></trkpt><trkpt lat="40.7319407" lon="-3.9002869"><ele>1004.0</ele><time>2026-04-17T10:35:28.758Z</time></trkpt><trkpt lat="40.7319245" lon="-3.9004138"><ele>1004.0000000000001</ele><time>2026-04-17T10:35:29.759Z</time></trkpt><trkpt lat="40.7319176" lon="-3.9005318"><ele>1004.0</ele><time>2026-04-17T10:35:30.758Z</time></trkpt><trkpt lat="40.7319215" lon="-3.9006515"><ele>1006.6</ele><time>2026-04-17T10:35:31.759Z</time></trkpt><trkpt lat="40.7319349" lon="-3.9007735"><ele>1009.2</ele><time>2026-04-17T10:35:32.758Z</time></trkpt><trkpt lat="40.7319506" lon="-3.9009004"><ele>1011.8000000000001</ele><time>2026-04-17T10:35:33.759Z</time></trkpt><trkpt lat="40.7319754" lon="-3.9010236"><ele>1014.4000000000001</ele><time>2026-04-17T10:35:34.759Z</time></trkpt><trkpt lat="40.7319879" lon="-3.9011443"><ele>1017.0</ele><time>2026-04-17T10:35:35.759Z</time></trkpt><trkpt lat="40.7319973" lon="-3.9012705"><ele>1017.1666666666666</ele><time>2026-04-17T10:35:36.758Z</time></trkpt><trkpt lat="40.7320067" lon="-3.9013983"><ele>1017.3333333333333</ele><time>2026-04-17T10:35:37.759Z</time></trkpt><trkpt lat="40.7320097" lon="-3.9015267"><ele>1017.5</ele><time>2026-04-17T10:35:38.758Z</time></trkpt><trkpt lat="40.7319963" lon="-3.9016451"><ele>1017.6666666666666</ele><time>2026-04-17T10:35:39.758Z</time></trkpt><trkpt lat="40.7319734" lon="-3.9017458"><ele>1017.8333333333333</ele><time>2026-04-17T10:35:40.758Z</time></trkpt><trkpt lat="40.7319492" lon="-3.9018267"><ele>1018.0</ele><time>2026-04-17T10:35:41.758Z</time></trkpt><trkpt lat="40.7319056" lon="-3.9019162"><ele>1023.0</ele><time>2026-04-17T10:35:43.758Z</time></trkpt></trkseg><trkseg><trkpt lat="40.768173" lon="-3.9410331"><ele>1735.0000000000002</ele><time>2026-04-17T11:20:23.755Z</time></trkpt><trkpt lat="40.7681626" lon="-3.9411669"><ele>1735.0</ele><time>2026-04-17T11:20:25.756Z</time></trkpt><trkpt lat="40.7681639" lon="-3.9413202"><ele>1735.0</ele><time>2026-04-17T11:20:27.755Z</time></trkpt><trkpt lat="40.7681615" lon="-3.9414116"><ele>1735.0</ele><time>2026-04-17T11:20:28.755Z</time></trkpt><trkpt lat="40.7681561" lon="-3.9415068"><ele>1735.0000000000002</ele><time>2026-04-17T11:20:29.756Z</time></trkpt><trkpt lat="40.7681514" lon="-3.9416149"><ele>1735.0</ele><time>2026-04-17T11:20:30.756Z</time></trkpt><trkpt lat="40.7681377" lon="-3.9417248"><ele>1733.2</ele><time>2026-04-17T11:20:31.755Z</time></trkpt><trkpt lat="40.768133" lon="-3.9418414"><ele>1731.4</ele><time>2026-04-17T11:20:32.755Z</time></trkpt><trkpt lat="40.7681228" lon="-3.9419576"><ele>1729.6</ele><time>2026-04-17T11:20:33.755Z</time></trkpt><trkpt lat="40.7681123" lon="-3.9420883"><ele>1727.8</ele><time>2026-04-17T11:20:34.756Z</time></trkpt><trkpt lat="40.7681009" lon="-3.9422206"><ele>1726.0</ele><time>2026-04-17T11:20:35.755Z</time></trkpt><trkpt lat="40.7680912" lon="-3.9423459"><ele>1726.0</ele><time>2026-04-17T11:20:36.755Z</time></trkpt><trkpt lat="40.7680843" lon="-3.9424639"><ele>1726.0</ele><time>2026-04-17T11:20:37.756Z</time></trkpt><trkpt lat="40.7680761" lon="-3.942581"><ele>1726.0</ele><time>2026-04-17T11:20:38.756Z</time></trkpt><trkpt lat="40.7680678" lon="-3.9427065"><ele>1726.0</ele><time>2026-04-17T11:20:39.756Z</time></trkpt><trkpt lat="40.7680598" lon="-3.9428364"><ele>1726.0</ele><time>2026-04-17T11:20:40.755Z</time></trkpt><trkpt lat="40.7680459" lon="-3.9429497"><ele>1723.4</ele><time>2026-04-17T11:20:41.755Z</time></trkpt><trkpt lat="40.7680233" lon="-3.9430617"><ele>1720.8</ele><time>2026-04-17T11:20:42.756Z</time></trkpt><trkpt lat="40.7680034" lon="-3.9431829"><ele>1718.2000000000003</ele><time>2026-04-17T11:20:43.755Z</time></trkpt><trkpt lat="40.7679845" lon="-3.9433036"><ele>1715.6000000000001</ele><time>2026-04-17T11:20:44.755Z</time></trkpt><trkpt lat="40.7679692" lon="-3.9434257"><ele>1713.0</ele><time>2026-04-17T11:20:45.756Z</time></trkpt><trkpt lat="40.7679625" lon="-3.9435514"><ele>1711.8333333333333</ele><time>2026-04-17T11:20:46.755Z</time></trkpt><trkpt lat="40.7679544" lon="-3.9436694"><ele>1710.6666666666665</ele><time>2026-04-17T11:20:47.755Z</time></trkpt><trkpt lat="40.7679465" lon="-3.9437855"><ele>1709.5</ele><time>2026-04-17T11:20:48.755Z</time></trkpt><trkpt lat="40.7679371" lon="-3.9438989"><ele>1708.3333333333333</ele><time>2026-04-17T11:20:49.755Z</time></trkpt><trkpt lat="40.7679245" lon="-3.9440142"><ele>1707.1666666666665</ele><time>2026-04-17T11:20:50.755Z</time></trkpt><trkpt lat="40.7679156" lon="-3.9441281"><ele>1706.0</ele><time>2026-04-17T11:20:51.756Z</time></trkpt><trkpt lat="40.7679048" lon="-3.9442434"><ele>1705.1999999999998</ele><time>2026-04-17T11:20:52.755Z</time></trkpt><trkpt lat="40.7678823" lon="-3.9443542"><ele>1704.3999999999999</ele><time>2026-04-17T11:20:53.755Z</time></trkpt><trkpt lat="40.7678609" lon="-3.9444768"><ele>1703.6</ele><time>2026-04-17T11:20:54.755Z</time></trkpt><trkpt lat="40.7678361" lon="-3.9446147"><ele>1702.8</ele><time>2026-04-17T11:20:55.756Z</time></trkpt><trkpt lat="40.7678001" lon="-3.944753"><ele>1702.0</ele><time>2026-04-17T11:20:56.756Z</time></trkpt><trkpt lat="40.7677662" lon="-3.9448939"><ele>1702.0</ele><time>2026-04-17T11:20:57.756Z</time></trkpt><trkpt lat="40.7677389" lon="-3.9450369"><ele>1702.0</ele><time>2026-04-17T11:20:58.755Z</time></trkpt><trkpt lat="40.7677138" lon="-3.9451731"><ele>1702.0</ele><time>2026-04-17T11:20:59.755Z</time></trkpt><trkpt lat="40.7676928" lon="-3.945317"><ele>1702.0</ele><time>2026-04-17T11:21:00.755Z</time></trkpt><trkpt lat="40.7676696" lon="-3.9454523"><ele>1702.0</ele><time>2026-04-17T11:21:01.755Z</time></trkpt><trkpt lat="40.7676433" lon="-3.9455948"><ele>1708.6</ele><time>2026-04-17T11:21:02.756Z</time></trkpt><trkpt lat="40.7676181" lon="-3.9457323"><ele>1715.1999999999998</ele><time>2026-04-17T11:21:03.755Z</time></trkpt><trkpt lat="40.7676046" lon="-3.9458748"><ele>1721.8</ele><time>2026-04-17T11:21:04.755Z</time></trkpt><trkpt lat="40.7676104" lon="-3.946017"><ele>1728.4</ele><time>2026-04-17T11:21:05.756Z</time></trkpt><trkpt lat="40.7676156" lon="-3.9461484"><ele>1735.0</ele><time>2026-04-17T11:21:06.756Z</time></trkpt><trkpt lat="40.7676137" lon="-3.9462691"><ele>1735.0</ele><time>2026-04-17T11:21:07.756Z</time></trkpt><trkpt lat="40.7676264" lon="-3.9463802"><ele>1735.0</ele><time>2026-04-17T11:21:08.755Z</time></trkpt><trkpt lat="40.7676364" lon="-3.9464909"><ele>1735.0</ele><time>2026-04-17T11:21:09.756Z</time></trkpt><trkpt lat="40.7676468" lon="-3.946613"><ele>1735.0</ele><time>2026-04-17T11:21:10.756Z</time></trkpt><trkpt lat="40.7676631" lon="-3.9467426"><ele>1735.0</ele><time>2026-04-17T11:21:11.756Z</time></trkpt><trkpt lat="40.7676812" lon="-3.9468765"><ele>1730.2</ele><time>2026-04-17T11:21:12.756Z</time></trkpt><trkpt lat="40.767703" lon="-3.9470041"><ele>1725.4</ele><time>2026-04-17T11:21:13.756Z</time></trkpt><trkpt lat="40.7677135" lon="-3.9471517"><ele>1720.6</ele><time>2026-04-17T11:21:14.755Z</time></trkpt><trkpt lat="40.7677218" lon="-3.9473042"><ele>1715.8</ele><time>2026-04-17T11:21:15.755Z</time></trkpt><trkpt lat="40.7677345" lon="-3.9474534"><ele>1711.0</ele><time>2026-04-17T11:21:16.755Z</time></trkpt><trkpt lat="40.7677549" lon="-3.9476074"><ele>1711.0</ele><time>2026-04-17T11:21:17.755Z</time></trkpt><trkpt lat="40.7677661" lon="-3.9477548"><ele>1711.0</ele><time>2026-04-17T11:21:18.756Z</time></trkpt><trkpt lat="40.7677879" lon="-3.9479078"><ele>1711.0</ele><time>2026-04-17T11:21:19.755Z</time></trkpt><trkpt lat="40.7678098" lon="-3.94806"><ele>1711.0</ele><time>2026-04-17T11:21:20.755Z</time></trkpt><trkpt lat="40.7678305" lon="-3.948208"><ele>1711.0</ele><time>2026-04-17T11:21:21.755Z</time></trkpt><trkpt lat="40.7678457" lon="-3.9483439"><ele>1711.0</ele><time>2026-04-17T11:21:22.755Z</time></trkpt><trkpt lat="40.7678622" lon="-3.9484791"><ele>1711.0</ele><time>2026-04-17T11:21:23.756Z</time></trkpt><trkpt lat="40.7678772" lon="-3.9486112"><ele>1711.0</ele><time>2026-04-17T11:21:24.755Z</time></trkpt><trkpt lat="40.7678949" lon="-3.9487555"><ele>1711.0</ele><time>2026-04-17T11:21:25.755Z</time></trkpt><trkpt lat="40.7679287" lon="-3.948898"><ele>1712.25</ele><time>2026-04-17T11:21:26.755Z</time></trkpt><trkpt lat="40.767962" lon="-3.9490419"><ele>1713.5</ele><time>2026-04-17T11:21:27.755Z</time></trkpt><trkpt lat="40.7679862" lon="-3.9491894"><ele>1714.75</ele><time>2026-04-17T11:21:28.755Z</time></trkpt><trkpt lat="40.7680232" lon="-3.9493388"><ele>1716.0</ele><time>2026-04-17T11:21:29.756Z</time></trkpt><trkpt lat="40.7680558" lon="-3.9494836"><ele>1717.0</ele><time>2026-04-17T11:21:30.755Z</time></trkpt><trkpt lat="40.7680944" lon="-3.949623"><ele>1718.0</ele><time>2026-04-17T11:21:31.756Z</time></trkpt><trkpt lat="40.7681243" lon="-3.9497511"><ele>1719.0</ele><time>2026-04-17T11:21:32.755Z</time></trkpt><trkpt lat="40.7681524" lon="-3.9498809"><ele>1720.0</ele><time>2026-04-17T11:21:33.756Z</time></trkpt><trkpt lat="40.7681655" lon="-3.950016"><ele>1721.0</ele><time>2026-04-17T11:21:34.756Z</time></trkpt><trkpt lat="40.7681794" lon="-3.9501625"><ele>1721.8333333333333</ele><time>2026-04-17T11:21:35.756Z</time></trkpt><trkpt lat="40.7681837" lon="-3.9502921"><ele>1722.6666666666665</ele><time>2026-04-17T11:21:36.756Z</time></trkpt><trkpt lat="40.768186" lon="-3.95042"><ele>1723.5</ele><time>2026-04-17T11:21:37.755Z</time></trkpt><trkpt lat="40.768191" lon="-3.9505391"><ele>1724.3333333333335</ele><time>2026-04-17T11:21:38.755Z</time></trkpt><trkpt lat="40.7682075" lon="-3.9506397"><ele>1725.1666666666667</ele><time>2026-04-17T11:21:39.755Z</time></trkpt><trkpt lat="40.7682428" lon="-3.9507121"><ele>1726.0</ele><time>2026-04-17T11:21:40.755Z</time></trkpt><trkpt lat="40.7682929" lon="-3.9507648"><ele>1726.0</ele><time>2026-04-17T11:21:41.756Z</time></trkpt><trkpt lat="40.7683559" lon="-3.9507804"><ele>1726.0</ele><time>2026-04-17T11:21:42.756Z</time></trkpt><trkpt lat="40.7684223" lon="-3.9507729"><ele>1726.0</ele><time>2026-04-17T11:21:43.755Z</time></trkpt><trkpt lat="40.7684788" lon="-3.9506864"><ele>1726.0</ele><time>2026-04-17T11:21:45.756Z</time></trkpt><trkpt lat="40.7685202" lon="-3.9505578"><ele>1726.0</ele><time>2026-04-17T11:21:47.755Z</time></trkpt><trkpt lat="40.7685287" lon="-3.9503838"><ele>1729.6</ele><time>2026-04-17T11:21:49.756Z</time></trkpt><trkpt lat="40.7685336" lon="-3.9502641"><ele>1733.1999999999998</ele><time>2026-04-17T11:21:50.756Z</time></trkpt><trkpt lat="40.768539" lon="-3.9501268"><ele>1736.8000000000002</ele><time>2026-04-17T11:21:51.756Z</time></trkpt><trkpt lat="40.7685512" lon="-3.9499882"><ele>1740.4</ele><time>2026-04-17T11:21:52.756Z</time></trkpt><trkpt lat="40.7685711" lon="-3.949837"><ele>1744.0</ele><time>2026-04-17T11:21:53.755Z</time></trkpt><trkpt lat="40.7685808" lon="-3.9496924"><ele>1744.0</ele><time>2026-04-17T11:21:54.755Z</time></trkpt><trkpt lat="40.7685852" lon="-3.9495394"><ele>1744.0</ele><time>2026-04-17T11:21:55.756Z</time></trkpt><trkpt lat="40.7685936" lon="-3.9493907"><ele>1744.0</ele><time>2026-04-17T11:21:56.755Z</time></trkpt><trkpt lat="40.7686093" lon="-3.9492407"><ele>1744.0</ele><time>2026-04-17T11:21:57.755Z</time></trkpt><trkpt lat="40.7686155" lon="-3.9490873"><ele>1743.6</ele><time>2026-04-17T11:21:58.756Z</time></trkpt><trkpt lat="40.7686468" lon="-3.9489379"><ele>1743.2</ele><time>2026-04-17T11:21:59.756Z</time></trkpt><trkpt lat="40.7686884" lon="-3.9488006"><ele>1742.7999999999997</ele><time>2026-04-17T11:22:00.755Z</time></trkpt><trkpt lat="40.7687372" lon="-3.9486713"><ele>1742.3999999999999</ele><time>2026-04-17T11:22:01.755Z</time></trkpt><trkpt lat="40.7687804" lon="-3.9485412"><ele>1742.0</ele><time>2026-04-17T11:22:02.755Z</time></trkpt><trkpt lat="40.7688185" lon="-3.948409"><ele>1741.3999999999999</ele><time>2026-04-17T11:22:03.756Z</time></trkpt><trkpt lat="40.7688682" lon="-3.9482822"><ele>1740.7999999999997</ele><time>2026-04-17T11:22:04.755Z</time></trkpt><trkpt lat="40.7689213" lon="-3.9481523"><ele>1740.2</ele><time>2026-04-17T11:22:05.756Z</time></trkpt><trkpt lat="40.768977" lon="-3.9480322"><ele>1739.6</ele><time>2026-04-17T11:22:06.755Z</time></trkpt><trkpt lat="40.7690351" lon="-3.9479053"><ele>1739.0</ele><time>2026-04-17T11:22:07.755Z</time></trkpt><trkpt lat="40.7690873" lon="-3.9477708"><ele>1739.0</ele><time>2026-04-17T11:22:08.755Z</time></trkpt><trkpt lat="40.7691309" lon="-3.9476233"><ele>1739.0</ele><time>2026-04-17T11:22:09.756Z</time></trkpt><trkpt lat="40.7691642" lon="-3.9474822"><ele>1739.0</ele><time>2026-04-17T11:22:10.755Z</time></trkpt><trkpt lat="40.7691998" lon="-3.9473548"><ele>1739.0</ele><time>2026-04-17T11:22:11.755Z</time></trkpt><trkpt lat="40.7692268" lon="-3.9472207"><ele>1739.0</ele><time>2026-04-17T11:22:12.755Z</time></trkpt><trkpt lat="40.7692482" lon="-3.9470855"><ele>1736.6</ele><time>2026-04-17T11:22:13.756Z</time></trkpt><trkpt lat="40.7692667" lon="-3.9469519"><ele>1734.2</ele><time>2026-04-17T11:22:14.755Z</time></trkpt><trkpt lat="40.7693035" lon="-3.9468224"><ele>1731.7999999999997</ele><time>2026-04-17T11:22:15.755Z</time></trkpt><trkpt lat="40.7693423" lon="-3.9466896"><ele>1729.3999999999999</ele><time>2026-04-17T11:22:16.755Z</time></trkpt><trkpt lat="40.7693766" lon="-3.9465612"><ele>1727.0</ele><time>2026-04-17T11:22:17.755Z</time></trkpt><trkpt lat="40.769406" lon="-3.9464362"><ele>1728.8</ele><time>2026-04-17T11:22:18.756Z</time></trkpt><trkpt lat="40.7694286" lon="-3.9463117"><ele>1730.6</ele><time>2026-04-17T11:22:19.755Z</time></trkpt><trkpt lat="40.769453" lon="-3.946198"><ele>1732.3999999999999</ele><time>2026-04-17T11:22:20.755Z</time></trkpt><trkpt lat="40.7694788" lon="-3.9460833"><ele>1734.1999999999998</ele><time>2026-04-17T11:22:21.756Z</time></trkpt><trkpt lat="40.7695147" lon="-3.9459749"><ele>1736.0</ele><time>2026-04-17T11:22:22.755Z</time></trkpt><trkpt lat="40.7695564" lon="-3.9458576"><ele>1736.0</ele><time>2026-04-17T11:22:23.756Z</time></trkpt><trkpt lat="40.769603" lon="-3.9457303"><ele>1736.0</ele><time>2026-04-17T11:22:24.756Z</time></trkpt><trkpt lat="40.7696595" lon="-3.9455892"><ele>1736.0</ele><time>2026-04-17T11:22:25.756Z</time></trkpt><trkpt lat="40.7697115" lon="-3.9454657"><ele>1736.0</ele><time>2026-04-17T11:22:26.756Z</time></trkpt><trkpt lat="40.7697684" lon="-3.9453501"><ele>1736.0</ele><time>2026-04-17T11:22:27.755Z</time></trkpt><trkpt lat="40.7698148" lon="-3.9452477"><ele>1736.0</ele><time>2026-04-17T11:22:28.756Z</time></trkpt><trkpt lat="40.7698659" lon="-3.9451465"><ele>1736.0</ele><time>2026-04-17T11:22:29.755Z</time></trkpt><trkpt lat="40.7699304" lon="-3.9450506"><ele>1736.0</ele><time>2026-04-17T11:22:30.756Z</time></trkpt><trkpt lat="40.7700192" lon="-3.9449845"><ele>1736.0</ele><time>2026-04-17T11:22:31.756Z</time></trkpt><trkpt lat="40.770106" lon="-3.9449166"><ele>1736.0</ele><time>2026-04-17T11:22:32.755Z</time></trkpt><trkpt lat="40.7702006" lon="-3.944841"><ele>1737.75</ele><time>2026-04-17T11:22:33.755Z</time></trkpt><trkpt lat="40.7702925" lon="-3.9447574"><ele>1739.5</ele><time>2026-04-17T11:22:34.755Z</time></trkpt><trkpt lat="40.7703913" lon="-3.9446692"><ele>1741.25</ele><time>2026-04-17T11:22:35.755Z</time></trkpt><trkpt lat="40.7704845" lon="-3.9445938"><ele>1743.0</ele><time>2026-04-17T11:22:36.755Z</time></trkpt><trkpt lat="40.7705796" lon="-3.9445168"><ele>1743.0</ele><time>2026-04-17T11:22:37.755Z</time></trkpt><trkpt lat="40.7706766" lon="-3.9444321"><ele>1743.0000000000002</ele><time>2026-04-17T11:22:38.756Z</time></trkpt><trkpt lat="40.7707638" lon="-3.9443408"><ele>1743.0000000000002</ele><time>2026-04-17T11:22:39.755Z</time></trkpt><trkpt lat="40.7708484" lon="-3.9442429"><ele>1743.0</ele><time>2026-04-17T11:22:40.756Z</time></trkpt><trkpt lat="40.7709265" lon="-3.9441467"><ele>1743.0</ele><time>2026-04-17T11:22:41.756Z</time></trkpt><trkpt lat="40.7709964" lon="-3.944062"><ele>1739.2</ele><time>2026-04-17T11:22:42.755Z</time></trkpt><trkpt lat="40.771071" lon="-3.9439931"><ele>1735.4</ele><time>2026-04-17T11:22:43.755Z</time></trkpt><trkpt lat="40.771157" lon="-3.9439363"><ele>1731.6000000000001</ele><time>2026-04-17T11:22:44.756Z</time></trkpt><trkpt lat="40.7712481" lon="-3.943907"><ele>1727.8000000000002</ele><time>2026-04-17T11:22:45.755Z</time></trkpt><trkpt lat="40.7713409" lon="-3.9438939"><ele>1724.0</ele><time>2026-04-17T11:22:46.755Z</time></trkpt><trkpt lat="40.7714407" lon="-3.9438899"><ele>1724.0</ele><time>2026-04-17T11:22:47.756Z</time></trkpt><trkpt lat="40.7715462" lon="-3.9438905"><ele>1724.0</ele><time>2026-04-17T11:22:48.755Z</time></trkpt><trkpt lat="40.7716432" lon="-3.9438961"><ele>1724.0</ele><time>2026-04-17T11:22:49.755Z</time></trkpt><trkpt lat="40.7717467" lon="-3.9439118"><ele>1724.0</ele><time>2026-04-17T11:22:50.756Z</time></trkpt><trkpt lat="40.771844" lon="-3.9439107"><ele>1724.0</ele><time>2026-04-17T11:22:51.755Z</time></trkpt><trkpt lat="40.7719431" lon="-3.9439155"><ele>1723.6</ele><time>2026-04-17T11:22:52.756Z</time></trkpt><trkpt lat="40.7720402" lon="-3.9439107"><ele>1723.2</ele><time>2026-04-17T11:22:53.756Z</time></trkpt><trkpt lat="40.7721386" lon="-3.943905"><ele>1722.7999999999997</ele><time>2026-04-17T11:22:54.756Z</time></trkpt><trkpt lat="40.7722344" lon="-3.9438921"><ele>1722.3999999999999</ele><time>2026-04-17T11:22:55.756Z</time></trkpt><trkpt lat="40.7723302" lon="-3.9438577"><ele>1722.0</ele><time>2026-04-17T11:22:56.755Z</time></trkpt><trkpt lat="40.772435" lon="-3.9438289"><ele>1722.0</ele><time>2026-04-17T11:22:57.755Z</time></trkpt><trkpt lat="40.7725412" lon="-3.9438283"><ele>1721.9999999999998</ele><time>2026-04-17T11:22:58.755Z</time></trkpt><trkpt lat="40.7726438" lon="-3.9438282"><ele>1721.9999999999998</ele><time>2026-04-17T11:22:59.756Z</time></trkpt><trkpt lat="40.7727488" lon="-3.9438329"><ele>1722.0</ele><time>2026-04-17T11:23:00.755Z</time></trkpt><trkpt lat="40.7728528" lon="-3.943843"><ele>1722.0</ele><time>2026-04-17T11:23:01.755Z</time></trkpt><trkpt lat="40.7729548" lon="-3.9438691"><ele>1719.3999999999999</ele><time>2026-04-17T11:23:02.755Z</time></trkpt><trkpt lat="40.7730428" lon="-3.9439059"><ele>1716.7999999999997</ele><time>2026-04-17T11:23:03.755Z</time></trkpt><trkpt lat="40.7731286" lon="-3.9439491"><ele>1714.2</ele><time>2026-04-17T11:23:04.756Z</time></trkpt><trkpt lat="40.7732167" lon="-3.943993"><ele>1711.6</ele><time>2026-04-17T11:23:05.755Z</time></trkpt><trkpt lat="40.7732974" lon="-3.9440388"><ele>1709.0</ele><time>2026-04-17T11:23:06.755Z</time></trkpt><trkpt lat="40.7733742" lon="-3.9440859"><ele>1708.9999999999998</ele><time>2026-04-17T11:23:07.756Z</time></trkpt><trkpt lat="40.7734472" lon="-3.9441387"><ele>1709.0</ele><time>2026-04-17T11:23:08.756Z</time></trkpt><trkpt lat="40.7735214" lon="-3.9441837"><ele>1709.0</ele><time>2026-04-17T11:23:09.756Z</time></trkpt><trkpt lat="40.7736106" lon="-3.9441877"><ele>1709.0</ele><time>2026-04-17T11:23:10.755Z</time></trkpt><trkpt lat="40.7736964" lon="-3.9441604"><ele>1708.9999999999998</ele><time>2026-04-17T11:23:11.756Z</time></trkpt><trkpt lat="40.7737875" lon="-3.944115"><ele>1709.0</ele><time>2026-04-17T11:23:12.755Z</time></trkpt><trkpt lat="40.7738845" lon="-3.9440717"><ele>1709.0</ele><time>2026-04-17T11:23:13.756Z</time></trkpt><trkpt lat="40.7739796" lon="-3.9440252"><ele>1709.0</ele><time>2026-04-17T11:23:14.755Z</time></trkpt><trkpt lat="40.7740753" lon="-3.9439734"><ele>1709.0</ele><time>2026-04-17T11:23:15.756Z</time></trkpt><trkpt lat="40.7741686" lon="-3.9439294"><ele>1709.0</ele><time>2026-04-17T11:23:16.755Z</time></trkpt><trkpt lat="40.7742553" lon="-3.9438809"><ele>1709.0</ele><time>2026-04-17T11:23:17.755Z</time></trkpt><trkpt lat="40.7743434" lon="-3.9438361"><ele>1708.1666666666665</ele><time>2026-04-17T11:23:18.756Z</time></trkpt><trkpt lat="40.7744249" lon="-3.9437879"><ele>1707.3333333333333</ele><time>2026-04-17T11:23:19.755Z</time></trkpt><trkpt lat="40.7744976" lon="-3.9437367"><ele>1706.5</ele><time>2026-04-17T11:23:20.755Z</time></trkpt><trkpt lat="40.7745493" lon="-3.9436633"><ele>1705.6666666666665</ele><time>2026-04-17T11:23:21.755Z</time></trkpt><trkpt lat="40.7745822" lon="-3.9435865"><ele>1704.8333333333333</ele><time>2026-04-17T11:23:22.755Z</time></trkpt><trkpt lat="40.7745876" lon="-3.943488"><ele>1704.0</ele><time>2026-04-17T11:23:23.755Z</time></trkpt><trkpt lat="40.7745744" lon="-3.9433741"><ele>1704.0</ele><time>2026-04-17T11:23:24.755Z</time></trkpt><trkpt lat="40.7745643" lon="-3.9432592"><ele>1704.0</ele><time>2026-04-17T11:23:25.756Z</time></trkpt><trkpt lat="40.7745632" lon="-3.9431437"><ele>1704.0</ele><time>2026-04-17T11:23:26.756Z</time></trkpt><trkpt lat="40.7745813" lon="-3.943048"><ele>1704.0</ele><time>2026-04-17T11:23:27.755Z</time></trkpt><trkpt lat="40.774615" lon="-3.94297"><ele>1704.0</ele><time>2026-04-17T11:23:28.755Z</time></trkpt><trkpt lat="40.7747055" lon="-3.9428715"><ele>1704.0</ele><time>2026-04-17T11:23:30.756Z</time></trkpt><trkpt lat="40.7747699" lon="-3.9428473"><ele>1704.0</ele><time>2026-04-17T11:23:31.756Z</time></trkpt><trkpt lat="40.7748541" lon="-3.9428131"><ele>1704.0</ele><time>2026-04-17T11:23:32.756Z</time></trkpt><trkpt lat="40.7749428" lon="-3.9427483"><ele>1704.0</ele><time>2026-04-17T11:23:33.755Z</time></trkpt><trkpt lat="40.7750267" lon="-3.9426508"><ele>1704.0</ele><time>2026-04-17T11:23:34.755Z</time></trkpt><trkpt lat="40.7750975" lon="-3.9425546"><ele>1704.0</ele><time>2026-04-17T11:23:35.755Z</time></trkpt><trkpt lat="40.7751691" lon="-3.9424686"><ele>1705.4</ele><time>2026-04-17T11:23:36.755Z</time></trkpt><trkpt lat="40.7752494" lon="-3.9423834"><ele>1706.8000000000002</ele><time>2026-04-17T11:23:37.755Z</time></trkpt><trkpt lat="40.775336" lon="-3.942298"><ele>1708.1999999999998</ele><time>2026-04-17T11:23:38.755Z</time></trkpt><trkpt lat="40.775429" lon="-3.9422182"><ele>1709.6</ele><time>2026-04-17T11:23:39.756Z</time></trkpt><trkpt lat="40.7755258" lon="-3.9421533"><ele>1711.0</ele><time>2026-04-17T11:23:40.756Z</time></trkpt><trkpt lat="40.7756309" lon="-3.9420872"><ele>1711.0</ele><time>2026-04-17T11:23:41.755Z</time></trkpt><trkpt lat="40.7757417" lon="-3.9420267"><ele>1711.0</ele><time>2026-04-17T11:23:42.755Z</time></trkpt><trkpt lat="40.77586" lon="-3.9419572"><ele>1711.0</ele><time>2026-04-17T11:23:43.756Z</time></trkpt><trkpt lat="40.7759719" lon="-3.9418881"><ele>1711.0</ele><time>2026-04-17T11:23:44.756Z</time></trkpt><trkpt lat="40.7760898" lon="-3.9418175"><ele>1710.25</ele><time>2026-04-17T11:23:45.755Z</time></trkpt><trkpt lat="40.7762077" lon="-3.9417377"><ele>1709.5</ele><time>2026-04-17T11:23:46.756Z</time></trkpt><trkpt lat="40.7763176" lon="-3.9416566"><ele>1708.75</ele><time>2026-04-17T11:23:47.755Z</time></trkpt><trkpt lat="40.7764208" lon="-3.9415755"><ele>1708.0</ele><time>2026-04-17T11:23:48.755Z</time></trkpt><trkpt lat="40.7765211" lon="-3.9415067"><ele>1708.0</ele><time>2026-04-17T11:23:49.755Z</time></trkpt><trkpt lat="40.7766199" lon="-3.9414402"><ele>1708.0000000000002</ele><time>2026-04-17T11:23:50.755Z</time></trkpt><trkpt lat="40.7767213" lon="-3.9413775"><ele>1708.0000000000002</ele><time>2026-04-17T11:23:51.755Z</time></trkpt><trkpt lat="40.7768205" lon="-3.9413378"><ele>1708.0</ele><time>2026-04-17T11:23:52.755Z</time></trkpt><trkpt lat="40.7769088" lon="-3.9412984"><ele>1708.0</ele><time>2026-04-17T11:23:53.756Z</time></trkpt><trkpt lat="40.7769803" lon="-3.9412653"><ele>1710.2</ele><time>2026-04-17T11:23:54.756Z</time></trkpt><trkpt lat="40.7770383" lon="-3.9412254"><ele>1712.4</ele><time>2026-04-17T11:23:55.755Z</time></trkpt><trkpt lat="40.7771101" lon="-3.9410933"><ele>1714.6000000000001</ele><time>2026-04-17T11:23:57.755Z</time></trkpt><trkpt lat="40.7770539" lon="-3.9409406"><ele>1716.8000000000002</ele><time>2026-04-17T11:23:59.755Z</time></trkpt><trkpt lat="40.7769987" lon="-3.9408681"><ele>1719.0</ele><time>2026-04-17T11:24:00.755Z</time></trkpt><trkpt lat="40.7769349" lon="-3.9407801"><ele>1719.0</ele><time>2026-04-17T11:24:01.756Z</time></trkpt><trkpt lat="40.7768686" lon="-3.9406773"><ele>1719.0</ele><time>2026-04-17T11:24:02.755Z</time></trkpt><trkpt lat="40.7768046" lon="-3.9405681"><ele>1719.0</ele><time>2026-04-17T11:24:03.755Z</time></trkpt><trkpt lat="40.7767412" lon="-3.9404396"><ele>1719.0</ele><time>2026-04-17T11:24:04.756Z</time></trkpt><trkpt lat="40.7766845" lon="-3.9403106"><ele>1719.0</ele><time>2026-04-17T11:24:05.756Z</time></trkpt><trkpt lat="40.7766232" lon="-3.9401866"><ele>1718.0</ele><time>2026-04-17T11:24:06.755Z</time></trkpt><trkpt lat="40.7765592" lon="-3.9400661"><ele>1717.0</ele><time>2026-04-17T11:24:07.755Z</time></trkpt><trkpt lat="40.7765009" lon="-3.9399469"><ele>1716.0</ele><time>2026-04-17T11:24:08.755Z</time></trkpt><trkpt lat="40.7764469" lon="-3.9398174"><ele>1715.0</ele><time>2026-04-17T11:24:09.755Z</time></trkpt><trkpt lat="40.7763999" lon="-3.9396827"><ele>1714.0</ele><time>2026-04-17T11:24:10.755Z</time></trkpt><trkpt lat="40.7763624" lon="-3.9395308"><ele>1714.0</ele><time>2026-04-17T11:24:11.756Z</time></trkpt><trkpt lat="40.776343" lon="-3.9393707"><ele>1714.0</ele><time>2026-04-17T11:24:12.755Z</time></trkpt><trkpt lat="40.7763268" lon="-3.9391912"><ele>1714.0</ele><time>2026-04-17T11:24:13.755Z</time></trkpt><trkpt lat="40.7763116" lon="-3.9390312"><ele>1714.0</ele><time>2026-04-17T11:24:14.756Z</time></trkpt><trkpt lat="40.7762857" lon="-3.9388793"><ele>1715.6</ele><time>2026-04-17T11:24:15.756Z</time></trkpt><trkpt lat="40.7762562" lon="-3.9387462"><ele>1717.2</ele><time>2026-04-17T11:24:16.756Z</time></trkpt><trkpt lat="40.7762383" lon="-3.9386239"><ele>1718.7999999999997</ele><time>2026-04-17T11:24:17.756Z</time></trkpt><trkpt lat="40.7762321" lon="-3.9385049"><ele>1720.3999999999999</ele><time>2026-04-17T11:24:18.755Z</time></trkpt><trkpt lat="40.7762392" lon="-3.9383956"><ele>1722.0</ele><time>2026-04-17T11:24:19.755Z</time></trkpt><trkpt lat="40.7762519" lon="-3.9382759"><ele>1722.25</ele><time>2026-04-17T11:24:20.755Z</time></trkpt><trkpt lat="40.7762682" lon="-3.9381423"><ele>1722.5</ele><time>2026-04-17T11:24:21.755Z</time></trkpt><trkpt lat="40.7762816" lon="-3.9379894"><ele>1722.75</ele><time>2026-04-17T11:24:22.755Z</time></trkpt><trkpt lat="40.7763061" lon="-3.9378187"><ele>1723.0</ele><time>2026-04-17T11:24:23.755Z</time></trkpt><trkpt lat="40.7763174" lon="-3.9376527"><ele>1721.5</ele><time>2026-04-17T11:24:24.755Z</time></trkpt><trkpt lat="40.7763313" lon="-3.9375013"><ele>1720.0</ele><time>2026-04-17T11:24:25.756Z</time></trkpt><trkpt lat="40.7763232" lon="-3.9373424"><ele>1718.5</ele><time>2026-04-17T11:24:26.755Z</time></trkpt><trkpt lat="40.7762926" lon="-3.9371966"><ele>1717.0</ele><time>2026-04-17T11:24:27.755Z</time></trkpt><trkpt lat="40.7762596" lon="-3.9370401"><ele>1717.0</ele><time>2026-04-17T11:24:28.755Z</time></trkpt><trkpt lat="40.7762344" lon="-3.9369062"><ele>1716.9999999999998</ele><time>2026-04-17T11:24:29.756Z</time></trkpt><trkpt lat="40.7762244" lon="-3.9367826"><ele>1716.9999999999998</ele><time>2026-04-17T11:24:30.756Z</time></trkpt><trkpt lat="40.7762186" lon="-3.9366645"><ele>1717.0</ele><time>2026-04-17T11:24:31.756Z</time></trkpt><trkpt lat="40.7762403" lon="-3.9365465"><ele>1717.0</ele><time>2026-04-17T11:24:32.756Z</time></trkpt><trkpt lat="40.7762818" lon="-3.9364224"><ele>1715.3999999999999</ele><time>2026-04-17T11:24:33.756Z</time></trkpt><trkpt lat="40.7763348" lon="-3.936308"><ele>1713.7999999999997</ele><time>2026-04-17T11:24:34.755Z</time></trkpt><trkpt lat="40.7763888" lon="-3.9362007"><ele>1712.2</ele><time>2026-04-17T11:24:35.755Z</time></trkpt><trkpt lat="40.7764431" lon="-3.9360976"><ele>1710.6</ele><time>2026-04-17T11:24:36.755Z</time></trkpt><trkpt lat="40.7764927" lon="-3.935997"><ele>1709.0</ele><time>2026-04-17T11:24:37.756Z</time></trkpt><trkpt lat="40.7765491" lon="-3.9358991"><ele>1706.6</ele><time>2026-04-17T11:24:38.756Z</time></trkpt><trkpt lat="40.7766131" lon="-3.9357864"><ele>1704.2</ele><time>2026-04-17T11:24:39.755Z</time></trkpt><trkpt lat="40.7766762" lon="-3.9356683"><ele>1701.8</ele><time>2026-04-17T11:24:40.755Z</time></trkpt><trkpt lat="40.7767328" lon="-3.9355485"><ele>1699.3999999999999</ele><time>2026-04-17T11:24:41.756Z</time></trkpt><trkpt lat="40.7767855" lon="-3.9354346"><ele>1697.0</ele><time>2026-04-17T11:24:42.755Z</time></trkpt><trkpt lat="40.7768449" lon="-3.935328"><ele>1697.3333333333333</ele><time>2026-04-17T11:24:43.756Z</time></trkpt><trkpt lat="40.7768956" lon="-3.935249"><ele>1697.6666666666665</ele><time>2026-04-17T11:24:44.756Z</time></trkpt><trkpt lat="40.7769546" lon="-3.9351825"><ele>1698.0</ele><time>2026-04-17T11:24:45.755Z</time></trkpt><trkpt lat="40.7770227" lon="-3.9351166"><ele>1698.3333333333335</ele><time>2026-04-17T11:24:46.755Z</time></trkpt><trkpt lat="40.777098" lon="-3.9350528"><ele>1698.6666666666667</ele><time>2026-04-17T11:24:47.755Z</time></trkpt><trkpt lat="40.7771887" lon="-3.9349914"><ele>1699.0</ele><time>2026-04-17T11:24:48.755Z</time></trkpt><trkpt lat="40.7772892" lon="-3.9349487"><ele>1699.0</ele><time>2026-04-17T11:24:49.756Z</time></trkpt><trkpt lat="40.7773844" lon="-3.9348784"><ele>1699.0</ele><time>2026-04-17T11:24:50.755Z</time></trkpt><trkpt lat="40.7774615" lon="-3.9347842"><ele>1699.0</ele><time>2026-04-17T11:24:51.755Z</time></trkpt><trkpt lat="40.7775188" lon="-3.9346943"><ele>1699.0</ele><time>2026-04-17T11:24:52.755Z</time></trkpt><trkpt lat="40.7775658" lon="-3.9346036"><ele>1699.0</ele><time>2026-04-17T11:24:53.755Z</time></trkpt><trkpt lat="40.7776136" lon="-3.934513"><ele>1699.0</ele><time>2026-04-17T11:24:54.756Z</time></trkpt><trkpt lat="40.7776457" lon="-3.9344049"><ele>1699.0</ele><time>2026-04-17T11:24:55.755Z</time></trkpt><trkpt lat="40.7776659" lon="-3.9342934"><ele>1699.0</ele><time>2026-04-17T11:24:56.755Z</time></trkpt><trkpt lat="40.777671" lon="-3.9341497"><ele>1699.0</ele><time>2026-04-17T11:24:57.756Z</time></trkpt><trkpt lat="40.777667" lon="-3.9339974"><ele>1699.0</ele><time>2026-04-17T11:24:58.756Z</time></trkpt><trkpt lat="40.777667" lon="-3.9338595"><ele>1700.0</ele><time>2026-04-17T11:24:59.755Z</time></trkpt><trkpt lat="40.7776679" lon="-3.933721"><ele>1701.0</ele><time>2026-04-17T11:25:00.756Z</time></trkpt><trkpt lat="40.7776702" lon="-3.933608"><ele>1702.0</ele><time>2026-04-17T11:25:01.755Z</time></trkpt><trkpt lat="40.7776744" lon="-3.9334987"><ele>1703.0</ele><time>2026-04-17T11:25:02.756Z</time></trkpt><trkpt lat="40.7776819" lon="-3.9334006"><ele>1704.0</ele><time>2026-04-17T11:25:03.756Z</time></trkpt><trkpt lat="40.7776954" lon="-3.9332524"><ele>1704.0</ele><time>2026-04-17T11:25:05.755Z</time></trkpt><trkpt lat="40.7776874" lon="-3.9331264"><ele>1704.0</ele><time>2026-04-17T11:25:07.755Z</time></trkpt><trkpt lat="40.7776127" lon="-3.9331276"><ele>1704.0</ele><time>2026-04-17T11:25:09.756Z</time></trkpt><trkpt lat="40.7775765" lon="-3.9332038"><ele>1704.0</ele><time>2026-04-17T11:25:10.756Z</time></trkpt><trkpt lat="40.7775214" lon="-3.9333282"><ele>1704.0</ele><time>2026-04-17T11:25:12.755Z</time></trkpt><trkpt lat="40.7774932" lon="-3.9334365"><ele>1704.0</ele><time>2026-04-17T11:25:13.755Z</time></trkpt><trkpt lat="40.7774563" lon="-3.9335636"><ele>1701.3333333333333</ele><time>2026-04-17T11:25:14.755Z</time></trkpt><trkpt lat="40.7774107" lon="-3.9336734"><ele>1698.6666666666665</ele><time>2026-04-17T11:25:15.756Z</time></trkpt><trkpt lat="40.7773693" lon="-3.9337824"><ele>1696.0</ele><time>2026-04-17T11:25:16.756Z</time></trkpt><trkpt lat="40.7773348" lon="-3.9338858"><ele>1693.3333333333333</ele><time>2026-04-17T11:25:17.756Z</time></trkpt><trkpt lat="40.7773082" lon="-3.9339981"><ele>1690.6666666666665</ele><time>2026-04-17T11:25:18.755Z</time></trkpt><trkpt lat="40.7772792" lon="-3.9341048"><ele>1688.0</ele><time>2026-04-17T11:25:19.755Z</time></trkpt><trkpt lat="40.7772402" lon="-3.9341873"><ele>1687.3333333333333</ele><time>2026-04-17T11:25:20.755Z</time></trkpt><trkpt lat="40.7771926" lon="-3.9342633"><ele>1686.6666666666665</ele><time>2026-04-17T11:25:21.755Z</time></trkpt><trkpt lat="40.7771312" lon="-3.934313"><ele>1686.0</ele><time>2026-04-17T11:25:22.755Z</time></trkpt><trkpt lat="40.7770552" lon="-3.9343441"><ele>1685.3333333333335</ele><time>2026-04-17T11:25:23.755Z</time></trkpt><trkpt lat="40.7769789" lon="-3.9343291"><ele>1684.6666666666667</ele><time>2026-04-17T11:25:24.755Z</time></trkpt><trkpt lat="40.7768979" lon="-3.9342883"><ele>1684.0</ele><time>2026-04-17T11:25:25.755Z</time></trkpt><trkpt lat="40.7768154" lon="-3.9342474"><ele>1684.0000000000002</ele><time>2026-04-17T11:25:26.755Z</time></trkpt><trkpt lat="40.7767298" lon="-3.934234"><ele>1684.0</ele><time>2026-04-17T11:25:27.755Z</time></trkpt><trkpt lat="40.776648" lon="-3.9342452"><ele>1684.0</ele><time>2026-04-17T11:25:28.756Z</time></trkpt><trkpt lat="40.7765643" lon="-3.9342816"><ele>1684.0</ele><time>2026-04-17T11:25:29.755Z</time></trkpt><trkpt lat="40.7764958" lon="-3.9343442"><ele>1684.0000000000002</ele><time>2026-04-17T11:25:30.755Z</time></trkpt><trkpt lat="40.7764387" lon="-3.9344211"><ele>1684.0</ele><time>2026-04-17T11:25:31.755Z</time></trkpt><trkpt lat="40.7763744" lon="-3.9344883"><ele>1684.0</ele><time>2026-04-17T11:25:32.756Z</time></trkpt><trkpt lat="40.7763099" lon="-3.9345751"><ele>1684.0</ele><time>2026-04-17T11:25:33.755Z</time></trkpt><trkpt lat="40.7762447" lon="-3.9346678"><ele>1684.0</ele><time>2026-04-17T11:25:34.756Z</time></trkpt><trkpt lat="40.7761757" lon="-3.9347486"><ele>1684.0</ele><time>2026-04-17T11:25:35.755Z</time></trkpt><trkpt lat="40.7761082" lon="-3.9348265"><ele>1684.0</ele><time>2026-04-17T11:25:36.755Z</time></trkpt><trkpt lat="40.7760333" lon="-3.9348982"><ele>1682.6</ele><time>2026-04-17T11:25:37.755Z</time></trkpt><trkpt lat="40.7759498" lon="-3.9349699"><ele>1681.2</ele><time>2026-04-17T11:25:38.756Z</time></trkpt><trkpt lat="40.7758773" lon="-3.9350434"><ele>1679.8</ele><time>2026-04-17T11:25:39.755Z</time></trkpt><trkpt lat="40.7758028" lon="-3.9351144"><ele>1678.3999999999999</ele><time>2026-04-17T11:25:40.755Z</time></trkpt><trkpt lat="40.7757305" lon="-3.9351859"><ele>1677.0</ele><time>2026-04-17T11:25:41.755Z</time></trkpt><trkpt lat="40.7756366" lon="-3.9352537"><ele>1677.0</ele><time>2026-04-17T11:25:42.755Z</time></trkpt><trkpt lat="40.7755397" lon="-3.9353024"><ele>1677.0</ele><time>2026-04-17T11:25:43.756Z</time></trkpt><trkpt lat="40.7754406" lon="-3.9353533"><ele>1677.0</ele><time>2026-04-17T11:25:44.755Z</time></trkpt><trkpt lat="40.7753413" lon="-3.935389"><ele>1677.0</ele><time>2026-04-17T11:25:45.755Z</time></trkpt><trkpt lat="40.775253" lon="-3.9354365"><ele>1677.0</ele><time>2026-04-17T11:25:46.756Z</time></trkpt><trkpt lat="40.775164" lon="-3.9355029"><ele>1675.3999999999999</ele><time>2026-04-17T11:25:47.756Z</time></trkpt><trkpt lat="40.7750903" lon="-3.9355858"><ele>1673.8</ele><time>2026-04-17T11:25:48.756Z</time></trkpt><trkpt lat="40.7750173" lon="-3.9356837"><ele>1672.2</ele><time>2026-04-17T11:25:49.755Z</time></trkpt><trkpt lat="40.7749425" lon="-3.9357663"><ele>1670.6</ele><time>2026-04-17T11:25:50.756Z</time></trkpt><trkpt lat="40.7748699" lon="-3.9358422"><ele>1669.0</ele><time>2026-04-17T11:25:51.756Z</time></trkpt><trkpt lat="40.7747995" lon="-3.9359266"><ele>1669.0</ele><time>2026-04-17T11:25:52.755Z</time></trkpt><trkpt lat="40.7747195" lon="-3.9360221"><ele>1669.0</ele><time>2026-04-17T11:25:53.756Z</time></trkpt><trkpt lat="40.774626" lon="-3.9360994"><ele>1669.0</ele><time>2026-04-17T11:25:54.755Z</time></trkpt><trkpt lat="40.7745208" lon="-3.9361661"><ele>1669.0</ele><time>2026-04-17T11:25:55.755Z</time></trkpt><trkpt lat="40.7744543" lon="-3.9362385"><ele>1669.0</ele><time>2026-04-17T11:25:56.756Z</time></trkpt><trkpt lat="40.774398" lon="-3.9362965"><ele>1663.8333333333335</ele><time>2026-04-17T11:25:57.755Z</time></trkpt><trkpt lat="40.7743197" lon="-3.9363995"><ele>1658.6666666666667</ele><time>2026-04-17T11:25:59.756Z</time></trkpt><trkpt lat="40.7742553" lon="-3.9364478"><ele>1653.5</ele><time>2026-04-17T11:26:01.756Z</time></trkpt><trkpt lat="40.7741895" lon="-3.9364225"><ele>1648.3333333333335</ele><time>2026-04-17T11:26:03.755Z</time></trkpt><trkpt lat="40.7741627" lon="-3.9363258"><ele>1643.1666666666667</ele><time>2026-04-17T11:26:05.756Z</time></trkpt><trkpt lat="40.7742014" lon="-3.9362154"><ele>1638.0</ele><time>2026-04-17T11:26:07.756Z</time></trkpt><trkpt lat="40.7742745" lon="-3.9360855"><ele>1638.0</ele><time>2026-04-17T11:26:09.756Z</time></trkpt><trkpt lat="40.7743128" lon="-3.9360007"><ele>1638.0</ele><time>2026-04-17T11:26:10.756Z</time></trkpt><trkpt lat="40.7743451" lon="-3.9359107"><ele>1638.0</ele><time>2026-04-17T11:26:11.755Z</time></trkpt><trkpt lat="40.7743816" lon="-3.935815"><ele>1638.0</ele><time>2026-04-17T11:26:12.756Z</time></trkpt><trkpt lat="40.7744201" lon="-3.9357321"><ele>1638.0</ele><time>2026-04-17T11:26:13.755Z</time></trkpt><trkpt lat="40.7744534" lon="-3.9356583"><ele>1638.0</ele><time>2026-04-17T11:26:14.756Z</time></trkpt><trkpt lat="40.774491" lon="-3.9355758"><ele>1638.0</ele><time>2026-04-17T11:26:15.756Z</time></trkpt><trkpt lat="40.7745358" lon="-3.9354853"><ele>1638.6000000000001</ele><time>2026-04-17T11:26:16.756Z</time></trkpt><trkpt lat="40.774576" lon="-3.9353827"><ele>1639.2</ele><time>2026-04-17T11:26:17.756Z</time></trkpt><trkpt lat="40.7746203" lon="-3.9352678"><ele>1639.8</ele><time>2026-04-17T11:26:18.756Z</time></trkpt><trkpt lat="40.7746652" lon="-3.9351634"><ele>1640.4</ele><time>2026-04-17T11:26:19.756Z</time></trkpt><trkpt lat="40.7747063" lon="-3.9350591"><ele>1641.0</ele><time>2026-04-17T11:26:20.756Z</time></trkpt><trkpt lat="40.7747401" lon="-3.9349545"><ele>1641.0</ele><time>2026-04-17T11:26:21.756Z</time></trkpt><trkpt lat="40.7747749" lon="-3.9348451"><ele>1641.0</ele><time>2026-04-17T11:26:22.755Z</time></trkpt><trkpt lat="40.7748163" lon="-3.9347402"><ele>1641.0</ele><time>2026-04-17T11:26:23.756Z</time></trkpt><trkpt lat="40.7748609" lon="-3.9346294"><ele>1641.0</ele><time>2026-04-17T11:26:24.755Z</time></trkpt><trkpt lat="40.7748935" lon="-3.9345151"><ele>1641.0</ele><time>2026-04-17T11:26:25.755Z</time></trkpt><trkpt lat="40.7748913" lon="-3.9343927"><ele>1641.0</ele><time>2026-04-17T11:26:26.756Z</time></trkpt><trkpt lat="40.774872" lon="-3.9342605"><ele>1641.0</ele><time>2026-04-17T11:26:27.756Z</time></trkpt><trkpt lat="40.7748781" lon="-3.934117"><ele>1641.0</ele><time>2026-04-17T11:26:28.755Z</time></trkpt><trkpt lat="40.7749036" lon="-3.9339534"><ele>1641.0</ele><time>2026-04-17T11:26:29.755Z</time></trkpt><trkpt lat="40.7749261" lon="-3.9338122"><ele>1641.0</ele><time>2026-04-17T11:26:30.755Z</time></trkpt><trkpt lat="40.7749516" lon="-3.9336686"><ele>1638.4</ele><time>2026-04-17T11:26:31.755Z</time></trkpt><trkpt lat="40.7749761" lon="-3.9335373"><ele>1635.8</ele><time>2026-04-17T11:26:32.755Z</time></trkpt><trkpt lat="40.7749919" lon="-3.9333883"><ele>1633.2</ele><time>2026-04-17T11:26:33.756Z</time></trkpt><trkpt lat="40.7750197" lon="-3.9332414"><ele>1630.6000000000001</ele><time>2026-04-17T11:26:34.755Z</time></trkpt><trkpt lat="40.775043" lon="-3.9330983"><ele>1628.0</ele><time>2026-04-17T11:26:35.756Z</time></trkpt><trkpt lat="40.7750652" lon="-3.9329561"><ele>1626.4</ele><time>2026-04-17T11:26:36.756Z</time></trkpt><trkpt lat="40.7750818" lon="-3.9328101"><ele>1624.8000000000002</ele><time>2026-04-17T11:26:37.755Z</time></trkpt><trkpt lat="40.7750962" lon="-3.9326821"><ele>1623.2</ele><time>2026-04-17T11:26:38.755Z</time></trkpt><trkpt lat="40.7751113" lon="-3.9325229"><ele>1621.6</ele><time>2026-04-17T11:26:39.756Z</time></trkpt><trkpt lat="40.7751358" lon="-3.9323705"><ele>1620.0</ele><time>2026-04-17T11:26:40.756Z</time></trkpt><trkpt lat="40.7751705" lon="-3.9322268"><ele>1620.1666666666667</ele><time>2026-04-17T11:26:41.755Z</time></trkpt><trkpt lat="40.7752149" lon="-3.9321167"><ele>1620.3333333333335</ele><time>2026-04-17T11:26:42.755Z</time></trkpt><trkpt lat="40.775257" lon="-3.9320266"><ele>1620.5</ele><time>2026-04-17T11:26:43.756Z</time></trkpt><trkpt lat="40.7752936" lon="-3.9319457"><ele>1620.6666666666667</ele><time>2026-04-17T11:26:44.755Z</time></trkpt><trkpt lat="40.7753312" lon="-3.9318696"><ele>1620.8333333333335</ele><time>2026-04-17T11:26:45.755Z</time></trkpt><trkpt lat="40.7753892" lon="-3.9317466"><ele>1621.0</ele><time>2026-04-17T11:26:47.755Z</time></trkpt><trkpt lat="40.7754465" lon="-3.9316101"><ele>1621.0</ele><time>2026-04-17T11:26:49.755Z</time></trkpt><trkpt lat="40.7754756" lon="-3.9314727"><ele>1621.0</ele><time>2026-04-17T11:26:51.755Z</time></trkpt><trkpt lat="40.7754289" lon="-3.9313719"><ele>1621.0</ele><time>2026-04-17T11:26:53.755Z</time></trkpt><trkpt lat="40.7753378" lon="-3.9314236"><ele>1621.0</ele><time>2026-04-17T11:26:55.755Z</time></trkpt><trkpt lat="40.7752726" lon="-3.9315213"><ele>1621.0</ele><time>2026-04-17T11:26:57.755Z</time></trkpt><trkpt lat="40.7752446" lon="-3.9316084"><ele>1621.0000000000002</ele><time>2026-04-17T11:26:58.755Z</time></trkpt><trkpt lat="40.7752" lon="-3.9316938"><ele>1621.0</ele><time>2026-04-17T11:26:59.755Z</time></trkpt><trkpt lat="40.7751417" lon="-3.931794"><ele>1621.0</ele><time>2026-04-17T11:27:00.755Z</time></trkpt><trkpt lat="40.7750822" lon="-3.9318805"><ele>1621.0</ele><time>2026-04-17T11:27:01.755Z</time></trkpt><trkpt lat="40.7750179" lon="-3.9319556"><ele>1621.0000000000002</ele><time>2026-04-17T11:27:02.755Z</time></trkpt><trkpt lat="40.7749623" lon="-3.9320218"><ele>1621.0</ele><time>2026-04-17T11:27:03.755Z</time></trkpt><trkpt lat="40.7749055" lon="-3.9320894"><ele>1619.8333333333335</ele><time>2026-04-17T11:27:04.755Z</time></trkpt><trkpt lat="40.7748464" lon="-3.9321424"><ele>1618.6666666666667</ele><time>2026-04-17T11:27:05.756Z</time></trkpt><trkpt lat="40.7747856" lon="-3.9321949"><ele>1617.5</ele><time>2026-04-17T11:27:06.756Z</time></trkpt><trkpt lat="40.7747294" lon="-3.9322581"><ele>1616.3333333333335</ele><time>2026-04-17T11:27:07.755Z</time></trkpt><trkpt lat="40.7746757" lon="-3.9323244"><ele>1615.1666666666667</ele><time>2026-04-17T11:27:08.755Z</time></trkpt><trkpt lat="40.7746191" lon="-3.9324129"><ele>1614.0</ele><time>2026-04-17T11:27:09.755Z</time></trkpt><trkpt lat="40.7745566" lon="-3.9325002"><ele>1615.0</ele><time>2026-04-17T11:27:10.756Z</time></trkpt><trkpt lat="40.7744928" lon="-3.9325781"><ele>1616.0</ele><time>2026-04-17T11:27:11.755Z</time></trkpt><trkpt lat="40.7744382" lon="-3.9326633"><ele>1617.0</ele><time>2026-04-17T11:27:12.755Z</time></trkpt><trkpt lat="40.7743834" lon="-3.9327572"><ele>1618.0</ele><time>2026-04-17T11:27:13.755Z</time></trkpt><trkpt lat="40.7743297" lon="-3.9328367"><ele>1619.0</ele><time>2026-04-17T11:27:14.756Z</time></trkpt><trkpt lat="40.7742944" lon="-3.9329233"><ele>1620.0</ele><time>2026-04-17T11:27:15.756Z</time></trkpt><trkpt lat="40.7742729" lon="-3.9330128"><ele>1615.8333333333333</ele><time>2026-04-17T11:27:16.755Z</time></trkpt><trkpt lat="40.7742403" lon="-3.9331003"><ele>1611.6666666666665</ele><time>2026-04-17T11:27:17.755Z</time></trkpt><trkpt lat="40.7742041" lon="-3.9332222"><ele>1607.5</ele><time>2026-04-17T11:27:19.755Z</time></trkpt><trkpt lat="40.7741446" lon="-3.9332974"><ele>1603.3333333333333</ele><time>2026-04-17T11:27:21.756Z</time></trkpt><trkpt lat="40.7740981" lon="-3.9331915"><ele>1599.1666666666665</ele><time>2026-04-17T11:27:24.755Z</time></trkpt><trkpt lat="40.7741026" lon="-3.9330794"><ele>1595.0</ele><time>2026-04-17T11:27:25.755Z</time></trkpt><trkpt lat="40.7741124" lon="-3.9329885"><ele>1595.0</ele><time>2026-04-17T11:27:26.755Z</time></trkpt><trkpt lat="40.7741456" lon="-3.9328822"><ele>1595.0</ele><time>2026-04-17T11:27:27.755Z</time></trkpt><trkpt lat="40.7741745" lon="-3.9327674"><ele>1595.0</ele><time>2026-04-17T11:27:28.756Z</time></trkpt><trkpt lat="40.7742114" lon="-3.9326288"><ele>1595.0</ele><time>2026-04-17T11:27:29.755Z</time></trkpt><trkpt lat="40.774247" lon="-3.9325168"><ele>1595.0</ele><time>2026-04-17T11:27:30.756Z</time></trkpt><trkpt lat="40.7742725" lon="-3.9323884"><ele>1593.0</ele><time>2026-04-17T11:27:31.756Z</time></trkpt><trkpt lat="40.7743021" lon="-3.9322674"><ele>1591.0</ele><time>2026-04-17T11:27:32.756Z</time></trkpt><trkpt lat="40.774341" lon="-3.9321464"><ele>1589.0</ele><time>2026-04-17T11:27:33.755Z</time></trkpt><trkpt lat="40.7743823" lon="-3.9320203"><ele>1587.0</ele><time>2026-04-17T11:27:34.756Z</time></trkpt><trkpt lat="40.7744159" lon="-3.9319047"><ele>1585.0</ele><time>2026-04-17T11:27:35.755Z</time></trkpt><trkpt lat="40.774462" lon="-3.9317991"><ele>1586.8</ele><time>2026-04-17T11:27:36.756Z</time></trkpt><trkpt lat="40.7745069" lon="-3.9316937"><ele>1588.6</ele><time>2026-04-17T11:27:37.755Z</time></trkpt><trkpt lat="40.7745635" lon="-3.9315857"><ele>1590.4</ele><time>2026-04-17T11:27:38.756Z</time></trkpt><trkpt lat="40.7746316" lon="-3.9314742"><ele>1592.2</ele><time>2026-04-17T11:27:39.755Z</time></trkpt><trkpt lat="40.774701" lon="-3.9313641"><ele>1594.0</ele><time>2026-04-17T11:27:40.756Z</time></trkpt><trkpt lat="40.7747727" lon="-3.9312437"><ele>1594.0</ele><time>2026-04-17T11:27:41.755Z</time></trkpt><trkpt lat="40.7748467" lon="-3.9311206"><ele>1594.0</ele><time>2026-04-17T11:27:42.755Z</time></trkpt><trkpt lat="40.7749283" lon="-3.9310016"><ele>1594.0</ele><time>2026-04-17T11:27:43.755Z</time></trkpt><trkpt lat="40.7750126" lon="-3.9308855"><ele>1594.0</ele><time>2026-04-17T11:27:44.756Z</time></trkpt><trkpt lat="40.7750981" lon="-3.930768"><ele>1596.25</ele><time>2026-04-17T11:27:45.756Z</time></trkpt><trkpt lat="40.7751826" lon="-3.9306508"><ele>1598.5</ele><time>2026-04-17T11:27:46.756Z</time></trkpt><trkpt lat="40.7752695" lon="-3.9305364"><ele>1600.75</ele><time>2026-04-17T11:27:47.755Z</time></trkpt><trkpt lat="40.7753502" lon="-3.9304178"><ele>1603.0</ele><time>2026-04-17T11:27:48.756Z</time></trkpt><trkpt lat="40.7754299" lon="-3.930308"><ele>1603.0</ele><time>2026-04-17T11:27:49.755Z</time></trkpt><trkpt lat="40.7755053" lon="-3.9301999"><ele>1603.0</ele><time>2026-04-17T11:27:50.756Z</time></trkpt><trkpt lat="40.7755728" lon="-3.9300914"><ele>1603.0</ele><time>2026-04-17T11:27:51.756Z</time></trkpt><trkpt lat="40.7756387" lon="-3.9299809"><ele>1603.0</ele><time>2026-04-17T11:27:52.755Z</time></trkpt><trkpt lat="40.7757044" lon="-3.9298697"><ele>1603.0</ele><time>2026-04-17T11:27:53.755Z</time></trkpt><trkpt lat="40.775762" lon="-3.9297525"><ele>1598.2</ele><time>2026-04-17T11:27:54.755Z</time></trkpt><trkpt lat="40.7758122" lon="-3.9296309"><ele>1593.4</ele><time>2026-04-17T11:27:55.755Z</time></trkpt><trkpt lat="40.7758582" lon="-3.9294987"><ele>1588.6000000000001</ele><time>2026-04-17T11:27:56.755Z</time></trkpt><trkpt lat="40.7759067" lon="-3.9293742"><ele>1583.8000000000002</ele><time>2026-04-17T11:27:57.756Z</time></trkpt><trkpt lat="40.7759629" lon="-3.9292582"><ele>1579.0</ele><time>2026-04-17T11:27:58.755Z</time></trkpt><trkpt lat="40.7760173" lon="-3.9291453"><ele>1581.4</ele><time>2026-04-17T11:27:59.756Z</time></trkpt><trkpt lat="40.7760782" lon="-3.929029"><ele>1583.8000000000002</ele><time>2026-04-17T11:28:00.755Z</time></trkpt><trkpt lat="40.7761427" lon="-3.9289202"><ele>1586.1999999999998</ele><time>2026-04-17T11:28:01.755Z</time></trkpt><trkpt lat="40.7762118" lon="-3.9288108"><ele>1588.6</ele><time>2026-04-17T11:28:02.755Z</time></trkpt><trkpt lat="40.7762814" lon="-3.9286977"><ele>1591.0</ele><time>2026-04-17T11:28:03.755Z</time></trkpt><trkpt lat="40.7763382" lon="-3.9285978"><ele>1591.0</ele><time>2026-04-17T11:28:04.756Z</time></trkpt><trkpt lat="40.7763865" lon="-3.9284881"><ele>1591.0</ele><time>2026-04-17T11:28:05.756Z</time></trkpt><trkpt lat="40.7764219" lon="-3.9283689"><ele>1591.0</ele><time>2026-04-17T11:28:06.755Z</time></trkpt><trkpt lat="40.776451" lon="-3.9282342"><ele>1591.0</ele><time>2026-04-17T11:28:07.755Z</time></trkpt><trkpt lat="40.7764752" lon="-3.9280968"><ele>1591.0</ele><time>2026-04-17T11:28:08.755Z</time></trkpt><trkpt lat="40.7764939" lon="-3.9279659"><ele>1587.8</ele><time>2026-04-17T11:28:09.756Z</time></trkpt><trkpt lat="40.7765142" lon="-3.9278335"><ele>1584.6</ele><time>2026-04-17T11:28:10.756Z</time></trkpt><trkpt lat="40.7765354" lon="-3.9276973"><ele>1581.4</ele><time>2026-04-17T11:28:11.755Z</time></trkpt><trkpt lat="40.776571" lon="-3.927552"><ele>1578.2</ele><time>2026-04-17T11:28:12.755Z</time></trkpt><trkpt lat="40.7766122" lon="-3.9273956"><ele>1575.0</ele><time>2026-04-17T11:28:13.756Z</time></trkpt><trkpt lat="40.7766539" lon="-3.9272609"><ele>1571.6</ele><time>2026-04-17T11:28:14.755Z</time></trkpt><trkpt lat="40.7766946" lon="-3.9271363"><ele>1568.2</ele><time>2026-04-17T11:28:15.755Z</time></trkpt><trkpt lat="40.7767343" lon="-3.9270133"><ele>1564.8000000000002</ele><time>2026-04-17T11:28:16.756Z</time></trkpt><trkpt lat="40.7767653" lon="-3.9268882"><ele>1561.4</ele><time>2026-04-17T11:28:17.755Z</time></trkpt><trkpt lat="40.7767979" lon="-3.926769"><ele>1558.0</ele><time>2026-04-17T11:28:18.755Z</time></trkpt><trkpt lat="40.7768322" lon="-3.9266587"><ele>1562.0</ele><time>2026-04-17T11:28:19.755Z</time></trkpt><trkpt lat="40.7768652" lon="-3.9265478"><ele>1566.0</ele><time>2026-04-17T11:28:20.755Z</time></trkpt><trkpt lat="40.7768974" lon="-3.9264381"><ele>1570.0</ele><time>2026-04-17T11:28:21.755Z</time></trkpt><trkpt lat="40.7769137" lon="-3.9263128"><ele>1574.0</ele><time>2026-04-17T11:28:22.756Z</time></trkpt><trkpt lat="40.7769139" lon="-3.9261794"><ele>1578.0</ele><time>2026-04-17T11:28:23.756Z</time></trkpt><trkpt lat="40.7769184" lon="-3.926045"><ele>1578.0</ele><time>2026-04-17T11:28:24.755Z</time></trkpt><trkpt lat="40.776933" lon="-3.9259089"><ele>1578.0</ele><time>2026-04-17T11:28:25.755Z</time></trkpt><trkpt lat="40.7769581" lon="-3.9257817"><ele>1578.0</ele><time>2026-04-17T11:28:26.755Z</time></trkpt><trkpt lat="40.7769894" lon="-3.9256618"><ele>1578.0</ele><time>2026-04-17T11:28:27.756Z</time></trkpt><trkpt lat="40.7770253" lon="-3.9255536"><ele>1578.0</ele><time>2026-04-17T11:28:28.755Z</time></trkpt><trkpt lat="40.777073" lon="-3.9254514"><ele>1574.0</ele><time>2026-04-17T11:28:29.755Z</time></trkpt><trkpt lat="40.7771303" lon="-3.9253598"><ele>1570.0</ele><time>2026-04-17T11:28:30.756Z</time></trkpt><trkpt lat="40.7772004" lon="-3.9252839"><ele>1566.0</ele><time>2026-04-17T11:28:31.756Z</time></trkpt><trkpt lat="40.7772813" lon="-3.9252014"><ele>1562.0</ele><time>2026-04-17T11:28:32.756Z</time></trkpt><trkpt lat="40.77736" lon="-3.9251117"><ele>1558.0</ele><time>2026-04-17T11:28:33.755Z</time></trkpt><trkpt lat="40.7774388" lon="-3.9250404"><ele>1556.8000000000002</ele><time>2026-04-17T11:28:34.755Z</time></trkpt><trkpt lat="40.7775105" lon="-3.9249719"><ele>1555.6</ele><time>2026-04-17T11:28:35.755Z</time></trkpt><trkpt lat="40.7775981" lon="-3.9249135"><ele>1554.4</ele><time>2026-04-17T11:28:36.756Z</time></trkpt><trkpt lat="40.7777032" lon="-3.9248597"><ele>1553.1999999999998</ele><time>2026-04-17T11:28:37.755Z</time></trkpt><trkpt lat="40.7778099" lon="-3.9247959"><ele>1552.0</ele><time>2026-04-17T11:28:38.756Z</time></trkpt><trkpt lat="40.777917" lon="-3.9247401"><ele>1552.0</ele><time>2026-04-17T11:28:39.755Z</time></trkpt><trkpt lat="40.7780168" lon="-3.9247066"><ele>1552.0</ele><time>2026-04-17T11:28:40.755Z</time></trkpt><trkpt lat="40.778121" lon="-3.9246761"><ele>1552.0</ele><time>2026-04-17T11:28:41.756Z</time></trkpt><trkpt lat="40.7782308" lon="-3.9246751"><ele>1552.0</ele><time>2026-04-17T11:28:42.756Z</time></trkpt><trkpt lat="40.7783514" lon="-3.9246931"><ele>1552.0</ele><time>2026-04-17T11:28:43.755Z</time></trkpt><trkpt lat="40.7784797" lon="-3.9247146"><ele>1552.3999999999999</ele><time>2026-04-17T11:28:44.756Z</time></trkpt><trkpt lat="40.7786099" lon="-3.9247459"><ele>1552.8</ele><time>2026-04-17T11:28:45.756Z</time></trkpt><trkpt lat="40.7787219" lon="-3.9247672"><ele>1553.2</ele><time>2026-04-17T11:28:46.756Z</time></trkpt><trkpt lat="40.7788169" lon="-3.9248004"><ele>1553.6</ele><time>2026-04-17T11:28:47.756Z</time></trkpt><trkpt lat="40.7789154" lon="-3.9248075"><ele>1554.0</ele><time>2026-04-17T11:28:48.756Z</time></trkpt><trkpt lat="40.7790062" lon="-3.9248036"><ele>1554.0</ele><time>2026-04-17T11:28:49.755Z</time></trkpt><trkpt lat="40.7790824" lon="-3.9248167"><ele>1554.0</ele><time>2026-04-17T11:28:50.755Z</time></trkpt><trkpt lat="40.7791628" lon="-3.9248113"><ele>1554.0</ele><time>2026-04-17T11:28:51.755Z</time></trkpt><trkpt lat="40.7792485" lon="-3.9247781"><ele>1554.0</ele><time>2026-04-17T11:28:52.755Z</time></trkpt><trkpt lat="40.77934" lon="-3.9247304"><ele>1554.0</ele><time>2026-04-17T11:28:53.755Z</time></trkpt><trkpt lat="40.7794204" lon="-3.9246855"><ele>1554.0</ele><time>2026-04-17T11:28:54.755Z</time></trkpt><trkpt lat="40.7794524" lon="-3.9246024"><ele>1556.2</ele><time>2026-04-17T11:28:55.755Z</time></trkpt><trkpt lat="40.7794634" lon="-3.924477"><ele>1558.4</ele><time>2026-04-17T11:28:56.756Z</time></trkpt><trkpt lat="40.7794714" lon="-3.9243358"><ele>1560.6</ele><time>2026-04-17T11:28:57.756Z</time></trkpt><trkpt lat="40.7794906" lon="-3.9242028"><ele>1562.8</ele><time>2026-04-17T11:28:58.756Z</time></trkpt><trkpt lat="40.7795133" lon="-3.9240629"><ele>1565.0</ele><time>2026-04-17T11:28:59.756Z</time></trkpt><trkpt lat="40.7795381" lon="-3.9239233"><ele>1565.0</ele><time>2026-04-17T11:29:00.756Z</time></trkpt><trkpt lat="40.7795599" lon="-3.9237757"><ele>1565.0</ele><time>2026-04-17T11:29:01.755Z</time></trkpt><trkpt lat="40.779598" lon="-3.9236421"><ele>1565.0</ele><time>2026-04-17T11:29:02.755Z</time></trkpt><trkpt lat="40.7796599" lon="-3.9235229"><ele>1565.0</ele><time>2026-04-17T11:29:03.756Z</time></trkpt><trkpt lat="40.779724" lon="-3.9233908"><ele>1562.25</ele><time>2026-04-17T11:29:04.756Z</time></trkpt><trkpt lat="40.7797902" lon="-3.9232617"><ele>1559.5</ele><time>2026-04-17T11:29:05.756Z</time></trkpt><trkpt lat="40.7798601" lon="-3.9231395"><ele>1556.75</ele><time>2026-04-17T11:29:06.755Z</time></trkpt><trkpt lat="40.7799446" lon="-3.9230211"><ele>1554.0</ele><time>2026-04-17T11:29:07.755Z</time></trkpt><trkpt lat="40.7800351" lon="-3.9229006"><ele>1554.0</ele><time>2026-04-17T11:29:08.756Z</time></trkpt><trkpt lat="40.7801208" lon="-3.9227997"><ele>1554.0</ele><time>2026-04-17T11:29:09.755Z</time></trkpt><trkpt lat="40.780203" lon="-3.9226929"><ele>1554.0</ele><time>2026-04-17T11:29:10.755Z</time></trkpt><trkpt lat="40.7802801" lon="-3.922593"><ele>1554.0</ele><time>2026-04-17T11:29:11.756Z</time></trkpt><trkpt lat="40.7803373" lon="-3.9224695"><ele>1554.0</ele><time>2026-04-17T11:29:12.756Z</time></trkpt><trkpt lat="40.7803685" lon="-3.92233"><ele>1555.6</ele><time>2026-04-17T11:29:13.756Z</time></trkpt><trkpt lat="40.7803737" lon="-3.9221962"><ele>1557.2</ele><time>2026-04-17T11:29:14.756Z</time></trkpt><trkpt lat="40.7803963" lon="-3.9220709"><ele>1558.8</ele><time>2026-04-17T11:29:15.756Z</time></trkpt><trkpt lat="40.7804281" lon="-3.9219373"><ele>1560.3999999999999</ele><time>2026-04-17T11:29:16.755Z</time></trkpt><trkpt lat="40.780459" lon="-3.9218129"><ele>1562.0</ele><time>2026-04-17T11:29:17.756Z</time></trkpt><trkpt lat="40.7804896" lon="-3.9216963"><ele>1562.0</ele><time>2026-04-17T11:29:18.755Z</time></trkpt><trkpt lat="40.7805224" lon="-3.9215813"><ele>1562.0</ele><time>2026-04-17T11:29:19.756Z</time></trkpt><trkpt lat="40.7805572" lon="-3.9214766"><ele>1562.0</ele><time>2026-04-17T11:29:20.755Z</time></trkpt><trkpt lat="40.7805978" lon="-3.9213543"><ele>1562.0</ele><time>2026-04-17T11:29:21.755Z</time></trkpt><trkpt lat="40.780643" lon="-3.9212338"><ele>1562.0</ele><time>2026-04-17T11:29:22.755Z</time></trkpt><trkpt lat="40.7806944" lon="-3.9210962"><ele>1562.0</ele><time>2026-04-17T11:29:23.756Z</time></trkpt><trkpt lat="40.7807562" lon="-3.9209503"><ele>1562.0</ele><time>2026-04-17T11:29:24.756Z</time></trkpt><trkpt lat="40.780819" lon="-3.9208204"><ele>1562.0</ele><time>2026-04-17T11:29:25.755Z</time></trkpt><trkpt lat="40.7808862" lon="-3.9206819"><ele>1562.0</ele><time>2026-04-17T11:29:26.755Z</time></trkpt><trkpt lat="40.7809714" lon="-3.9205626"><ele>1566.25</ele><time>2026-04-17T11:29:27.756Z</time></trkpt><trkpt lat="40.7810576" lon="-3.9204422"><ele>1570.5</ele><time>2026-04-17T11:29:28.755Z</time></trkpt><trkpt lat="40.7811309" lon="-3.9203188"><ele>1574.75</ele><time>2026-04-17T11:29:29.755Z</time></trkpt><trkpt lat="40.7811974" lon="-3.9201971"><ele>1579.0</ele><time>2026-04-17T11:29:30.755Z</time></trkpt><trkpt lat="40.7812619" lon="-3.9200926"><ele>1576.5000000000002</ele><time>2026-04-17T11:29:31.756Z</time></trkpt><trkpt lat="40.7813207" lon="-3.9200087"><ele>1574.0</ele><time>2026-04-17T11:29:32.756Z</time></trkpt><trkpt lat="40.7813812" lon="-3.9199283"><ele>1571.5</ele><time>2026-04-17T11:29:33.755Z</time></trkpt><trkpt lat="40.7814329" lon="-3.919865"><ele>1569.0</ele><time>2026-04-17T11:29:34.755Z</time></trkpt><trkpt lat="40.7814928" lon="-3.9198151"><ele>1566.5000000000002</ele><time>2026-04-17T11:29:35.755Z</time></trkpt><trkpt lat="40.7815615" lon="-3.9197554"><ele>1564.0</ele><time>2026-04-17T11:29:36.756Z</time></trkpt><trkpt lat="40.7816163" lon="-3.919689"><ele>1564.0</ele><time>2026-04-17T11:29:37.756Z</time></trkpt><trkpt lat="40.7816534" lon="-3.9196024"><ele>1564.0</ele><time>2026-04-17T11:29:38.755Z</time></trkpt><trkpt lat="40.781687" lon="-3.9194943"><ele>1564.0</ele><time>2026-04-17T11:29:39.755Z</time></trkpt><trkpt lat="40.7816961" lon="-3.9193674"><ele>1564.0</ele><time>2026-04-17T11:29:40.755Z</time></trkpt><trkpt lat="40.7817013" lon="-3.9192337"><ele>1564.0</ele><time>2026-04-17T11:29:41.756Z</time></trkpt><trkpt lat="40.7816939" lon="-3.9190891"><ele>1562.0</ele><time>2026-04-17T11:29:42.755Z</time></trkpt><trkpt lat="40.7816929" lon="-3.9189755"><ele>1560.0</ele><time>2026-04-17T11:29:43.756Z</time></trkpt><trkpt lat="40.7816491" lon="-3.9188048"><ele>1558.0</ele><time>2026-04-17T11:29:44.755Z</time></trkpt><trkpt lat="40.7816168" lon="-3.918635"><ele>1556.0</ele><time>2026-04-17T11:29:45.755Z</time></trkpt><trkpt lat="40.7815814" lon="-3.91849"><ele>1555.75</ele><time>2026-04-17T11:29:46.756Z</time></trkpt><trkpt lat="40.7815511" lon="-3.9183259"><ele>1555.5</ele><time>2026-04-17T11:29:47.755Z</time></trkpt><trkpt lat="40.7815316" lon="-3.9181882"><ele>1555.25</ele><time>2026-04-17T11:29:48.756Z</time></trkpt><trkpt lat="40.7815204" lon="-3.9180358"><ele>1555.0</ele><time>2026-04-17T11:29:49.756Z</time></trkpt><trkpt lat="40.7815101" lon="-3.9178802"><ele>1555.0</ele><time>2026-04-17T11:29:50.756Z</time></trkpt><trkpt lat="40.7814943" lon="-3.9177344"><ele>1555.0</ele><time>2026-04-17T11:29:51.755Z</time></trkpt><trkpt lat="40.781509" lon="-3.9176264"><ele>1555.0</ele><time>2026-04-17T11:29:52.756Z</time></trkpt><trkpt lat="40.7815587" lon="-3.9175265"><ele>1555.0</ele><time>2026-04-17T11:29:53.755Z</time></trkpt><trkpt lat="40.7816103" lon="-3.917428"><ele>1555.0</ele><time>2026-04-17T11:29:54.755Z</time></trkpt><trkpt lat="40.7816715" lon="-3.9173328"><ele>1553.75</ele><time>2026-04-17T11:29:55.756Z</time></trkpt><trkpt lat="40.7817796" lon="-3.917262"><ele>1552.5</ele><time>2026-04-17T11:29:56.756Z</time></trkpt><trkpt lat="40.7818986" lon="-3.9171948"><ele>1551.25</ele><time>2026-04-17T11:29:57.755Z</time></trkpt><trkpt lat="40.7820023" lon="-3.9171279"><ele>1550.0</ele><time>2026-04-17T11:29:58.755Z</time></trkpt><trkpt lat="40.7820975" lon="-3.9170722"><ele>1551.0</ele><time>2026-04-17T11:29:59.755Z</time></trkpt><trkpt lat="40.7821633" lon="-3.9170372"><ele>1552.0</ele><time>2026-04-17T11:30:00.755Z</time></trkpt><trkpt lat="40.7822346" lon="-3.9169614"><ele>1553.0</ele><time>2026-04-17T11:30:02.756Z</time></trkpt><trkpt lat="40.7822448" lon="-3.9168467"><ele>1554.0</ele><time>2026-04-17T11:30:05.755Z</time></trkpt><trkpt lat="40.7821678" lon="-3.9167498"><ele>1555.0</ele><time>2026-04-17T11:30:07.756Z</time></trkpt><trkpt lat="40.7820821" lon="-3.9166438"><ele>1555.0000000000002</ele><time>2026-04-17T11:30:09.756Z</time></trkpt><trkpt lat="40.78203" lon="-3.9165834"><ele>1555.0</ele><time>2026-04-17T11:30:10.755Z</time></trkpt><trkpt lat="40.7819747" lon="-3.9165011"><ele>1555.0</ele><time>2026-04-17T11:30:11.756Z</time></trkpt><trkpt lat="40.7819248" lon="-3.9164287"><ele>1555.0</ele><time>2026-04-17T11:30:12.755Z</time></trkpt><trkpt lat="40.7818284" lon="-3.91632"><ele>1555.0000000000002</ele><time>2026-04-17T11:30:14.755Z</time></trkpt><trkpt lat="40.7817817" lon="-3.9162526"><ele>1555.0</ele><time>2026-04-17T11:30:15.756Z</time></trkpt><trkpt lat="40.7817437" lon="-3.9161806"><ele>1554.6666666666667</ele><time>2026-04-17T11:30:16.755Z</time></trkpt><trkpt lat="40.7816811" lon="-3.9160399"><ele>1554.3333333333335</ele><time>2026-04-17T11:30:18.755Z</time></trkpt><trkpt lat="40.7816663" lon="-3.9159589"><ele>1554.0</ele><time>2026-04-17T11:30:19.755Z</time></trkpt><trkpt lat="40.7816608" lon="-3.9158673"><ele>1553.6666666666665</ele><time>2026-04-17T11:30:20.756Z</time></trkpt><trkpt lat="40.7816568" lon="-3.9157704"><ele>1553.3333333333333</ele><time>2026-04-17T11:30:21.755Z</time></trkpt><trkpt lat="40.7816439" lon="-3.9156748"><ele>1553.0</ele><time>2026-04-17T11:30:22.755Z</time></trkpt><trkpt lat="40.7816323" lon="-3.9155683"><ele>1552.9999999999998</ele><time>2026-04-17T11:30:23.755Z</time></trkpt><trkpt lat="40.78163" lon="-3.9154602"><ele>1553.0</ele><time>2026-04-17T11:30:24.755Z</time></trkpt><trkpt lat="40.7816171" lon="-3.9153544"><ele>1553.0</ele><time>2026-04-17T11:30:25.755Z</time></trkpt><trkpt lat="40.781618" lon="-3.9152502"><ele>1553.0</ele><time>2026-04-17T11:30:26.755Z</time></trkpt><trkpt lat="40.7816258" lon="-3.9151379"><ele>1552.9999999999998</ele><time>2026-04-17T11:30:27.755Z</time></trkpt><trkpt lat="40.7816301" lon="-3.9150285"><ele>1553.0</ele><time>2026-04-17T11:30:28.755Z</time></trkpt><trkpt lat="40.7816466" lon="-3.9149184"><ele>1553.6666666666665</ele><time>2026-04-17T11:30:29.756Z</time></trkpt><trkpt lat="40.7816765" lon="-3.914807"><ele>1554.3333333333333</ele><time>2026-04-17T11:30:30.756Z</time></trkpt><trkpt lat="40.781722" lon="-3.914697"><ele>1555.0</ele><time>2026-04-17T11:30:31.755Z</time></trkpt><trkpt lat="40.7817665" lon="-3.9145973"><ele>1555.6666666666665</ele><time>2026-04-17T11:30:32.755Z</time></trkpt><trkpt lat="40.781817" lon="-3.9145017"><ele>1556.3333333333333</ele><time>2026-04-17T11:30:33.755Z</time></trkpt><trkpt lat="40.781868" lon="-3.9144257"><ele>1557.0</ele><time>2026-04-17T11:30:34.755Z</time></trkpt><trkpt lat="40.7819108" lon="-3.9143398"><ele>1560.1666666666667</ele><time>2026-04-17T11:30:35.756Z</time></trkpt><trkpt lat="40.7819382" lon="-3.9142622"><ele>1563.3333333333335</ele><time>2026-04-17T11:30:36.755Z</time></trkpt><trkpt lat="40.7819392" lon="-3.9141209"><ele>1566.5</ele><time>2026-04-17T11:30:38.755Z</time></trkpt><trkpt lat="40.7819217" lon="-3.9140112"><ele>1569.6666666666667</ele><time>2026-04-17T11:30:40.755Z</time></trkpt><trkpt lat="40.7819635" lon="-3.9139224"><ele>1572.8333333333335</ele><time>2026-04-17T11:30:42.755Z</time></trkpt><trkpt lat="40.7820189" lon="-3.914009"><ele>1576.0</ele><time>2026-04-17T11:30:45.755Z</time></trkpt><trkpt lat="40.7820473" lon="-3.9141428"><ele>1576.0000000000002</ele><time>2026-04-17T11:30:47.755Z</time></trkpt><trkpt lat="40.7820523" lon="-3.9142334"><ele>1576.0</ele><time>2026-04-17T11:30:48.755Z</time></trkpt><trkpt lat="40.7820443" lon="-3.9143319"><ele>1576.0</ele><time>2026-04-17T11:30:49.756Z</time></trkpt><trkpt lat="40.7820289" lon="-3.9144308"><ele>1576.0</ele><time>2026-04-17T11:30:50.756Z</time></trkpt><trkpt lat="40.7820074" lon="-3.9145385"><ele>1576.0000000000002</ele><time>2026-04-17T11:30:51.756Z</time></trkpt><trkpt lat="40.781984" lon="-3.9146499"><ele>1576.0</ele><time>2026-04-17T11:30:52.756Z</time></trkpt><trkpt lat="40.7819691" lon="-3.9147841"><ele>1576.0000000000002</ele><time>2026-04-17T11:30:53.756Z</time></trkpt><trkpt lat="40.7819759" lon="-3.9148889"><ele>1576.0</ele><time>2026-04-17T11:30:54.756Z</time></trkpt><trkpt lat="40.7820352" lon="-3.9150187"><ele>1576.0</ele><time>2026-04-17T11:30:56.755Z</time></trkpt><trkpt lat="40.7820924" lon="-3.9150633"><ele>1576.0</ele><time>2026-04-17T11:30:57.755Z</time></trkpt><trkpt lat="40.7821593" lon="-3.9150873"><ele>1576.0000000000002</ele><time>2026-04-17T11:30:58.756Z</time></trkpt><trkpt lat="40.7822317" lon="-3.9150924"><ele>1576.0</ele><time>2026-04-17T11:30:59.755Z</time></trkpt><trkpt lat="40.7823172" lon="-3.9150673"><ele>1576.0</ele><time>2026-04-17T11:31:00.756Z</time></trkpt><trkpt lat="40.782412" lon="-3.915046"><ele>1576.0</ele><time>2026-04-17T11:31:01.755Z</time></trkpt><trkpt lat="40.7824945" lon="-3.9150255"><ele>1576.0</ele><time>2026-04-17T11:31:02.755Z</time></trkpt><trkpt lat="40.7825914" lon="-3.9150021"><ele>1576.0</ele><time>2026-04-17T11:31:03.755Z</time></trkpt><trkpt lat="40.7826745" lon="-3.9149611"><ele>1576.0</ele><time>2026-04-17T11:31:04.756Z</time></trkpt><trkpt lat="40.7827551" lon="-3.9148919"><ele>1577.8333333333335</ele><time>2026-04-17T11:31:05.755Z</time></trkpt><trkpt lat="40.7828176" lon="-3.9148339"><ele>1579.6666666666667</ele><time>2026-04-17T11:31:06.755Z</time></trkpt><trkpt lat="40.7828899" lon="-3.9147817"><ele>1581.5</ele><time>2026-04-17T11:31:07.756Z</time></trkpt><trkpt lat="40.7829492" lon="-3.9147459"><ele>1583.3333333333335</ele><time>2026-04-17T11:31:08.755Z</time></trkpt><trkpt lat="40.7830521" lon="-3.9147938"><ele>1585.1666666666667</ele><time>2026-04-17T11:31:10.755Z</time></trkpt><trkpt lat="40.7831181" lon="-3.914857"><ele>1587.0</ele><time>2026-04-17T11:31:11.756Z</time></trkpt><trkpt lat="40.7831906" lon="-3.9149389"><ele>1587.0</ele><time>2026-04-17T11:31:12.755Z</time></trkpt><trkpt lat="40.7832513" lon="-3.915019"><ele>1587.0</ele><time>2026-04-17T11:31:13.755Z</time></trkpt><trkpt lat="40.7832912" lon="-3.9151032"><ele>1587.0</ele><time>2026-04-17T11:31:14.755Z</time></trkpt><trkpt lat="40.7833634" lon="-3.9151737"><ele>1587.0</ele><time>2026-04-17T11:31:16.755Z</time></trkpt><trkpt lat="40.7834138" lon="-3.9150877"><ele>1587.0</ele><time>2026-04-17T11:31:19.755Z</time></trkpt><trkpt lat="40.7833733" lon="-3.9149645"><ele>1587.0</ele><time>2026-04-17T11:31:21.756Z</time></trkpt><trkpt lat="40.783319" lon="-3.9148824"><ele>1587.0</ele><time>2026-04-17T11:31:22.755Z</time></trkpt><trkpt lat="40.7832524" lon="-3.9147867"><ele>1587.0</ele><time>2026-04-17T11:31:23.756Z</time></trkpt><trkpt lat="40.7831994" lon="-3.9147014"><ele>1587.0</ele><time>2026-04-17T11:31:24.755Z</time></trkpt><trkpt lat="40.7831553" lon="-3.9146142"><ele>1587.0</ele><time>2026-04-17T11:31:25.756Z</time></trkpt><trkpt lat="40.7831189" lon="-3.9145173"><ele>1587.0</ele><time>2026-04-17T11:31:26.756Z</time></trkpt><trkpt lat="40.783087" lon="-3.9144241"><ele>1587.0</ele><time>2026-04-17T11:31:27.756Z</time></trkpt><trkpt lat="40.7830483" lon="-3.9143174"><ele>1589.1999999999998</ele><time>2026-04-17T11:31:28.756Z</time></trkpt><trkpt lat="40.7830107" lon="-3.9142056"><ele>1591.4</ele><time>2026-04-17T11:31:29.755Z</time></trkpt><trkpt lat="40.7829692" lon="-3.9140841"><ele>1593.6</ele><time>2026-04-17T11:31:30.755Z</time></trkpt><trkpt lat="40.7829328" lon="-3.9139551"><ele>1595.8000000000002</ele><time>2026-04-17T11:31:31.755Z</time></trkpt><trkpt lat="40.7828973" lon="-3.9138182"><ele>1598.0</ele><time>2026-04-17T11:31:32.756Z</time></trkpt><trkpt lat="40.7828693" lon="-3.9136766"><ele>1598.0</ele><time>2026-04-17T11:31:33.755Z</time></trkpt><trkpt lat="40.7828444" lon="-3.9135358"><ele>1598.0</ele><time>2026-04-17T11:31:34.755Z</time></trkpt><trkpt lat="40.782826" lon="-3.9133963"><ele>1598.0</ele><time>2026-04-17T11:31:35.756Z</time></trkpt><trkpt lat="40.7828069" lon="-3.9132576"><ele>1598.0</ele><time>2026-04-17T11:31:36.755Z</time></trkpt><trkpt lat="40.7827853" lon="-3.9131275"><ele>1598.0</ele><time>2026-04-17T11:31:37.755Z</time></trkpt><trkpt lat="40.782744" lon="-3.9129894"><ele>1599.0</ele><time>2026-04-17T11:31:38.755Z</time></trkpt><trkpt lat="40.7827004" lon="-3.9128647"><ele>1600.0</ele><time>2026-04-17T11:31:39.756Z</time></trkpt><trkpt lat="40.7826533" lon="-3.9127406"><ele>1601.0</ele><time>2026-04-17T11:31:40.756Z</time></trkpt><trkpt lat="40.7825929" lon="-3.9126514"><ele>1602.0</ele><time>2026-04-17T11:31:41.755Z</time></trkpt><trkpt lat="40.7825329" lon="-3.9125667"><ele>1603.0</ele><time>2026-04-17T11:31:42.755Z</time></trkpt><trkpt lat="40.7824751" lon="-3.9124914"><ele>1603.0</ele><time>2026-04-17T11:31:43.756Z</time></trkpt><trkpt lat="40.7824056" lon="-3.9124183"><ele>1603.0</ele><time>2026-04-17T11:31:44.755Z</time></trkpt><trkpt lat="40.7823312" lon="-3.9123453"><ele>1603.0</ele><time>2026-04-17T11:31:45.755Z</time></trkpt><trkpt lat="40.78225" lon="-3.9122618"><ele>1603.0</ele><time>2026-04-17T11:31:46.755Z</time></trkpt><trkpt lat="40.7821772" lon="-3.9121747"><ele>1603.0</ele><time>2026-04-17T11:31:47.755Z</time></trkpt><trkpt lat="40.7821003" lon="-3.9120921"><ele>1603.0000000000002</ele><time>2026-04-17T11:31:48.756Z</time></trkpt><trkpt lat="40.7820198" lon="-3.9120115"><ele>1603.0</ele><time>2026-04-17T11:31:49.756Z</time></trkpt><trkpt lat="40.7819521" lon="-3.9119464"><ele>1603.0</ele><time>2026-04-17T11:31:50.756Z</time></trkpt><trkpt lat="40.781907" lon="-3.9118732"><ele>1603.0</ele><time>2026-04-17T11:31:51.755Z</time></trkpt><trkpt lat="40.7818638" lon="-3.9118006"><ele>1603.0000000000002</ele><time>2026-04-17T11:31:52.755Z</time></trkpt><trkpt lat="40.7818246" lon="-3.9116666"><ele>1603.0</ele><time>2026-04-17T11:31:54.756Z</time></trkpt><trkpt lat="40.7818203" lon="-3.9115144"><ele>1602.0</ele><time>2026-04-17T11:31:56.756Z</time></trkpt><trkpt lat="40.781805" lon="-3.9114102"><ele>1601.0</ele><time>2026-04-17T11:31:57.755Z</time></trkpt><trkpt lat="40.7817802" lon="-3.911296"><ele>1600.0</ele><time>2026-04-17T11:31:58.755Z</time></trkpt><trkpt lat="40.7817549" lon="-3.9111777"><ele>1599.0</ele><time>2026-04-17T11:31:59.755Z</time></trkpt><trkpt lat="40.7817178" lon="-3.9110562"><ele>1598.0</ele><time>2026-04-17T11:32:00.756Z</time></trkpt><trkpt lat="40.7816841" lon="-3.9109294"><ele>1598.5</ele><time>2026-04-17T11:32:01.755Z</time></trkpt><trkpt lat="40.7816617" lon="-3.9107856"><ele>1599.0</ele><time>2026-04-17T11:32:02.755Z</time></trkpt><trkpt lat="40.7816364" lon="-3.9106369"><ele>1599.5</ele><time>2026-04-17T11:32:03.756Z</time></trkpt><trkpt lat="40.7816064" lon="-3.9104774"><ele>1600.0</ele><time>2026-04-17T11:32:04.756Z</time></trkpt><trkpt lat="40.78158" lon="-3.9103146"><ele>1600.0</ele><time>2026-04-17T11:32:05.756Z</time></trkpt><trkpt lat="40.7815605" lon="-3.9101577"><ele>1600.0</ele><time>2026-04-17T11:32:06.755Z</time></trkpt><trkpt lat="40.7815394" lon="-3.910009"><ele>1600.0</ele><time>2026-04-17T11:32:07.756Z</time></trkpt><trkpt lat="40.7815178" lon="-3.9098698"><ele>1600.0</ele><time>2026-04-17T11:32:08.755Z</time></trkpt><trkpt lat="40.7814856" lon="-3.9097309"><ele>1600.4</ele><time>2026-04-17T11:32:09.756Z</time></trkpt><trkpt lat="40.7814512" lon="-3.9096005"><ele>1600.8</ele><time>2026-04-17T11:32:10.755Z</time></trkpt><trkpt lat="40.7814189" lon="-3.9094813"><ele>1601.1999999999998</ele><time>2026-04-17T11:32:11.756Z</time></trkpt><trkpt lat="40.7813708" lon="-3.9093652"><ele>1601.6</ele><time>2026-04-17T11:32:12.756Z</time></trkpt><trkpt lat="40.781321" lon="-3.9092428"><ele>1602.0</ele><time>2026-04-17T11:32:13.755Z</time></trkpt><trkpt lat="40.7812838" lon="-3.9091368"><ele>1602.3333333333333</ele><time>2026-04-17T11:32:14.755Z</time></trkpt><trkpt lat="40.7812644" lon="-3.9090328"><ele>1602.6666666666665</ele><time>2026-04-17T11:32:15.755Z</time></trkpt><trkpt lat="40.781266" lon="-3.9089193"><ele>1603.0</ele><time>2026-04-17T11:32:16.756Z</time></trkpt><trkpt lat="40.7812655" lon="-3.9088064"><ele>1603.3333333333333</ele><time>2026-04-17T11:32:17.756Z</time></trkpt><trkpt lat="40.7812608" lon="-3.9086971"><ele>1603.6666666666665</ele><time>2026-04-17T11:32:18.756Z</time></trkpt><trkpt lat="40.7812454" lon="-3.9085831"><ele>1604.0</ele><time>2026-04-17T11:32:19.755Z</time></trkpt><trkpt lat="40.7812371" lon="-3.9084635"><ele>1604.6</ele><time>2026-04-17T11:32:20.756Z</time></trkpt><trkpt lat="40.7812277" lon="-3.908325"><ele>1605.2</ele><time>2026-04-17T11:32:21.755Z</time></trkpt><trkpt lat="40.7812138" lon="-3.9081932"><ele>1605.8</ele><time>2026-04-17T11:32:22.755Z</time></trkpt><trkpt lat="40.7811845" lon="-3.9080733"><ele>1606.3999999999999</ele><time>2026-04-17T11:32:23.756Z</time></trkpt><trkpt lat="40.7811521" lon="-3.9079479"><ele>1607.0</ele><time>2026-04-17T11:32:24.755Z</time></trkpt><trkpt lat="40.7811187" lon="-3.9078184"><ele>1607.0</ele><time>2026-04-17T11:32:25.756Z</time></trkpt><trkpt lat="40.7811145" lon="-3.9076864"><ele>1607.0</ele><time>2026-04-17T11:32:26.756Z</time></trkpt><trkpt lat="40.7811323" lon="-3.9075573"><ele>1607.0</ele><time>2026-04-17T11:32:27.755Z</time></trkpt><trkpt lat="40.7811726" lon="-3.9074382"><ele>1607.0</ele><time>2026-04-17T11:32:28.756Z</time></trkpt><trkpt lat="40.7812257" lon="-3.9073275"><ele>1607.0</ele><time>2026-04-17T11:32:29.756Z</time></trkpt><trkpt lat="40.7812835" lon="-3.9072056"><ele>1605.75</ele><time>2026-04-17T11:32:30.756Z</time></trkpt><trkpt lat="40.7813418" lon="-3.9070749"><ele>1604.5</ele><time>2026-04-17T11:32:31.755Z</time></trkpt><trkpt lat="40.7814028" lon="-3.9069419"><ele>1603.25</ele><time>2026-04-17T11:32:32.755Z</time></trkpt><trkpt lat="40.7814552" lon="-3.9068042"><ele>1602.0</ele><time>2026-04-17T11:32:33.756Z</time></trkpt><trkpt lat="40.7815024" lon="-3.9066702"><ele>1600.75</ele><time>2026-04-17T11:32:34.755Z</time></trkpt><trkpt lat="40.7815631" lon="-3.9065394"><ele>1599.5</ele><time>2026-04-17T11:32:35.755Z</time></trkpt><trkpt lat="40.7816175" lon="-3.906397"><ele>1598.25</ele><time>2026-04-17T11:32:36.755Z</time></trkpt><trkpt lat="40.781668" lon="-3.9062573"><ele>1597.0</ele><time>2026-04-17T11:32:37.756Z</time></trkpt><trkpt lat="40.7817209" lon="-3.9061116"><ele>1597.0</ele><time>2026-04-17T11:32:38.755Z</time></trkpt><trkpt lat="40.7817831" lon="-3.9059579"><ele>1597.0</ele><time>2026-04-17T11:32:39.755Z</time></trkpt><trkpt lat="40.7818456" lon="-3.9058035"><ele>1597.0</ele><time>2026-04-17T11:32:40.755Z</time></trkpt><trkpt lat="40.7819088" lon="-3.905663"><ele>1597.0</ele><time>2026-04-17T11:32:41.755Z</time></trkpt><trkpt lat="40.7819895" lon="-3.905531"><ele>1597.5</ele><time>2026-04-17T11:32:42.755Z</time></trkpt><trkpt lat="40.7820788" lon="-3.9054109"><ele>1598.0</ele><time>2026-04-17T11:32:43.756Z</time></trkpt><trkpt lat="40.7821728" lon="-3.9052993"><ele>1598.5</ele><time>2026-04-17T11:32:44.755Z</time></trkpt><trkpt lat="40.7822591" lon="-3.9051912"><ele>1599.0</ele><time>2026-04-17T11:32:45.755Z</time></trkpt><trkpt lat="40.7823432" lon="-3.9050771"><ele>1599.0</ele><time>2026-04-17T11:32:46.755Z</time></trkpt><trkpt lat="40.7824334" lon="-3.9049754"><ele>1599.0</ele><time>2026-04-17T11:32:47.755Z</time></trkpt><trkpt lat="40.7825272" lon="-3.9048855"><ele>1599.0</ele><time>2026-04-17T11:32:48.755Z</time></trkpt><trkpt lat="40.7826278" lon="-3.9047991"><ele>1599.0</ele><time>2026-04-17T11:32:49.756Z</time></trkpt><trkpt lat="40.782732" lon="-3.9047206"><ele>1597.5</ele><time>2026-04-17T11:32:50.755Z</time></trkpt><trkpt lat="40.782827" lon="-3.9046456"><ele>1596.0</ele><time>2026-04-17T11:32:51.756Z</time></trkpt><trkpt lat="40.7828828" lon="-3.9045751"><ele>1594.5</ele><time>2026-04-17T11:32:52.755Z</time></trkpt><trkpt lat="40.782916" lon="-3.9044855"><ele>1593.0</ele><time>2026-04-17T11:32:53.755Z</time></trkpt><trkpt lat="40.7829389" lon="-3.9043839"><ele>1591.5</ele><time>2026-04-17T11:32:54.756Z</time></trkpt><trkpt lat="40.7829625" lon="-3.904299"><ele>1590.0</ele><time>2026-04-17T11:32:55.755Z</time></trkpt><trkpt lat="40.7830104" lon="-3.9042281"><ele>1590.0</ele><time>2026-04-17T11:32:56.755Z</time></trkpt><trkpt lat="40.7830773" lon="-3.9041739"><ele>1590.0</ele><time>2026-04-17T11:32:57.755Z</time></trkpt><trkpt lat="40.783151" lon="-3.904119"><ele>1590.0</ele><time>2026-04-17T11:32:58.755Z</time></trkpt><trkpt lat="40.7832261" lon="-3.9040567"><ele>1590.0</ele><time>2026-04-17T11:32:59.755Z</time></trkpt><trkpt lat="40.783313" lon="-3.9039919"><ele>1590.0</ele><time>2026-04-17T11:33:00.755Z</time></trkpt><trkpt lat="40.7834034" lon="-3.903924"><ele>1590.0</ele><time>2026-04-17T11:33:01.755Z</time></trkpt><trkpt lat="40.7834935" lon="-3.9038547"><ele>1590.0</ele><time>2026-04-17T11:33:02.756Z</time></trkpt><trkpt lat="40.7835692" lon="-3.9038059"><ele>1590.0</ele><time>2026-04-17T11:33:03.756Z</time></trkpt><trkpt lat="40.7836417" lon="-3.9037609"><ele>1590.0</ele><time>2026-04-17T11:33:04.755Z</time></trkpt><trkpt lat="40.7837017" lon="-3.9037067"><ele>1590.0</ele><time>2026-04-17T11:33:05.755Z</time></trkpt><trkpt lat="40.783744" lon="-3.9036433"><ele>1590.0</ele><time>2026-04-17T11:33:06.755Z</time></trkpt><trkpt lat="40.7837763" lon="-3.9035639"><ele>1591.1666666666667</ele><time>2026-04-17T11:33:07.755Z</time></trkpt><trkpt lat="40.7837928" lon="-3.9034577"><ele>1592.3333333333335</ele><time>2026-04-17T11:33:08.756Z</time></trkpt><trkpt lat="40.7838165" lon="-3.9033482"><ele>1593.5</ele><time>2026-04-17T11:33:09.755Z</time></trkpt><trkpt lat="40.7838331" lon="-3.9032286"><ele>1594.6666666666667</ele><time>2026-04-17T11:33:10.755Z</time></trkpt><trkpt lat="40.7838463" lon="-3.9031229"><ele>1595.8333333333335</ele><time>2026-04-17T11:33:11.755Z</time></trkpt><trkpt lat="40.7838758" lon="-3.9030318"><ele>1597.0</ele><time>2026-04-17T11:33:12.756Z</time></trkpt><trkpt lat="40.7839126" lon="-3.9029574"><ele>1597.0000000000002</ele><time>2026-04-17T11:33:13.755Z</time></trkpt><trkpt lat="40.7839675" lon="-3.9028784"><ele>1597.0</ele><time>2026-04-17T11:33:14.755Z</time></trkpt><trkpt lat="40.7840178" lon="-3.9027923"><ele>1597.0</ele><time>2026-04-17T11:33:15.756Z</time></trkpt><trkpt lat="40.7840472" lon="-3.9027127"><ele>1597.0</ele><time>2026-04-17T11:33:16.755Z</time></trkpt><trkpt lat="40.7840546" lon="-3.9026229"><ele>1597.0000000000002</ele><time>2026-04-17T11:33:17.755Z</time></trkpt><trkpt lat="40.7841032" lon="-3.9024871"><ele>1597.0</ele><time>2026-04-17T11:33:19.756Z</time></trkpt><trkpt lat="40.7841691" lon="-3.9024239"><ele>1598.3999999999999</ele><time>2026-04-17T11:33:20.755Z</time></trkpt><trkpt lat="40.7842502" lon="-3.9023631"><ele>1599.8</ele><time>2026-04-17T11:33:21.755Z</time></trkpt><trkpt lat="40.7843409" lon="-3.9022959"><ele>1601.2</ele><time>2026-04-17T11:33:22.756Z</time></trkpt><trkpt lat="40.7844322" lon="-3.9022234"><ele>1602.6</ele><time>2026-04-17T11:33:23.755Z</time></trkpt><trkpt lat="40.7845205" lon="-3.9021425"><ele>1604.0</ele><time>2026-04-17T11:33:24.756Z</time></trkpt><trkpt lat="40.7846069" lon="-3.9020585"><ele>1604.0</ele><time>2026-04-17T11:33:25.756Z</time></trkpt><trkpt lat="40.7846849" lon="-3.9019706"><ele>1604.0</ele><time>2026-04-17T11:33:26.756Z</time></trkpt><trkpt lat="40.7847617" lon="-3.9018898"><ele>1604.0</ele><time>2026-04-17T11:33:27.756Z</time></trkpt><trkpt lat="40.784837" lon="-3.9018054"><ele>1604.0</ele><time>2026-04-17T11:33:28.755Z</time></trkpt><trkpt lat="40.7849079" lon="-3.9017317"><ele>1604.0</ele><time>2026-04-17T11:33:29.755Z</time></trkpt><trkpt lat="40.7849776" lon="-3.9016572"><ele>1603.4999999999998</ele><time>2026-04-17T11:33:30.756Z</time></trkpt><trkpt lat="40.7850407" lon="-3.9015969"><ele>1603.0</ele><time>2026-04-17T11:33:31.755Z</time></trkpt><trkpt lat="40.7851188" lon="-3.9015591"><ele>1602.5</ele><time>2026-04-17T11:33:32.755Z</time></trkpt><trkpt lat="40.7851996" lon="-3.9015286"><ele>1602.0</ele><time>2026-04-17T11:33:33.756Z</time></trkpt><trkpt lat="40.7852881" lon="-3.901495"><ele>1601.4999999999998</ele><time>2026-04-17T11:33:34.756Z</time></trkpt><trkpt lat="40.7853544" lon="-3.9014407"><ele>1601.0</ele><time>2026-04-17T11:33:35.756Z</time></trkpt><trkpt lat="40.7854155" lon="-3.9013619"><ele>1600.9999999999998</ele><time>2026-04-17T11:33:36.756Z</time></trkpt><trkpt lat="40.7854752" lon="-3.9012711"><ele>1601.0</ele><time>2026-04-17T11:33:37.756Z</time></trkpt><trkpt lat="40.7855156" lon="-3.9011643"><ele>1601.0</ele><time>2026-04-17T11:33:38.755Z</time></trkpt><trkpt lat="40.7855469" lon="-3.9010687"><ele>1601.0</ele><time>2026-04-17T11:33:39.756Z</time></trkpt><trkpt lat="40.7855666" lon="-3.9009625"><ele>1600.9999999999998</ele><time>2026-04-17T11:33:40.755Z</time></trkpt><trkpt lat="40.7855798" lon="-3.9008691"><ele>1601.0</ele><time>2026-04-17T11:33:41.755Z</time></trkpt><trkpt lat="40.7856028" lon="-3.9007794"><ele>1597.4999999999998</ele><time>2026-04-17T11:33:42.755Z</time></trkpt><trkpt lat="40.7856377" lon="-3.9006948"><ele>1594.0</ele><time>2026-04-17T11:33:43.755Z</time></trkpt><trkpt lat="40.785674" lon="-3.9005935"><ele>1590.5</ele><time>2026-04-17T11:33:44.756Z</time></trkpt><trkpt lat="40.7857038" lon="-3.9004836"><ele>1587.0</ele><time>2026-04-17T11:33:45.755Z</time></trkpt><trkpt lat="40.7857227" lon="-3.9003869"><ele>1583.4999999999998</ele><time>2026-04-17T11:33:46.756Z</time></trkpt><trkpt lat="40.7857409" lon="-3.9002725"><ele>1580.0</ele><time>2026-04-17T11:33:47.756Z</time></trkpt><trkpt lat="40.78576" lon="-3.9001567"><ele>1577.1666666666665</ele><time>2026-04-17T11:33:48.756Z</time></trkpt><trkpt lat="40.7857712" lon="-3.9000414"><ele>1574.3333333333333</ele><time>2026-04-17T11:33:49.755Z</time></trkpt><trkpt lat="40.7857745" lon="-3.8999519"><ele>1571.5</ele><time>2026-04-17T11:33:50.755Z</time></trkpt><trkpt lat="40.7857799" lon="-3.8998661"><ele>1568.6666666666665</ele><time>2026-04-17T11:33:51.755Z</time></trkpt><trkpt lat="40.7858031" lon="-3.8997767"><ele>1565.8333333333333</ele><time>2026-04-17T11:33:52.756Z</time></trkpt><trkpt lat="40.7858543" lon="-3.8996852"><ele>1563.0</ele><time>2026-04-17T11:33:53.756Z</time></trkpt><trkpt lat="40.785917" lon="-3.8996122"><ele>1563.0</ele><time>2026-04-17T11:33:54.756Z</time></trkpt><trkpt lat="40.7859742" lon="-3.8995638"><ele>1563.0</ele><time>2026-04-17T11:33:55.755Z</time></trkpt><trkpt lat="40.7860442" lon="-3.8995278"><ele>1563.0</ele><time>2026-04-17T11:33:56.756Z</time></trkpt><trkpt lat="40.7861033" lon="-3.8994914"><ele>1563.0</ele><time>2026-04-17T11:33:57.755Z</time></trkpt><trkpt lat="40.7861662" lon="-3.8994498"><ele>1563.0</ele><time>2026-04-17T11:33:58.756Z</time></trkpt><trkpt lat="40.7862009" lon="-3.8993718"><ele>1563.0</ele><time>2026-04-17T11:34:01.756Z</time></trkpt><trkpt lat="40.7861365" lon="-3.8993597"><ele>1563.0</ele><time>2026-04-17T11:34:02.755Z</time></trkpt><trkpt lat="40.786067" lon="-3.8993855"><ele>1563.0</ele><time>2026-04-17T11:34:03.756Z</time></trkpt><trkpt lat="40.7859737" lon="-3.8994637"><ele>1563.0</ele><time>2026-04-17T11:34:05.756Z</time></trkpt><trkpt lat="40.7858563" lon="-3.8995171"><ele>1563.0</ele><time>2026-04-17T11:34:07.755Z</time></trkpt><trkpt lat="40.785786" lon="-3.8995542"><ele>1563.0</ele><time>2026-04-17T11:34:08.756Z</time></trkpt><trkpt lat="40.7857247" lon="-3.8995906"><ele>1563.0</ele><time>2026-04-17T11:34:09.755Z</time></trkpt><trkpt lat="40.785671" lon="-3.8996452"><ele>1563.0</ele><time>2026-04-17T11:34:10.755Z</time></trkpt><trkpt lat="40.7856216" lon="-3.8996976"><ele>1563.0</ele><time>2026-04-17T11:34:11.756Z</time></trkpt><trkpt lat="40.7855624" lon="-3.8997584"><ele>1563.0</ele><time>2026-04-17T11:34:12.756Z</time></trkpt><trkpt lat="40.7854471" lon="-3.8998557"><ele>1563.0</ele><time>2026-04-17T11:34:14.755Z</time></trkpt><trkpt lat="40.7853882" lon="-3.8999172"><ele>1563.0</ele><time>2026-04-17T11:34:15.756Z</time></trkpt><trkpt lat="40.7853423" lon="-3.9000011"><ele>1563.0</ele><time>2026-04-17T11:34:16.755Z</time></trkpt><trkpt lat="40.7852984" lon="-3.9000899"><ele>1563.0</ele><time>2026-04-17T11:34:17.755Z</time></trkpt><trkpt lat="40.7852418" lon="-3.9001813"><ele>1561.2</ele><time>2026-04-17T11:34:18.756Z</time></trkpt><trkpt lat="40.7851947" lon="-3.9002883"><ele>1559.4</ele><time>2026-04-17T11:34:19.755Z</time></trkpt><trkpt lat="40.785149" lon="-3.9004056"><ele>1557.6000000000001</ele><time>2026-04-17T11:34:20.756Z</time></trkpt><trkpt lat="40.785099" lon="-3.9005117"><ele>1555.8000000000002</ele><time>2026-04-17T11:34:21.756Z</time></trkpt><trkpt lat="40.7850436" lon="-3.9006114"><ele>1554.0</ele><time>2026-04-17T11:34:22.756Z</time></trkpt><trkpt lat="40.7849815" lon="-3.9006984"><ele>1554.0</ele><time>2026-04-17T11:34:23.755Z</time></trkpt><trkpt lat="40.7849218" lon="-3.9007924"><ele>1554.0</ele><time>2026-04-17T11:34:24.756Z</time></trkpt><trkpt lat="40.7848595" lon="-3.9008651"><ele>1554.0</ele><time>2026-04-17T11:34:25.755Z</time></trkpt><trkpt lat="40.7847783" lon="-3.9009281"><ele>1554.0</ele><time>2026-04-17T11:34:26.755Z</time></trkpt><trkpt lat="40.7846939" lon="-3.9009858"><ele>1554.0</ele><time>2026-04-17T11:34:27.756Z</time></trkpt><trkpt lat="40.7846039" lon="-3.9010516"><ele>1553.4</ele><time>2026-04-17T11:34:28.756Z</time></trkpt><trkpt lat="40.7845192" lon="-3.9011291"><ele>1552.8000000000002</ele><time>2026-04-17T11:34:29.756Z</time></trkpt><trkpt lat="40.7844322" lon="-3.9011877"><ele>1552.1999999999998</ele><time>2026-04-17T11:34:30.755Z</time></trkpt><trkpt lat="40.7843298" lon="-3.9012539"><ele>1551.6</ele><time>2026-04-17T11:34:31.755Z</time></trkpt><trkpt lat="40.784212" lon="-3.9013075"><ele>1551.0</ele><time>2026-04-17T11:34:32.756Z</time></trkpt><trkpt lat="40.7840988" lon="-3.9013579"><ele>1551.0</ele><time>2026-04-17T11:34:33.756Z</time></trkpt><trkpt lat="40.7839905" lon="-3.9014084"><ele>1551.0</ele><time>2026-04-17T11:34:34.755Z</time></trkpt><trkpt lat="40.7838961" lon="-3.9014438"><ele>1551.0</ele><time>2026-04-17T11:34:35.756Z</time></trkpt><trkpt lat="40.7837858" lon="-3.9014993"><ele>1551.0</ele><time>2026-04-17T11:34:36.756Z</time></trkpt><trkpt lat="40.7836808" lon="-3.9015552"><ele>1551.0</ele><time>2026-04-17T11:34:37.755Z</time></trkpt><trkpt lat="40.7835755" lon="-3.9016197"><ele>1550.5</ele><time>2026-04-17T11:34:38.756Z</time></trkpt><trkpt lat="40.7834741" lon="-3.901681"><ele>1550.0</ele><time>2026-04-17T11:34:39.755Z</time></trkpt><trkpt lat="40.7833691" lon="-3.9017439"><ele>1549.5</ele><time>2026-04-17T11:34:40.756Z</time></trkpt><trkpt lat="40.7832505" lon="-3.9018235"><ele>1549.0</ele><time>2026-04-17T11:34:41.756Z</time></trkpt><trkpt lat="40.7831583" lon="-3.9018971"><ele>1549.0</ele><time>2026-04-17T11:34:42.756Z</time></trkpt><trkpt lat="40.7830661" lon="-3.9019595"><ele>1549.0</ele><time>2026-04-17T11:34:43.755Z</time></trkpt><trkpt lat="40.7829893" lon="-3.9020413"><ele>1549.0</ele><time>2026-04-17T11:34:44.755Z</time></trkpt><trkpt lat="40.7829315" lon="-3.902145"><ele>1549.0</ele><time>2026-04-17T11:34:45.756Z</time></trkpt><trkpt lat="40.7828759" lon="-3.9022437"><ele>1549.0</ele><time>2026-04-17T11:34:46.755Z</time></trkpt><trkpt lat="40.7828096" lon="-3.9023618"><ele>1549.0</ele><time>2026-04-17T11:34:47.755Z</time></trkpt><trkpt lat="40.7827436" lon="-3.9024705"><ele>1549.0</ele><time>2026-04-17T11:34:48.755Z</time></trkpt><trkpt lat="40.7826738" lon="-3.9025555"><ele>1549.0</ele><time>2026-04-17T11:34:49.756Z</time></trkpt><trkpt lat="40.7825987" lon="-3.9026093"><ele>1549.0</ele><time>2026-04-17T11:34:50.755Z</time></trkpt><trkpt lat="40.7825079" lon="-3.9026217"><ele>1549.0</ele><time>2026-04-17T11:34:51.755Z</time></trkpt><trkpt lat="40.7824199" lon="-3.902613"><ele>1549.0</ele><time>2026-04-17T11:34:52.756Z</time></trkpt><trkpt lat="40.7823321" lon="-3.9026124"><ele>1549.0</ele><time>2026-04-17T11:34:53.756Z</time></trkpt><trkpt lat="40.7822405" lon="-3.9026437"><ele>1549.0</ele><time>2026-04-17T11:34:54.756Z</time></trkpt><trkpt lat="40.7821568" lon="-3.9026744"><ele>1549.0</ele><time>2026-04-17T11:34:55.756Z</time></trkpt><trkpt lat="40.7820707" lon="-3.9027224"><ele>1549.0</ele><time>2026-04-17T11:34:56.756Z</time></trkpt><trkpt lat="40.7819826" lon="-3.9027766"><ele>1549.0000000000002</ele><time>2026-04-17T11:34:57.755Z</time></trkpt><trkpt lat="40.7819048" lon="-3.9028066"><ele>1549.0</ele><time>2026-04-17T11:34:58.755Z</time></trkpt><trkpt lat="40.7818197" lon="-3.9028305"><ele>1549.0</ele><time>2026-04-17T11:34:59.755Z</time></trkpt><trkpt lat="40.7817434" lon="-3.9028533"><ele>1549.0</ele><time>2026-04-17T11:35:00.755Z</time></trkpt><trkpt lat="40.7816656" lon="-3.9028864"><ele>1549.0000000000002</ele><time>2026-04-17T11:35:01.755Z</time></trkpt><trkpt lat="40.7816096" lon="-3.9029321"><ele>1549.0</ele><time>2026-04-17T11:35:02.755Z</time></trkpt><trkpt lat="40.7815612" lon="-3.9029914"><ele>1545.5000000000002</ele><time>2026-04-17T11:35:03.755Z</time></trkpt><trkpt lat="40.7815091" lon="-3.9030468"><ele>1542.0</ele><time>2026-04-17T11:35:04.755Z</time></trkpt><trkpt lat="40.7814424" lon="-3.9031008"><ele>1538.5</ele><time>2026-04-17T11:35:05.755Z</time></trkpt><trkpt lat="40.7813698" lon="-3.9031396"><ele>1535.0</ele><time>2026-04-17T11:35:06.755Z</time></trkpt><trkpt lat="40.7813036" lon="-3.9031708"><ele>1531.5</ele><time>2026-04-17T11:35:07.756Z</time></trkpt><trkpt lat="40.7811806" lon="-3.9032236"><ele>1528.0</ele><time>2026-04-17T11:35:09.756Z</time></trkpt><trkpt lat="40.7810853" lon="-3.9032465"><ele>1528.0</ele><time>2026-04-17T11:35:11.756Z</time></trkpt><trkpt lat="40.7810099" lon="-3.9031969"><ele>1528.0</ele><time>2026-04-17T11:35:14.756Z</time></trkpt><trkpt lat="40.7810626" lon="-3.9030773"><ele>1528.0</ele><time>2026-04-17T11:35:17.755Z</time></trkpt><trkpt lat="40.7811168" lon="-3.9030237"><ele>1528.0</ele><time>2026-04-17T11:35:18.755Z</time></trkpt><trkpt lat="40.7811972" lon="-3.9029852"><ele>1528.0</ele><time>2026-04-17T11:35:19.756Z</time></trkpt><trkpt lat="40.7812759" lon="-3.9029336"><ele>1528.0</ele><time>2026-04-17T11:35:20.756Z</time></trkpt><trkpt lat="40.7813483" lon="-3.9028713"><ele>1528.0</ele><time>2026-04-17T11:35:21.755Z</time></trkpt><trkpt lat="40.7814153" lon="-3.9027886"><ele>1528.0</ele><time>2026-04-17T11:35:22.756Z</time></trkpt><trkpt lat="40.7814712" lon="-3.9026875"><ele>1528.0</ele><time>2026-04-17T11:35:23.755Z</time></trkpt><trkpt lat="40.7815215" lon="-3.9025949"><ele>1528.0</ele><time>2026-04-17T11:35:24.756Z</time></trkpt><trkpt lat="40.7815624" lon="-3.9025188"><ele>1528.0</ele><time>2026-04-17T11:35:25.755Z</time></trkpt><trkpt lat="40.7816023" lon="-3.9024525"><ele>1528.0</ele><time>2026-04-17T11:35:26.755Z</time></trkpt><trkpt lat="40.7817004" lon="-3.9023822"><ele>1526.6000000000001</ele><time>2026-04-17T11:35:28.756Z</time></trkpt><trkpt lat="40.7817718" lon="-3.9022907"><ele>1525.2</ele><time>2026-04-17T11:35:30.755Z</time></trkpt><trkpt lat="40.7818504" lon="-3.9022352"><ele>1523.8</ele><time>2026-04-17T11:35:32.756Z</time></trkpt><trkpt lat="40.7819196" lon="-3.9021495"><ele>1522.4</ele><time>2026-04-17T11:35:34.755Z</time></trkpt><trkpt lat="40.7820154" lon="-3.9020646"><ele>1521.0</ele><time>2026-04-17T11:35:36.756Z</time></trkpt><trkpt lat="40.7821088" lon="-3.9019776"><ele>1521.0</ele><time>2026-04-17T11:35:38.755Z</time></trkpt><trkpt lat="40.7821551" lon="-3.9018336"><ele>1521.0</ele><time>2026-04-17T11:35:40.755Z</time></trkpt><trkpt lat="40.7821906" lon="-3.9017415"><ele>1521.0</ele><time>2026-04-17T11:35:41.756Z</time></trkpt><trkpt lat="40.7822273" lon="-3.9016418"><ele>1521.0</ele><time>2026-04-17T11:35:42.756Z</time></trkpt><trkpt lat="40.7822581" lon="-3.9015303"><ele>1521.0</ele><time>2026-04-17T11:35:43.756Z</time></trkpt><trkpt lat="40.7822825" lon="-3.9014334"><ele>1521.0</ele><time>2026-04-17T11:35:44.755Z</time></trkpt><trkpt lat="40.7823087" lon="-3.9013484"><ele>1517.0</ele><time>2026-04-17T11:35:45.756Z</time></trkpt><trkpt lat="40.782365" lon="-3.9012251"><ele>1513.0</ele><time>2026-04-17T11:35:47.756Z</time></trkpt><trkpt lat="40.7824331" lon="-3.9010987"><ele>1509.0</ele><time>2026-04-17T11:35:49.755Z</time></trkpt><trkpt lat="40.7824899" lon="-3.9010154"><ele>1505.0</ele><time>2026-04-17T11:35:51.756Z</time></trkpt><trkpt lat="40.7824481" lon="-3.900947"><ele>1501.0</ele><time>2026-04-17T11:35:54.756Z</time></trkpt><trkpt lat="40.7823744" lon="-3.9010066"><ele>1501.0</ele><time>2026-04-17T11:35:56.756Z</time></trkpt><trkpt lat="40.7823254" lon="-3.9011509"><ele>1501.0</ele><time>2026-04-17T11:35:58.755Z</time></trkpt><trkpt lat="40.7822746" lon="-3.9012916"><ele>1501.0</ele><time>2026-04-17T11:36:00.756Z</time></trkpt><trkpt lat="40.7822368" lon="-3.9013725"><ele>1501.0</ele><time>2026-04-17T11:36:01.756Z</time></trkpt><trkpt lat="40.7822003" lon="-3.9014644"><ele>1501.0</ele><time>2026-04-17T11:36:02.755Z</time></trkpt><trkpt lat="40.7821666" lon="-3.9015501"><ele>1501.0</ele><time>2026-04-17T11:36:03.755Z</time></trkpt><trkpt lat="40.7821026" lon="-3.9016753"><ele>1501.0</ele><time>2026-04-17T11:36:05.756Z</time></trkpt><trkpt lat="40.7820486" lon="-3.9017369"><ele>1501.0</ele><time>2026-04-17T11:36:06.755Z</time></trkpt><trkpt lat="40.7819921" lon="-3.9017822"><ele>1501.0</ele><time>2026-04-17T11:36:07.755Z</time></trkpt><trkpt lat="40.7818676" lon="-3.9017998"><ele>1501.0</ele><time>2026-04-17T11:36:09.755Z</time></trkpt><trkpt lat="40.7817966" lon="-3.901812"><ele>1501.0</ele><time>2026-04-17T11:36:10.756Z</time></trkpt><trkpt lat="40.7817299" lon="-3.9018509"><ele>1501.1999999999998</ele><time>2026-04-17T11:36:11.756Z</time></trkpt><trkpt lat="40.7816686" lon="-3.9018934"><ele>1501.3999999999999</ele><time>2026-04-17T11:36:12.755Z</time></trkpt><trkpt lat="40.7815572" lon="-3.9019631"><ele>1501.6</ele><time>2026-04-17T11:36:14.755Z</time></trkpt><trkpt lat="40.781438" lon="-3.9019962"><ele>1501.8</ele><time>2026-04-17T11:36:16.756Z</time></trkpt><trkpt lat="40.7813718" lon="-3.9020013"><ele>1502.0</ele><time>2026-04-17T11:36:17.756Z</time></trkpt><trkpt lat="40.7812997" lon="-3.9020228"><ele>1502.0000000000002</ele><time>2026-04-17T11:36:18.756Z</time></trkpt><trkpt lat="40.7812299" lon="-3.9020474"><ele>1502.0</ele><time>2026-04-17T11:36:19.755Z</time></trkpt><trkpt lat="40.7811699" lon="-3.902093"><ele>1502.0</ele><time>2026-04-17T11:36:20.756Z</time></trkpt><trkpt lat="40.7811193" lon="-3.9021534"><ele>1502.0</ele><time>2026-04-17T11:36:21.755Z</time></trkpt><trkpt lat="40.7810637" lon="-3.9022221"><ele>1502.0</ele><time>2026-04-17T11:36:22.755Z</time></trkpt><trkpt lat="40.7810056" lon="-3.9022911"><ele>1502.0000000000002</ele><time>2026-04-17T11:36:23.756Z</time></trkpt><trkpt lat="40.7809418" lon="-3.9023291"><ele>1502.0</ele><time>2026-04-17T11:36:24.755Z</time></trkpt><trkpt lat="40.7808625" lon="-3.9023604"><ele>1502.3333333333335</ele><time>2026-04-17T11:36:25.755Z</time></trkpt><trkpt lat="40.7807883" lon="-3.9023968"><ele>1502.6666666666667</ele><time>2026-04-17T11:36:26.756Z</time></trkpt><trkpt lat="40.7807149" lon="-3.9024538"><ele>1503.0</ele><time>2026-04-17T11:36:27.755Z</time></trkpt><trkpt lat="40.7806346" lon="-3.9025009"><ele>1503.3333333333333</ele><time>2026-04-17T11:36:28.755Z</time></trkpt><trkpt lat="40.7805565" lon="-3.9025465"><ele>1503.6666666666665</ele><time>2026-04-17T11:36:29.755Z</time></trkpt><trkpt lat="40.7804864" lon="-3.9025934"><ele>1504.0</ele><time>2026-04-17T11:36:30.756Z</time></trkpt><trkpt lat="40.7803991" lon="-3.9027009"><ele>1504.0</ele><time>2026-04-17T11:36:32.755Z</time></trkpt><trkpt lat="40.7803559" lon="-3.9027745"><ele>1504.0</ele><time>2026-04-17T11:36:33.755Z</time></trkpt><trkpt lat="40.7803048" lon="-3.90283"><ele>1504.0</ele><time>2026-04-17T11:36:34.756Z</time></trkpt><trkpt lat="40.7802552" lon="-3.9029067"><ele>1504.0</ele><time>2026-04-17T11:36:35.756Z</time></trkpt><trkpt lat="40.7801946" lon="-3.9029875"><ele>1504.0</ele><time>2026-04-17T11:36:36.756Z</time></trkpt><trkpt lat="40.7801339" lon="-3.9030549"><ele>1504.0</ele><time>2026-04-17T11:36:37.755Z</time></trkpt><trkpt lat="40.7800761" lon="-3.9031117"><ele>1498.5</ele><time>2026-04-17T11:36:38.755Z</time></trkpt><trkpt lat="40.7800111" lon="-3.9031692"><ele>1493.0</ele><time>2026-04-17T11:36:39.755Z</time></trkpt><trkpt lat="40.7799472" lon="-3.9032216"><ele>1487.5</ele><time>2026-04-17T11:36:40.755Z</time></trkpt><trkpt lat="40.7798731" lon="-3.9033051"><ele>1482.0</ele><time>2026-04-17T11:36:42.755Z</time></trkpt><trkpt lat="40.7798256" lon="-3.9033672"><ele>1476.5</ele><time>2026-04-17T11:36:44.756Z</time></trkpt><trkpt lat="40.7797421" lon="-3.9033837"><ele>1471.0</ele><time>2026-04-17T11:36:47.755Z</time></trkpt><trkpt lat="40.7797579" lon="-3.9032915"><ele>1471.0</ele><time>2026-04-17T11:36:49.755Z</time></trkpt><trkpt lat="40.779856" lon="-3.9031707"><ele>1471.0</ele><time>2026-04-17T11:36:51.755Z</time></trkpt><trkpt lat="40.779915" lon="-3.903105"><ele>1471.0</ele><time>2026-04-17T11:36:52.755Z</time></trkpt><trkpt lat="40.7799581" lon="-3.9030328"><ele>1471.0</ele><time>2026-04-17T11:36:53.756Z</time></trkpt><trkpt lat="40.7800025" lon="-3.9029532"><ele>1471.0</ele><time>2026-04-17T11:36:54.755Z</time></trkpt><trkpt lat="40.780036" lon="-3.9028752"><ele>1471.0</ele><time>2026-04-17T11:36:55.755Z</time></trkpt><trkpt lat="40.7800865" lon="-3.9027425"><ele>1471.0</ele><time>2026-04-17T11:36:57.756Z</time></trkpt><trkpt lat="40.7801225" lon="-3.9026647"><ele>1471.0</ele><time>2026-04-17T11:36:58.756Z</time></trkpt><trkpt lat="40.7801634" lon="-3.9024938"><ele>1471.0</ele><time>2026-04-17T11:37:00.755Z</time></trkpt><trkpt lat="40.7801963" lon="-3.9024107"><ele>1471.0</ele><time>2026-04-17T11:37:01.756Z</time></trkpt><trkpt lat="40.780239" lon="-3.9023351"><ele>1471.0</ele><time>2026-04-17T11:37:02.755Z</time></trkpt><trkpt lat="40.7802944" lon="-3.9022612"><ele>1471.0</ele><time>2026-04-17T11:37:03.756Z</time></trkpt><trkpt lat="40.7803554" lon="-3.9021966"><ele>1472.0</ele><time>2026-04-17T11:37:04.755Z</time></trkpt><trkpt lat="40.7804144" lon="-3.9021233"><ele>1473.0</ele><time>2026-04-17T11:37:05.755Z</time></trkpt><trkpt lat="40.7804712" lon="-3.9020505"><ele>1474.0</ele><time>2026-04-17T11:37:06.756Z</time></trkpt><trkpt lat="40.7805275" lon="-3.9019796"><ele>1475.0</ele><time>2026-04-17T11:37:07.756Z</time></trkpt><trkpt lat="40.780586" lon="-3.9018987"><ele>1476.0</ele><time>2026-04-17T11:37:08.756Z</time></trkpt><trkpt lat="40.7806294" lon="-3.9018192"><ele>1477.0</ele><time>2026-04-17T11:37:09.756Z</time></trkpt><trkpt lat="40.7806601" lon="-3.9017446"><ele>1472.6</ele><time>2026-04-17T11:37:10.756Z</time></trkpt><trkpt lat="40.780698" lon="-3.901594"><ele>1468.1999999999998</ele><time>2026-04-17T11:37:12.756Z</time></trkpt><trkpt lat="40.7807439" lon="-3.9014783"><ele>1463.8</ele><time>2026-04-17T11:37:14.755Z</time></trkpt><trkpt lat="40.7807678" lon="-3.9013971"><ele>1459.4</ele><time>2026-04-17T11:37:16.755Z</time></trkpt><trkpt lat="40.7807555" lon="-3.9012936"><ele>1455.0</ele><time>2026-04-17T11:37:18.755Z</time></trkpt><trkpt lat="40.7806499" lon="-3.9013382"><ele>1455.0</ele><time>2026-04-17T11:37:21.755Z</time></trkpt><trkpt lat="40.7806096" lon="-3.9014091"><ele>1455.0</ele><time>2026-04-17T11:37:22.755Z</time></trkpt><trkpt lat="40.7805806" lon="-3.9015002"><ele>1455.0</ele><time>2026-04-17T11:37:23.755Z</time></trkpt><trkpt lat="40.7805473" lon="-3.9015885"><ele>1455.0</ele><time>2026-04-17T11:37:24.755Z</time></trkpt><trkpt lat="40.7804947" lon="-3.9016783"><ele>1455.0</ele><time>2026-04-17T11:37:25.756Z</time></trkpt><trkpt lat="40.780435" lon="-3.9017474"><ele>1455.0</ele><time>2026-04-17T11:37:26.756Z</time></trkpt><trkpt lat="40.7803679" lon="-3.9018161"><ele>1454.1666666666667</ele><time>2026-04-17T11:37:27.756Z</time></trkpt><trkpt lat="40.7803013" lon="-3.9018848"><ele>1453.3333333333333</ele><time>2026-04-17T11:37:28.755Z</time></trkpt><trkpt lat="40.7802262" lon="-3.9019351"><ele>1452.5</ele><time>2026-04-17T11:37:29.756Z</time></trkpt><trkpt lat="40.7801461" lon="-3.9019864"><ele>1451.6666666666665</ele><time>2026-04-17T11:37:30.756Z</time></trkpt><trkpt lat="40.7800677" lon="-3.9020406"><ele>1450.8333333333333</ele><time>2026-04-17T11:37:31.755Z</time></trkpt><trkpt lat="40.7799972" lon="-3.9021017"><ele>1450.0</ele><time>2026-04-17T11:37:32.755Z</time></trkpt><trkpt lat="40.7799361" lon="-3.9021733"><ele>1450.0</ele><time>2026-04-17T11:37:33.755Z</time></trkpt><trkpt lat="40.7798834" lon="-3.9022408"><ele>1450.0</ele><time>2026-04-17T11:37:34.756Z</time></trkpt><trkpt lat="40.7798361" lon="-3.9023268"><ele>1450.0</ele><time>2026-04-17T11:37:35.755Z</time></trkpt><trkpt lat="40.7797921" lon="-3.9024023"><ele>1450.0</ele><time>2026-04-17T11:37:36.756Z</time></trkpt><trkpt lat="40.7797301" lon="-3.9024499"><ele>1450.0</ele><time>2026-04-17T11:37:37.755Z</time></trkpt><trkpt lat="40.7796571" lon="-3.9024917"><ele>1450.0</ele><time>2026-04-17T11:37:38.756Z</time></trkpt><trkpt lat="40.7795878" lon="-3.9025265"><ele>1447.6666666666665</ele><time>2026-04-17T11:37:39.755Z</time></trkpt><trkpt lat="40.7794659" lon="-3.902583"><ele>1445.3333333333333</ele><time>2026-04-17T11:37:41.755Z</time></trkpt><trkpt lat="40.7794088" lon="-3.90263"><ele>1443.0</ele><time>2026-04-17T11:37:42.756Z</time></trkpt><trkpt lat="40.7793564" lon="-3.902688"><ele>1440.6666666666667</ele><time>2026-04-17T11:37:43.755Z</time></trkpt><trkpt lat="40.7793037" lon="-3.9027476"><ele>1438.3333333333335</ele><time>2026-04-17T11:37:44.755Z</time></trkpt><trkpt lat="40.7792502" lon="-3.9028142"><ele>1436.0</ele><time>2026-04-17T11:37:45.755Z</time></trkpt><trkpt lat="40.7791838" lon="-3.9028781"><ele>1436.0</ele><time>2026-04-17T11:37:46.755Z</time></trkpt><trkpt lat="40.7791295" lon="-3.9029515"><ele>1436.0</ele><time>2026-04-17T11:37:47.756Z</time></trkpt><trkpt lat="40.7790715" lon="-3.9030211"><ele>1436.0</ele><time>2026-04-17T11:37:48.755Z</time></trkpt><trkpt lat="40.779029" lon="-3.903108"><ele>1436.0</ele><time>2026-04-17T11:37:49.755Z</time></trkpt><trkpt lat="40.7789751" lon="-3.9031717"><ele>1436.0</ele><time>2026-04-17T11:37:50.755Z</time></trkpt><trkpt lat="40.7789179" lon="-3.9032376"><ele>1436.0</ele><time>2026-04-17T11:37:51.756Z</time></trkpt><trkpt lat="40.7788626" lon="-3.9033124"><ele>1436.0</ele><time>2026-04-17T11:37:52.756Z</time></trkpt><trkpt lat="40.7788094" lon="-3.9033919"><ele>1436.0</ele><time>2026-04-17T11:37:53.756Z</time></trkpt><trkpt lat="40.7787594" lon="-3.9034627"><ele>1436.0</ele><time>2026-04-17T11:37:54.755Z</time></trkpt><trkpt lat="40.7787241" lon="-3.9035562"><ele>1436.0</ele><time>2026-04-17T11:37:55.755Z</time></trkpt><trkpt lat="40.7786882" lon="-3.9036495"><ele>1436.0</ele><time>2026-04-17T11:37:56.756Z</time></trkpt><trkpt lat="40.7786367" lon="-3.903743"><ele>1436.0</ele><time>2026-04-17T11:37:57.756Z</time></trkpt><trkpt lat="40.7785672" lon="-3.9038241"><ele>1436.0</ele><time>2026-04-17T11:37:58.755Z</time></trkpt><trkpt lat="40.7785026" lon="-3.9039017"><ele>1436.0</ele><time>2026-04-17T11:37:59.755Z</time></trkpt><trkpt lat="40.7784412" lon="-3.9039713"><ele>1436.0</ele><time>2026-04-17T11:38:00.755Z</time></trkpt><trkpt lat="40.7783831" lon="-3.9040511"><ele>1436.0</ele><time>2026-04-17T11:38:01.755Z</time></trkpt><trkpt lat="40.7783322" lon="-3.9041419"><ele>1436.0</ele><time>2026-04-17T11:38:02.756Z</time></trkpt><trkpt lat="40.7782903" lon="-3.9042322"><ele>1436.0</ele><time>2026-04-17T11:38:03.756Z</time></trkpt><trkpt lat="40.7782589" lon="-3.9043221"><ele>1436.0</ele><time>2026-04-17T11:38:04.755Z</time></trkpt><trkpt lat="40.7782307" lon="-3.9044142"><ele>1436.0</ele><time>2026-04-17T11:38:05.755Z</time></trkpt><trkpt lat="40.7782087" lon="-3.9045062"><ele>1436.0</ele><time>2026-04-17T11:38:06.755Z</time></trkpt><trkpt lat="40.7781942" lon="-3.90459"><ele>1436.0</ele><time>2026-04-17T11:38:07.755Z</time></trkpt><trkpt lat="40.7781225" lon="-3.9046975"><ele>1436.0</ele><time>2026-04-17T11:38:09.756Z</time></trkpt><trkpt lat="40.7780234" lon="-3.9047562"><ele>1436.0</ele><time>2026-04-17T11:38:11.756Z</time></trkpt><trkpt lat="40.7778997" lon="-3.9048009"><ele>1436.0</ele><time>2026-04-17T11:38:13.756Z</time></trkpt><trkpt lat="40.7777877" lon="-3.9048625"><ele>1436.0</ele><time>2026-04-17T11:38:15.755Z</time></trkpt><trkpt lat="40.7777344" lon="-3.9049069"><ele>1436.0</ele><time>2026-04-17T11:38:16.756Z</time></trkpt><trkpt lat="40.7776742" lon="-3.9049642"><ele>1436.0</ele><time>2026-04-17T11:38:17.756Z</time></trkpt><trkpt lat="40.7776286" lon="-3.9050344"><ele>1436.0</ele><time>2026-04-17T11:38:18.755Z</time></trkpt><trkpt lat="40.7775875" lon="-3.9051007"><ele>1436.0</ele><time>2026-04-17T11:38:19.755Z</time></trkpt><trkpt lat="40.7775283" lon="-3.9052273"><ele>1432.5</ele><time>2026-04-17T11:38:21.755Z</time></trkpt><trkpt lat="40.7774661" lon="-3.9053747"><ele>1429.0</ele><time>2026-04-17T11:38:23.755Z</time></trkpt><trkpt lat="40.7774225" lon="-3.9054874"><ele>1425.5</ele><time>2026-04-17T11:38:24.756Z</time></trkpt><trkpt lat="40.7774123" lon="-3.90558"><ele>1422.0</ele><time>2026-04-17T11:38:25.756Z</time></trkpt><trkpt lat="40.7774032" lon="-3.9056627"><ele>1418.5</ele><time>2026-04-17T11:38:26.755Z</time></trkpt><trkpt lat="40.7773854" lon="-3.9057482"><ele>1415.0</ele><time>2026-04-17T11:38:27.755Z</time></trkpt><trkpt lat="40.7773148" lon="-3.9058629"><ele>1415.0</ele><time>2026-04-17T11:38:29.756Z</time></trkpt><trkpt lat="40.7772507" lon="-3.9058764"><ele>1415.0</ele><time>2026-04-17T11:38:30.756Z</time></trkpt><trkpt lat="40.7771785" lon="-3.9058904"><ele>1415.0</ele><time>2026-04-17T11:38:31.756Z</time></trkpt><trkpt lat="40.7770959" lon="-3.9059054"><ele>1415.0</ele><time>2026-04-17T11:38:32.756Z</time></trkpt><trkpt lat="40.7770085" lon="-3.9059275"><ele>1415.0</ele><time>2026-04-17T11:38:33.755Z</time></trkpt><trkpt lat="40.7769226" lon="-3.9059552"><ele>1415.0</ele><time>2026-04-17T11:38:34.755Z</time></trkpt><trkpt lat="40.7768544" lon="-3.9060144"><ele>1413.6666666666667</ele><time>2026-04-17T11:38:35.755Z</time></trkpt><trkpt lat="40.7767921" lon="-3.9060837"><ele>1412.3333333333335</ele><time>2026-04-17T11:38:36.756Z</time></trkpt><trkpt lat="40.7767362" lon="-3.9061634"><ele>1411.0</ele><time>2026-04-17T11:38:37.756Z</time></trkpt><trkpt lat="40.776703" lon="-3.9062684"><ele>1409.6666666666667</ele><time>2026-04-17T11:38:38.755Z</time></trkpt><trkpt lat="40.7766802" lon="-3.90637"><ele>1408.3333333333333</ele><time>2026-04-17T11:38:39.756Z</time></trkpt><trkpt lat="40.7766509" lon="-3.9064676"><ele>1407.0</ele><time>2026-04-17T11:38:40.756Z</time></trkpt><trkpt lat="40.7766089" lon="-3.9065332"><ele>1407.0</ele><time>2026-04-17T11:38:41.756Z</time></trkpt><trkpt lat="40.7765502" lon="-3.9065792"><ele>1407.0</ele><time>2026-04-17T11:38:42.755Z</time></trkpt><trkpt lat="40.7764385" lon="-3.9066261"><ele>1407.0</ele><time>2026-04-17T11:38:44.755Z</time></trkpt><trkpt lat="40.7763265" lon="-3.9066524"><ele>1407.0</ele><time>2026-04-17T11:38:46.756Z</time></trkpt><trkpt lat="40.7762576" lon="-3.9066861"><ele>1407.0</ele><time>2026-04-17T11:38:47.755Z</time></trkpt><trkpt lat="40.7761931" lon="-3.9067147"><ele>1407.0</ele><time>2026-04-17T11:38:48.755Z</time></trkpt><trkpt lat="40.776101" lon="-3.9067392"><ele>1407.0</ele><time>2026-04-17T11:38:50.756Z</time></trkpt><trkpt lat="40.7760417" lon="-3.9067016"><ele>1407.0</ele><time>2026-04-17T11:38:53.756Z</time></trkpt><trkpt lat="40.7760948" lon="-3.9065835"><ele>1407.0</ele><time>2026-04-17T11:38:55.756Z</time></trkpt><trkpt lat="40.7761597" lon="-3.9064847"><ele>1407.0</ele><time>2026-04-17T11:38:57.755Z</time></trkpt><trkpt lat="40.7762349" lon="-3.9063892"><ele>1407.0</ele><time>2026-04-17T11:38:59.756Z</time></trkpt><trkpt lat="40.7762924" lon="-3.9063193"><ele>1407.0</ele><time>2026-04-17T11:39:01.755Z</time></trkpt><trkpt lat="40.7763721" lon="-3.9062377"><ele>1407.0</ele><time>2026-04-17T11:39:03.755Z</time></trkpt><trkpt lat="40.7764231" lon="-3.9061725"><ele>1407.0</ele><time>2026-04-17T11:39:04.755Z</time></trkpt><trkpt lat="40.7764686" lon="-3.9060566"><ele>1407.0</ele><time>2026-04-17T11:39:05.755Z</time></trkpt><trkpt lat="40.776495" lon="-3.9059329"><ele>1407.0</ele><time>2026-04-17T11:39:06.756Z</time></trkpt><trkpt lat="40.7765151" lon="-3.9058157"><ele>1408.3333333333333</ele><time>2026-04-17T11:39:07.755Z</time></trkpt><trkpt lat="40.7765424" lon="-3.9057132"><ele>1409.6666666666667</ele><time>2026-04-17T11:39:08.755Z</time></trkpt><trkpt lat="40.776576" lon="-3.9056189"><ele>1411.0</ele><time>2026-04-17T11:39:09.756Z</time></trkpt><trkpt lat="40.7766189" lon="-3.90555"><ele>1412.3333333333335</ele><time>2026-04-17T11:39:10.756Z</time></trkpt><trkpt lat="40.7767205" lon="-3.9054486"><ele>1413.6666666666667</ele><time>2026-04-17T11:39:12.755Z</time></trkpt><trkpt lat="40.7768052" lon="-3.905434"><ele>1415.0</ele><time>2026-04-17T11:39:13.755Z</time></trkpt><trkpt lat="40.7768762" lon="-3.905435"><ele>1415.0</ele><time>2026-04-17T11:39:14.756Z</time></trkpt><trkpt lat="40.7769518" lon="-3.90542"><ele>1415.0</ele><time>2026-04-17T11:39:15.755Z</time></trkpt><trkpt lat="40.7770048" lon="-3.9053711"><ele>1415.0</ele><time>2026-04-17T11:39:16.755Z</time></trkpt><trkpt lat="40.77705" lon="-3.905299"><ele>1415.0</ele><time>2026-04-17T11:39:17.755Z</time></trkpt><trkpt lat="40.77708" lon="-3.9052128"><ele>1415.0</ele><time>2026-04-17T11:39:18.756Z</time></trkpt><trkpt lat="40.777079" lon="-3.9051066"><ele>1415.0</ele><time>2026-04-17T11:39:19.756Z</time></trkpt><trkpt lat="40.777064" lon="-3.9049961"><ele>1415.0</ele><time>2026-04-17T11:39:20.756Z</time></trkpt><trkpt lat="40.7770679" lon="-3.9048909"><ele>1413.142857142857</ele><time>2026-04-17T11:39:21.756Z</time></trkpt><trkpt lat="40.7770739" lon="-3.9047974"><ele>1411.2857142857142</ele><time>2026-04-17T11:39:22.755Z</time></trkpt><trkpt lat="40.7770797" lon="-3.9046886"><ele>1409.4285714285716</ele><time>2026-04-17T11:39:23.756Z</time></trkpt><trkpt lat="40.7770829" lon="-3.9045917"><ele>1407.5714285714284</ele><time>2026-04-17T11:39:24.756Z</time></trkpt><trkpt lat="40.777092" lon="-3.9045015"><ele>1405.7142857142856</ele><time>2026-04-17T11:39:25.757Z</time></trkpt><trkpt lat="40.7771155" lon="-3.9044163"><ele>1403.857142857143</ele><time>2026-04-17T11:39:26.757Z</time></trkpt><trkpt lat="40.7771461" lon="-3.9043417"><ele>1402.0</ele><time>2026-04-17T11:39:27.756Z</time></trkpt><trkpt lat="40.7771769" lon="-3.9042485"><ele>1399.1999999999998</ele><time>2026-04-17T11:39:28.757Z</time></trkpt><trkpt lat="40.777222" lon="-3.9041069"><ele>1396.4</ele><time>2026-04-17T11:39:30.757Z</time></trkpt><trkpt lat="40.7771962" lon="-3.9039616"><ele>1393.6</ele><time>2026-04-17T11:39:32.756Z</time></trkpt><trkpt lat="40.7771714" lon="-3.9038838"><ele>1390.8000000000002</ele><time>2026-04-17T11:39:33.756Z</time></trkpt><trkpt lat="40.7771435" lon="-3.9038025"><ele>1388.0</ele><time>2026-04-17T11:39:34.756Z</time></trkpt><trkpt lat="40.7770944" lon="-3.9036696"><ele>1388.0</ele><time>2026-04-17T11:39:36.757Z</time></trkpt><trkpt lat="40.7770368" lon="-3.9035562"><ele>1388.0</ele><time>2026-04-17T11:39:38.756Z</time></trkpt><trkpt lat="40.7769477" lon="-3.903578"><ele>1388.0</ele><time>2026-04-17T11:39:40.757Z</time></trkpt><trkpt lat="40.7768634" lon="-3.9036621"><ele>1388.0</ele><time>2026-04-17T11:39:42.757Z</time></trkpt><trkpt lat="40.776857" lon="-3.9037671"><ele>1388.0</ele><time>2026-04-17T11:39:44.756Z</time></trkpt><trkpt lat="40.7769178" lon="-3.9038318"><ele>1388.0</ele><time>2026-04-17T11:39:46.757Z</time></trkpt><trkpt lat="40.7769873" lon="-3.9039182"><ele>1388.0</ele><time>2026-04-17T11:39:48.756Z</time></trkpt><trkpt lat="40.7770344" lon="-3.9040678"><ele>1388.0</ele><time>2026-04-17T11:39:50.757Z</time></trkpt><trkpt lat="40.7770415" lon="-3.9041647"><ele>1388.0</ele><time>2026-04-17T11:39:51.757Z</time></trkpt><trkpt lat="40.7770425" lon="-3.9042594"><ele>1388.0</ele><time>2026-04-17T11:39:52.756Z</time></trkpt><trkpt lat="40.7770147" lon="-3.9043349"><ele>1388.0</ele><time>2026-04-17T11:39:53.757Z</time></trkpt><trkpt lat="40.7769676" lon="-3.9044083"><ele>1390.8000000000002</ele><time>2026-04-17T11:39:54.757Z</time></trkpt><trkpt lat="40.7769153" lon="-3.9044995"><ele>1393.6</ele><time>2026-04-17T11:39:55.756Z</time></trkpt><trkpt lat="40.7768453" lon="-3.9046497"><ele>1396.4</ele><time>2026-04-17T11:39:57.756Z</time></trkpt><trkpt lat="40.7768205" lon="-3.9047419"><ele>1399.1999999999998</ele><time>2026-04-17T11:39:58.757Z</time></trkpt><trkpt lat="40.7767927" lon="-3.9048366"><ele>1402.0</ele><time>2026-04-17T11:39:59.756Z</time></trkpt><trkpt lat="40.7767459" lon="-3.904924"><ele>1400.1666666666665</ele><time>2026-04-17T11:40:00.757Z</time></trkpt><trkpt lat="40.7766812" lon="-3.9049893"><ele>1398.3333333333333</ele><time>2026-04-17T11:40:01.756Z</time></trkpt><trkpt lat="40.7766177" lon="-3.9050403"><ele>1396.5</ele><time>2026-04-17T11:40:02.756Z</time></trkpt><trkpt lat="40.7765398" lon="-3.9050828"><ele>1394.6666666666667</ele><time>2026-04-17T11:40:03.757Z</time></trkpt><trkpt lat="40.7764375" lon="-3.9051078"><ele>1392.8333333333335</ele><time>2026-04-17T11:40:04.756Z</time></trkpt><trkpt lat="40.7763555" lon="-3.9051212"><ele>1391.0</ele><time>2026-04-17T11:40:05.757Z</time></trkpt><trkpt lat="40.776273" lon="-3.9051462"><ele>1391.0</ele><time>2026-04-17T11:40:06.757Z</time></trkpt><trkpt lat="40.7762029" lon="-3.9051874"><ele>1391.0</ele><time>2026-04-17T11:40:07.756Z</time></trkpt><trkpt lat="40.7761392" lon="-3.9052294"><ele>1391.0</ele><time>2026-04-17T11:40:08.756Z</time></trkpt><trkpt lat="40.7760717" lon="-3.9052778"><ele>1391.0</ele><time>2026-04-17T11:40:09.757Z</time></trkpt><trkpt lat="40.7759989" lon="-3.9053379"><ele>1391.0</ele><time>2026-04-17T11:40:10.756Z</time></trkpt><trkpt lat="40.775922" lon="-3.9054034"><ele>1391.0</ele><time>2026-04-17T11:40:11.756Z</time></trkpt><trkpt lat="40.7758466" lon="-3.9054631"><ele>1387.4</ele><time>2026-04-17T11:40:12.756Z</time></trkpt><trkpt lat="40.7757711" lon="-3.9055229"><ele>1383.8</ele><time>2026-04-17T11:40:13.756Z</time></trkpt><trkpt lat="40.7756995" lon="-3.9055733"><ele>1380.2</ele><time>2026-04-17T11:40:14.757Z</time></trkpt><trkpt lat="40.7755974" lon="-3.9055996"><ele>1376.6000000000001</ele><time>2026-04-17T11:40:16.756Z</time></trkpt><trkpt lat="40.7755159" lon="-3.9056284"><ele>1373.0</ele><time>2026-04-17T11:40:17.756Z</time></trkpt><trkpt lat="40.7754128" lon="-3.905658"><ele>1373.0</ele><time>2026-04-17T11:40:18.757Z</time></trkpt><trkpt lat="40.7752897" lon="-3.905681"><ele>1373.0</ele><time>2026-04-17T11:40:19.757Z</time></trkpt><trkpt lat="40.7751826" lon="-3.9057155"><ele>1373.0</ele><time>2026-04-17T11:40:20.757Z</time></trkpt><trkpt lat="40.7750759" lon="-3.9057541"><ele>1373.0</ele><time>2026-04-17T11:40:21.756Z</time></trkpt><trkpt lat="40.7749679" lon="-3.9057935"><ele>1372.5</ele><time>2026-04-17T11:40:22.756Z</time></trkpt><trkpt lat="40.7748596" lon="-3.9058351"><ele>1372.0</ele><time>2026-04-17T11:40:23.757Z</time></trkpt><trkpt lat="40.7747414" lon="-3.9058777"><ele>1371.5</ele><time>2026-04-17T11:40:24.757Z</time></trkpt><trkpt lat="40.7746345" lon="-3.9059253"><ele>1371.0</ele><time>2026-04-17T11:40:25.757Z</time></trkpt><trkpt lat="40.7745236" lon="-3.9059689"><ele>1371.0</ele><time>2026-04-17T11:40:26.756Z</time></trkpt><trkpt lat="40.7744243" lon="-3.9060084"><ele>1371.0</ele><time>2026-04-17T11:40:27.756Z</time></trkpt><trkpt lat="40.7743203" lon="-3.9060481"><ele>1371.0</ele><time>2026-04-17T11:40:28.757Z</time></trkpt><trkpt lat="40.7742193" lon="-3.9060872"><ele>1371.0</ele><time>2026-04-17T11:40:29.756Z</time></trkpt><trkpt lat="40.7741139" lon="-3.9061266"><ele>1371.0</ele><time>2026-04-17T11:40:30.757Z</time></trkpt><trkpt lat="40.7740126" lon="-3.9061726"><ele>1366.4</ele><time>2026-04-17T11:40:31.757Z</time></trkpt><trkpt lat="40.773929" lon="-3.9062407"><ele>1361.8</ele><time>2026-04-17T11:40:32.756Z</time></trkpt><trkpt lat="40.7738666" lon="-3.9063084"><ele>1357.2</ele><time>2026-04-17T11:40:33.757Z</time></trkpt><trkpt lat="40.773811" lon="-3.9064182"><ele>1352.6000000000001</ele><time>2026-04-17T11:40:34.756Z</time></trkpt><trkpt lat="40.7737776" lon="-3.9065356"><ele>1348.0</ele><time>2026-04-17T11:40:35.757Z</time></trkpt><trkpt lat="40.7737734" lon="-3.9066429"><ele>1346.6666666666665</ele><time>2026-04-17T11:40:36.757Z</time></trkpt><trkpt lat="40.7737824" lon="-3.9067487"><ele>1345.3333333333333</ele><time>2026-04-17T11:40:37.756Z</time></trkpt><trkpt lat="40.7738005" lon="-3.9068991"><ele>1344.0</ele><time>2026-04-17T11:40:39.757Z</time></trkpt><trkpt lat="40.7738308" lon="-3.9069755"><ele>1342.6666666666667</ele><time>2026-04-17T11:40:40.757Z</time></trkpt><trkpt lat="40.7738692" lon="-3.9070449"><ele>1341.3333333333335</ele><time>2026-04-17T11:40:41.756Z</time></trkpt><trkpt lat="40.7739402" lon="-3.9071647"><ele>1340.0</ele><time>2026-04-17T11:40:43.757Z</time></trkpt><trkpt lat="40.7740016" lon="-3.9072997"><ele>1340.0</ele><time>2026-04-17T11:40:45.756Z</time></trkpt><trkpt lat="40.7740329" lon="-3.9073758"><ele>1340.0</ele><time>2026-04-17T11:40:46.756Z</time></trkpt><trkpt lat="40.7740644" lon="-3.9074702"><ele>1340.0</ele><time>2026-04-17T11:40:47.757Z</time></trkpt><trkpt lat="40.774094" lon="-3.9075831"><ele>1340.0</ele><time>2026-04-17T11:40:48.757Z</time></trkpt><trkpt lat="40.7741191" lon="-3.9077119"><ele>1340.0</ele><time>2026-04-17T11:40:49.756Z</time></trkpt><trkpt lat="40.7741289" lon="-3.9078373"><ele>1340.0</ele><time>2026-04-17T11:40:50.757Z</time></trkpt><trkpt lat="40.7741357" lon="-3.9079494"><ele>1338.0</ele><time>2026-04-17T11:40:51.757Z</time></trkpt><trkpt lat="40.7741385" lon="-3.9080777"><ele>1336.0</ele><time>2026-04-17T11:40:52.756Z</time></trkpt><trkpt lat="40.774138" lon="-3.9081994"><ele>1334.0</ele><time>2026-04-17T11:40:53.757Z</time></trkpt><trkpt lat="40.7741436" lon="-3.9083147"><ele>1332.0</ele><time>2026-04-17T11:40:54.756Z</time></trkpt><trkpt lat="40.774144" lon="-3.908444"><ele>1330.0</ele><time>2026-04-17T11:40:55.756Z</time></trkpt><trkpt lat="40.7741598" lon="-3.9085574"><ele>1328.2</ele><time>2026-04-17T11:40:56.757Z</time></trkpt><trkpt lat="40.774187" lon="-3.9086638"><ele>1326.4</ele><time>2026-04-17T11:40:57.756Z</time></trkpt><trkpt lat="40.7742141" lon="-3.9087816"><ele>1324.6</ele><time>2026-04-17T11:40:58.756Z</time></trkpt><trkpt lat="40.7742405" lon="-3.9089036"><ele>1322.8</ele><time>2026-04-17T11:40:59.757Z</time></trkpt><trkpt lat="40.7742763" lon="-3.9090204"><ele>1321.0</ele><time>2026-04-17T11:41:00.757Z</time></trkpt><trkpt lat="40.7743097" lon="-3.9091283"><ele>1321.0</ele><time>2026-04-17T11:41:01.756Z</time></trkpt><trkpt lat="40.7743471" lon="-3.909231"><ele>1321.0</ele><time>2026-04-17T11:41:02.756Z</time></trkpt><trkpt lat="40.7743797" lon="-3.9093268"><ele>1321.0</ele><time>2026-04-17T11:41:03.756Z</time></trkpt><trkpt lat="40.7744088" lon="-3.9094108"><ele>1321.0</ele><time>2026-04-17T11:41:04.757Z</time></trkpt><trkpt lat="40.7744292" lon="-3.9094975"><ele>1321.0</ele><time>2026-04-17T11:41:05.757Z</time></trkpt><trkpt lat="40.7744547" lon="-3.909615"><ele>1321.0</ele><time>2026-04-17T11:41:07.756Z</time></trkpt><trkpt lat="40.7744167" lon="-3.9096931"><ele>1321.0</ele><time>2026-04-17T11:41:09.757Z</time></trkpt><trkpt lat="40.7743498" lon="-3.9096615"><ele>1321.0</ele><time>2026-04-17T11:41:11.756Z</time></trkpt><trkpt lat="40.7742985" lon="-3.9095072"><ele>1321.0</ele><time>2026-04-17T11:41:13.756Z</time></trkpt><trkpt lat="40.7742721" lon="-3.9094284"><ele>1321.0</ele><time>2026-04-17T11:41:14.757Z</time></trkpt><trkpt lat="40.7742131" lon="-3.9093005"><ele>1321.0</ele><time>2026-04-17T11:41:16.757Z</time></trkpt><trkpt lat="40.7741712" lon="-3.9092129"><ele>1321.0</ele><time>2026-04-17T11:41:17.756Z</time></trkpt><trkpt lat="40.7741181" lon="-3.9091223"><ele>1321.0</ele><time>2026-04-17T11:41:18.756Z</time></trkpt><trkpt lat="40.7740576" lon="-3.909015"><ele>1321.0</ele><time>2026-04-17T11:41:19.756Z</time></trkpt><trkpt lat="40.7740105" lon="-3.908875"><ele>1321.0</ele><time>2026-04-17T11:41:20.757Z</time></trkpt><trkpt lat="40.7739639" lon="-3.9087239"><ele>1321.0</ele><time>2026-04-17T11:41:21.757Z</time></trkpt><trkpt lat="40.7739278" lon="-3.9086014"><ele>1321.0</ele><time>2026-04-17T11:41:22.756Z</time></trkpt><trkpt lat="40.7739104" lon="-3.9084974"><ele>1321.0</ele><time>2026-04-17T11:41:23.757Z</time></trkpt><trkpt lat="40.7738964" lon="-3.9084131"><ele>1321.0</ele><time>2026-04-17T11:41:24.756Z</time></trkpt><trkpt lat="40.7738914" lon="-3.9083245"><ele>1321.0</ele><time>2026-04-17T11:41:25.756Z</time></trkpt><trkpt lat="40.7738483" lon="-3.9082196"><ele>1321.0</ele><time>2026-04-17T11:41:26.756Z</time></trkpt><trkpt lat="40.7737855" lon="-3.9081171"><ele>1321.0</ele><time>2026-04-17T11:41:27.757Z</time></trkpt><trkpt lat="40.7737133" lon="-3.9080202"><ele>1319.4</ele><time>2026-04-17T11:41:28.756Z</time></trkpt><trkpt lat="40.7736492" lon="-3.9079061"><ele>1317.8</ele><time>2026-04-17T11:41:29.756Z</time></trkpt><trkpt lat="40.7735733" lon="-3.9078129"><ele>1316.2</ele><time>2026-04-17T11:41:30.756Z</time></trkpt><trkpt lat="40.7734896" lon="-3.9077276"><ele>1314.6000000000001</ele><time>2026-04-17T11:41:31.756Z</time></trkpt><trkpt lat="40.7734066" lon="-3.9076254"><ele>1313.0</ele><time>2026-04-17T11:41:32.757Z</time></trkpt><trkpt lat="40.7733133" lon="-3.9075659"><ele>1313.0</ele><time>2026-04-17T11:41:33.757Z</time></trkpt><trkpt lat="40.7732159" lon="-3.9075131"><ele>1313.0</ele><time>2026-04-17T11:41:34.756Z</time></trkpt><trkpt lat="40.7731144" lon="-3.9074647"><ele>1313.0</ele><time>2026-04-17T11:41:35.756Z</time></trkpt><trkpt lat="40.7730201" lon="-3.9074271"><ele>1313.0</ele><time>2026-04-17T11:41:36.756Z</time></trkpt><trkpt lat="40.7729265" lon="-3.9073685"><ele>1313.0</ele><time>2026-04-17T11:41:37.757Z</time></trkpt><trkpt lat="40.7728509" lon="-3.9072811"><ele>1313.0</ele><time>2026-04-17T11:41:38.756Z</time></trkpt><trkpt lat="40.772781" lon="-3.9071777"><ele>1313.0</ele><time>2026-04-17T11:41:39.756Z</time></trkpt><trkpt lat="40.7727397" lon="-3.9070662"><ele>1313.0</ele><time>2026-04-17T11:41:40.757Z</time></trkpt><trkpt lat="40.7727102" lon="-3.906973"><ele>1313.0</ele><time>2026-04-17T11:41:41.756Z</time></trkpt><trkpt lat="40.772699" lon="-3.9068313"><ele>1313.0</ele><time>2026-04-17T11:41:43.757Z</time></trkpt><trkpt lat="40.7726752" lon="-3.9067413"><ele>1309.4</ele><time>2026-04-17T11:41:45.756Z</time></trkpt><trkpt lat="40.772589" lon="-3.9067419"><ele>1305.8000000000002</ele><time>2026-04-17T11:41:47.756Z</time></trkpt><trkpt lat="40.7725159" lon="-3.9067768"><ele>1302.2</ele><time>2026-04-17T11:41:49.756Z</time></trkpt><trkpt lat="40.7724651" lon="-3.9069202"><ele>1298.6</ele><time>2026-04-17T11:41:51.756Z</time></trkpt><trkpt lat="40.7724399" lon="-3.9070859"><ele>1295.0</ele><time>2026-04-17T11:41:53.757Z</time></trkpt><trkpt lat="40.772424" lon="-3.9071816"><ele>1295.0</ele><time>2026-04-17T11:41:54.756Z</time></trkpt><trkpt lat="40.7724205" lon="-3.9072712"><ele>1295.0</ele><time>2026-04-17T11:41:55.756Z</time></trkpt><trkpt lat="40.7724741" lon="-3.9074195"><ele>1295.0</ele><time>2026-04-17T11:41:57.756Z</time></trkpt><trkpt lat="40.7725226" lon="-3.9074806"><ele>1295.0</ele><time>2026-04-17T11:41:58.756Z</time></trkpt><trkpt lat="40.7725764" lon="-3.9075348"><ele>1295.0</ele><time>2026-04-17T11:41:59.756Z</time></trkpt><trkpt lat="40.7726301" lon="-3.9075974"><ele>1295.0</ele><time>2026-04-17T11:42:00.756Z</time></trkpt><trkpt lat="40.7726907" lon="-3.9076478"><ele>1295.0</ele><time>2026-04-17T11:42:01.756Z</time></trkpt><trkpt lat="40.772755" lon="-3.9077008"><ele>1295.0</ele><time>2026-04-17T11:42:02.756Z</time></trkpt><trkpt lat="40.7728192" lon="-3.9077711"><ele>1295.0</ele><time>2026-04-17T11:42:03.757Z</time></trkpt><trkpt lat="40.7728951" lon="-3.9078543"><ele>1295.0</ele><time>2026-04-17T11:42:04.756Z</time></trkpt><trkpt lat="40.7729586" lon="-3.9079272"><ele>1295.0</ele><time>2026-04-17T11:42:05.757Z</time></trkpt><trkpt lat="40.7730177" lon="-3.9080002"><ele>1295.0</ele><time>2026-04-17T11:42:06.756Z</time></trkpt><trkpt lat="40.7730877" lon="-3.9080818"><ele>1295.0</ele><time>2026-04-17T11:42:07.757Z</time></trkpt><trkpt lat="40.7731426" lon="-3.9081601"><ele>1295.0</ele><time>2026-04-17T11:42:08.756Z</time></trkpt><trkpt lat="40.7732005" lon="-3.9082394"><ele>1295.0</ele><time>2026-04-17T11:42:09.756Z</time></trkpt><trkpt lat="40.7732635" lon="-3.908323"><ele>1295.0</ele><time>2026-04-17T11:42:10.756Z</time></trkpt><trkpt lat="40.7733256" lon="-3.9084019"><ele>1295.0</ele><time>2026-04-17T11:42:11.757Z</time></trkpt><trkpt lat="40.7733749" lon="-3.9084988"><ele>1295.0</ele><time>2026-04-17T11:42:12.756Z</time></trkpt><trkpt lat="40.7734005" lon="-3.9086139"><ele>1292.4</ele><time>2026-04-17T11:42:13.757Z</time></trkpt><trkpt lat="40.7734104" lon="-3.9087319"><ele>1289.8</ele><time>2026-04-17T11:42:14.756Z</time></trkpt><trkpt lat="40.7734115" lon="-3.9088432"><ele>1287.1999999999998</ele><time>2026-04-17T11:42:15.757Z</time></trkpt><trkpt lat="40.7734075" lon="-3.9089622"><ele>1284.6</ele><time>2026-04-17T11:42:16.756Z</time></trkpt><trkpt lat="40.7733993" lon="-3.9090901"><ele>1282.0</ele><time>2026-04-17T11:42:17.757Z</time></trkpt><trkpt lat="40.7734019" lon="-3.9092279"><ele>1280.5</ele><time>2026-04-17T11:42:18.756Z</time></trkpt><trkpt lat="40.7734074" lon="-3.9093846"><ele>1279.0</ele><time>2026-04-17T11:42:19.756Z</time></trkpt><trkpt lat="40.7734087" lon="-3.9095424"><ele>1277.5</ele><time>2026-04-17T11:42:20.757Z</time></trkpt><trkpt lat="40.7734067" lon="-3.9096923"><ele>1276.0</ele><time>2026-04-17T11:42:21.756Z</time></trkpt><trkpt lat="40.7734032" lon="-3.9098309"><ele>1276.0</ele><time>2026-04-17T11:42:22.756Z</time></trkpt><trkpt lat="40.7733988" lon="-3.9099782"><ele>1276.0</ele><time>2026-04-17T11:42:23.756Z</time></trkpt><trkpt lat="40.7733992" lon="-3.9101169"><ele>1276.0</ele><time>2026-04-17T11:42:24.757Z</time></trkpt><trkpt lat="40.7734119" lon="-3.9102375"><ele>1276.0</ele><time>2026-04-17T11:42:25.757Z</time></trkpt><trkpt lat="40.7734447" lon="-3.9103304"><ele>1276.0</ele><time>2026-04-17T11:42:26.757Z</time></trkpt><trkpt lat="40.773463" lon="-3.9104229"><ele>1277.6</ele><time>2026-04-17T11:42:27.756Z</time></trkpt><trkpt lat="40.7733958" lon="-3.9105642"><ele>1279.1999999999998</ele><time>2026-04-17T11:42:29.756Z</time></trkpt><trkpt lat="40.7733386" lon="-3.9106142"><ele>1280.8000000000002</ele><time>2026-04-17T11:42:30.756Z</time></trkpt><trkpt lat="40.7732676" lon="-3.9106911"><ele>1282.4</ele><time>2026-04-17T11:42:31.757Z</time></trkpt><trkpt lat="40.7732085" lon="-3.9107739"><ele>1284.0</ele><time>2026-04-17T11:42:32.757Z</time></trkpt><trkpt lat="40.7731533" lon="-3.91087"><ele>1284.6666666666667</ele><time>2026-04-17T11:42:33.756Z</time></trkpt><trkpt lat="40.7730952" lon="-3.9109604"><ele>1285.3333333333333</ele><time>2026-04-17T11:42:34.756Z</time></trkpt><trkpt lat="40.7730341" lon="-3.9110518"><ele>1286.0</ele><time>2026-04-17T11:42:35.756Z</time></trkpt><trkpt lat="40.7729688" lon="-3.9111223"><ele>1286.6666666666665</ele><time>2026-04-17T11:42:36.756Z</time></trkpt><trkpt lat="40.772917" lon="-3.9111954"><ele>1287.3333333333333</ele><time>2026-04-17T11:42:37.756Z</time></trkpt><trkpt lat="40.7728837" lon="-3.9112796"><ele>1288.0</ele><time>2026-04-17T11:42:38.757Z</time></trkpt><trkpt lat="40.7728596" lon="-3.911382"><ele>1288.0</ele><time>2026-04-17T11:42:39.756Z</time></trkpt><trkpt lat="40.7728437" lon="-3.9114926"><ele>1288.0</ele><time>2026-04-17T11:42:40.756Z</time></trkpt><trkpt lat="40.7728396" lon="-3.9115961"><ele>1288.0</ele><time>2026-04-17T11:42:41.756Z</time></trkpt><trkpt lat="40.772835" lon="-3.9116975"><ele>1288.0</ele><time>2026-04-17T11:42:42.757Z</time></trkpt><trkpt lat="40.7728427" lon="-3.9117929"><ele>1288.0</ele><time>2026-04-17T11:42:43.756Z</time></trkpt><trkpt lat="40.7728564" lon="-3.9118858"><ele>1288.0</ele><time>2026-04-17T11:42:44.757Z</time></trkpt><trkpt lat="40.7728885" lon="-3.9119731"><ele>1286.142857142857</ele><time>2026-04-17T11:42:45.756Z</time></trkpt><trkpt lat="40.7729353" lon="-3.9120519"><ele>1284.2857142857142</ele><time>2026-04-17T11:42:46.756Z</time></trkpt><trkpt lat="40.772973" lon="-3.9121255"><ele>1282.4285714285716</ele><time>2026-04-17T11:42:47.756Z</time></trkpt><trkpt lat="40.7730095" lon="-3.9122068"><ele>1280.5714285714284</ele><time>2026-04-17T11:42:48.757Z</time></trkpt><trkpt lat="40.7730365" lon="-3.9122829"><ele>1278.7142857142858</ele><time>2026-04-17T11:42:49.756Z</time></trkpt><trkpt lat="40.7730722" lon="-3.9124095"><ele>1276.857142857143</ele><time>2026-04-17T11:42:51.756Z</time></trkpt><trkpt lat="40.7730527" lon="-3.9124935"><ele>1275.0</ele><time>2026-04-17T11:42:53.756Z</time></trkpt><trkpt lat="40.7729758" lon="-3.9124686"><ele>1275.0</ele><time>2026-04-17T11:42:55.757Z</time></trkpt><trkpt lat="40.7729254" lon="-3.9124146"><ele>1275.0</ele><time>2026-04-17T11:42:56.757Z</time></trkpt><trkpt lat="40.7728686" lon="-3.9123618"><ele>1275.0</ele><time>2026-04-17T11:42:57.757Z</time></trkpt><trkpt lat="40.7727932" lon="-3.9122796"><ele>1275.0</ele><time>2026-04-17T11:42:58.757Z</time></trkpt><trkpt lat="40.7727218" lon="-3.9121785"><ele>1275.0</ele><time>2026-04-17T11:42:59.756Z</time></trkpt><trkpt lat="40.7726588" lon="-3.9120617"><ele>1275.0</ele><time>2026-04-17T11:43:00.756Z</time></trkpt><trkpt lat="40.7725996" lon="-3.9119314"><ele>1270.8</ele><time>2026-04-17T11:43:01.757Z</time></trkpt><trkpt lat="40.7725434" lon="-3.9118117"><ele>1266.6</ele><time>2026-04-17T11:43:02.756Z</time></trkpt><trkpt lat="40.7724998" lon="-3.9116962"><ele>1262.4</ele><time>2026-04-17T11:43:03.757Z</time></trkpt><trkpt lat="40.7724623" lon="-3.9115681"><ele>1258.2</ele><time>2026-04-17T11:43:04.756Z</time></trkpt><trkpt lat="40.7724276" lon="-3.9114383"><ele>1254.0</ele><time>2026-04-17T11:43:05.757Z</time></trkpt><trkpt lat="40.7724046" lon="-3.9113025"><ele>1254.0</ele><time>2026-04-17T11:43:06.756Z</time></trkpt><trkpt lat="40.772383" lon="-3.9111716"><ele>1254.0</ele><time>2026-04-17T11:43:07.756Z</time></trkpt><trkpt lat="40.7723741" lon="-3.911038"><ele>1254.0</ele><time>2026-04-17T11:43:08.756Z</time></trkpt><trkpt lat="40.7723655" lon="-3.910928"><ele>1254.0</ele><time>2026-04-17T11:43:09.756Z</time></trkpt><trkpt lat="40.7723477" lon="-3.9108345"><ele>1254.0</ele><time>2026-04-17T11:43:10.757Z</time></trkpt><trkpt lat="40.772338" lon="-3.9106732"><ele>1254.1666666666667</ele><time>2026-04-17T11:43:12.757Z</time></trkpt><trkpt lat="40.7724013" lon="-3.9105157"><ele>1254.3333333333333</ele><time>2026-04-17T11:43:14.757Z</time></trkpt><trkpt lat="40.7724461" lon="-3.9104406"><ele>1254.5</ele><time>2026-04-17T11:43:15.756Z</time></trkpt><trkpt lat="40.7724955" lon="-3.9103805"><ele>1254.6666666666665</ele><time>2026-04-17T11:43:16.757Z</time></trkpt><trkpt lat="40.7725537" lon="-3.9103303"><ele>1254.8333333333333</ele><time>2026-04-17T11:43:17.756Z</time></trkpt><trkpt lat="40.7726072" lon="-3.9102856"><ele>1255.0</ele><time>2026-04-17T11:43:18.756Z</time></trkpt><trkpt lat="40.7726695" lon="-3.9102269"><ele>1253.0</ele><time>2026-04-17T11:43:19.756Z</time></trkpt><trkpt lat="40.7727576" lon="-3.9100971"><ele>1251.0</ele><time>2026-04-17T11:43:21.757Z</time></trkpt><trkpt lat="40.772765" lon="-3.9100123"><ele>1249.0</ele><time>2026-04-17T11:43:22.757Z</time></trkpt><trkpt lat="40.7727297" lon="-3.9098533"><ele>1247.0</ele><time>2026-04-17T11:43:24.757Z</time></trkpt><trkpt lat="40.7726846" lon="-3.9097744"><ele>1245.0</ele><time>2026-04-17T11:43:25.757Z</time></trkpt><trkpt lat="40.772624" lon="-3.9096941"><ele>1245.0</ele><time>2026-04-17T11:43:26.757Z</time></trkpt><trkpt lat="40.7725725" lon="-3.9096159"><ele>1245.0</ele><time>2026-04-17T11:43:27.756Z</time></trkpt><trkpt lat="40.7725083" lon="-3.9095464"><ele>1245.0</ele><time>2026-04-17T11:43:28.757Z</time></trkpt><trkpt lat="40.7724363" lon="-3.9094914"><ele>1245.0</ele><time>2026-04-17T11:43:29.757Z</time></trkpt><trkpt lat="40.7723478" lon="-3.9094559"><ele>1245.0</ele><time>2026-04-17T11:43:30.756Z</time></trkpt><trkpt lat="40.7722631" lon="-3.9094369"><ele>1245.0</ele><time>2026-04-17T11:43:31.757Z</time></trkpt><trkpt lat="40.7721761" lon="-3.9094278"><ele>1245.0</ele><time>2026-04-17T11:43:32.756Z</time></trkpt><trkpt lat="40.7720859" lon="-3.9094204"><ele>1245.0</ele><time>2026-04-17T11:43:33.757Z</time></trkpt><trkpt lat="40.771995" lon="-3.9093921"><ele>1245.0</ele><time>2026-04-17T11:43:34.756Z</time></trkpt><trkpt lat="40.771903" lon="-3.9093528"><ele>1245.0</ele><time>2026-04-17T11:43:35.757Z</time></trkpt><trkpt lat="40.7718141" lon="-3.9093232"><ele>1245.0</ele><time>2026-04-17T11:43:36.756Z</time></trkpt><trkpt lat="40.7717365" lon="-3.9093018"><ele>1241.0</ele><time>2026-04-17T11:43:37.756Z</time></trkpt><trkpt lat="40.7716464" lon="-3.9092844"><ele>1237.0</ele><time>2026-04-17T11:43:39.756Z</time></trkpt><trkpt lat="40.77158" lon="-3.9093352"><ele>1233.0</ele><time>2026-04-17T11:43:42.757Z</time></trkpt><trkpt lat="40.7715725" lon="-3.9094226"><ele>1229.0</ele><time>2026-04-17T11:43:45.756Z</time></trkpt><trkpt lat="40.7716333" lon="-3.9095107"><ele>1225.0</ele><time>2026-04-17T11:43:49.756Z</time></trkpt><trkpt lat="40.7717038" lon="-3.9096033"><ele>1221.0</ele><time>2026-04-17T11:43:52.757Z</time></trkpt><trkpt lat="40.7718406" lon="-3.9097055"><ele>1225.0</ele><time>2026-04-17T11:43:54.756Z</time></trkpt><trkpt lat="40.77192" lon="-3.9097504"><ele>1229.0</ele><time>2026-04-17T11:43:55.756Z</time></trkpt><trkpt lat="40.7719849" lon="-3.9098034"><ele>1233.0</ele><time>2026-04-17T11:43:56.757Z</time></trkpt><trkpt lat="40.7720437" lon="-3.9098658"><ele>1237.0</ele><time>2026-04-17T11:43:57.757Z</time></trkpt><trkpt lat="40.7720484" lon="-3.9099722"><ele>1241.0</ele><time>2026-04-17T11:43:59.756Z</time></trkpt><trkpt lat="40.7719905" lon="-3.9100319"><ele>1245.0</ele><time>2026-04-17T11:44:00.756Z</time></trkpt><trkpt lat="40.7719121" lon="-3.9100825"><ele>1241.1666666666667</ele><time>2026-04-17T11:44:01.756Z</time></trkpt><trkpt lat="40.7718313" lon="-3.910121"><ele>1237.3333333333333</ele><time>2026-04-17T11:44:02.757Z</time></trkpt><trkpt lat="40.7717453" lon="-3.9101805"><ele>1233.5</ele><time>2026-04-17T11:44:03.756Z</time></trkpt><trkpt lat="40.7716815" lon="-3.9102493"><ele>1229.6666666666665</ele><time>2026-04-17T11:44:04.757Z</time></trkpt><trkpt lat="40.7716392" lon="-3.9103283"><ele>1225.8333333333333</ele><time>2026-04-17T11:44:05.756Z</time></trkpt><trkpt lat="40.7716176" lon="-3.9104399"><ele>1222.0</ele><time>2026-04-17T11:44:06.757Z</time></trkpt><trkpt lat="40.7716116" lon="-3.9105988"><ele>1222.0</ele><time>2026-04-17T11:44:07.756Z</time></trkpt><trkpt lat="40.771618" lon="-3.9107498"><ele>1222.0</ele><time>2026-04-17T11:44:08.756Z</time></trkpt><trkpt lat="40.7716121" lon="-3.9108855"><ele>1222.0</ele><time>2026-04-17T11:44:09.756Z</time></trkpt><trkpt lat="40.7716158" lon="-3.9110125"><ele>1222.0</ele><time>2026-04-17T11:44:10.756Z</time></trkpt><trkpt lat="40.7716056" lon="-3.9111268"><ele>1222.0</ele><time>2026-04-17T11:44:11.756Z</time></trkpt><trkpt lat="40.7715984" lon="-3.9112109"><ele>1222.4</ele><time>2026-04-17T11:44:12.756Z</time></trkpt><trkpt lat="40.7715596" lon="-3.9113186"><ele>1222.8000000000002</ele><time>2026-04-17T11:44:14.757Z</time></trkpt><trkpt lat="40.7714994" lon="-3.9113798"><ele>1223.2</ele><time>2026-04-17T11:44:16.757Z</time></trkpt><trkpt lat="40.7714165" lon="-3.911358"><ele>1223.6000000000001</ele><time>2026-04-17T11:44:18.756Z</time></trkpt><trkpt lat="40.7713359" lon="-3.9112905"><ele>1224.0</ele><time>2026-04-17T11:44:20.756Z</time></trkpt><trkpt lat="40.7712688" lon="-3.9111865"><ele>1224.0</ele><time>2026-04-17T11:44:22.756Z</time></trkpt><trkpt lat="40.7712328" lon="-3.9111142"><ele>1224.0</ele><time>2026-04-17T11:44:23.756Z</time></trkpt><trkpt lat="40.7711839" lon="-3.911027"><ele>1224.0</ele><time>2026-04-17T11:44:24.756Z</time></trkpt><trkpt lat="40.7711283" lon="-3.9109311"><ele>1224.0</ele><time>2026-04-17T11:44:25.756Z</time></trkpt><trkpt lat="40.7710772" lon="-3.9108322"><ele>1224.0</ele><time>2026-04-17T11:44:26.757Z</time></trkpt><trkpt lat="40.77102" lon="-3.9107296"><ele>1224.0</ele><time>2026-04-17T11:44:27.756Z</time></trkpt><trkpt lat="40.7709557" lon="-3.9106182"><ele>1223.8</ele><time>2026-04-17T11:44:28.756Z</time></trkpt><trkpt lat="40.7708923" lon="-3.9105172"><ele>1223.6000000000001</ele><time>2026-04-17T11:44:29.756Z</time></trkpt><trkpt lat="40.7708183" lon="-3.9104118"><ele>1223.4</ele><time>2026-04-17T11:44:30.757Z</time></trkpt><trkpt lat="40.7707326" lon="-3.9103111"><ele>1223.2</ele><time>2026-04-17T11:44:31.757Z</time></trkpt><trkpt lat="40.7706404" lon="-3.9102107"><ele>1223.0</ele><time>2026-04-17T11:44:32.756Z</time></trkpt><trkpt lat="40.7705453" lon="-3.9101118"><ele>1222.2</ele><time>2026-04-17T11:44:33.757Z</time></trkpt><trkpt lat="40.7704586" lon="-3.9100327"><ele>1221.4</ele><time>2026-04-17T11:44:34.757Z</time></trkpt><trkpt lat="40.7703841" lon="-3.9099712"><ele>1220.6000000000001</ele><time>2026-04-17T11:44:35.756Z</time></trkpt><trkpt lat="40.7703105" lon="-3.9099189"><ele>1219.8</ele><time>2026-04-17T11:44:36.756Z</time></trkpt><trkpt lat="40.7702352" lon="-3.9098649"><ele>1219.0</ele><time>2026-04-17T11:44:37.757Z</time></trkpt><trkpt lat="40.7701594" lon="-3.909808"><ele>1219.0</ele><time>2026-04-17T11:44:38.757Z</time></trkpt><trkpt lat="40.7700724" lon="-3.9097502"><ele>1219.0</ele><time>2026-04-17T11:44:39.756Z</time></trkpt><trkpt lat="40.7699786" lon="-3.9097045"><ele>1219.0</ele><time>2026-04-17T11:44:40.756Z</time></trkpt><trkpt lat="40.7698835" lon="-3.9096612"><ele>1219.0</ele><time>2026-04-17T11:44:41.757Z</time></trkpt><trkpt lat="40.7697921" lon="-3.909605"><ele>1219.0</ele><time>2026-04-17T11:44:42.756Z</time></trkpt><trkpt lat="40.7697075" lon="-3.9095308"><ele>1219.0</ele><time>2026-04-17T11:44:43.756Z</time></trkpt><trkpt lat="40.7696273" lon="-3.9094427"><ele>1219.0</ele><time>2026-04-17T11:44:44.756Z</time></trkpt><trkpt lat="40.7695444" lon="-3.9093764"><ele>1219.0</ele><time>2026-04-17T11:44:45.756Z</time></trkpt><trkpt lat="40.7694582" lon="-3.9093071"><ele>1219.0</ele><time>2026-04-17T11:44:46.756Z</time></trkpt><trkpt lat="40.769366" lon="-3.9092442"><ele>1219.0</ele><time>2026-04-17T11:44:47.756Z</time></trkpt><trkpt lat="40.7692657" lon="-3.9091901"><ele>1216.4</ele><time>2026-04-17T11:44:48.757Z</time></trkpt><trkpt lat="40.7691661" lon="-3.9091425"><ele>1213.8000000000002</ele><time>2026-04-17T11:44:49.756Z</time></trkpt><trkpt lat="40.7690674" lon="-3.9090891"><ele>1211.1999999999998</ele><time>2026-04-17T11:44:50.757Z</time></trkpt><trkpt lat="40.7689789" lon="-3.9090383"><ele>1208.6</ele><time>2026-04-17T11:44:51.756Z</time></trkpt><trkpt lat="40.7688994" lon="-3.9089722"><ele>1206.0</ele><time>2026-04-17T11:44:52.757Z</time></trkpt><trkpt lat="40.7688255" lon="-3.9089171"><ele>1206.0</ele><time>2026-04-17T11:44:53.756Z</time></trkpt><trkpt lat="40.7687489" lon="-3.9088869"><ele>1206.0</ele><time>2026-04-17T11:44:54.757Z</time></trkpt><trkpt lat="40.7686655" lon="-3.9088742"><ele>1206.0</ele><time>2026-04-17T11:44:55.756Z</time></trkpt><trkpt lat="40.7685856" lon="-3.9088834"><ele>1206.0</ele><time>2026-04-17T11:44:56.757Z</time></trkpt><trkpt lat="40.7685077" lon="-3.9088765"><ele>1206.0</ele><time>2026-04-17T11:44:57.757Z</time></trkpt><trkpt lat="40.7684251" lon="-3.9088673"><ele>1206.0</ele><time>2026-04-17T11:44:58.756Z</time></trkpt><trkpt lat="40.7683464" lon="-3.9088558"><ele>1207.3333333333333</ele><time>2026-04-17T11:44:59.756Z</time></trkpt><trkpt lat="40.7682549" lon="-3.9088492"><ele>1208.6666666666667</ele><time>2026-04-17T11:45:00.756Z</time></trkpt><trkpt lat="40.768159" lon="-3.9088482"><ele>1210.0</ele><time>2026-04-17T11:45:01.757Z</time></trkpt><trkpt lat="40.768073" lon="-3.9088157"><ele>1211.3333333333335</ele><time>2026-04-17T11:45:02.756Z</time></trkpt><trkpt lat="40.7679941" lon="-3.9088111"><ele>1212.6666666666667</ele><time>2026-04-17T11:45:03.757Z</time></trkpt><trkpt lat="40.7679208" lon="-3.9088069"><ele>1214.0</ele><time>2026-04-17T11:45:04.756Z</time></trkpt><trkpt lat="40.7678412" lon="-3.9087995"><ele>1214.0</ele><time>2026-04-17T11:45:05.757Z</time></trkpt><trkpt lat="40.7677582" lon="-3.9088286"><ele>1214.0</ele><time>2026-04-17T11:45:06.756Z</time></trkpt><trkpt lat="40.7676707" lon="-3.9088707"><ele>1214.0</ele><time>2026-04-17T11:45:07.757Z</time></trkpt><trkpt lat="40.7675901" lon="-3.9089281"><ele>1214.0</ele><time>2026-04-17T11:45:08.757Z</time></trkpt><trkpt lat="40.7675137" lon="-3.9089891"><ele>1214.0</ele><time>2026-04-17T11:45:09.756Z</time></trkpt><trkpt lat="40.7674392" lon="-3.9090316"><ele>1214.0</ele><time>2026-04-17T11:45:10.756Z</time></trkpt><trkpt lat="40.7673591" lon="-3.9090406"><ele>1213.1666666666667</ele><time>2026-04-17T11:45:11.756Z</time></trkpt><trkpt lat="40.767282" lon="-3.9090214"><ele>1212.3333333333335</ele><time>2026-04-17T11:45:12.756Z</time></trkpt><trkpt lat="40.767224" lon="-3.9089628"><ele>1211.5</ele><time>2026-04-17T11:45:13.757Z</time></trkpt><trkpt lat="40.7671515" lon="-3.9089058"><ele>1210.6666666666667</ele><time>2026-04-17T11:45:14.756Z</time></trkpt><trkpt lat="40.7670658" lon="-3.908851"><ele>1209.8333333333333</ele><time>2026-04-17T11:45:15.756Z</time></trkpt><trkpt lat="40.7669657" lon="-3.9088205"><ele>1209.0</ele><time>2026-04-17T11:45:16.756Z</time></trkpt><trkpt lat="40.76686" lon="-3.9088022"><ele>1208.6000000000001</ele><time>2026-04-17T11:45:17.756Z</time></trkpt><trkpt lat="40.7667583" lon="-3.9087818"><ele>1208.2</ele><time>2026-04-17T11:45:18.757Z</time></trkpt><trkpt lat="40.766652" lon="-3.9087573"><ele>1207.8000000000002</ele><time>2026-04-17T11:45:19.756Z</time></trkpt><trkpt lat="40.7665442" lon="-3.9087297"><ele>1207.4</ele><time>2026-04-17T11:45:20.756Z</time></trkpt><trkpt lat="40.7664357" lon="-3.908698"><ele>1207.0</ele><time>2026-04-17T11:45:21.756Z</time></trkpt><trkpt lat="40.7663326" lon="-3.9086691"><ele>1207.0</ele><time>2026-04-17T11:45:22.756Z</time></trkpt><trkpt lat="40.7662348" lon="-3.9086467"><ele>1207.0</ele><time>2026-04-17T11:45:23.756Z</time></trkpt><trkpt lat="40.7661495" lon="-3.9086"><ele>1207.0</ele><time>2026-04-17T11:45:24.757Z</time></trkpt><trkpt lat="40.7660701" lon="-3.9085415"><ele>1207.0</ele><time>2026-04-17T11:45:25.756Z</time></trkpt><trkpt lat="40.7659857" lon="-3.9084764"><ele>1207.0</ele><time>2026-04-17T11:45:26.756Z</time></trkpt><trkpt lat="40.7658892" lon="-3.9084408"><ele>1208.4</ele><time>2026-04-17T11:45:27.756Z</time></trkpt><trkpt lat="40.7657853" lon="-3.9084308"><ele>1209.8000000000002</ele><time>2026-04-17T11:45:28.757Z</time></trkpt><trkpt lat="40.765683" lon="-3.9084239"><ele>1211.2</ele><time>2026-04-17T11:45:29.756Z</time></trkpt><trkpt lat="40.765581" lon="-3.9084224"><ele>1212.6000000000001</ele><time>2026-04-17T11:45:30.757Z</time></trkpt><trkpt lat="40.765473" lon="-3.9084282"><ele>1214.0</ele><time>2026-04-17T11:45:31.757Z</time></trkpt><trkpt lat="40.7653704" lon="-3.9084265"><ele>1214.0</ele><time>2026-04-17T11:45:32.756Z</time></trkpt><trkpt lat="40.7652614" lon="-3.9084507"><ele>1214.0</ele><time>2026-04-17T11:45:33.756Z</time></trkpt><trkpt lat="40.7651572" lon="-3.9084758"><ele>1214.0</ele><time>2026-04-17T11:45:34.757Z</time></trkpt><trkpt lat="40.7650657" lon="-3.9085115"><ele>1214.0</ele><time>2026-04-17T11:45:35.756Z</time></trkpt><trkpt lat="40.7649777" lon="-3.908537"><ele>1214.0</ele><time>2026-04-17T11:45:36.757Z</time></trkpt><trkpt lat="40.7648844" lon="-3.9085496"><ele>1215.6000000000001</ele><time>2026-04-17T11:45:37.756Z</time></trkpt><trkpt lat="40.7647967" lon="-3.908556"><ele>1217.2</ele><time>2026-04-17T11:45:38.756Z</time></trkpt><trkpt lat="40.7647025" lon="-3.9085578"><ele>1218.8000000000002</ele><time>2026-04-17T11:45:39.756Z</time></trkpt><trkpt lat="40.764609" lon="-3.9085489"><ele>1220.4</ele><time>2026-04-17T11:45:40.757Z</time></trkpt><trkpt lat="40.7645116" lon="-3.9085226"><ele>1222.0</ele><time>2026-04-17T11:45:41.757Z</time></trkpt><trkpt lat="40.7644176" lon="-3.9084818"><ele>1224.0</ele><time>2026-04-17T11:45:42.756Z</time></trkpt><trkpt lat="40.7643291" lon="-3.9084391"><ele>1226.0</ele><time>2026-04-17T11:45:43.757Z</time></trkpt><trkpt lat="40.764238" lon="-3.9083919"><ele>1228.0</ele><time>2026-04-17T11:45:44.757Z</time></trkpt><trkpt lat="40.7641434" lon="-3.9083327"><ele>1230.0</ele><time>2026-04-17T11:45:45.756Z</time></trkpt><trkpt lat="40.7640541" lon="-3.9082695"><ele>1232.0</ele><time>2026-04-17T11:45:46.756Z</time></trkpt><trkpt lat="40.7639691" lon="-3.9082046"><ele>1226.3333333333335</ele><time>2026-04-17T11:45:47.756Z</time></trkpt><trkpt lat="40.7638944" lon="-3.9081361"><ele>1220.6666666666667</ele><time>2026-04-17T11:45:48.756Z</time></trkpt><trkpt lat="40.7638286" lon="-3.9080651"><ele>1215.0</ele><time>2026-04-17T11:45:49.756Z</time></trkpt><trkpt lat="40.7637636" lon="-3.907994"><ele>1209.3333333333333</ele><time>2026-04-17T11:45:50.756Z</time></trkpt><trkpt lat="40.7637077" lon="-3.9078965"><ele>1203.6666666666665</ele><time>2026-04-17T11:45:51.756Z</time></trkpt><trkpt lat="40.7636649" lon="-3.9077982"><ele>1198.0</ele><time>2026-04-17T11:45:52.756Z</time></trkpt><trkpt lat="40.7636139" lon="-3.9076946"><ele>1198.0</ele><time>2026-04-17T11:45:53.757Z</time></trkpt><trkpt lat="40.7635719" lon="-3.907583"><ele>1198.0</ele><time>2026-04-17T11:45:54.756Z</time></trkpt><trkpt lat="40.7635242" lon="-3.9074678"><ele>1198.0</ele><time>2026-04-17T11:45:55.756Z</time></trkpt><trkpt lat="40.7634797" lon="-3.9073603"><ele>1198.0</ele><time>2026-04-17T11:45:56.757Z</time></trkpt><trkpt lat="40.7634227" lon="-3.9072669"><ele>1198.0</ele><time>2026-04-17T11:45:57.756Z</time></trkpt><trkpt lat="40.7633514" lon="-3.9071999"><ele>1198.8333333333333</ele><time>2026-04-17T11:45:58.757Z</time></trkpt><trkpt lat="40.7632655" lon="-3.9071638"><ele>1199.6666666666665</ele><time>2026-04-17T11:45:59.756Z</time></trkpt><trkpt lat="40.7631761" lon="-3.907128"><ele>1200.5</ele><time>2026-04-17T11:46:00.756Z</time></trkpt><trkpt lat="40.7630952" lon="-3.9070913"><ele>1201.3333333333333</ele><time>2026-04-17T11:46:01.756Z</time></trkpt><trkpt lat="40.763024" lon="-3.9070748"><ele>1202.1666666666667</ele><time>2026-04-17T11:46:02.757Z</time></trkpt><trkpt lat="40.7629615" lon="-3.907087"><ele>1203.0</ele><time>2026-04-17T11:46:03.757Z</time></trkpt><trkpt lat="40.7628581" lon="-3.9071864"><ele>1203.0</ele><time>2026-04-17T11:46:05.756Z</time></trkpt><trkpt lat="40.7628034" lon="-3.9072496"><ele>1203.0</ele><time>2026-04-17T11:46:06.757Z</time></trkpt><trkpt lat="40.7627454" lon="-3.9072881"><ele>1203.0</ele><time>2026-04-17T11:46:07.757Z</time></trkpt><trkpt lat="40.7626814" lon="-3.9073421"><ele>1203.0</ele><time>2026-04-17T11:46:08.756Z</time></trkpt><trkpt lat="40.7625974" lon="-3.9073988"><ele>1203.0</ele><time>2026-04-17T11:46:09.756Z</time></trkpt><trkpt lat="40.7625067" lon="-3.9074553"><ele>1203.0</ele><time>2026-04-17T11:46:10.757Z</time></trkpt><trkpt lat="40.7624149" lon="-3.9075134"><ele>1204.0</ele><time>2026-04-17T11:46:11.756Z</time></trkpt><trkpt lat="40.7623283" lon="-3.9075624"><ele>1205.0</ele><time>2026-04-17T11:46:12.757Z</time></trkpt><trkpt lat="40.762238" lon="-3.9075976"><ele>1206.0</ele><time>2026-04-17T11:46:13.756Z</time></trkpt><trkpt lat="40.7621598" lon="-3.9076202"><ele>1207.0</ele><time>2026-04-17T11:46:14.756Z</time></trkpt><trkpt lat="40.7620892" lon="-3.9076343"><ele>1208.0</ele><time>2026-04-17T11:46:15.756Z</time></trkpt><trkpt lat="40.7620286" lon="-3.9076772"><ele>1209.0</ele><time>2026-04-17T11:46:16.756Z</time></trkpt><trkpt lat="40.7619104" lon="-3.9077334"><ele>1206.857142857143</ele><time>2026-04-17T11:46:18.757Z</time></trkpt><trkpt lat="40.7618262" lon="-3.9077361"><ele>1204.7142857142858</ele><time>2026-04-17T11:46:19.757Z</time></trkpt><trkpt lat="40.7617547" lon="-3.9077137"><ele>1202.5714285714287</ele><time>2026-04-17T11:46:20.756Z</time></trkpt><trkpt lat="40.7616849" lon="-3.9076977"><ele>1200.4285714285716</ele><time>2026-04-17T11:46:21.757Z</time></trkpt><trkpt lat="40.7616185" lon="-3.9076955"><ele>1198.2857142857142</ele><time>2026-04-17T11:46:22.756Z</time></trkpt><trkpt lat="40.7615519" lon="-3.907707"><ele>1196.1428571428573</ele><time>2026-04-17T11:46:23.757Z</time></trkpt><trkpt lat="40.7614774" lon="-3.9077481"><ele>1194.0</ele><time>2026-04-17T11:46:24.756Z</time></trkpt><trkpt lat="40.7614045" lon="-3.9078068"><ele>1194.0</ele><time>2026-04-17T11:46:25.756Z</time></trkpt><trkpt lat="40.7613252" lon="-3.9078764"><ele>1194.0</ele><time>2026-04-17T11:46:26.757Z</time></trkpt><trkpt lat="40.7612523" lon="-3.9079447"><ele>1194.0</ele><time>2026-04-17T11:46:27.756Z</time></trkpt><trkpt lat="40.7611813" lon="-3.9080197"><ele>1194.0</ele><time>2026-04-17T11:46:28.756Z</time></trkpt><trkpt lat="40.7611113" lon="-3.9080929"><ele>1194.0</ele><time>2026-04-17T11:46:29.756Z</time></trkpt><trkpt lat="40.7610426" lon="-3.9081802"><ele>1192.1666666666667</ele><time>2026-04-17T11:46:30.756Z</time></trkpt><trkpt lat="40.7609724" lon="-3.9082607"><ele>1190.3333333333333</ele><time>2026-04-17T11:46:31.757Z</time></trkpt><trkpt lat="40.7609035" lon="-3.9083483"><ele>1188.5</ele><time>2026-04-17T11:46:32.757Z</time></trkpt><trkpt lat="40.7608412" lon="-3.9084214"><ele>1186.6666666666665</ele><time>2026-04-17T11:46:33.756Z</time></trkpt><trkpt lat="40.7607816" lon="-3.908499"><ele>1184.8333333333333</ele><time>2026-04-17T11:46:34.757Z</time></trkpt><trkpt lat="40.7607243" lon="-3.9085685"><ele>1183.0</ele><time>2026-04-17T11:46:35.757Z</time></trkpt><trkpt lat="40.7606806" lon="-3.9086566"><ele>1183.0</ele><time>2026-04-17T11:46:36.757Z</time></trkpt><trkpt lat="40.7606522" lon="-3.9087498"><ele>1183.0</ele><time>2026-04-17T11:46:37.756Z</time></trkpt><trkpt lat="40.7606365" lon="-3.9088317"><ele>1183.0</ele><time>2026-04-17T11:46:38.757Z</time></trkpt><trkpt lat="40.7606311" lon="-3.9089747"><ele>1183.0</ele><time>2026-04-17T11:46:40.756Z</time></trkpt><trkpt lat="40.7606071" lon="-3.909086"><ele>1183.0</ele><time>2026-04-17T11:46:42.756Z</time></trkpt><trkpt lat="40.7605262" lon="-3.9091084"><ele>1183.0</ele><time>2026-04-17T11:46:45.756Z</time></trkpt><trkpt lat="40.7604855" lon="-3.9090047"><ele>1183.0</ele><time>2026-04-17T11:46:48.757Z</time></trkpt><trkpt lat="40.7604866" lon="-3.9088731"><ele>1183.0</ele><time>2026-04-17T11:46:51.757Z</time></trkpt><trkpt lat="40.7605113" lon="-3.9086959"><ele>1183.0</ele><time>2026-04-17T11:46:53.756Z</time></trkpt><trkpt lat="40.7605136" lon="-3.9086043"><ele>1183.0</ele><time>2026-04-17T11:46:54.757Z</time></trkpt><trkpt lat="40.7605267" lon="-3.908512"><ele>1183.0</ele><time>2026-04-17T11:46:55.757Z</time></trkpt><trkpt lat="40.7605351" lon="-3.9084119"><ele>1181.8</ele><time>2026-04-17T11:46:56.756Z</time></trkpt><trkpt lat="40.7605386" lon="-3.9082818"><ele>1180.6</ele><time>2026-04-17T11:46:57.757Z</time></trkpt><trkpt lat="40.7605577" lon="-3.9081537"><ele>1179.4</ele><time>2026-04-17T11:46:58.756Z</time></trkpt><trkpt lat="40.7605671" lon="-3.9080342"><ele>1178.2</ele><time>2026-04-17T11:46:59.756Z</time></trkpt><trkpt lat="40.7605771" lon="-3.9079146"><ele>1177.0</ele><time>2026-04-17T11:47:00.756Z</time></trkpt><trkpt lat="40.7606028" lon="-3.9077946"><ele>1177.0</ele><time>2026-04-17T11:47:01.756Z</time></trkpt><trkpt lat="40.7606308" lon="-3.9076816"><ele>1177.0</ele><time>2026-04-17T11:47:02.757Z</time></trkpt><trkpt lat="40.7606666" lon="-3.9075656"><ele>1177.0</ele><time>2026-04-17T11:47:03.756Z</time></trkpt><trkpt lat="40.7607155" lon="-3.907461"><ele>1177.0</ele><time>2026-04-17T11:47:04.757Z</time></trkpt><trkpt lat="40.7607703" lon="-3.9073594"><ele>1177.0</ele><time>2026-04-17T11:47:05.756Z</time></trkpt><trkpt lat="40.7608285" lon="-3.9072557"><ele>1178.0</ele><time>2026-04-17T11:47:06.756Z</time></trkpt><trkpt lat="40.7608969" lon="-3.907144"><ele>1179.0</ele><time>2026-04-17T11:47:07.756Z</time></trkpt><trkpt lat="40.7609658" lon="-3.907031"><ele>1180.0</ele><time>2026-04-17T11:47:08.756Z</time></trkpt><trkpt lat="40.7610345" lon="-3.9069093"><ele>1181.0</ele><time>2026-04-17T11:47:09.756Z</time></trkpt><trkpt lat="40.7611038" lon="-3.906801"><ele>1182.0</ele><time>2026-04-17T11:47:10.757Z</time></trkpt><trkpt lat="40.7611674" lon="-3.9066788"><ele>1178.6</ele><time>2026-04-17T11:47:11.756Z</time></trkpt><trkpt lat="40.7612348" lon="-3.9065524"><ele>1175.2</ele><time>2026-04-17T11:47:12.756Z</time></trkpt><trkpt lat="40.7613071" lon="-3.9064452"><ele>1171.8</ele><time>2026-04-17T11:47:13.757Z</time></trkpt><trkpt lat="40.761382" lon="-3.9063456"><ele>1168.4</ele><time>2026-04-17T11:47:14.757Z</time></trkpt><trkpt lat="40.7614551" lon="-3.9062639"><ele>1165.0</ele><time>2026-04-17T11:47:15.756Z</time></trkpt><trkpt lat="40.7615316" lon="-3.9061851"><ele>1164.9999999999998</ele><time>2026-04-17T11:47:16.756Z</time></trkpt><trkpt lat="40.7616043" lon="-3.906111"><ele>1165.0</ele><time>2026-04-17T11:47:17.757Z</time></trkpt><trkpt lat="40.7616737" lon="-3.9060564"><ele>1165.0</ele><time>2026-04-17T11:47:18.756Z</time></trkpt><trkpt lat="40.7617391" lon="-3.9060115"><ele>1165.0</ele><time>2026-04-17T11:47:19.756Z</time></trkpt><trkpt lat="40.7617981" lon="-3.9059726"><ele>1165.0</ele><time>2026-04-17T11:47:20.757Z</time></trkpt><trkpt lat="40.7618602" lon="-3.9059317"><ele>1164.9999999999998</ele><time>2026-04-17T11:47:21.756Z</time></trkpt><trkpt lat="40.7619227" lon="-3.9059044"><ele>1165.0</ele><time>2026-04-17T11:47:22.756Z</time></trkpt><trkpt lat="40.762035" lon="-3.9058433"><ele>1164.6</ele><time>2026-04-17T11:47:24.757Z</time></trkpt><trkpt lat="40.7621154" lon="-3.905736"><ele>1164.2</ele><time>2026-04-17T11:47:26.756Z</time></trkpt><trkpt lat="40.7621876" lon="-3.9056317"><ele>1163.8</ele><time>2026-04-17T11:47:28.757Z</time></trkpt><trkpt lat="40.7622693" lon="-3.9055472"><ele>1163.4</ele><time>2026-04-17T11:47:30.756Z</time></trkpt><trkpt lat="40.7623286" lon="-3.9054594"><ele>1163.0</ele><time>2026-04-17T11:47:32.757Z</time></trkpt><trkpt lat="40.7623719" lon="-3.90538"><ele>1163.0</ele><time>2026-04-17T11:47:34.756Z</time></trkpt><trkpt lat="40.7623879" lon="-3.9052978"><ele>1163.0</ele><time>2026-04-17T11:47:36.757Z</time></trkpt><trkpt lat="40.7623175" lon="-3.9052495"><ele>1163.0</ele><time>2026-04-17T11:47:39.756Z</time></trkpt><trkpt lat="40.7622302" lon="-3.9053363"><ele>1163.0</ele><time>2026-04-17T11:47:41.757Z</time></trkpt><trkpt lat="40.762138" lon="-3.9054179"><ele>1163.0</ele><time>2026-04-17T11:47:43.756Z</time></trkpt><trkpt lat="40.7620859" lon="-3.9054665"><ele>1163.0</ele><time>2026-04-17T11:47:44.757Z</time></trkpt><trkpt lat="40.7620098" lon="-3.9055027"><ele>1163.0</ele><time>2026-04-17T11:47:45.756Z</time></trkpt><trkpt lat="40.7619319" lon="-3.9055169"><ele>1163.0</ele><time>2026-04-17T11:47:46.757Z</time></trkpt><trkpt lat="40.7618612" lon="-3.905524"><ele>1163.0</ele><time>2026-04-17T11:47:47.757Z</time></trkpt><trkpt lat="40.7617617" lon="-3.9055536"><ele>1163.0</ele><time>2026-04-17T11:47:49.756Z</time></trkpt><trkpt lat="40.7616186" lon="-3.9055529"><ele>1163.0</ele><time>2026-04-17T11:47:51.757Z</time></trkpt><trkpt lat="40.7615382" lon="-3.9055394"><ele>1159.6666666666667</ele><time>2026-04-17T11:47:52.756Z</time></trkpt><trkpt lat="40.7614593" lon="-3.9055385"><ele>1156.3333333333335</ele><time>2026-04-17T11:47:53.756Z</time></trkpt><trkpt lat="40.7613771" lon="-3.9055355"><ele>1153.0</ele><time>2026-04-17T11:47:54.756Z</time></trkpt><trkpt lat="40.7613" lon="-3.9055582"><ele>1149.6666666666667</ele><time>2026-04-17T11:47:55.756Z</time></trkpt><trkpt lat="40.7612312" lon="-3.9055776"><ele>1146.3333333333333</ele><time>2026-04-17T11:47:56.757Z</time></trkpt><trkpt lat="40.7611647" lon="-3.905606"><ele>1143.0</ele><time>2026-04-17T11:47:57.756Z</time></trkpt><trkpt lat="40.7610957" lon="-3.9056475"><ele>1140.1666666666667</ele><time>2026-04-17T11:47:58.756Z</time></trkpt><trkpt lat="40.7610286" lon="-3.9056869"><ele>1137.3333333333333</ele><time>2026-04-17T11:47:59.757Z</time></trkpt><trkpt lat="40.7609604" lon="-3.9057199"><ele>1134.5</ele><time>2026-04-17T11:48:00.756Z</time></trkpt><trkpt lat="40.7608873" lon="-3.9057474"><ele>1131.6666666666665</ele><time>2026-04-17T11:48:01.756Z</time></trkpt><trkpt lat="40.7608135" lon="-3.9057707"><ele>1128.8333333333333</ele><time>2026-04-17T11:48:02.756Z</time></trkpt><trkpt lat="40.7607349" lon="-3.9057898"><ele>1126.0</ele><time>2026-04-17T11:48:03.757Z</time></trkpt><trkpt lat="40.7606441" lon="-3.9057934"><ele>1126.0</ele><time>2026-04-17T11:48:04.756Z</time></trkpt><trkpt lat="40.7605525" lon="-3.9057859"><ele>1126.0</ele><time>2026-04-17T11:48:05.757Z</time></trkpt><trkpt lat="40.7604667" lon="-3.9057634"><ele>1126.0</ele><time>2026-04-17T11:48:06.757Z</time></trkpt><trkpt lat="40.7603799" lon="-3.9057419"><ele>1126.0</ele><time>2026-04-17T11:48:07.757Z</time></trkpt><trkpt lat="40.7602894" lon="-3.9057287"><ele>1126.0</ele><time>2026-04-17T11:48:08.757Z</time></trkpt><trkpt lat="40.760196" lon="-3.9057125"><ele>1124.0</ele><time>2026-04-17T11:48:09.756Z</time></trkpt><trkpt lat="40.760102" lon="-3.9057072"><ele>1122.0</ele><time>2026-04-17T11:48:10.756Z</time></trkpt><trkpt lat="40.7600077" lon="-3.9057111"><ele>1120.0</ele><time>2026-04-17T11:48:11.757Z</time></trkpt><trkpt lat="40.7599136" lon="-3.9057197"><ele>1118.0</ele><time>2026-04-17T11:48:12.756Z</time></trkpt><trkpt lat="40.7598276" lon="-3.9057328"><ele>1116.0</ele><time>2026-04-17T11:48:13.757Z</time></trkpt><trkpt lat="40.7597458" lon="-3.9057451"><ele>1116.0</ele><time>2026-04-17T11:48:14.757Z</time></trkpt><trkpt lat="40.7596633" lon="-3.9057461"><ele>1116.0</ele><time>2026-04-17T11:48:15.756Z</time></trkpt><trkpt lat="40.7595916" lon="-3.9057503"><ele>1116.0</ele><time>2026-04-17T11:48:16.756Z</time></trkpt><trkpt lat="40.7595159" lon="-3.9057793"><ele>1116.0</ele><time>2026-04-17T11:48:17.756Z</time></trkpt><trkpt lat="40.7594377" lon="-3.9058172"><ele>1116.0</ele><time>2026-04-17T11:48:18.757Z</time></trkpt><trkpt lat="40.7593575" lon="-3.9058663"><ele>1116.0</ele><time>2026-04-17T11:48:19.756Z</time></trkpt><trkpt lat="40.7592737" lon="-3.9059338"><ele>1116.0</ele><time>2026-04-17T11:48:20.756Z</time></trkpt><trkpt lat="40.7591855" lon="-3.9060132"><ele>1116.0</ele><time>2026-04-17T11:48:21.757Z</time></trkpt><trkpt lat="40.7590902" lon="-3.9060817"><ele>1116.0</ele><time>2026-04-17T11:48:22.756Z</time></trkpt><trkpt lat="40.7589965" lon="-3.9061399"><ele>1116.0</ele><time>2026-04-17T11:48:23.756Z</time></trkpt><trkpt lat="40.7589032" lon="-3.906169"><ele>1116.0</ele><time>2026-04-17T11:48:24.757Z</time></trkpt><trkpt lat="40.7588129" lon="-3.9061904"><ele>1116.0</ele><time>2026-04-17T11:48:25.757Z</time></trkpt><trkpt lat="40.7587171" lon="-3.9061989"><ele>1116.0</ele><time>2026-04-17T11:48:26.757Z</time></trkpt><trkpt lat="40.7586187" lon="-3.9062121"><ele>1116.0</ele><time>2026-04-17T11:48:27.756Z</time></trkpt><trkpt lat="40.7585249" lon="-3.9062239"><ele>1116.0</ele><time>2026-04-17T11:48:28.757Z</time></trkpt><trkpt lat="40.7584361" lon="-3.9062478"><ele>1116.0</ele><time>2026-04-17T11:48:29.757Z</time></trkpt><trkpt lat="40.7583556" lon="-3.9062907"><ele>1113.1666666666667</ele><time>2026-04-17T11:48:30.756Z</time></trkpt><trkpt lat="40.7582785" lon="-3.9063434"><ele>1110.3333333333333</ele><time>2026-04-17T11:48:31.756Z</time></trkpt><trkpt lat="40.7581989" lon="-3.9064004"><ele>1107.5</ele><time>2026-04-17T11:48:32.756Z</time></trkpt><trkpt lat="40.7581162" lon="-3.9064469"><ele>1104.6666666666665</ele><time>2026-04-17T11:48:33.757Z</time></trkpt><trkpt lat="40.7580314" lon="-3.9064923"><ele>1101.8333333333333</ele><time>2026-04-17T11:48:34.757Z</time></trkpt><trkpt lat="40.7579454" lon="-3.9065198"><ele>1099.0</ele><time>2026-04-17T11:48:35.756Z</time></trkpt><trkpt lat="40.757846" lon="-3.9065293"><ele>1099.0</ele><time>2026-04-17T11:48:36.756Z</time></trkpt><trkpt lat="40.7577328" lon="-3.9065359"><ele>1099.0</ele><time>2026-04-17T11:48:37.757Z</time></trkpt><trkpt lat="40.75762" lon="-3.9065653"><ele>1099.0</ele><time>2026-04-17T11:48:38.757Z</time></trkpt><trkpt lat="40.7575072" lon="-3.9065959"><ele>1099.0</ele><time>2026-04-17T11:48:39.756Z</time></trkpt><trkpt lat="40.7573891" lon="-3.9066246"><ele>1097.25</ele><time>2026-04-17T11:48:40.756Z</time></trkpt><trkpt lat="40.7572599" lon="-3.9066429"><ele>1095.5</ele><time>2026-04-17T11:48:41.756Z</time></trkpt><trkpt lat="40.7571189" lon="-3.9066487"><ele>1093.75</ele><time>2026-04-17T11:48:42.756Z</time></trkpt><trkpt lat="40.7569791" lon="-3.906648"><ele>1092.0</ele><time>2026-04-17T11:48:43.756Z</time></trkpt><trkpt lat="40.7568424" lon="-3.9066384"><ele>1092.0</ele><time>2026-04-17T11:48:44.757Z</time></trkpt><trkpt lat="40.756708" lon="-3.9066226"><ele>1092.0</ele><time>2026-04-17T11:48:45.756Z</time></trkpt><trkpt lat="40.7565793" lon="-3.906603"><ele>1092.0</ele><time>2026-04-17T11:48:46.756Z</time></trkpt><trkpt lat="40.7564508" lon="-3.9065999"><ele>1092.0</ele><time>2026-04-17T11:48:47.757Z</time></trkpt><trkpt lat="40.7563247" lon="-3.9065851"><ele>1092.0</ele><time>2026-04-17T11:48:48.756Z</time></trkpt><trkpt lat="40.7561992" lon="-3.906567"><ele>1092.0</ele><time>2026-04-17T11:48:49.756Z</time></trkpt><trkpt lat="40.7560745" lon="-3.9065528"><ele>1092.0</ele><time>2026-04-17T11:48:50.756Z</time></trkpt><trkpt lat="40.7559543" lon="-3.9065366"><ele>1092.0</ele><time>2026-04-17T11:48:51.757Z</time></trkpt><trkpt lat="40.7558382" lon="-3.9065094"><ele>1090.0</ele><time>2026-04-17T11:48:52.757Z</time></trkpt><trkpt lat="40.7557294" lon="-3.906469"><ele>1088.0</ele><time>2026-04-17T11:48:53.757Z</time></trkpt><trkpt lat="40.7556186" lon="-3.9064245"><ele>1086.0</ele><time>2026-04-17T11:48:54.757Z</time></trkpt><trkpt lat="40.755508" lon="-3.9063793"><ele>1084.0</ele><time>2026-04-17T11:48:55.757Z</time></trkpt><trkpt lat="40.7553955" lon="-3.9063613"><ele>1084.0</ele><time>2026-04-17T11:48:56.756Z</time></trkpt><trkpt lat="40.7552743" lon="-3.9063664"><ele>1084.0</ele><time>2026-04-17T11:48:57.756Z</time></trkpt><trkpt lat="40.7551593" lon="-3.9063683"><ele>1084.0</ele><time>2026-04-17T11:48:58.756Z</time></trkpt><trkpt lat="40.7550412" lon="-3.9063758"><ele>1084.0</ele><time>2026-04-17T11:48:59.757Z</time></trkpt><trkpt lat="40.7549241" lon="-3.9063798"><ele>1083.0</ele><time>2026-04-17T11:49:00.756Z</time></trkpt><trkpt lat="40.7548014" lon="-3.9063901"><ele>1082.0</ele><time>2026-04-17T11:49:01.756Z</time></trkpt><trkpt lat="40.7546779" lon="-3.9064005"><ele>1081.0</ele><time>2026-04-17T11:49:02.756Z</time></trkpt><trkpt lat="40.7545522" lon="-3.9064161"><ele>1080.0</ele><time>2026-04-17T11:49:03.756Z</time></trkpt><trkpt lat="40.7544334" lon="-3.9064282"><ele>1078.8</ele><time>2026-04-17T11:49:04.756Z</time></trkpt><trkpt lat="40.7543192" lon="-3.9064431"><ele>1077.6</ele><time>2026-04-17T11:49:05.756Z</time></trkpt><trkpt lat="40.7542094" lon="-3.9064502"><ele>1076.4</ele><time>2026-04-17T11:49:06.757Z</time></trkpt><trkpt lat="40.7541028" lon="-3.906447"><ele>1075.2</ele><time>2026-04-17T11:49:07.756Z</time></trkpt><trkpt lat="40.7539945" lon="-3.9064364"><ele>1074.0</ele><time>2026-04-17T11:49:08.757Z</time></trkpt><trkpt lat="40.7538868" lon="-3.9064094"><ele>1074.0</ele><time>2026-04-17T11:49:09.756Z</time></trkpt><trkpt lat="40.7537819" lon="-3.9063714"><ele>1074.0</ele><time>2026-04-17T11:49:10.756Z</time></trkpt><trkpt lat="40.7536795" lon="-3.9063225"><ele>1074.0</ele><time>2026-04-17T11:49:11.756Z</time></trkpt><trkpt lat="40.7535725" lon="-3.9062643"><ele>1074.0</ele><time>2026-04-17T11:49:12.756Z</time></trkpt><trkpt lat="40.7534614" lon="-3.9061956"><ele>1074.0</ele><time>2026-04-17T11:49:13.756Z</time></trkpt><trkpt lat="40.7533544" lon="-3.9061141"><ele>1074.0</ele><time>2026-04-17T11:49:14.757Z</time></trkpt><trkpt lat="40.7532629" lon="-3.9060303"><ele>1074.0</ele><time>2026-04-17T11:49:15.756Z</time></trkpt><trkpt lat="40.7531836" lon="-3.9059515"><ele>1074.0</ele><time>2026-04-17T11:49:16.756Z</time></trkpt><trkpt lat="40.7531103" lon="-3.9058845"><ele>1074.0</ele><time>2026-04-17T11:49:17.756Z</time></trkpt><trkpt lat="40.7530369" lon="-3.9058065"><ele>1073.4</ele><time>2026-04-17T11:49:18.756Z</time></trkpt><trkpt lat="40.7529729" lon="-3.9057177"><ele>1072.8000000000002</ele><time>2026-04-17T11:49:19.756Z</time></trkpt><trkpt lat="40.7529083" lon="-3.9056262"><ele>1072.1999999999998</ele><time>2026-04-17T11:49:20.756Z</time></trkpt><trkpt lat="40.7528432" lon="-3.9055223"><ele>1071.6</ele><time>2026-04-17T11:49:21.757Z</time></trkpt><trkpt lat="40.7527732" lon="-3.9054109"><ele>1071.0</ele><time>2026-04-17T11:49:22.756Z</time></trkpt><trkpt lat="40.7527085" lon="-3.9052936"><ele>1070.5</ele><time>2026-04-17T11:49:23.757Z</time></trkpt><trkpt lat="40.752643" lon="-3.9051683"><ele>1070.0</ele><time>2026-04-17T11:49:24.757Z</time></trkpt><trkpt lat="40.7525778" lon="-3.905034"><ele>1069.5</ele><time>2026-04-17T11:49:25.756Z</time></trkpt><trkpt lat="40.7525203" lon="-3.9049071"><ele>1069.0</ele><time>2026-04-17T11:49:26.757Z</time></trkpt><trkpt lat="40.7524678" lon="-3.904778"><ele>1069.0</ele><time>2026-04-17T11:49:27.756Z</time></trkpt><trkpt lat="40.7524179" lon="-3.9046566"><ele>1069.0</ele><time>2026-04-17T11:49:28.757Z</time></trkpt><trkpt lat="40.7523748" lon="-3.9045229"><ele>1069.0</ele><time>2026-04-17T11:49:29.756Z</time></trkpt><trkpt lat="40.7523489" lon="-3.9043924"><ele>1069.0</ele><time>2026-04-17T11:49:30.757Z</time></trkpt><trkpt lat="40.7523402" lon="-3.9042779"><ele>1069.0</ele><time>2026-04-17T11:49:31.756Z</time></trkpt><trkpt lat="40.7523477" lon="-3.9041613"><ele>1067.6000000000001</ele><time>2026-04-17T11:49:32.757Z</time></trkpt><trkpt lat="40.7523703" lon="-3.904041"><ele>1066.2</ele><time>2026-04-17T11:49:33.757Z</time></trkpt><trkpt lat="40.752398" lon="-3.9039143"><ele>1064.8000000000002</ele><time>2026-04-17T11:49:34.757Z</time></trkpt><trkpt lat="40.7524207" lon="-3.903786"><ele>1063.4</ele><time>2026-04-17T11:49:35.756Z</time></trkpt><trkpt lat="40.7524403" lon="-3.9036585"><ele>1062.0</ele><time>2026-04-17T11:49:36.756Z</time></trkpt><trkpt lat="40.7524509" lon="-3.9035529"><ele>1062.0</ele><time>2026-04-17T11:49:37.757Z</time></trkpt><trkpt lat="40.7524489" lon="-3.9034562"><ele>1062.0</ele><time>2026-04-17T11:49:38.756Z</time></trkpt><trkpt lat="40.752433" lon="-3.9033071"><ele>1062.0</ele><time>2026-04-17T11:49:40.756Z</time></trkpt><trkpt lat="40.7524183" lon="-3.9031673"><ele>1062.0</ele><time>2026-04-17T11:49:42.756Z</time></trkpt><trkpt lat="40.7523953" lon="-3.9030569"><ele>1062.0</ele><time>2026-04-17T11:49:44.756Z</time></trkpt><trkpt lat="40.7523852" lon="-3.9029699"><ele>1062.0</ele><time>2026-04-17T11:49:46.756Z</time></trkpt><trkpt lat="40.7523672" lon="-3.9028709"><ele>1062.0</ele><time>2026-04-17T11:49:48.756Z</time></trkpt><trkpt lat="40.7523743" lon="-3.9027825"><ele>1062.0</ele><time>2026-04-17T11:49:51.756Z</time></trkpt><trkpt lat="40.7523775" lon="-3.9026962"><ele>1062.0</ele><time>2026-04-17T11:49:53.757Z</time></trkpt><trkpt lat="40.7523408" lon="-3.9025761"><ele>1062.0</ele><time>2026-04-17T11:49:55.756Z</time></trkpt><trkpt lat="40.7523031" lon="-3.9025022"><ele>1062.0</ele><time>2026-04-17T11:49:56.757Z</time></trkpt><trkpt lat="40.7522477" lon="-3.9023812"><ele>1062.0</ele><time>2026-04-17T11:49:58.756Z</time></trkpt><trkpt lat="40.7521951" lon="-3.9022493"><ele>1060.8</ele><time>2026-04-17T11:50:00.757Z</time></trkpt><trkpt lat="40.7521246" lon="-3.9021041"><ele>1059.6</ele><time>2026-04-17T11:50:02.756Z</time></trkpt><trkpt lat="40.7520937" lon="-3.9020287"><ele>1058.3999999999999</ele><time>2026-04-17T11:50:03.756Z</time></trkpt><trkpt lat="40.752041" lon="-3.9018881"><ele>1057.2</ele><time>2026-04-17T11:50:05.757Z</time></trkpt><trkpt lat="40.7519894" lon="-3.9017691"><ele>1056.0</ele><time>2026-04-17T11:50:07.757Z</time></trkpt><trkpt lat="40.7519382" lon="-3.9016593"><ele>1056.6</ele><time>2026-04-17T11:50:09.756Z</time></trkpt><trkpt lat="40.7518332" lon="-3.9015499"><ele>1057.1999999999998</ele><time>2026-04-17T11:51:53.757Z</time></trkpt><trkpt lat="40.7517846" lon="-3.901494"><ele>1057.8000000000002</ele><time>2026-04-17T11:51:54.756Z</time></trkpt><trkpt lat="40.7517296" lon="-3.90143"><ele>1058.4</ele><time>2026-04-17T11:51:55.756Z</time></trkpt><trkpt lat="40.7516622" lon="-3.9013652"><ele>1059.0</ele><time>2026-04-17T11:51:56.757Z</time></trkpt><trkpt lat="40.7515858" lon="-3.9012915"><ele>1059.0</ele><time>2026-04-17T11:51:57.757Z</time></trkpt><trkpt lat="40.7515102" lon="-3.901191"><ele>1059.0</ele><time>2026-04-17T11:51:58.757Z</time></trkpt><trkpt lat="40.751432" lon="-3.9010768"><ele>1059.0</ele><time>2026-04-17T11:51:59.756Z</time></trkpt><trkpt lat="40.7513514" lon="-3.9009532"><ele>1059.0</ele><time>2026-04-17T11:52:00.756Z</time></trkpt><trkpt lat="40.7512654" lon="-3.9008242"><ele>1059.5</ele><time>2026-04-17T11:52:01.756Z</time></trkpt><trkpt lat="40.7511879" lon="-3.9006901"><ele>1060.0</ele><time>2026-04-17T11:52:02.756Z</time></trkpt><trkpt lat="40.751109" lon="-3.9005557"><ele>1060.5</ele><time>2026-04-17T11:52:03.757Z</time></trkpt><trkpt lat="40.7510337" lon="-3.9004122"><ele>1061.0</ele><time>2026-04-17T11:52:04.756Z</time></trkpt><trkpt lat="40.7509626" lon="-3.9002574"><ele>1061.0</ele><time>2026-04-17T11:52:05.756Z</time></trkpt><trkpt lat="40.7508959" lon="-3.9001033"><ele>1061.0</ele><time>2026-04-17T11:52:06.756Z</time></trkpt><trkpt lat="40.7508271" lon="-3.8999543"><ele>1061.0</ele><time>2026-04-17T11:52:07.757Z</time></trkpt><trkpt lat="40.7507619" lon="-3.8998111"><ele>1061.0</ele><time>2026-04-17T11:52:08.756Z</time></trkpt><trkpt lat="40.7506939" lon="-3.8996732"><ele>1059.0</ele><time>2026-04-17T11:52:09.757Z</time></trkpt><trkpt lat="40.7506217" lon="-3.8995413"><ele>1057.0</ele><time>2026-04-17T11:52:10.757Z</time></trkpt><trkpt lat="40.7505566" lon="-3.899413"><ele>1055.0</ele><time>2026-04-17T11:52:11.757Z</time></trkpt><trkpt lat="40.7504968" lon="-3.8992951"><ele>1053.0</ele><time>2026-04-17T11:52:12.756Z</time></trkpt><trkpt lat="40.7504494" lon="-3.8991767"><ele>1051.0</ele><time>2026-04-17T11:52:13.756Z</time></trkpt><trkpt lat="40.7504035" lon="-3.8990453"><ele>1049.3999999999999</ele><time>2026-04-17T11:52:14.756Z</time></trkpt><trkpt lat="40.7503653" lon="-3.8989135"><ele>1047.8</ele><time>2026-04-17T11:52:15.757Z</time></trkpt><trkpt lat="40.7503247" lon="-3.8987981"><ele>1046.1999999999998</ele><time>2026-04-17T11:52:16.756Z</time></trkpt><trkpt lat="40.7502922" lon="-3.8986832"><ele>1044.6</ele><time>2026-04-17T11:52:17.756Z</time></trkpt><trkpt lat="40.7502632" lon="-3.8985735"><ele>1043.0</ele><time>2026-04-17T11:52:18.756Z</time></trkpt><trkpt lat="40.7502428" lon="-3.8984548"><ele>1042.5</ele><time>2026-04-17T11:52:19.756Z</time></trkpt><trkpt lat="40.7502329" lon="-3.8983316"><ele>1042.0</ele><time>2026-04-17T11:52:20.756Z</time></trkpt><trkpt lat="40.7502275" lon="-3.8982137"><ele>1041.5</ele><time>2026-04-17T11:52:21.757Z</time></trkpt><trkpt lat="40.7502241" lon="-3.8981021"><ele>1041.0</ele><time>2026-04-17T11:52:22.756Z</time></trkpt><trkpt lat="40.7502079" lon="-3.8979905"><ele>1040.5</ele><time>2026-04-17T11:52:23.757Z</time></trkpt><trkpt lat="40.7501719" lon="-3.8978742"><ele>1040.0</ele><time>2026-04-17T11:52:24.757Z</time></trkpt><trkpt lat="40.7501266" lon="-3.8977737"><ele>1041.0</ele><time>2026-04-17T11:52:25.756Z</time></trkpt><trkpt lat="40.7500767" lon="-3.8976731"><ele>1042.0</ele><time>2026-04-17T11:52:26.756Z</time></trkpt><trkpt lat="40.7500208" lon="-3.8975782"><ele>1043.0</ele><time>2026-04-17T11:52:27.757Z</time></trkpt><trkpt lat="40.7499557" lon="-3.8975006"><ele>1044.0</ele><time>2026-04-17T11:52:28.756Z</time></trkpt><trkpt lat="40.749871" lon="-3.8974347"><ele>1045.0</ele><time>2026-04-17T11:52:29.756Z</time></trkpt><trkpt lat="40.7497812" lon="-3.8973904"><ele>1045.0</ele><time>2026-04-17T11:52:30.757Z</time></trkpt><trkpt lat="40.7496881" lon="-3.8973365"><ele>1045.0</ele><time>2026-04-17T11:52:31.757Z</time></trkpt><trkpt lat="40.7495918" lon="-3.8972769"><ele>1045.0</ele><time>2026-04-17T11:52:32.756Z</time></trkpt><trkpt lat="40.7494888" lon="-3.8972104"><ele>1045.0</ele><time>2026-04-17T11:52:33.756Z</time></trkpt><trkpt lat="40.7493829" lon="-3.8971379"><ele>1045.0</ele><time>2026-04-17T11:52:34.756Z</time></trkpt><trkpt lat="40.7492761" lon="-3.8970815"><ele>1046.6</ele><time>2026-04-17T11:52:35.757Z</time></trkpt><trkpt lat="40.7491716" lon="-3.8970338"><ele>1048.2</ele><time>2026-04-17T11:52:36.757Z</time></trkpt><trkpt lat="40.7490643" lon="-3.8970082"><ele>1049.8</ele><time>2026-04-17T11:52:37.757Z</time></trkpt><trkpt lat="40.7489539" lon="-3.8969901"><ele>1051.4</ele><time>2026-04-17T11:52:38.756Z</time></trkpt><trkpt lat="40.7488433" lon="-3.8969702"><ele>1053.0</ele><time>2026-04-17T11:52:39.756Z</time></trkpt><trkpt lat="40.7487322" lon="-3.8969435"><ele>1053.0</ele><time>2026-04-17T11:52:40.756Z</time></trkpt><trkpt lat="40.7486093" lon="-3.8969316"><ele>1053.0</ele><time>2026-04-17T11:52:41.756Z</time></trkpt><trkpt lat="40.7484876" lon="-3.8969118"><ele>1053.0</ele><time>2026-04-17T11:52:42.757Z</time></trkpt><trkpt lat="40.7483644" lon="-3.8968947"><ele>1053.0</ele><time>2026-04-17T11:52:43.756Z</time></trkpt><trkpt lat="40.7482302" lon="-3.8968796"><ele>1052.6666666666667</ele><time>2026-04-17T11:52:44.757Z</time></trkpt><trkpt lat="40.7480823" lon="-3.8968397"><ele>1052.3333333333335</ele><time>2026-04-17T11:52:45.756Z</time></trkpt><trkpt lat="40.7479346" lon="-3.8967936"><ele>1052.0</ele><time>2026-04-17T11:52:46.756Z</time></trkpt><trkpt lat="40.7477856" lon="-3.8967516"><ele>1050.0</ele><time>2026-04-17T11:52:47.756Z</time></trkpt><trkpt lat="40.747641" lon="-3.8967279"><ele>1048.0</ele><time>2026-04-17T11:52:48.757Z</time></trkpt><trkpt lat="40.7474967" lon="-3.8967087"><ele>1046.0</ele><time>2026-04-17T11:52:49.757Z</time></trkpt><trkpt lat="40.7473518" lon="-3.8966723"><ele>1044.0</ele><time>2026-04-17T11:52:50.757Z</time></trkpt><trkpt lat="40.7472088" lon="-3.8966066"><ele>1044.0</ele><time>2026-04-17T11:52:51.756Z</time></trkpt><trkpt lat="40.7470868" lon="-3.8965064"><ele>1044.0</ele><time>2026-04-17T11:52:52.756Z</time></trkpt><trkpt lat="40.7469691" lon="-3.8963921"><ele>1044.0</ele><time>2026-04-17T11:52:53.757Z</time></trkpt><trkpt lat="40.7468461" lon="-3.8962927"><ele>1044.0</ele><time>2026-04-17T11:52:54.756Z</time></trkpt><trkpt lat="40.7467149" lon="-3.8962264"><ele>1043.75</ele><time>2026-04-17T11:52:55.757Z</time></trkpt><trkpt lat="40.7465883" lon="-3.8961647"><ele>1043.5</ele><time>2026-04-17T11:52:56.756Z</time></trkpt><trkpt lat="40.7464715" lon="-3.8961243"><ele>1043.25</ele><time>2026-04-17T11:52:57.757Z</time></trkpt><trkpt lat="40.7463659" lon="-3.8961369"><ele>1043.0</ele><time>2026-04-17T11:52:58.757Z</time></trkpt><trkpt lat="40.7462835" lon="-3.8961928"><ele>1043.0</ele><time>2026-04-17T11:52:59.756Z</time></trkpt><trkpt lat="40.7462033" lon="-3.8962623"><ele>1043.0</ele><time>2026-04-17T11:53:00.756Z</time></trkpt><trkpt lat="40.7461401" lon="-3.896361"><ele>1043.0</ele><time>2026-04-17T11:53:01.756Z</time></trkpt><trkpt lat="40.7460618" lon="-3.8964734"><ele>1043.0</ele><time>2026-04-17T11:53:02.756Z</time></trkpt><trkpt lat="40.7459756" lon="-3.8965844"><ele>1043.0</ele><time>2026-04-17T11:53:03.756Z</time></trkpt><trkpt lat="40.7458908" lon="-3.8967008"><ele>1042.25</ele><time>2026-04-17T11:53:04.757Z</time></trkpt><trkpt lat="40.7457994" lon="-3.8968195"><ele>1041.5</ele><time>2026-04-17T11:53:05.757Z</time></trkpt><trkpt lat="40.7457047" lon="-3.8969422"><ele>1040.75</ele><time>2026-04-17T11:53:06.756Z</time></trkpt><trkpt lat="40.7456083" lon="-3.8970677"><ele>1040.0</ele><time>2026-04-17T11:53:07.756Z</time></trkpt><trkpt lat="40.7455092" lon="-3.8971925"><ele>1040.0</ele><time>2026-04-17T11:53:08.757Z</time></trkpt><trkpt lat="40.7454033" lon="-3.8973153"><ele>1040.0</ele><time>2026-04-17T11:53:09.756Z</time></trkpt><trkpt lat="40.7452972" lon="-3.8974415"><ele>1040.0</ele><time>2026-04-17T11:53:10.757Z</time></trkpt><trkpt lat="40.7451962" lon="-3.89756"><ele>1040.0</ele><time>2026-04-17T11:53:11.756Z</time></trkpt><trkpt lat="40.7451098" lon="-3.8976689"><ele>1039.1666666666667</ele><time>2026-04-17T11:53:12.756Z</time></trkpt><trkpt lat="40.7450322" lon="-3.8977553"><ele>1038.3333333333335</ele><time>2026-04-17T11:53:13.757Z</time></trkpt><trkpt lat="40.7449693" lon="-3.8978292"><ele>1037.5</ele><time>2026-04-17T11:53:14.756Z</time></trkpt><trkpt lat="40.7449055" lon="-3.8978772"><ele>1036.6666666666667</ele><time>2026-04-17T11:53:15.756Z</time></trkpt><trkpt lat="40.7448331" lon="-3.8979021"><ele>1035.8333333333333</ele><time>2026-04-17T11:53:16.757Z</time></trkpt><trkpt lat="40.7447618" lon="-3.8979023"><ele>1035.0</ele><time>2026-04-17T11:53:17.757Z</time></trkpt><trkpt lat="40.744692" lon="-3.8978891"><ele>1035.0</ele><time>2026-04-17T11:53:18.756Z</time></trkpt><trkpt lat="40.7446342" lon="-3.8978491"><ele>1035.0</ele><time>2026-04-17T11:53:19.756Z</time></trkpt><trkpt lat="40.7445665" lon="-3.8977984"><ele>1035.0</ele><time>2026-04-17T11:53:20.757Z</time></trkpt><trkpt lat="40.7445038" lon="-3.8977216"><ele>1035.0</ele><time>2026-04-17T11:53:21.757Z</time></trkpt><trkpt lat="40.7444523" lon="-3.8976259"><ele>1035.0</ele><time>2026-04-17T11:53:22.756Z</time></trkpt><trkpt lat="40.7444146" lon="-3.8975097"><ele>1035.0</ele><time>2026-04-17T11:53:23.756Z</time></trkpt><trkpt lat="40.7443617" lon="-3.8973844"><ele>1035.0</ele><time>2026-04-17T11:53:24.756Z</time></trkpt><trkpt lat="40.744304" lon="-3.8972547"><ele>1035.0</ele><time>2026-04-17T11:53:25.756Z</time></trkpt><trkpt lat="40.744242" lon="-3.8971207"><ele>1035.0</ele><time>2026-04-17T11:53:26.757Z</time></trkpt><trkpt lat="40.7441721" lon="-3.8970036"><ele>1035.0</ele><time>2026-04-17T11:53:27.756Z</time></trkpt><trkpt lat="40.7440699" lon="-3.8968993"><ele>1035.0</ele><time>2026-04-17T11:53:28.756Z</time></trkpt><trkpt lat="40.7439739" lon="-3.8967967"><ele>1035.0</ele><time>2026-04-17T11:53:29.756Z</time></trkpt><trkpt lat="40.743887" lon="-3.8966882"><ele>1035.0</ele><time>2026-04-17T11:53:30.756Z</time></trkpt><trkpt lat="40.7438023" lon="-3.8965722"><ele>1035.0</ele><time>2026-04-17T11:53:31.756Z</time></trkpt><trkpt lat="40.7437125" lon="-3.8964678"><ele>1035.0</ele><time>2026-04-17T11:53:32.756Z</time></trkpt><trkpt lat="40.7436298" lon="-3.8963759"><ele>1035.0</ele><time>2026-04-17T11:53:33.756Z</time></trkpt><trkpt lat="40.7435324" lon="-3.8962804"><ele>1035.0</ele><time>2026-04-17T11:53:34.756Z</time></trkpt><trkpt lat="40.7434285" lon="-3.8962113"><ele>1035.0</ele><time>2026-04-17T11:53:35.756Z</time></trkpt><trkpt lat="40.7433258" lon="-3.8961834"><ele>1035.0</ele><time>2026-04-17T11:53:36.757Z</time></trkpt><trkpt lat="40.7432149" lon="-3.8961875"><ele>1035.0</ele><time>2026-04-17T11:53:37.756Z</time></trkpt><trkpt lat="40.7431041" lon="-3.8961814"><ele>1035.0</ele><time>2026-04-17T11:53:38.756Z</time></trkpt><trkpt lat="40.742987" lon="-3.8961876"><ele>1035.0</ele><time>2026-04-17T11:53:39.757Z</time></trkpt><trkpt lat="40.7428682" lon="-3.8961803"><ele>1035.0</ele><time>2026-04-17T11:53:40.756Z</time></trkpt><trkpt lat="40.742743" lon="-3.8961735"><ele>1035.0</ele><time>2026-04-17T11:53:41.756Z</time></trkpt><trkpt lat="40.7426236" lon="-3.896164"><ele>1035.0</ele><time>2026-04-17T11:53:42.756Z</time></trkpt><trkpt lat="40.742499" lon="-3.8961631"><ele>1035.0</ele><time>2026-04-17T11:53:43.757Z</time></trkpt><trkpt lat="40.7423784" lon="-3.8961701"><ele>1035.25</ele><time>2026-04-17T11:53:44.757Z</time></trkpt><trkpt lat="40.7422573" lon="-3.8961698"><ele>1035.5</ele><time>2026-04-17T11:53:45.756Z</time></trkpt><trkpt lat="40.7421383" lon="-3.8961626"><ele>1035.75</ele><time>2026-04-17T11:53:46.756Z</time></trkpt><trkpt lat="40.742017" lon="-3.8961474"><ele>1036.0</ele><time>2026-04-17T11:53:47.757Z</time></trkpt><trkpt lat="40.7418996" lon="-3.8961409"><ele>1036.3333333333333</ele><time>2026-04-17T11:53:48.756Z</time></trkpt><trkpt lat="40.7417983" lon="-3.8961494"><ele>1036.6666666666665</ele><time>2026-04-17T11:53:49.756Z</time></trkpt><trkpt lat="40.7417029" lon="-3.8961637"><ele>1037.0</ele><time>2026-04-17T11:53:50.757Z</time></trkpt><trkpt lat="40.7416141" lon="-3.896167"><ele>1037.3333333333333</ele><time>2026-04-17T11:53:51.757Z</time></trkpt><trkpt lat="40.7415399" lon="-3.8961435"><ele>1037.6666666666667</ele><time>2026-04-17T11:53:52.757Z</time></trkpt><trkpt lat="40.7415013" lon="-3.8960772"><ele>1038.0</ele><time>2026-04-17T11:53:53.756Z</time></trkpt><trkpt lat="40.7414835" lon="-3.8959881"><ele>1037.6666666666667</ele><time>2026-04-17T11:53:54.756Z</time></trkpt><trkpt lat="40.7414989" lon="-3.8959023"><ele>1037.3333333333333</ele><time>2026-04-17T11:53:55.756Z</time></trkpt><trkpt lat="40.7415377" lon="-3.895804"><ele>1037.0</ele><time>2026-04-17T11:53:56.756Z</time></trkpt><trkpt lat="40.7415865" lon="-3.8957168"><ele>1036.6666666666665</ele><time>2026-04-17T11:53:57.757Z</time></trkpt><trkpt lat="40.7416435" lon="-3.895635"><ele>1036.3333333333333</ele><time>2026-04-17T11:53:58.757Z</time></trkpt><trkpt lat="40.7417055" lon="-3.8955619"><ele>1036.0</ele><time>2026-04-17T11:53:59.757Z</time></trkpt><trkpt lat="40.7417671" lon="-3.8954999"><ele>1036.0</ele><time>2026-04-17T11:54:00.756Z</time></trkpt><trkpt lat="40.7418196" lon="-3.8954437"><ele>1036.0</ele><time>2026-04-17T11:54:01.757Z</time></trkpt><trkpt lat="40.7418891" lon="-3.8953219"><ele>1036.0</ele><time>2026-04-17T11:54:03.756Z</time></trkpt><trkpt lat="40.741816" lon="-3.8952592"><ele>1036.0</ele><time>2026-04-17T11:54:06.756Z</time></trkpt><trkpt lat="40.7417067" lon="-3.8953199"><ele>1036.0</ele><time>2026-04-17T11:54:07.756Z</time></trkpt><trkpt lat="40.7415866" lon="-3.8953798"><ele>1036.0</ele><time>2026-04-17T11:54:08.756Z</time></trkpt><trkpt lat="40.7414778" lon="-3.8954364"><ele>1036.0</ele><time>2026-04-17T11:54:09.757Z</time></trkpt><trkpt lat="40.741363" lon="-3.8954869"><ele>1036.0</ele><time>2026-04-17T11:54:10.756Z</time></trkpt><trkpt lat="40.7412676" lon="-3.8955245"><ele>1036.0</ele><time>2026-04-17T11:54:11.757Z</time></trkpt><trkpt lat="40.7411671" lon="-3.8955662"><ele>1036.0</ele><time>2026-04-17T11:54:12.756Z</time></trkpt><trkpt lat="40.7410667" lon="-3.8956309"><ele>1039.0</ele><time>2026-04-17T11:54:13.756Z</time></trkpt><trkpt lat="40.7409798" lon="-3.8957206"><ele>1042.0</ele><time>2026-04-17T11:54:14.756Z</time></trkpt><trkpt lat="40.7409082" lon="-3.8958328"><ele>1045.0</ele><time>2026-04-17T11:54:15.757Z</time></trkpt><trkpt lat="40.7408429" lon="-3.8959305"><ele>1048.0</ele><time>2026-04-17T11:54:16.756Z</time></trkpt><trkpt lat="40.7407995" lon="-3.8960514"><ele>1051.0</ele><time>2026-04-17T11:54:17.756Z</time></trkpt><trkpt lat="40.7407858" lon="-3.8961844"><ele>1051.0</ele><time>2026-04-17T11:54:18.757Z</time></trkpt><trkpt lat="40.7408034" lon="-3.8962937"><ele>1051.0</ele><time>2026-04-17T11:54:19.756Z</time></trkpt><trkpt lat="40.7408472" lon="-3.8963984"><ele>1051.0</ele><time>2026-04-17T11:54:20.757Z</time></trkpt><trkpt lat="40.7408919" lon="-3.8965035"><ele>1051.0</ele><time>2026-04-17T11:54:21.756Z</time></trkpt><trkpt lat="40.7409234" lon="-3.8966273"><ele>1051.0</ele><time>2026-04-17T11:54:22.757Z</time></trkpt><trkpt lat="40.740949" lon="-3.8967577"><ele>1051.1666666666665</ele><time>2026-04-17T11:54:23.757Z</time></trkpt><trkpt lat="40.7409748" lon="-3.8968806"><ele>1051.3333333333333</ele><time>2026-04-17T11:54:24.756Z</time></trkpt><trkpt lat="40.7410238" lon="-3.8969799"><ele>1051.5</ele><time>2026-04-17T11:54:25.757Z</time></trkpt><trkpt lat="40.7410667" lon="-3.8970737"><ele>1051.6666666666667</ele><time>2026-04-17T11:54:26.756Z</time></trkpt><trkpt lat="40.7410856" lon="-3.8971562"><ele>1051.8333333333335</ele><time>2026-04-17T11:54:27.756Z</time></trkpt><trkpt lat="40.741013" lon="-3.8972251"><ele>1052.0</ele><time>2026-04-17T11:54:29.756Z</time></trkpt><trkpt lat="40.74095" lon="-3.8972072"><ele>1051.8333333333335</ele><time>2026-04-17T11:54:30.757Z</time></trkpt><trkpt lat="40.7408998" lon="-3.8971526"><ele>1051.6666666666667</ele><time>2026-04-17T11:54:31.756Z</time></trkpt><trkpt lat="40.7408579" lon="-3.8970871"><ele>1051.5</ele><time>2026-04-17T11:54:32.756Z</time></trkpt><trkpt lat="40.7408022" lon="-3.8969729"><ele>1051.3333333333333</ele><time>2026-04-17T11:54:33.756Z</time></trkpt><trkpt lat="40.7407241" lon="-3.8968848"><ele>1051.1666666666665</ele><time>2026-04-17T11:54:34.757Z</time></trkpt><trkpt lat="40.7406409" lon="-3.8968044"><ele>1051.0</ele><time>2026-04-17T11:54:35.756Z</time></trkpt><trkpt lat="40.740546" lon="-3.896731"><ele>1051.0</ele><time>2026-04-17T11:54:36.757Z</time></trkpt><trkpt lat="40.7404521" lon="-3.8966693"><ele>1051.0</ele><time>2026-04-17T11:54:37.756Z</time></trkpt><trkpt lat="40.7403558" lon="-3.8966378"><ele>1051.0</ele><time>2026-04-17T11:54:38.756Z</time></trkpt><trkpt lat="40.7402591" lon="-3.8966132"><ele>1051.0</ele><time>2026-04-17T11:54:39.756Z</time></trkpt><trkpt lat="40.7401555" lon="-3.8965874"><ele>1051.0</ele><time>2026-04-17T11:54:40.756Z</time></trkpt><trkpt lat="40.7400572" lon="-3.8965548"><ele>1053.3333333333333</ele><time>2026-04-17T11:54:41.756Z</time></trkpt><trkpt lat="40.7399662" lon="-3.8965051"><ele>1055.6666666666665</ele><time>2026-04-17T11:54:42.757Z</time></trkpt><trkpt lat="40.7398767" lon="-3.8964456"><ele>1058.0</ele><time>2026-04-17T11:54:43.757Z</time></trkpt><trkpt lat="40.7397967" lon="-3.8963943"><ele>1060.3333333333333</ele><time>2026-04-17T11:54:44.757Z</time></trkpt><trkpt lat="40.7397264" lon="-3.8963385"><ele>1062.6666666666667</ele><time>2026-04-17T11:54:45.756Z</time></trkpt><trkpt lat="40.7396712" lon="-3.8962728"><ele>1065.0</ele><time>2026-04-17T11:54:46.757Z</time></trkpt><trkpt lat="40.7396712" lon="-3.8961047"><ele>1065.0</ele><time>2026-04-17T11:54:48.757Z</time></trkpt><trkpt lat="40.7397318" lon="-3.8959947"><ele>1065.0</ele><time>2026-04-17T11:54:49.756Z</time></trkpt><trkpt lat="40.7397915" lon="-3.8958968"><ele>1065.0</ele><time>2026-04-17T11:54:50.757Z</time></trkpt><trkpt lat="40.7398559" lon="-3.8958"><ele>1065.0</ele><time>2026-04-17T11:54:51.756Z</time></trkpt><trkpt lat="40.7399396" lon="-3.895707"><ele>1065.0</ele><time>2026-04-17T11:54:52.756Z</time></trkpt><trkpt lat="40.7400211" lon="-3.8956203"><ele>1065.0</ele><time>2026-04-17T11:54:53.756Z</time></trkpt><trkpt lat="40.7400943" lon="-3.895542"><ele>1065.0</ele><time>2026-04-17T11:54:54.756Z</time></trkpt><trkpt lat="40.7401686" lon="-3.8954769"><ele>1065.0</ele><time>2026-04-17T11:54:55.756Z</time></trkpt><trkpt lat="40.7402167" lon="-3.8954126"><ele>1065.0</ele><time>2026-04-17T11:54:56.757Z</time></trkpt><trkpt lat="40.7401518" lon="-3.8952981"><ele>1065.0</ele><time>2026-04-17T11:54:58.756Z</time></trkpt><trkpt lat="40.7400307" lon="-3.8953302"><ele>1065.0</ele><time>2026-04-17T11:55:00.756Z</time></trkpt><trkpt lat="40.7399413" lon="-3.8954175"><ele>1065.0</ele><time>2026-04-17T11:55:01.756Z</time></trkpt><trkpt lat="40.7398631" lon="-3.8954891"><ele>1065.0</ele><time>2026-04-17T11:55:02.756Z</time></trkpt><trkpt lat="40.7397759" lon="-3.8955641"><ele>1065.0</ele><time>2026-04-17T11:55:03.756Z</time></trkpt><trkpt lat="40.7396883" lon="-3.8956338"><ele>1065.0</ele><time>2026-04-17T11:55:04.756Z</time></trkpt><trkpt lat="40.7395905" lon="-3.8957137"><ele>1065.0</ele><time>2026-04-17T11:55:05.756Z</time></trkpt><trkpt lat="40.7394966" lon="-3.8957794"><ele>1065.0</ele><time>2026-04-17T11:55:06.756Z</time></trkpt><trkpt lat="40.7393953" lon="-3.8958524"><ele>1065.0</ele><time>2026-04-17T11:55:07.756Z</time></trkpt><trkpt lat="40.739293" lon="-3.8959255"><ele>1065.0</ele><time>2026-04-17T11:55:08.756Z</time></trkpt><trkpt lat="40.7391896" lon="-3.8960035"><ele>1067.5</ele><time>2026-04-17T11:55:09.756Z</time></trkpt><trkpt lat="40.7390931" lon="-3.8961024"><ele>1070.0</ele><time>2026-04-17T11:55:10.756Z</time></trkpt><trkpt lat="40.7390111" lon="-3.8962263"><ele>1072.5</ele><time>2026-04-17T11:55:11.757Z</time></trkpt><trkpt lat="40.7389189" lon="-3.8963536"><ele>1075.0</ele><time>2026-04-17T11:55:12.756Z</time></trkpt><trkpt lat="40.7388302" lon="-3.8964696"><ele>1075.0</ele><time>2026-04-17T11:55:13.756Z</time></trkpt><trkpt lat="40.7387426" lon="-3.8965848"><ele>1075.0</ele><time>2026-04-17T11:55:14.757Z</time></trkpt><trkpt lat="40.7386486" lon="-3.8966825"><ele>1075.0</ele><time>2026-04-17T11:55:15.756Z</time></trkpt><trkpt lat="40.7385559" lon="-3.8967819"><ele>1075.0</ele><time>2026-04-17T11:55:16.756Z</time></trkpt><trkpt lat="40.7384707" lon="-3.8968724"><ele>1078.2</ele><time>2026-04-17T11:55:17.756Z</time></trkpt><trkpt lat="40.7383897" lon="-3.8969682"><ele>1081.4</ele><time>2026-04-17T11:55:18.757Z</time></trkpt><trkpt lat="40.7383071" lon="-3.8970629"><ele>1084.6</ele><time>2026-04-17T11:55:19.757Z</time></trkpt><trkpt lat="40.7382206" lon="-3.8971573"><ele>1087.8</ele><time>2026-04-17T11:55:20.757Z</time></trkpt><trkpt lat="40.7381302" lon="-3.8972471"><ele>1091.0</ele><time>2026-04-17T11:55:21.756Z</time></trkpt><trkpt lat="40.7380308" lon="-3.8973473"><ele>1091.0</ele><time>2026-04-17T11:55:22.756Z</time></trkpt><trkpt lat="40.7379247" lon="-3.8974438"><ele>1091.0</ele><time>2026-04-17T11:55:23.756Z</time></trkpt><trkpt lat="40.7378157" lon="-3.897541"><ele>1091.0</ele><time>2026-04-17T11:55:24.757Z</time></trkpt><trkpt lat="40.7377047" lon="-3.8976374"><ele>1091.0</ele><time>2026-04-17T11:55:25.756Z</time></trkpt><trkpt lat="40.737597" lon="-3.8977276"><ele>1090.0</ele><time>2026-04-17T11:55:26.756Z</time></trkpt><trkpt lat="40.7374886" lon="-3.8978195"><ele>1089.0</ele><time>2026-04-17T11:55:27.756Z</time></trkpt><trkpt lat="40.7373881" lon="-3.8979166"><ele>1088.0</ele><time>2026-04-17T11:55:28.756Z</time></trkpt><trkpt lat="40.7372873" lon="-3.8980026"><ele>1087.0</ele><time>2026-04-17T11:55:29.756Z</time></trkpt><trkpt lat="40.7371935" lon="-3.8980932"><ele>1087.0</ele><time>2026-04-17T11:55:30.757Z</time></trkpt><trkpt lat="40.7371103" lon="-3.8981779"><ele>1087.0</ele><time>2026-04-17T11:55:31.757Z</time></trkpt><trkpt lat="40.7370293" lon="-3.8982499"><ele>1087.0</ele><time>2026-04-17T11:55:32.756Z</time></trkpt><trkpt lat="40.7369565" lon="-3.8983168"><ele>1087.0</ele><time>2026-04-17T11:55:33.756Z</time></trkpt><trkpt lat="40.7368871" lon="-3.8983828"><ele>1087.0</ele><time>2026-04-17T11:55:34.757Z</time></trkpt><trkpt lat="40.7368231" lon="-3.8984336"><ele>1082.6</ele><time>2026-04-17T11:55:35.756Z</time></trkpt><trkpt lat="40.736735" lon="-3.8983596"><ele>1078.2</ele><time>2026-04-17T11:55:37.757Z</time></trkpt><trkpt lat="40.736767" lon="-3.8982303"><ele>1073.8</ele><time>2026-04-17T11:55:39.756Z</time></trkpt><trkpt lat="40.7368058" lon="-3.8981429"><ele>1069.4</ele><time>2026-04-17T11:55:40.756Z</time></trkpt><trkpt lat="40.7368571" lon="-3.8980503"><ele>1065.0</ele><time>2026-04-17T11:55:41.756Z</time></trkpt><trkpt lat="40.7368849" lon="-3.8979438"><ele>1065.0</ele><time>2026-04-17T11:55:42.757Z</time></trkpt><trkpt lat="40.7368822" lon="-3.8978189"><ele>1065.0</ele><time>2026-04-17T11:55:43.756Z</time></trkpt><trkpt lat="40.7368454" lon="-3.8977045"><ele>1065.0</ele><time>2026-04-17T11:55:44.757Z</time></trkpt><trkpt lat="40.7367861" lon="-3.8975959"><ele>1065.0</ele><time>2026-04-17T11:55:45.756Z</time></trkpt><trkpt lat="40.7367099" lon="-3.8974789"><ele>1065.0</ele><time>2026-04-17T11:55:46.756Z</time></trkpt><trkpt lat="40.7366167" lon="-3.8973825"><ele>1064.75</ele><time>2026-04-17T11:55:47.757Z</time></trkpt><trkpt lat="40.7364942" lon="-3.8973065"><ele>1064.5</ele><time>2026-04-17T11:55:48.756Z</time></trkpt><trkpt lat="40.7363646" lon="-3.897258"><ele>1064.25</ele><time>2026-04-17T11:55:49.756Z</time></trkpt><trkpt lat="40.7362234" lon="-3.8972269"><ele>1064.0</ele><time>2026-04-17T11:55:50.757Z</time></trkpt><trkpt lat="40.7360815" lon="-3.8972021"><ele>1059.0</ele><time>2026-04-17T11:55:51.757Z</time></trkpt><trkpt lat="40.7359425" lon="-3.8971831"><ele>1054.0</ele><time>2026-04-17T11:55:52.756Z</time></trkpt><trkpt lat="40.7358031" lon="-3.8971453"><ele>1049.0</ele><time>2026-04-17T11:55:53.756Z</time></trkpt><trkpt lat="40.735671" lon="-3.8970928"><ele>1044.0</ele><time>2026-04-17T11:55:54.757Z</time></trkpt><trkpt lat="40.7355456" lon="-3.8970275"><ele>1044.0</ele><time>2026-04-17T11:55:55.757Z</time></trkpt><trkpt lat="40.7354345" lon="-3.8969424"><ele>1044.0</ele><time>2026-04-17T11:55:56.757Z</time></trkpt><trkpt lat="40.73532" lon="-3.8968629"><ele>1044.0</ele><time>2026-04-17T11:55:57.756Z</time></trkpt><trkpt lat="40.7351964" lon="-3.8968058"><ele>1044.0</ele><time>2026-04-17T11:55:58.756Z</time></trkpt><trkpt lat="40.7350651" lon="-3.896785"><ele>1039.75</ele><time>2026-04-17T11:55:59.756Z</time></trkpt><trkpt lat="40.7349221" lon="-3.8967858"><ele>1035.5</ele><time>2026-04-17T11:56:00.756Z</time></trkpt><trkpt lat="40.7347817" lon="-3.896803"><ele>1031.25</ele><time>2026-04-17T11:56:01.757Z</time></trkpt><trkpt lat="40.7346483" lon="-3.8968173"><ele>1027.0</ele><time>2026-04-17T11:56:02.757Z</time></trkpt><trkpt lat="40.7345189" lon="-3.8968205"><ele>1027.25</ele><time>2026-04-17T11:56:03.756Z</time></trkpt><trkpt lat="40.7343804" lon="-3.8968216"><ele>1027.5</ele><time>2026-04-17T11:56:04.756Z</time></trkpt><trkpt lat="40.7342432" lon="-3.8968324"><ele>1027.75</ele><time>2026-04-17T11:56:05.757Z</time></trkpt><trkpt lat="40.7341176" lon="-3.8968832"><ele>1028.0</ele><time>2026-04-17T11:56:06.757Z</time></trkpt><trkpt lat="40.7340026" lon="-3.8969587"><ele>1028.0</ele><time>2026-04-17T11:56:07.757Z</time></trkpt><trkpt lat="40.7338862" lon="-3.8970364"><ele>1028.0</ele><time>2026-04-17T11:56:08.756Z</time></trkpt><trkpt lat="40.7337777" lon="-3.8971274"><ele>1028.0</ele><time>2026-04-17T11:56:09.757Z</time></trkpt><trkpt lat="40.7336788" lon="-3.8972258"><ele>1028.0</ele><time>2026-04-17T11:56:10.757Z</time></trkpt><trkpt lat="40.7335915" lon="-3.8973305"><ele>1029.0</ele><time>2026-04-17T11:56:11.756Z</time></trkpt><trkpt lat="40.7334966" lon="-3.8974409"><ele>1030.0</ele><time>2026-04-17T11:56:12.757Z</time></trkpt><trkpt lat="40.7334003" lon="-3.8975507"><ele>1031.0</ele><time>2026-04-17T11:56:13.757Z</time></trkpt><trkpt lat="40.7333056" lon="-3.8976544"><ele>1032.0</ele><time>2026-04-17T11:56:14.756Z</time></trkpt><trkpt lat="40.7332138" lon="-3.8977634"><ele>1027.6</ele><time>2026-04-17T11:56:15.757Z</time></trkpt><trkpt lat="40.7331162" lon="-3.8978546"><ele>1023.2</ele><time>2026-04-17T11:56:16.756Z</time></trkpt><trkpt lat="40.7330167" lon="-3.8979289"><ele>1018.8</ele><time>2026-04-17T11:56:17.757Z</time></trkpt><trkpt lat="40.7329197" lon="-3.8979745"><ele>1014.4</ele><time>2026-04-17T11:56:18.757Z</time></trkpt><trkpt lat="40.7328135" lon="-3.8980114"><ele>1010.0</ele><time>2026-04-17T11:56:19.757Z</time></trkpt><trkpt lat="40.732706" lon="-3.8980306"><ele>1009.0</ele><time>2026-04-17T11:56:20.756Z</time></trkpt><trkpt lat="40.7325961" lon="-3.8980522"><ele>1008.0</ele><time>2026-04-17T11:56:21.756Z</time></trkpt><trkpt lat="40.732491" lon="-3.8980654"><ele>1007.0</ele><time>2026-04-17T11:56:22.757Z</time></trkpt><trkpt lat="40.7323914" lon="-3.8980532"><ele>1006.0</ele><time>2026-04-17T11:56:23.756Z</time></trkpt><trkpt lat="40.7323116" lon="-3.8979892"><ele>1005.0</ele><time>2026-04-17T11:56:24.756Z</time></trkpt><trkpt lat="40.7322367" lon="-3.8979065"><ele>1005.0</ele><time>2026-04-17T11:56:25.756Z</time></trkpt><trkpt lat="40.7321633" lon="-3.8978154"><ele>1005.0</ele><time>2026-04-17T11:56:26.757Z</time></trkpt><trkpt lat="40.7320901" lon="-3.8977235"><ele>1005.0</ele><time>2026-04-17T11:56:27.757Z</time></trkpt><trkpt lat="40.7320218" lon="-3.8976181"><ele>1005.0</ele><time>2026-04-17T11:56:28.756Z</time></trkpt><trkpt lat="40.7319597" lon="-3.8974984"><ele>1005.0</ele><time>2026-04-17T11:56:29.756Z</time></trkpt><trkpt lat="40.7319085" lon="-3.8973681"><ele>1005.0</ele><time>2026-04-17T11:56:30.756Z</time></trkpt><trkpt lat="40.7318674" lon="-3.8972378"><ele>1005.0</ele><time>2026-04-17T11:56:31.756Z</time></trkpt><trkpt lat="40.7318422" lon="-3.8971168"><ele>1005.0</ele><time>2026-04-17T11:56:32.756Z</time></trkpt><trkpt lat="40.7318375" lon="-3.8970026"><ele>1005.0</ele><time>2026-04-17T11:56:33.756Z</time></trkpt><trkpt lat="40.7318376" lon="-3.8968977"><ele>1005.0</ele><time>2026-04-17T11:56:34.756Z</time></trkpt><trkpt lat="40.731841" lon="-3.8967988"><ele>1005.0</ele><time>2026-04-17T11:56:35.756Z</time></trkpt><trkpt lat="40.7317581" lon="-3.8967283"><ele>1005.0</ele><time>2026-04-17T11:56:37.756Z</time></trkpt><trkpt lat="40.7316773" lon="-3.8968244"><ele>1005.0</ele><time>2026-04-17T11:56:39.756Z</time></trkpt><trkpt lat="40.7316679" lon="-3.8969215"><ele>1005.0</ele><time>2026-04-17T11:56:40.757Z</time></trkpt><trkpt lat="40.7316551" lon="-3.8970262"><ele>1005.0</ele><time>2026-04-17T11:56:41.756Z</time></trkpt><trkpt lat="40.7316364" lon="-3.8971323"><ele>1005.0</ele><time>2026-04-17T11:56:42.756Z</time></trkpt><trkpt lat="40.7316092" lon="-3.8972315"><ele>1005.0</ele><time>2026-04-17T11:56:43.756Z</time></trkpt><trkpt lat="40.7315865" lon="-3.8973281"><ele>1005.0</ele><time>2026-04-17T11:56:44.757Z</time></trkpt><trkpt lat="40.7315609" lon="-3.8974154"><ele>1005.0</ele><time>2026-04-17T11:56:45.756Z</time></trkpt><trkpt lat="40.7315335" lon="-3.8974903"><ele>1005.0</ele><time>2026-04-17T11:56:46.756Z</time></trkpt><trkpt lat="40.731428" lon="-3.8975744"><ele>1005.0</ele><time>2026-04-17T11:56:48.756Z</time></trkpt><trkpt lat="40.7313695" lon="-3.8975435"><ele>1005.0</ele><time>2026-04-17T11:56:49.757Z</time></trkpt><trkpt lat="40.731325" lon="-3.8974595"><ele>1005.0</ele><time>2026-04-17T11:56:50.757Z</time></trkpt><trkpt lat="40.7312953" lon="-3.8973669"><ele>1005.0</ele><time>2026-04-17T11:56:51.756Z</time></trkpt><trkpt lat="40.7312527" lon="-3.8972493"><ele>1005.0</ele><time>2026-04-17T11:56:52.756Z</time></trkpt><trkpt lat="40.7312" lon="-3.8971256"><ele>1005.0</ele><time>2026-04-17T11:56:53.757Z</time></trkpt><trkpt lat="40.7311258" lon="-3.8970106"><ele>1005.0</ele><time>2026-04-17T11:56:54.757Z</time></trkpt><trkpt lat="40.7310404" lon="-3.8968844"><ele>1005.0</ele><time>2026-04-17T11:56:55.757Z</time></trkpt><trkpt lat="40.7309499" lon="-3.8967544"><ele>1000.75</ele><time>2026-04-17T11:56:56.756Z</time></trkpt><trkpt lat="40.730864" lon="-3.8966214"><ele>996.5</ele><time>2026-04-17T11:56:57.757Z</time></trkpt><trkpt lat="40.7307773" lon="-3.8964994"><ele>992.25</ele><time>2026-04-17T11:56:58.756Z</time></trkpt><trkpt lat="40.7306836" lon="-3.8964068"><ele>988.0</ele><time>2026-04-17T11:56:59.756Z</time></trkpt><trkpt lat="40.73058" lon="-3.8963532"><ele>988.0</ele><time>2026-04-17T11:57:00.756Z</time></trkpt><trkpt lat="40.7304747" lon="-3.8963262"><ele>988.0</ele><time>2026-04-17T11:57:01.756Z</time></trkpt><trkpt lat="40.7303711" lon="-3.8963118"><ele>988.0</ele><time>2026-04-17T11:57:02.756Z</time></trkpt><trkpt lat="40.730267" lon="-3.8963174"><ele>988.0</ele><time>2026-04-17T11:57:03.757Z</time></trkpt><trkpt lat="40.7301654" lon="-3.8963306"><ele>988.0</ele><time>2026-04-17T11:57:04.757Z</time></trkpt><trkpt lat="40.7300704" lon="-3.8963482"><ele>987.1666666666666</ele><time>2026-04-17T11:57:05.757Z</time></trkpt><trkpt lat="40.7299844" lon="-3.8963613"><ele>986.3333333333333</ele><time>2026-04-17T11:57:06.756Z</time></trkpt><trkpt lat="40.7299079" lon="-3.8963735"><ele>985.5</ele><time>2026-04-17T11:57:07.756Z</time></trkpt><trkpt lat="40.7298385" lon="-3.8963381"><ele>984.6666666666667</ele><time>2026-04-17T11:57:08.756Z</time></trkpt><trkpt lat="40.7297752" lon="-3.8962523"><ele>983.8333333333334</ele><time>2026-04-17T11:57:09.756Z</time></trkpt><trkpt lat="40.7297309" lon="-3.8961679"><ele>983.0</ele><time>2026-04-17T11:57:10.756Z</time></trkpt><trkpt lat="40.7297239" lon="-3.8960764"><ele>983.0</ele><time>2026-04-17T11:57:11.757Z</time></trkpt><trkpt lat="40.7297204" lon="-3.8959666"><ele>983.0</ele><time>2026-04-17T11:57:12.757Z</time></trkpt><trkpt lat="40.7297022" lon="-3.8958331"><ele>983.0</ele><time>2026-04-17T11:57:13.757Z</time></trkpt><trkpt lat="40.7296823" lon="-3.8957055"><ele>983.0</ele><time>2026-04-17T11:57:14.756Z</time></trkpt><trkpt lat="40.7296672" lon="-3.8955924"><ele>983.0</ele><time>2026-04-17T11:57:15.757Z</time></trkpt><trkpt lat="40.7296481" lon="-3.8954654"><ele>981.5999999999999</ele><time>2026-04-17T11:57:16.756Z</time></trkpt><trkpt lat="40.7296251" lon="-3.8953461"><ele>980.1999999999999</ele><time>2026-04-17T11:57:17.756Z</time></trkpt><trkpt lat="40.7295951" lon="-3.8952297"><ele>978.8</ele><time>2026-04-17T11:57:18.757Z</time></trkpt><trkpt lat="40.729561" lon="-3.8951227"><ele>977.4</ele><time>2026-04-17T11:57:19.756Z</time></trkpt><trkpt lat="40.7295291" lon="-3.8950116"><ele>976.0</ele><time>2026-04-17T11:57:20.756Z</time></trkpt><trkpt lat="40.7294876" lon="-3.8949094"><ele>976.3333333333333</ele><time>2026-04-17T11:57:21.756Z</time></trkpt><trkpt lat="40.7294425" lon="-3.8948117"><ele>976.6666666666666</ele><time>2026-04-17T11:57:22.756Z</time></trkpt><trkpt lat="40.7294032" lon="-3.8947096"><ele>977.0</ele><time>2026-04-17T11:57:23.757Z</time></trkpt><trkpt lat="40.7293708" lon="-3.8946092"><ele>977.3333333333333</ele><time>2026-04-17T11:57:24.756Z</time></trkpt><trkpt lat="40.7293314" lon="-3.8945045"><ele>977.6666666666666</ele><time>2026-04-17T11:57:25.757Z</time></trkpt><trkpt lat="40.7292819" lon="-3.8943867"><ele>978.0</ele><time>2026-04-17T11:57:26.756Z</time></trkpt><trkpt lat="40.7292388" lon="-3.8942701"><ele>976.4</ele><time>2026-04-17T11:57:27.757Z</time></trkpt><trkpt lat="40.7291897" lon="-3.8941561"><ele>974.8</ele><time>2026-04-17T11:57:28.757Z</time></trkpt><trkpt lat="40.7291389" lon="-3.8940424"><ele>973.2</ele><time>2026-04-17T11:57:29.757Z</time></trkpt><trkpt lat="40.7290839" lon="-3.8939261"><ele>971.6</ele><time>2026-04-17T11:57:30.756Z</time></trkpt><trkpt lat="40.7290281" lon="-3.8938046"><ele>970.0</ele><time>2026-04-17T11:57:31.757Z</time></trkpt><trkpt lat="40.7289763" lon="-3.8936823"><ele>970.0</ele><time>2026-04-17T11:57:32.756Z</time></trkpt><trkpt lat="40.7289278" lon="-3.8935569"><ele>970.0</ele><time>2026-04-17T11:57:33.756Z</time></trkpt><trkpt lat="40.7288741" lon="-3.8934268"><ele>970.0</ele><time>2026-04-17T11:57:34.757Z</time></trkpt><trkpt lat="40.7288195" lon="-3.8932975"><ele>970.0</ele><time>2026-04-17T11:57:35.757Z</time></trkpt><trkpt lat="40.7287654" lon="-3.8931699"><ele>970.0</ele><time>2026-04-17T11:57:36.756Z</time></trkpt><trkpt lat="40.7286919" lon="-3.8930579"><ele>968.25</ele><time>2026-04-17T11:57:37.757Z</time></trkpt><trkpt lat="40.7286094" lon="-3.8929625"><ele>966.5</ele><time>2026-04-17T11:57:38.756Z</time></trkpt><trkpt lat="40.7285201" lon="-3.8928661"><ele>964.75</ele><time>2026-04-17T11:57:39.757Z</time></trkpt><trkpt lat="40.7284342" lon="-3.8927644"><ele>963.0</ele><time>2026-04-17T11:57:40.756Z</time></trkpt><trkpt lat="40.7283509" lon="-3.8926525"><ele>961.0</ele><time>2026-04-17T11:57:41.756Z</time></trkpt><trkpt lat="40.7282718" lon="-3.8925433"><ele>959.0</ele><time>2026-04-17T11:57:42.756Z</time></trkpt><trkpt lat="40.7281983" lon="-3.8924402"><ele>957.0</ele><time>2026-04-17T11:57:43.757Z</time></trkpt><trkpt lat="40.7281157" lon="-3.8923387"><ele>955.0</ele><time>2026-04-17T11:57:44.757Z</time></trkpt><trkpt lat="40.7280267" lon="-3.8922497"><ele>953.0</ele><time>2026-04-17T11:57:45.756Z</time></trkpt><trkpt lat="40.7279366" lon="-3.8921484"><ele>953.0</ele><time>2026-04-17T11:57:46.757Z</time></trkpt><trkpt lat="40.7278459" lon="-3.8920465"><ele>953.0</ele><time>2026-04-17T11:57:47.756Z</time></trkpt><trkpt lat="40.7277593" lon="-3.8919447"><ele>953.0</ele><time>2026-04-17T11:57:48.756Z</time></trkpt><trkpt lat="40.7276712" lon="-3.8918446"><ele>953.0</ele><time>2026-04-17T11:57:49.756Z</time></trkpt><trkpt lat="40.7275823" lon="-3.8917363"><ele>951.25</ele><time>2026-04-17T11:57:50.757Z</time></trkpt><trkpt lat="40.7274947" lon="-3.8916408"><ele>949.5</ele><time>2026-04-17T11:57:51.756Z</time></trkpt><trkpt lat="40.7274068" lon="-3.891542"><ele>947.75</ele><time>2026-04-17T11:57:52.757Z</time></trkpt><trkpt lat="40.7273218" lon="-3.8914476"><ele>946.0</ele><time>2026-04-17T11:57:53.757Z</time></trkpt><trkpt lat="40.7272367" lon="-3.8913532"><ele>946.0</ele><time>2026-04-17T11:57:54.756Z</time></trkpt><trkpt lat="40.7271573" lon="-3.8912586"><ele>945.9999999999999</ele><time>2026-04-17T11:57:55.756Z</time></trkpt><trkpt lat="40.7270853" lon="-3.8911658"><ele>945.9999999999999</ele><time>2026-04-17T11:57:56.756Z</time></trkpt><trkpt lat="40.7270197" lon="-3.8910571"><ele>946.0</ele><time>2026-04-17T11:57:57.756Z</time></trkpt><trkpt lat="40.7269592" lon="-3.8909576"><ele>946.0</ele><time>2026-04-17T11:57:58.756Z</time></trkpt><trkpt lat="40.7268991" lon="-3.8908528"><ele>945.4</ele><time>2026-04-17T11:57:59.756Z</time></trkpt><trkpt lat="40.7268403" lon="-3.8907411"><ele>944.8</ele><time>2026-04-17T11:58:00.756Z</time></trkpt><trkpt lat="40.7267817" lon="-3.8906282"><ele>944.1999999999999</ele><time>2026-04-17T11:58:01.757Z</time></trkpt><trkpt lat="40.726724" lon="-3.8905211"><ele>943.5999999999999</ele><time>2026-04-17T11:58:02.756Z</time></trkpt><trkpt lat="40.7266646" lon="-3.8904254"><ele>943.0</ele><time>2026-04-17T11:58:03.756Z</time></trkpt><trkpt lat="40.7266005" lon="-3.8903389"><ele>942.9999999999999</ele><time>2026-04-17T11:58:04.757Z</time></trkpt><trkpt lat="40.7265406" lon="-3.8902567"><ele>943.0</ele><time>2026-04-17T11:58:05.757Z</time></trkpt><trkpt lat="40.726482" lon="-3.8901775"><ele>943.0</ele><time>2026-04-17T11:58:06.756Z</time></trkpt><trkpt lat="40.7264241" lon="-3.8900981"><ele>943.0</ele><time>2026-04-17T11:58:07.756Z</time></trkpt><trkpt lat="40.7263677" lon="-3.8900231"><ele>942.9999999999999</ele><time>2026-04-17T11:58:08.757Z</time></trkpt><trkpt lat="40.7263141" lon="-3.8899507"><ele>943.0</ele><time>2026-04-17T11:58:09.757Z</time></trkpt><trkpt lat="40.7262671" lon="-3.8898877"><ele>941.8333333333333</ele><time>2026-04-17T11:58:10.756Z</time></trkpt><trkpt lat="40.726215" lon="-3.889824"><ele>940.6666666666666</ele><time>2026-04-17T11:58:11.757Z</time></trkpt><trkpt lat="40.7261719" lon="-3.8897624"><ele>939.5</ele><time>2026-04-17T11:58:12.756Z</time></trkpt><trkpt lat="40.7261244" lon="-3.889701"><ele>938.3333333333333</ele><time>2026-04-17T11:58:13.756Z</time></trkpt><trkpt lat="40.7260812" lon="-3.8896359"><ele>937.1666666666666</ele><time>2026-04-17T11:58:14.757Z</time></trkpt><trkpt lat="40.7260091" lon="-3.8895139"><ele>936.0</ele><time>2026-04-17T11:58:16.757Z</time></trkpt><trkpt lat="40.7259343" lon="-3.8893899"><ele>935.1666666666666</ele><time>2026-04-17T11:58:18.756Z</time></trkpt><trkpt lat="40.7258561" lon="-3.8892529"><ele>934.3333333333333</ele><time>2026-04-17T11:58:20.756Z</time></trkpt><trkpt lat="40.7258054" lon="-3.8891807"><ele>933.5</ele><time>2026-04-17T11:58:21.756Z</time></trkpt><trkpt lat="40.7257529" lon="-3.889108"><ele>932.6666666666666</ele><time>2026-04-17T11:58:22.756Z</time></trkpt><trkpt lat="40.7257004" lon="-3.8890294"><ele>931.8333333333333</ele><time>2026-04-17T11:58:23.756Z</time></trkpt><trkpt lat="40.7256481" lon="-3.8889519"><ele>931.0</ele><time>2026-04-17T11:58:24.756Z</time></trkpt><trkpt lat="40.7255916" lon="-3.8888674"><ele>930.9999999999999</ele><time>2026-04-17T11:58:25.757Z</time></trkpt><trkpt lat="40.7255289" lon="-3.8887826"><ele>931.0</ele><time>2026-04-17T11:58:26.756Z</time></trkpt><trkpt lat="40.725469" lon="-3.8886909"><ele>931.0</ele><time>2026-04-17T11:58:27.757Z</time></trkpt><trkpt lat="40.7254218" lon="-3.8885994"><ele>931.0</ele><time>2026-04-17T11:58:28.757Z</time></trkpt><trkpt lat="40.7253785" lon="-3.8885081"><ele>930.9999999999999</ele><time>2026-04-17T11:58:29.757Z</time></trkpt><trkpt lat="40.7253438" lon="-3.8884205"><ele>931.0</ele><time>2026-04-17T11:58:30.756Z</time></trkpt><trkpt lat="40.7252908" lon="-3.8882853"><ele>931.1999999999999</ele><time>2026-04-17T11:58:32.757Z</time></trkpt><trkpt lat="40.7252438" lon="-3.8881737"><ele>931.3999999999999</ele><time>2026-04-17T11:58:34.756Z</time></trkpt><trkpt lat="40.7251979" lon="-3.888059"><ele>931.6</ele><time>2026-04-17T11:58:36.756Z</time></trkpt><trkpt lat="40.7251635" lon="-3.8879378"><ele>931.8</ele><time>2026-04-17T11:58:38.756Z</time></trkpt><trkpt lat="40.7251468" lon="-3.88777"><ele>932.0</ele><time>2026-04-17T11:58:40.757Z</time></trkpt><trkpt lat="40.7251493" lon="-3.8876849"><ele>931.8571428571429</ele><time>2026-04-17T11:58:41.756Z</time></trkpt><trkpt lat="40.7251541" lon="-3.8875951"><ele>931.7142857142857</ele><time>2026-04-17T11:58:42.756Z</time></trkpt><trkpt lat="40.7251729" lon="-3.887504"><ele>931.5714285714286</ele><time>2026-04-17T11:58:43.757Z</time></trkpt><trkpt lat="40.7251989" lon="-3.8874075"><ele>931.4285714285714</ele><time>2026-04-17T11:58:44.756Z</time></trkpt><trkpt lat="40.7252078" lon="-3.887313"><ele>931.2857142857142</ele><time>2026-04-17T11:58:45.756Z</time></trkpt><trkpt lat="40.7252141" lon="-3.8872211"><ele>931.1428571428571</ele><time>2026-04-17T11:58:46.757Z</time></trkpt><trkpt lat="40.7252222" lon="-3.8871277"><ele>931.0</ele><time>2026-04-17T11:58:47.757Z</time></trkpt><trkpt lat="40.7252305" lon="-3.8870321"><ele>931.0</ele><time>2026-04-17T11:58:48.757Z</time></trkpt><trkpt lat="40.725238" lon="-3.8869347"><ele>931.0</ele><time>2026-04-17T11:58:49.756Z</time></trkpt><trkpt lat="40.725238" lon="-3.8868416"><ele>931.0</ele><time>2026-04-17T11:58:50.757Z</time></trkpt><trkpt lat="40.725234" lon="-3.8867526"><ele>931.0</ele><time>2026-04-17T11:58:51.757Z</time></trkpt><trkpt lat="40.7252302" lon="-3.8866636"><ele>931.0</ele><time>2026-04-17T11:58:52.757Z</time></trkpt><trkpt lat="40.7252231" lon="-3.8865717"><ele>931.0</ele><time>2026-04-17T11:58:53.757Z</time></trkpt><trkpt lat="40.7252145" lon="-3.8864764"><ele>931.0</ele><time>2026-04-17T11:58:54.756Z</time></trkpt><trkpt lat="40.7252074" lon="-3.8863764"><ele>930.5714285714286</ele><time>2026-04-17T11:58:55.756Z</time></trkpt><trkpt lat="40.7252063" lon="-3.8862765"><ele>930.1428571428571</ele><time>2026-04-17T11:58:56.756Z</time></trkpt><trkpt lat="40.7252122" lon="-3.8861806"><ele>929.7142857142858</ele><time>2026-04-17T11:58:57.756Z</time></trkpt><trkpt lat="40.725221" lon="-3.8860896"><ele>929.2857142857143</ele><time>2026-04-17T11:58:58.757Z</time></trkpt><trkpt lat="40.7252306" lon="-3.8859936"><ele>928.8571428571429</ele><time>2026-04-17T11:58:59.756Z</time></trkpt><trkpt lat="40.7252406" lon="-3.8859015"><ele>928.4285714285716</ele><time>2026-04-17T11:59:00.756Z</time></trkpt><trkpt lat="40.7252433" lon="-3.8858103"><ele>928.0000000000001</ele><time>2026-04-17T11:59:01.756Z</time></trkpt><trkpt lat="40.7252494" lon="-3.885719"><ele>927.9999999999999</ele><time>2026-04-17T11:59:02.756Z</time></trkpt><trkpt lat="40.7252612" lon="-3.8856256"><ele>928.0</ele><time>2026-04-17T11:59:03.756Z</time></trkpt><trkpt lat="40.725278" lon="-3.8855297"><ele>928.0</ele><time>2026-04-17T11:59:04.756Z</time></trkpt><trkpt lat="40.7252962" lon="-3.8854292"><ele>928.0</ele><time>2026-04-17T11:59:05.756Z</time></trkpt><trkpt lat="40.7253177" lon="-3.8853144"><ele>927.9999999999999</ele><time>2026-04-17T11:59:06.757Z</time></trkpt><trkpt lat="40.725337" lon="-3.8852034"><ele>928.0</ele><time>2026-04-17T11:59:07.757Z</time></trkpt><trkpt lat="40.7253571" lon="-3.8850891"><ele>927.4999999999999</ele><time>2026-04-17T11:59:08.756Z</time></trkpt><trkpt lat="40.725373" lon="-3.8849685"><ele>927.0</ele><time>2026-04-17T11:59:09.756Z</time></trkpt><trkpt lat="40.7253785" lon="-3.8848528"><ele>926.5</ele><time>2026-04-17T11:59:10.757Z</time></trkpt><trkpt lat="40.7253722" lon="-3.8847581"><ele>926.0</ele><time>2026-04-17T11:59:11.757Z</time></trkpt><trkpt lat="40.7253527" lon="-3.8846674"><ele>925.4999999999999</ele><time>2026-04-17T11:59:12.756Z</time></trkpt><trkpt lat="40.7253116" lon="-3.8845258"><ele>925.0</ele><time>2026-04-17T11:59:14.756Z</time></trkpt><trkpt lat="40.7252961" lon="-3.8843926"><ele>924.9999999999999</ele><time>2026-04-17T11:59:16.757Z</time></trkpt><trkpt lat="40.7252904" lon="-3.8842831"><ele>925.0</ele><time>2026-04-17T11:59:18.756Z</time></trkpt><trkpt lat="40.7253335" lon="-3.8841414"><ele>925.0</ele><time>2026-04-17T11:59:20.756Z</time></trkpt><trkpt lat="40.7253639" lon="-3.8840613"><ele>925.0</ele><time>2026-04-17T11:59:21.756Z</time></trkpt><trkpt lat="40.7253756" lon="-3.8839658"><ele>924.9999999999999</ele><time>2026-04-17T11:59:22.756Z</time></trkpt><trkpt lat="40.725379" lon="-3.8838527"><ele>925.0</ele><time>2026-04-17T11:59:23.757Z</time></trkpt><trkpt lat="40.7253783" lon="-3.8837366"><ele>924.4</ele><time>2026-04-17T11:59:24.757Z</time></trkpt><trkpt lat="40.7253904" lon="-3.8836108"><ele>923.8</ele><time>2026-04-17T11:59:25.756Z</time></trkpt><trkpt lat="40.7254143" lon="-3.8834786"><ele>923.2</ele><time>2026-04-17T11:59:26.757Z</time></trkpt><trkpt lat="40.7254471" lon="-3.8833458"><ele>922.6</ele><time>2026-04-17T11:59:27.757Z</time></trkpt><trkpt lat="40.7254807" lon="-3.8832208"><ele>922.0</ele><time>2026-04-17T11:59:28.756Z</time></trkpt><trkpt lat="40.7255101" lon="-3.8830915"><ele>921.6</ele><time>2026-04-17T11:59:29.756Z</time></trkpt><trkpt lat="40.7255375" lon="-3.8829685"><ele>921.2</ele><time>2026-04-17T11:59:30.757Z</time></trkpt><trkpt lat="40.7255745" lon="-3.8828545"><ele>920.8</ele><time>2026-04-17T11:59:31.757Z</time></trkpt><trkpt lat="40.7256142" lon="-3.8827392"><ele>920.4</ele><time>2026-04-17T11:59:32.756Z</time></trkpt><trkpt lat="40.725654" lon="-3.8826245"><ele>920.0</ele><time>2026-04-17T11:59:33.756Z</time></trkpt><trkpt lat="40.7256885" lon="-3.8825126"><ele>919.9999999999999</ele><time>2026-04-17T11:59:34.756Z</time></trkpt><trkpt lat="40.7257087" lon="-3.8824112"><ele>920.0</ele><time>2026-04-17T11:59:35.756Z</time></trkpt><trkpt lat="40.7257191" lon="-3.8823066"><ele>919.9999999999999</ele><time>2026-04-17T11:59:36.757Z</time></trkpt><trkpt lat="40.7257303" lon="-3.8822153"><ele>919.9999999999999</ele><time>2026-04-17T11:59:37.756Z</time></trkpt><trkpt lat="40.7257397" lon="-3.8821318"><ele>920.0</ele><time>2026-04-17T11:59:38.757Z</time></trkpt><trkpt lat="40.7257581" lon="-3.8820467"><ele>919.9999999999999</ele><time>2026-04-17T11:59:39.756Z</time></trkpt><trkpt lat="40.72578" lon="-3.881963"><ele>919.9999999999999</ele><time>2026-04-17T11:59:40.756Z</time></trkpt><trkpt lat="40.7257989" lon="-3.8818742"><ele>920.0</ele><time>2026-04-17T11:59:41.756Z</time></trkpt><trkpt lat="40.7258027" lon="-3.8817824"><ele>920.0</ele><time>2026-04-17T11:59:42.757Z</time></trkpt><trkpt lat="40.7258063" lon="-3.8816274"><ele>920.0</ele><time>2026-04-17T11:59:44.756Z</time></trkpt><trkpt lat="40.7258323" lon="-3.8814788"><ele>920.0</ele><time>2026-04-17T11:59:46.756Z</time></trkpt><trkpt lat="40.7258743" lon="-3.8813496"><ele>920.0</ele><time>2026-04-17T11:59:48.756Z</time></trkpt><trkpt lat="40.7259138" lon="-3.8812162"><ele>919.8333333333334</ele><time>2026-04-17T11:59:50.756Z</time></trkpt><trkpt lat="40.7259361" lon="-3.8810633"><ele>919.6666666666667</ele><time>2026-04-17T11:59:52.756Z</time></trkpt><trkpt lat="40.7259622" lon="-3.880982"><ele>919.5</ele><time>2026-04-17T11:59:53.756Z</time></trkpt><trkpt lat="40.7259906" lon="-3.880901"><ele>919.3333333333333</ele><time>2026-04-17T11:59:54.756Z</time></trkpt><trkpt lat="40.7260153" lon="-3.8808211"><ele>919.1666666666666</ele><time>2026-04-17T11:59:55.756Z</time></trkpt><trkpt lat="40.7260714" lon="-3.8806844"><ele>919.0</ele><time>2026-04-17T11:59:57.757Z</time></trkpt><trkpt lat="40.7261363" lon="-3.8805649"><ele>920.8000000000001</ele><time>2026-04-17T11:59:59.757Z</time></trkpt><trkpt lat="40.7261747" lon="-3.8804237"><ele>922.6000000000001</ele><time>2026-04-17T12:00:01.756Z</time></trkpt><trkpt lat="40.726191" lon="-3.8802659"><ele>924.4</ele><time>2026-04-17T12:00:03.757Z</time></trkpt><trkpt lat="40.7262232" lon="-3.8800947"><ele>926.2</ele><time>2026-04-17T12:00:05.757Z</time></trkpt><trkpt lat="40.7262523" lon="-3.8800059"><ele>928.0</ele><time>2026-04-17T12:00:06.757Z</time></trkpt><trkpt lat="40.7262842" lon="-3.8799326"><ele>927.9999999999999</ele><time>2026-04-17T12:00:07.756Z</time></trkpt><trkpt lat="40.7263135" lon="-3.8798571"><ele>928.0</ele><time>2026-04-17T12:00:08.756Z</time></trkpt><trkpt lat="40.7263391" lon="-3.879768"><ele>928.0</ele><time>2026-04-17T12:00:09.756Z</time></trkpt><trkpt lat="40.7263546" lon="-3.8796826"><ele>928.0</ele><time>2026-04-17T12:00:10.757Z</time></trkpt><trkpt lat="40.7263628" lon="-3.8795485"><ele>927.9999999999999</ele><time>2026-04-17T12:00:12.756Z</time></trkpt><trkpt lat="40.7263767" lon="-3.8794016"><ele>928.0</ele><time>2026-04-17T12:00:14.756Z</time></trkpt><trkpt lat="40.7263771" lon="-3.8792454"><ele>928.0000000000001</ele><time>2026-04-17T12:00:16.756Z</time></trkpt><trkpt lat="40.7263808" lon="-3.8791523"><ele>928.0</ele><time>2026-04-17T12:00:17.756Z</time></trkpt><trkpt lat="40.7263912" lon="-3.8790523"><ele>928.0000000000001</ele><time>2026-04-17T12:00:18.756Z</time></trkpt><trkpt lat="40.726397" lon="-3.8789531"><ele>928.0000000000001</ele><time>2026-04-17T12:00:19.757Z</time></trkpt><trkpt lat="40.7264013" lon="-3.8788598"><ele>928.0</ele><time>2026-04-17T12:00:20.757Z</time></trkpt><trkpt lat="40.7264058" lon="-3.8787661"><ele>928.0000000000001</ele><time>2026-04-17T12:00:21.757Z</time></trkpt><trkpt lat="40.7264044" lon="-3.8786752"><ele>928.0000000000001</ele><time>2026-04-17T12:00:22.756Z</time></trkpt><trkpt lat="40.7264082" lon="-3.8785165"><ele>927.0</ele><time>2026-04-17T12:00:24.756Z</time></trkpt><trkpt lat="40.7264232" lon="-3.8783673"><ele>926.0</ele><time>2026-04-17T12:00:26.757Z</time></trkpt><trkpt lat="40.726436" lon="-3.8782192"><ele>925.0</ele><time>2026-04-17T12:00:28.756Z</time></trkpt><trkpt lat="40.7264533" lon="-3.8781064"><ele>924.0</ele><time>2026-04-17T12:00:30.756Z</time></trkpt><trkpt lat="40.72649" lon="-3.878026"><ele>923.0</ele><time>2026-04-17T12:00:32.756Z</time></trkpt><trkpt lat="40.7265028" lon="-3.8778745"><ele>923.0</ele><time>2026-04-17T12:00:34.757Z</time></trkpt><trkpt lat="40.7265001" lon="-3.8777743"><ele>923.0</ele><time>2026-04-17T12:00:35.757Z</time></trkpt><trkpt lat="40.7264976" lon="-3.8776602"><ele>923.0</ele><time>2026-04-17T12:00:36.756Z</time></trkpt><trkpt lat="40.7265004" lon="-3.8775427"><ele>923.0</ele><time>2026-04-17T12:00:37.756Z</time></trkpt><trkpt lat="40.7264987" lon="-3.8774128"><ele>923.0</ele><time>2026-04-17T12:00:38.757Z</time></trkpt><trkpt lat="40.726497" lon="-3.8772703"><ele>923.0</ele><time>2026-04-17T12:00:39.756Z</time></trkpt><trkpt lat="40.7265013" lon="-3.8771292"><ele>923.0</ele><time>2026-04-17T12:00:40.756Z</time></trkpt><trkpt lat="40.7265075" lon="-3.8769937"><ele>923.0</ele><time>2026-04-17T12:00:41.756Z</time></trkpt><trkpt lat="40.7265102" lon="-3.8768642"><ele>923.0</ele><time>2026-04-17T12:00:42.756Z</time></trkpt><trkpt lat="40.7265111" lon="-3.8767492"><ele>923.0</ele><time>2026-04-17T12:00:43.757Z</time></trkpt><trkpt lat="40.7264983" lon="-3.8766456"><ele>923.1666666666667</ele><time>2026-04-17T12:00:44.756Z</time></trkpt><trkpt lat="40.7264642" lon="-3.8765549"><ele>923.3333333333334</ele><time>2026-04-17T12:00:45.756Z</time></trkpt><trkpt lat="40.7264061" lon="-3.8765"><ele>923.5</ele><time>2026-04-17T12:00:46.756Z</time></trkpt><trkpt lat="40.7263325" lon="-3.8764741"><ele>923.6666666666667</ele><time>2026-04-17T12:00:47.756Z</time></trkpt><trkpt lat="40.7262536" lon="-3.8764708"><ele>923.8333333333334</ele><time>2026-04-17T12:00:48.756Z</time></trkpt><trkpt lat="40.7261599" lon="-3.8764708"><ele>924.0</ele><time>2026-04-17T12:00:49.756Z</time></trkpt><trkpt lat="40.7260604" lon="-3.8764657"><ele>923.0</ele><time>2026-04-17T12:00:50.757Z</time></trkpt><trkpt lat="40.7259507" lon="-3.8764664"><ele>922.0000000000001</ele><time>2026-04-17T12:00:51.756Z</time></trkpt><trkpt lat="40.7258488" lon="-3.8764681"><ele>921.0000000000001</ele><time>2026-04-17T12:00:52.756Z</time></trkpt><trkpt lat="40.7257534" lon="-3.8764686"><ele>920.0</ele><time>2026-04-17T12:00:53.756Z</time></trkpt><trkpt lat="40.7256636" lon="-3.8764706"><ele>919.0</ele><time>2026-04-17T12:00:54.757Z</time></trkpt><trkpt lat="40.7255794" lon="-3.87647"><ele>918.9999999999999</ele><time>2026-04-17T12:00:55.756Z</time></trkpt><trkpt lat="40.7254966" lon="-3.8764644"><ele>919.0</ele><time>2026-04-17T12:00:56.756Z</time></trkpt><trkpt lat="40.7254127" lon="-3.8764581"><ele>919.0</ele><time>2026-04-17T12:00:57.757Z</time></trkpt><trkpt lat="40.7253333" lon="-3.8764629"><ele>919.0</ele><time>2026-04-17T12:00:58.756Z</time></trkpt><trkpt lat="40.7252478" lon="-3.8764695"><ele>918.9999999999999</ele><time>2026-04-17T12:00:59.756Z</time></trkpt><trkpt lat="40.7251587" lon="-3.8764653"><ele>919.0</ele><time>2026-04-17T12:01:00.756Z</time></trkpt><trkpt lat="40.7250627" lon="-3.8764609"><ele>918.8000000000001</ele><time>2026-04-17T12:01:01.756Z</time></trkpt><trkpt lat="40.7249643" lon="-3.8764529"><ele>918.6000000000001</ele><time>2026-04-17T12:01:02.756Z</time></trkpt><trkpt lat="40.7248636" lon="-3.8764374"><ele>918.4</ele><time>2026-04-17T12:01:03.756Z</time></trkpt><trkpt lat="40.7247706" lon="-3.876425"><ele>918.2</ele><time>2026-04-17T12:01:04.756Z</time></trkpt><trkpt lat="40.7246838" lon="-3.87642"><ele>918.0</ele><time>2026-04-17T12:01:05.756Z</time></trkpt><trkpt lat="40.7246046" lon="-3.8764092"><ele>918.0</ele><time>2026-04-17T12:01:06.756Z</time></trkpt><trkpt lat="40.7245429" lon="-3.8763846"><ele>918.0</ele><time>2026-04-17T12:01:07.756Z</time></trkpt><trkpt lat="40.7244866" lon="-3.8763425"><ele>918.0</ele><time>2026-04-17T12:01:08.756Z</time></trkpt><trkpt lat="40.7244154" lon="-3.8762065"><ele>918.0</ele><time>2026-04-17T12:01:10.757Z</time></trkpt><trkpt lat="40.7243884" lon="-3.876099"><ele>918.0</ele><time>2026-04-17T12:01:11.756Z</time></trkpt><trkpt lat="40.7243779" lon="-3.8759794"><ele>918.0</ele><time>2026-04-17T12:01:12.757Z</time></trkpt><trkpt lat="40.7243818" lon="-3.8758463"><ele>918.8</ele><time>2026-04-17T12:01:13.757Z</time></trkpt><trkpt lat="40.7243953" lon="-3.8757116"><ele>919.5999999999999</ele><time>2026-04-17T12:01:14.756Z</time></trkpt><trkpt lat="40.7244003" lon="-3.8755882"><ele>920.4000000000001</ele><time>2026-04-17T12:01:15.757Z</time></trkpt><trkpt lat="40.7243922" lon="-3.8754734"><ele>921.2</ele><time>2026-04-17T12:01:16.756Z</time></trkpt><trkpt lat="40.7243722" lon="-3.8753611"><ele>922.0</ele><time>2026-04-17T12:01:17.757Z</time></trkpt><trkpt lat="40.7243412" lon="-3.8752589"><ele>920.3333333333333</ele><time>2026-04-17T12:01:18.756Z</time></trkpt><trkpt lat="40.7243091" lon="-3.8751679"><ele>918.6666666666666</ele><time>2026-04-17T12:01:19.757Z</time></trkpt><trkpt lat="40.7242913" lon="-3.8750683"><ele>917.0</ele><time>2026-04-17T12:01:20.756Z</time></trkpt><trkpt lat="40.7242634" lon="-3.8749738"><ele>915.3333333333333</ele><time>2026-04-17T12:01:21.757Z</time></trkpt><trkpt lat="40.7242335" lon="-3.874897"><ele>913.6666666666666</ele><time>2026-04-17T12:01:22.756Z</time></trkpt><trkpt lat="40.7241805" lon="-3.8747817"><ele>912.0</ele><time>2026-04-17T12:01:24.757Z</time></trkpt><trkpt lat="40.7241107" lon="-3.8746878"><ele>912.0</ele><time>2026-04-17T12:01:27.756Z</time></trkpt><trkpt lat="40.7240264" lon="-3.8745953"><ele>912.0</ele><time>2026-04-17T12:01:29.756Z</time></trkpt><trkpt lat="40.7240153" lon="-3.8744925"><ele>912.0</ele><time>2026-04-17T12:01:30.756Z</time></trkpt><trkpt lat="40.7240185" lon="-3.8743736"><ele>912.0</ele><time>2026-04-17T12:01:31.756Z</time></trkpt><trkpt lat="40.7240267" lon="-3.874242"><ele>912.0</ele><time>2026-04-17T12:01:32.756Z</time></trkpt><trkpt lat="40.7240247" lon="-3.8741175"><ele>912.75</ele><time>2026-04-17T12:01:33.756Z</time></trkpt><trkpt lat="40.7240179" lon="-3.8739829"><ele>913.5</ele><time>2026-04-17T12:01:34.757Z</time></trkpt><trkpt lat="40.7240067" lon="-3.8738289"><ele>914.25</ele><time>2026-04-17T12:01:35.757Z</time></trkpt><trkpt lat="40.7239917" lon="-3.87367"><ele>915.0</ele><time>2026-04-17T12:01:36.757Z</time></trkpt><trkpt lat="40.7239791" lon="-3.8735057"><ele>915.5</ele><time>2026-04-17T12:01:37.756Z</time></trkpt><trkpt lat="40.7239764" lon="-3.873339"><ele>916.0</ele><time>2026-04-17T12:01:38.756Z</time></trkpt><trkpt lat="40.7239774" lon="-3.8731802"><ele>916.5</ele><time>2026-04-17T12:01:39.756Z</time></trkpt><trkpt lat="40.7239799" lon="-3.8730174"><ele>917.0</ele><time>2026-04-17T12:01:40.756Z</time></trkpt><trkpt lat="40.7239843" lon="-3.8728517"><ele>917.0000000000001</ele><time>2026-04-17T12:01:41.756Z</time></trkpt><trkpt lat="40.7239881" lon="-3.8727077"><ele>917.0</ele><time>2026-04-17T12:01:42.756Z</time></trkpt><trkpt lat="40.7239971" lon="-3.8726102"><ele>917.0</ele><time>2026-04-17T12:01:43.756Z</time></trkpt><trkpt lat="40.7239554" lon="-3.8725077"><ele>917.0</ele><time>2026-04-17T12:01:45.757Z</time></trkpt><trkpt lat="40.7239293" lon="-3.8724013"><ele>917.0000000000001</ele><time>2026-04-17T12:01:48.757Z</time></trkpt><trkpt lat="40.7239309" lon="-3.8723171"><ele>917.0</ele><time>2026-04-17T12:01:49.757Z</time></trkpt><trkpt lat="40.7239398" lon="-3.8722212"><ele>917.0</ele><time>2026-04-17T12:01:50.757Z</time></trkpt><trkpt lat="40.7239574" lon="-3.8721177"><ele>917.0</ele><time>2026-04-17T12:01:51.757Z</time></trkpt><trkpt lat="40.7239858" lon="-3.8720058"><ele>917.0</ele><time>2026-04-17T12:01:52.756Z</time></trkpt><trkpt lat="40.724022" lon="-3.8718818"><ele>917.0</ele><time>2026-04-17T12:01:53.757Z</time></trkpt><trkpt lat="40.7240597" lon="-3.8717496"><ele>917.0</ele><time>2026-04-17T12:01:54.756Z</time></trkpt><trkpt lat="40.724102" lon="-3.8716136"><ele>916.0</ele><time>2026-04-17T12:01:55.757Z</time></trkpt><trkpt lat="40.7241464" lon="-3.8714929"><ele>915.0</ele><time>2026-04-17T12:01:56.756Z</time></trkpt><trkpt lat="40.7241918" lon="-3.8713754"><ele>914.0</ele><time>2026-04-17T12:01:57.756Z</time></trkpt><trkpt lat="40.7242358" lon="-3.8712677"><ele>913.0</ele><time>2026-04-17T12:01:58.757Z</time></trkpt><trkpt lat="40.724278" lon="-3.8711497"><ele>912.0</ele><time>2026-04-17T12:01:59.757Z</time></trkpt><trkpt lat="40.7243178" lon="-3.8710261"><ele>912.2</ele><time>2026-04-17T12:02:00.757Z</time></trkpt><trkpt lat="40.7243592" lon="-3.8708983"><ele>912.4000000000001</ele><time>2026-04-17T12:02:01.756Z</time></trkpt><trkpt lat="40.7244134" lon="-3.8707668"><ele>912.5999999999999</ele><time>2026-04-17T12:02:02.757Z</time></trkpt><trkpt lat="40.7244703" lon="-3.8706409"><ele>912.8</ele><time>2026-04-17T12:02:03.756Z</time></trkpt><trkpt lat="40.7245267" lon="-3.8705126"><ele>913.0</ele><time>2026-04-17T12:02:04.756Z</time></trkpt><trkpt lat="40.7245724" lon="-3.8703844"><ele>913.4</ele><time>2026-04-17T12:02:05.757Z</time></trkpt><trkpt lat="40.7246103" lon="-3.8702685"><ele>913.8</ele><time>2026-04-17T12:02:06.756Z</time></trkpt><trkpt lat="40.7246469" lon="-3.8701763"><ele>914.2</ele><time>2026-04-17T12:02:07.757Z</time></trkpt><trkpt lat="40.724667" lon="-3.8700932"><ele>914.6</ele><time>2026-04-17T12:02:08.756Z</time></trkpt><trkpt lat="40.724725" lon="-3.8699784"><ele>915.0</ele><time>2026-04-17T12:02:10.756Z</time></trkpt><trkpt lat="40.7247623" lon="-3.869844"><ele>915.0</ele><time>2026-04-17T12:02:12.756Z</time></trkpt><trkpt lat="40.7247856" lon="-3.8697039"><ele>915.0</ele><time>2026-04-17T12:02:14.756Z</time></trkpt><trkpt lat="40.724819" lon="-3.869544"><ele>915.0</ele><time>2026-04-17T12:02:16.756Z</time></trkpt><trkpt lat="40.7248338" lon="-3.8693986"><ele>915.0</ele><time>2026-04-17T12:02:18.756Z</time></trkpt><trkpt lat="40.7248327" lon="-3.8693114"><ele>915.0</ele><time>2026-04-17T12:02:20.756Z</time></trkpt><trkpt lat="40.7248702" lon="-3.8692257"><ele>914.3333333333334</ele><time>2026-04-17T12:02:23.757Z</time></trkpt><trkpt lat="40.7249169" lon="-3.8691456"><ele>913.6666666666667</ele><time>2026-04-17T12:02:26.756Z</time></trkpt><trkpt lat="40.7249354" lon="-3.8690515"><ele>913.0</ele><time>2026-04-17T12:02:28.757Z</time></trkpt><trkpt lat="40.7249423" lon="-3.868922"><ele>912.3333333333334</ele><time>2026-04-17T12:02:30.756Z</time></trkpt><trkpt lat="40.7249476" lon="-3.8688098"><ele>911.6666666666667</ele><time>2026-04-17T12:02:32.756Z</time></trkpt><trkpt lat="40.7249821" lon="-3.8687291"><ele>911.0</ele><time>2026-04-17T12:02:35.756Z</time></trkpt><trkpt lat="40.725039" lon="-3.8686709"><ele>911.0</ele><time>2026-04-17T12:02:41.757Z</time></trkpt><trkpt lat="40.7249987" lon="-3.8685206"><ele>910.9999999999999</ele><time>2026-04-17T12:02:43.756Z</time></trkpt><trkpt lat="40.7249483" lon="-3.8684429"><ele>910.9999999999999</ele><time>2026-04-17T12:02:44.756Z</time></trkpt><trkpt lat="40.7249006" lon="-3.868344"><ele>911.0</ele><time>2026-04-17T12:02:45.757Z</time></trkpt><trkpt lat="40.7248958" lon="-3.8682316"><ele>911.0</ele><time>2026-04-17T12:02:46.756Z</time></trkpt><trkpt lat="40.7249093" lon="-3.8681217"><ele>910.4</ele><time>2026-04-17T12:02:47.756Z</time></trkpt><trkpt lat="40.7249501" lon="-3.8680014"><ele>909.8</ele><time>2026-04-17T12:02:48.756Z</time></trkpt><trkpt lat="40.7250077" lon="-3.867882"><ele>909.1999999999999</ele><time>2026-04-17T12:02:49.757Z</time></trkpt><trkpt lat="40.7250534" lon="-3.8677493"><ele>908.5999999999999</ele><time>2026-04-17T12:02:50.757Z</time></trkpt><trkpt lat="40.7250799" lon="-3.8676044"><ele>908.0</ele><time>2026-04-17T12:02:51.757Z</time></trkpt><trkpt lat="40.7250951" lon="-3.8674496"><ele>907.25</ele><time>2026-04-17T12:02:52.757Z</time></trkpt><trkpt lat="40.7251074" lon="-3.8672976"><ele>906.5</ele><time>2026-04-17T12:02:53.757Z</time></trkpt><trkpt lat="40.7251149" lon="-3.8671385"><ele>905.75</ele><time>2026-04-17T12:02:54.756Z</time></trkpt><trkpt lat="40.7251177" lon="-3.8669763"><ele>905.0</ele><time>2026-04-17T12:02:55.757Z</time></trkpt><trkpt lat="40.7251195" lon="-3.8668056"><ele>904.5</ele><time>2026-04-17T12:02:56.756Z</time></trkpt><trkpt lat="40.7251187" lon="-3.86663"><ele>904.0</ele><time>2026-04-17T12:02:57.757Z</time></trkpt><trkpt lat="40.7251252" lon="-3.8664511"><ele>903.5</ele><time>2026-04-17T12:02:58.756Z</time></trkpt><trkpt lat="40.7251309" lon="-3.8662761"><ele>903.0</ele><time>2026-04-17T12:02:59.756Z</time></trkpt><trkpt lat="40.7251319" lon="-3.8661162"><ele>903.0</ele><time>2026-04-17T12:03:00.756Z</time></trkpt><trkpt lat="40.7251335" lon="-3.8659686"><ele>903.0</ele><time>2026-04-17T12:03:01.756Z</time></trkpt><trkpt lat="40.7251322" lon="-3.8658316"><ele>903.0</ele><time>2026-04-17T12:03:02.757Z</time></trkpt><trkpt lat="40.725128" lon="-3.8657017"><ele>903.0</ele><time>2026-04-17T12:03:03.757Z</time></trkpt><trkpt lat="40.7251306" lon="-3.8655668"><ele>903.0</ele><time>2026-04-17T12:03:04.757Z</time></trkpt><trkpt lat="40.7251277" lon="-3.86542"><ele>902.75</ele><time>2026-04-17T12:03:05.756Z</time></trkpt><trkpt lat="40.7251256" lon="-3.8652644"><ele>902.5</ele><time>2026-04-17T12:03:06.756Z</time></trkpt><trkpt lat="40.7251234" lon="-3.8650949"><ele>902.25</ele><time>2026-04-17T12:03:07.756Z</time></trkpt><trkpt lat="40.7251223" lon="-3.8649165"><ele>902.0</ele><time>2026-04-17T12:03:08.756Z</time></trkpt><trkpt lat="40.7251232" lon="-3.8647341"><ele>902.0</ele><time>2026-04-17T12:03:09.756Z</time></trkpt><trkpt lat="40.7251232" lon="-3.8645444"><ele>902.0</ele><time>2026-04-17T12:03:10.757Z</time></trkpt><trkpt lat="40.7251209" lon="-3.8643437"><ele>902.0</ele><time>2026-04-17T12:03:11.756Z</time></trkpt><trkpt lat="40.7251197" lon="-3.8641368"><ele>901.75</ele><time>2026-04-17T12:03:12.756Z</time></trkpt><trkpt lat="40.725124" lon="-3.8639296"><ele>901.5</ele><time>2026-04-17T12:03:13.756Z</time></trkpt><trkpt lat="40.7251334" lon="-3.8637313"><ele>901.25</ele><time>2026-04-17T12:03:14.756Z</time></trkpt><trkpt lat="40.725149" lon="-3.8635482"><ele>901.0</ele><time>2026-04-17T12:03:15.756Z</time></trkpt><trkpt lat="40.7251765" lon="-3.8633859"><ele>901.0</ele><time>2026-04-17T12:03:16.757Z</time></trkpt><trkpt lat="40.725206" lon="-3.8632368"><ele>900.9999999999999</ele><time>2026-04-17T12:03:17.756Z</time></trkpt><trkpt lat="40.7252357" lon="-3.8630981"><ele>900.9999999999999</ele><time>2026-04-17T12:03:18.756Z</time></trkpt><trkpt lat="40.7252617" lon="-3.8629718"><ele>901.0</ele><time>2026-04-17T12:03:19.757Z</time></trkpt><trkpt lat="40.7252799" lon="-3.8628525"><ele>901.0</ele><time>2026-04-17T12:03:20.756Z</time></trkpt><trkpt lat="40.7252804" lon="-3.8627384"><ele>901.1666666666666</ele><time>2026-04-17T12:03:21.756Z</time></trkpt><trkpt lat="40.7252681" lon="-3.8626412"><ele>901.3333333333333</ele><time>2026-04-17T12:03:22.756Z</time></trkpt><trkpt lat="40.7252734" lon="-3.8625499"><ele>901.5</ele><time>2026-04-17T12:03:23.757Z</time></trkpt><trkpt lat="40.7253041" lon="-3.8624647"><ele>901.6666666666667</ele><time>2026-04-17T12:03:24.756Z</time></trkpt><trkpt lat="40.7253597" lon="-3.8623669"><ele>901.8333333333334</ele><time>2026-04-17T12:03:25.756Z</time></trkpt><trkpt lat="40.725414" lon="-3.8622534"><ele>902.0</ele><time>2026-04-17T12:03:26.757Z</time></trkpt><trkpt lat="40.7254637" lon="-3.8621279"><ele>902.0</ele><time>2026-04-17T12:03:27.756Z</time></trkpt><trkpt lat="40.7255123" lon="-3.8619945"><ele>902.0</ele><time>2026-04-17T12:03:28.756Z</time></trkpt><trkpt lat="40.7255643" lon="-3.8618818"><ele>902.0</ele><time>2026-04-17T12:03:29.756Z</time></trkpt><trkpt lat="40.7256182" lon="-3.8617839"><ele>902.0</ele><time>2026-04-17T12:03:30.756Z</time></trkpt><trkpt lat="40.7256862" lon="-3.8616834"><ele>902.0</ele><time>2026-04-17T12:03:31.756Z</time></trkpt><trkpt lat="40.7257465" lon="-3.8615719"><ele>902.2</ele><time>2026-04-17T12:03:32.757Z</time></trkpt><trkpt lat="40.7258137" lon="-3.8614663"><ele>902.4000000000001</ele><time>2026-04-17T12:03:33.756Z</time></trkpt><trkpt lat="40.7258777" lon="-3.8613669"><ele>902.5999999999999</ele><time>2026-04-17T12:03:34.756Z</time></trkpt><trkpt lat="40.7259496" lon="-3.8612747"><ele>902.8</ele><time>2026-04-17T12:03:35.757Z</time></trkpt><trkpt lat="40.7260243" lon="-3.861189"><ele>903.0</ele><time>2026-04-17T12:03:36.757Z</time></trkpt><trkpt lat="40.7261042" lon="-3.8611024"><ele>903.1666666666666</ele><time>2026-04-17T12:03:37.757Z</time></trkpt><trkpt lat="40.7261838" lon="-3.8610228"><ele>903.3333333333333</ele><time>2026-04-17T12:03:38.756Z</time></trkpt><trkpt lat="40.7262641" lon="-3.8609562"><ele>903.5</ele><time>2026-04-17T12:03:39.756Z</time></trkpt><trkpt lat="40.7263327" lon="-3.860889"><ele>903.6666666666666</ele><time>2026-04-17T12:03:40.756Z</time></trkpt><trkpt lat="40.7263856" lon="-3.8608162"><ele>903.8333333333333</ele><time>2026-04-17T12:03:41.756Z</time></trkpt><trkpt lat="40.7264244" lon="-3.8607331"><ele>904.0</ele><time>2026-04-17T12:03:42.756Z</time></trkpt><trkpt lat="40.7264548" lon="-3.8606287"><ele>903.9999999999999</ele><time>2026-04-17T12:03:43.756Z</time></trkpt><trkpt lat="40.7264714" lon="-3.8605105"><ele>904.0</ele><time>2026-04-17T12:03:44.756Z</time></trkpt><trkpt lat="40.7264886" lon="-3.8603879"><ele>904.0</ele><time>2026-04-17T12:03:45.756Z</time></trkpt><trkpt lat="40.726509" lon="-3.8602714"><ele>904.0</ele><time>2026-04-17T12:03:46.756Z</time></trkpt><trkpt lat="40.7265395" lon="-3.8601687"><ele>903.9999999999999</ele><time>2026-04-17T12:03:47.756Z</time></trkpt><trkpt lat="40.7265829" lon="-3.8600682"><ele>904.0</ele><time>2026-04-17T12:03:48.756Z</time></trkpt><trkpt lat="40.7266539" lon="-3.8599897"><ele>903.6666666666666</ele><time>2026-04-17T12:03:49.756Z</time></trkpt><trkpt lat="40.7267266" lon="-3.8599137"><ele>903.3333333333333</ele><time>2026-04-17T12:03:50.756Z</time></trkpt><trkpt lat="40.7267904" lon="-3.8598442"><ele>903.0</ele><time>2026-04-17T12:03:51.757Z</time></trkpt><trkpt lat="40.7268463" lon="-3.8597797"><ele>902.6666666666667</ele><time>2026-04-17T12:03:52.756Z</time></trkpt><trkpt lat="40.7269031" lon="-3.8596978"><ele>902.3333333333334</ele><time>2026-04-17T12:03:53.756Z</time></trkpt><trkpt lat="40.7269604" lon="-3.85962"><ele>902.0</ele><time>2026-04-17T12:03:54.757Z</time></trkpt><trkpt lat="40.7270091" lon="-3.8595468"><ele>902.0</ele><time>2026-04-17T12:03:55.756Z</time></trkpt><trkpt lat="40.7270877" lon="-3.8594626"><ele>902.0</ele><time>2026-04-17T12:03:57.756Z</time></trkpt><trkpt lat="40.7271822" lon="-3.8594243"><ele>902.0</ele><time>2026-04-17T12:03:59.756Z</time></trkpt><trkpt lat="40.7273033" lon="-3.8594216"><ele>902.0</ele><time>2026-04-17T12:04:01.757Z</time></trkpt><trkpt lat="40.7274181" lon="-3.8594122"><ele>902.0</ele><time>2026-04-17T12:04:03.756Z</time></trkpt><trkpt lat="40.7275132" lon="-3.8594031"><ele>902.0000000000001</ele><time>2026-04-17T12:04:05.756Z</time></trkpt><trkpt lat="40.7275882" lon="-3.8593993"><ele>902.0</ele><time>2026-04-17T12:04:07.756Z</time></trkpt><trkpt lat="40.7276613" lon="-3.8593998"><ele>902.0</ele><time>2026-04-17T12:04:09.756Z</time></trkpt><trkpt lat="40.7277413" lon="-3.8593592"><ele>902.0</ele><time>2026-04-17T12:04:11.757Z</time></trkpt><trkpt lat="40.7277773" lon="-3.8592268"><ele>902.0000000000001</ele><time>2026-04-17T12:04:13.756Z</time></trkpt><trkpt lat="40.7277914" lon="-3.8591336"><ele>902.0</ele><time>2026-04-17T12:04:14.756Z</time></trkpt><trkpt lat="40.7278288" lon="-3.858968"><ele>902.2</ele><time>2026-04-17T12:04:16.756Z</time></trkpt><trkpt lat="40.7278628" lon="-3.8588095"><ele>902.4000000000001</ele><time>2026-04-17T12:04:18.756Z</time></trkpt><trkpt lat="40.727888" lon="-3.8586637"><ele>902.5999999999999</ele><time>2026-04-17T12:04:20.756Z</time></trkpt><trkpt lat="40.7279138" lon="-3.8585477"><ele>902.8</ele><time>2026-04-17T12:04:22.756Z</time></trkpt><trkpt lat="40.7279375" lon="-3.85847"><ele>903.0</ele><time>2026-04-17T12:04:24.757Z</time></trkpt><trkpt lat="40.7280212" lon="-3.8585044"><ele>903.0</ele><time>2026-04-17T12:04:28.757Z</time></trkpt><trkpt lat="40.7281157" lon="-3.8585909"><ele>903.0</ele><time>2026-04-17T12:04:30.756Z</time></trkpt><trkpt lat="40.7281972" lon="-3.858595"><ele>903.0</ele><time>2026-04-17T12:04:32.757Z</time></trkpt><trkpt lat="40.7282402" lon="-3.8585204"><ele>903.0</ele><time>2026-04-17T12:04:34.756Z</time></trkpt><trkpt lat="40.7282766" lon="-3.8584168"><ele>903.0</ele><time>2026-04-17T12:04:36.756Z</time></trkpt><trkpt lat="40.7283299" lon="-3.8582709"><ele>902.8333333333334</ele><time>2026-04-17T12:04:38.756Z</time></trkpt><trkpt lat="40.7283575" lon="-3.8581877"><ele>902.6666666666667</ele><time>2026-04-17T12:04:39.756Z</time></trkpt><trkpt lat="40.7283792" lon="-3.8580986"><ele>902.5</ele><time>2026-04-17T12:04:40.757Z</time></trkpt><trkpt lat="40.7283977" lon="-3.8580166"><ele>902.3333333333334</ele><time>2026-04-17T12:04:41.757Z</time></trkpt><trkpt lat="40.7284048" lon="-3.8578736"><ele>902.1666666666667</ele><time>2026-04-17T12:04:43.757Z</time></trkpt><trkpt lat="40.7283693" lon="-3.8577973"><ele>902.0</ele><time>2026-04-17T12:04:44.756Z</time></trkpt><trkpt lat="40.7283239" lon="-3.8577192"><ele>902.0</ele><time>2026-04-17T12:04:45.757Z</time></trkpt><trkpt lat="40.7282854" lon="-3.8576484"><ele>902.0</ele><time>2026-04-17T12:04:46.756Z</time></trkpt><trkpt lat="40.7282782" lon="-3.8575191"><ele>902.0</ele><time>2026-04-17T12:04:48.756Z</time></trkpt><trkpt lat="40.7283248" lon="-3.8573673"><ele>902.0</ele><time>2026-04-17T12:04:50.756Z</time></trkpt><trkpt lat="40.7283819" lon="-3.8572184"><ele>902.0</ele><time>2026-04-17T12:04:52.756Z</time></trkpt><trkpt lat="40.7284088" lon="-3.8570949"><ele>901.6666666666667</ele><time>2026-04-17T12:04:54.757Z</time></trkpt><trkpt lat="40.7284461" lon="-3.8570094"><ele>901.3333333333334</ele><time>2026-04-17T12:04:56.757Z</time></trkpt><trkpt lat="40.7284863" lon="-3.8569312"><ele>901.0</ele><time>2026-04-17T12:04:59.757Z</time></trkpt><trkpt lat="40.7285213" lon="-3.8568403"><ele>900.6666666666667</ele><time>2026-04-17T12:05:20.757Z</time></trkpt><trkpt lat="40.7285572" lon="-3.8567356"><ele>900.3333333333334</ele><time>2026-04-17T12:05:23.756Z</time></trkpt><trkpt lat="40.728589" lon="-3.8566588"><ele>900.0</ele><time>2026-04-17T12:05:26.757Z</time></trkpt><trkpt lat="40.7286204" lon="-3.8565658"><ele>901.3333333333334</ele><time>2026-04-17T12:05:29.756Z</time></trkpt><trkpt lat="40.7286429" lon="-3.8564798"><ele>902.6666666666667</ele><time>2026-04-17T12:05:31.757Z</time></trkpt><trkpt lat="40.7286732" lon="-3.8563831"><ele>904.0</ele><time>2026-04-17T12:05:33.756Z</time></trkpt><trkpt lat="40.7286918" lon="-3.8562985"><ele>905.3333333333334</ele><time>2026-04-17T12:05:35.756Z</time></trkpt><trkpt lat="40.7287171" lon="-3.8562162"><ele>906.6666666666667</ele><time>2026-04-17T12:05:37.757Z</time></trkpt><trkpt lat="40.7287849" lon="-3.8560759"><ele>908.0</ele><time>2026-04-17T12:05:39.757Z</time></trkpt><trkpt lat="40.7288302" lon="-3.8559885"><ele>907.1666666666667</ele><time>2026-04-17T12:05:40.756Z</time></trkpt><trkpt lat="40.7288639" lon="-3.8559006"><ele>906.3333333333334</ele><time>2026-04-17T12:05:41.756Z</time></trkpt><trkpt lat="40.7288855" lon="-3.8558091"><ele>905.5</ele><time>2026-04-17T12:05:42.756Z</time></trkpt><trkpt lat="40.7289003" lon="-3.8557141"><ele>904.6666666666667</ele><time>2026-04-17T12:05:43.756Z</time></trkpt><trkpt lat="40.7289111" lon="-3.855613"><ele>903.8333333333334</ele><time>2026-04-17T12:05:44.756Z</time></trkpt><trkpt lat="40.7289381" lon="-3.8554973"><ele>903.0</ele><time>2026-04-17T12:05:45.756Z</time></trkpt><trkpt lat="40.7289793" lon="-3.85538"><ele>903.0</ele><time>2026-04-17T12:05:46.756Z</time></trkpt><trkpt lat="40.7290271" lon="-3.8552658"><ele>903.0</ele><time>2026-04-17T12:05:47.757Z</time></trkpt><trkpt lat="40.7290757" lon="-3.8551516"><ele>903.0</ele><time>2026-04-17T12:05:48.756Z</time></trkpt><trkpt lat="40.7291216" lon="-3.8550512"><ele>903.0</ele><time>2026-04-17T12:05:49.757Z</time></trkpt><trkpt lat="40.7291669" lon="-3.8549483"><ele>903.0</ele><time>2026-04-17T12:05:50.757Z</time></trkpt><trkpt lat="40.7292103" lon="-3.8548498"><ele>902.4</ele><time>2026-04-17T12:05:51.756Z</time></trkpt><trkpt lat="40.7292577" lon="-3.8547575"><ele>901.8</ele><time>2026-04-17T12:05:52.756Z</time></trkpt><trkpt lat="40.729305" lon="-3.8546509"><ele>901.2</ele><time>2026-04-17T12:05:53.757Z</time></trkpt><trkpt lat="40.729356" lon="-3.8545438"><ele>900.6</ele><time>2026-04-17T12:05:54.756Z</time></trkpt><trkpt lat="40.7294157" lon="-3.8544309"><ele>900.0</ele><time>2026-04-17T12:05:55.756Z</time></trkpt><trkpt lat="40.7294806" lon="-3.8543176"><ele>900.8</ele><time>2026-04-17T12:05:56.756Z</time></trkpt><trkpt lat="40.7295504" lon="-3.8542003"><ele>901.6</ele><time>2026-04-17T12:05:57.756Z</time></trkpt><trkpt lat="40.7296233" lon="-3.8540803"><ele>902.4000000000001</ele><time>2026-04-17T12:05:58.756Z</time></trkpt><trkpt lat="40.7296922" lon="-3.8539702"><ele>903.2</ele><time>2026-04-17T12:05:59.757Z</time></trkpt><trkpt lat="40.7297539" lon="-3.8538672"><ele>904.0</ele><time>2026-04-17T12:06:00.757Z</time></trkpt><trkpt lat="40.729809" lon="-3.8537713"><ele>903.9999999999999</ele><time>2026-04-17T12:06:01.757Z</time></trkpt><trkpt lat="40.7298621" lon="-3.8536843"><ele>904.0</ele><time>2026-04-17T12:06:02.757Z</time></trkpt><trkpt lat="40.729913" lon="-3.8536012"><ele>904.0</ele><time>2026-04-17T12:06:03.756Z</time></trkpt><trkpt lat="40.7299632" lon="-3.8535133"><ele>904.0</ele><time>2026-04-17T12:06:04.757Z</time></trkpt><trkpt lat="40.7300167" lon="-3.8534262"><ele>903.9999999999999</ele><time>2026-04-17T12:06:05.756Z</time></trkpt><trkpt lat="40.7300773" lon="-3.8533452"><ele>904.0</ele><time>2026-04-17T12:06:06.757Z</time></trkpt><trkpt lat="40.7301323" lon="-3.8532716"><ele>903.8333333333333</ele><time>2026-04-17T12:06:07.756Z</time></trkpt><trkpt lat="40.7301815" lon="-3.8532066"><ele>903.6666666666666</ele><time>2026-04-17T12:06:08.757Z</time></trkpt><trkpt lat="40.7302735" lon="-3.8531101"><ele>903.5</ele><time>2026-04-17T12:06:10.757Z</time></trkpt><trkpt lat="40.7303877" lon="-3.8530721"><ele>903.3333333333333</ele><time>2026-04-17T12:06:12.756Z</time></trkpt><trkpt lat="40.7304518" lon="-3.8530331"><ele>903.1666666666666</ele><time>2026-04-17T12:06:13.756Z</time></trkpt><trkpt lat="40.7305019" lon="-3.8529695"><ele>903.0</ele><time>2026-04-17T12:06:14.756Z</time></trkpt><trkpt lat="40.7305538" lon="-3.8528948"><ele>903.0</ele><time>2026-04-17T12:06:15.756Z</time></trkpt><trkpt lat="40.7306077" lon="-3.8528182"><ele>903.0</ele><time>2026-04-17T12:06:16.756Z</time></trkpt><trkpt lat="40.7306663" lon="-3.8527325"><ele>903.0</ele><time>2026-04-17T12:06:17.756Z</time></trkpt><trkpt lat="40.7307223" lon="-3.8526444"><ele>903.0</ele><time>2026-04-17T12:06:18.756Z</time></trkpt><trkpt lat="40.7307881" lon="-3.8525553"><ele>903.0</ele><time>2026-04-17T12:06:19.757Z</time></trkpt><trkpt lat="40.7308603" lon="-3.852467"><ele>903.0</ele><time>2026-04-17T12:06:20.756Z</time></trkpt><trkpt lat="40.7309336" lon="-3.8523689"><ele>904.0</ele><time>2026-04-17T12:06:21.757Z</time></trkpt><trkpt lat="40.7310056" lon="-3.8522682"><ele>905.0</ele><time>2026-04-17T12:06:22.756Z</time></trkpt><trkpt lat="40.7310719" lon="-3.8521682"><ele>906.0</ele><time>2026-04-17T12:06:23.756Z</time></trkpt><trkpt lat="40.731138" lon="-3.8520691"><ele>907.0</ele><time>2026-04-17T12:06:24.756Z</time></trkpt><trkpt lat="40.7312137" lon="-3.8519707"><ele>908.0</ele><time>2026-04-17T12:06:25.757Z</time></trkpt><trkpt lat="40.7312897" lon="-3.8518746"><ele>906.2</ele><time>2026-04-17T12:06:26.757Z</time></trkpt><trkpt lat="40.7313644" lon="-3.8517842"><ele>904.4</ele><time>2026-04-17T12:06:27.756Z</time></trkpt><trkpt lat="40.731428" lon="-3.8517003"><ele>902.6000000000001</ele><time>2026-04-17T12:06:28.756Z</time></trkpt><trkpt lat="40.7314888" lon="-3.851606"><ele>900.8000000000001</ele><time>2026-04-17T12:06:29.757Z</time></trkpt><trkpt lat="40.7315472" lon="-3.8515167"><ele>899.0</ele><time>2026-04-17T12:06:30.756Z</time></trkpt><trkpt lat="40.7316148" lon="-3.8514389"><ele>899.0000000000001</ele><time>2026-04-17T12:06:31.756Z</time></trkpt><trkpt lat="40.7316867" lon="-3.8513667"><ele>899.0</ele><time>2026-04-17T12:06:32.757Z</time></trkpt><trkpt lat="40.7317647" lon="-3.851292"><ele>899.0</ele><time>2026-04-17T12:06:33.756Z</time></trkpt><trkpt lat="40.7318375" lon="-3.8512212"><ele>899.0</ele><time>2026-04-17T12:06:34.757Z</time></trkpt><trkpt lat="40.7319084" lon="-3.8511616"><ele>899.0000000000001</ele><time>2026-04-17T12:06:35.757Z</time></trkpt><trkpt lat="40.7319755" lon="-3.8511083"><ele>899.0</ele><time>2026-04-17T12:06:36.756Z</time></trkpt><trkpt lat="40.7320368" lon="-3.8510543"><ele>899.6</ele><time>2026-04-17T12:06:37.756Z</time></trkpt><trkpt lat="40.7320859" lon="-3.8509979"><ele>900.2</ele><time>2026-04-17T12:06:38.756Z</time></trkpt><trkpt lat="40.7321605" lon="-3.850876"><ele>900.8000000000001</ele><time>2026-04-17T12:06:40.756Z</time></trkpt><trkpt lat="40.7321652" lon="-3.8507203"><ele>901.4000000000001</ele><time>2026-04-17T12:06:42.756Z</time></trkpt><trkpt lat="40.732225" lon="-3.8506014"><ele>902.0</ele><time>2026-04-17T12:06:44.756Z</time></trkpt><trkpt lat="40.7322753" lon="-3.8505378"><ele>902.0</ele><time>2026-04-17T12:06:45.756Z</time></trkpt><trkpt lat="40.7323287" lon="-3.850461"><ele>902.0</ele><time>2026-04-17T12:06:46.756Z</time></trkpt><trkpt lat="40.7323751" lon="-3.8503861"><ele>902.0</ele><time>2026-04-17T12:06:47.757Z</time></trkpt><trkpt lat="40.7324193" lon="-3.8503069"><ele>902.0</ele><time>2026-04-17T12:06:48.756Z</time></trkpt><trkpt lat="40.7324634" lon="-3.850222"><ele>902.0</ele><time>2026-04-17T12:06:49.757Z</time></trkpt><trkpt lat="40.7325024" lon="-3.8501419"><ele>902.0</ele><time>2026-04-17T12:06:50.756Z</time></trkpt><trkpt lat="40.7325377" lon="-3.8500704"><ele>902.0</ele><time>2026-04-17T12:06:51.757Z</time></trkpt><trkpt lat="40.7325809" lon="-3.8500095"><ele>902.8333333333334</ele><time>2026-04-17T12:06:52.756Z</time></trkpt><trkpt lat="40.7326389" lon="-3.8499517"><ele>903.6666666666667</ele><time>2026-04-17T12:06:53.756Z</time></trkpt><trkpt lat="40.7327076" lon="-3.8498981"><ele>904.5</ele><time>2026-04-17T12:06:54.756Z</time></trkpt><trkpt lat="40.7327838" lon="-3.8498318"><ele>905.3333333333333</ele><time>2026-04-17T12:06:55.756Z</time></trkpt><trkpt lat="40.7328596" lon="-3.8497601"><ele>906.1666666666666</ele><time>2026-04-17T12:06:56.757Z</time></trkpt><trkpt lat="40.7329444" lon="-3.8497079"><ele>907.0</ele><time>2026-04-17T12:06:57.756Z</time></trkpt><trkpt lat="40.7330307" lon="-3.8496584"><ele>906.9999999999999</ele><time>2026-04-17T12:06:58.756Z</time></trkpt><trkpt lat="40.7331142" lon="-3.8496094"><ele>907.0</ele><time>2026-04-17T12:06:59.756Z</time></trkpt><trkpt lat="40.7331877" lon="-3.8495723"><ele>907.0</ele><time>2026-04-17T12:07:00.757Z</time></trkpt><trkpt lat="40.7332548" lon="-3.8495412"><ele>907.0</ele><time>2026-04-17T12:07:01.756Z</time></trkpt><trkpt lat="40.733358" lon="-3.8494982"><ele>906.9999999999999</ele><time>2026-04-17T12:07:03.757Z</time></trkpt><trkpt lat="40.7334184" lon="-3.8494696"><ele>907.0</ele><time>2026-04-17T12:07:04.756Z</time></trkpt><trkpt lat="40.7334817" lon="-3.8494402"><ele>906.9999999999999</ele><time>2026-04-17T12:07:05.757Z</time></trkpt><trkpt lat="40.7335412" lon="-3.8494067"><ele>907.0</ele><time>2026-04-17T12:07:06.756Z</time></trkpt><trkpt lat="40.7336461" lon="-3.8493473"><ele>907.0</ele><time>2026-04-17T12:07:08.756Z</time></trkpt><trkpt lat="40.7337361" lon="-3.849284"><ele>907.0</ele><time>2026-04-17T12:07:10.757Z</time></trkpt><trkpt lat="40.7337801" lon="-3.8492224"><ele>906.9999999999999</ele><time>2026-04-17T12:07:11.757Z</time></trkpt><trkpt lat="40.7338226" lon="-3.8491476"><ele>907.0</ele><time>2026-04-17T12:07:12.757Z</time></trkpt><trkpt lat="40.7338673" lon="-3.849075"><ele>905.857142857143</ele><time>2026-04-17T12:07:13.757Z</time></trkpt><trkpt lat="40.7339146" lon="-3.8489978"><ele>904.7142857142858</ele><time>2026-04-17T12:07:14.757Z</time></trkpt><trkpt lat="40.7339557" lon="-3.8489227"><ele>903.5714285714286</ele><time>2026-04-17T12:07:15.756Z</time></trkpt><trkpt lat="40.7339909" lon="-3.8488527"><ele>902.4285714285714</ele><time>2026-04-17T12:07:16.756Z</time></trkpt><trkpt lat="40.7340346" lon="-3.8487875"><ele>901.2857142857142</ele><time>2026-04-17T12:07:17.756Z</time></trkpt><trkpt lat="40.7340911" lon="-3.8487274"><ele>900.142857142857</ele><time>2026-04-17T12:07:18.757Z</time></trkpt><trkpt lat="40.7341392" lon="-3.8486681"><ele>898.9999999999999</ele><time>2026-04-17T12:07:19.756Z</time></trkpt><trkpt lat="40.7342275" lon="-3.8485648"><ele>899.0000000000001</ele><time>2026-04-17T12:07:21.756Z</time></trkpt><trkpt lat="40.7343281" lon="-3.8484926"><ele>899.0</ele><time>2026-04-17T12:07:23.756Z</time></trkpt><trkpt lat="40.7343925" lon="-3.8484907"><ele>899.0</ele><time>2026-04-17T12:07:24.757Z</time></trkpt><trkpt lat="40.7344589" lon="-3.8485046"><ele>899.0</ele><time>2026-04-17T12:07:25.756Z</time></trkpt><trkpt lat="40.7345299" lon="-3.8485208"><ele>899.0000000000001</ele><time>2026-04-17T12:07:26.757Z</time></trkpt><trkpt lat="40.7346127" lon="-3.8485284"><ele>899.0</ele><time>2026-04-17T12:07:27.756Z</time></trkpt><trkpt lat="40.7346953" lon="-3.8485219"><ele>898.6666666666667</ele><time>2026-04-17T12:07:28.756Z</time></trkpt><trkpt lat="40.7347784" lon="-3.8485034"><ele>898.3333333333334</ele><time>2026-04-17T12:07:29.756Z</time></trkpt><trkpt lat="40.7348609" lon="-3.8484712"><ele>898.0</ele><time>2026-04-17T12:07:30.756Z</time></trkpt><trkpt lat="40.734937" lon="-3.8484226"><ele>897.6666666666667</ele><time>2026-04-17T12:07:31.756Z</time></trkpt><trkpt lat="40.734997" lon="-3.8483642"><ele>897.3333333333334</ele><time>2026-04-17T12:07:32.756Z</time></trkpt><trkpt lat="40.7350532" lon="-3.8483011"><ele>897.0</ele><time>2026-04-17T12:07:33.756Z</time></trkpt><trkpt lat="40.735109" lon="-3.848233"><ele>897.0</ele><time>2026-04-17T12:07:34.756Z</time></trkpt><trkpt lat="40.7351616" lon="-3.8481551"><ele>897.0</ele><time>2026-04-17T12:07:35.756Z</time></trkpt><trkpt lat="40.7352091" lon="-3.8480654"><ele>897.0</ele><time>2026-04-17T12:07:36.756Z</time></trkpt><trkpt lat="40.7352584" lon="-3.8479621"><ele>897.0</ele><time>2026-04-17T12:07:37.756Z</time></trkpt><trkpt lat="40.7353129" lon="-3.8478535"><ele>897.0</ele><time>2026-04-17T12:07:38.757Z</time></trkpt><trkpt lat="40.7353686" lon="-3.8477511"><ele>897.0</ele><time>2026-04-17T12:07:39.757Z</time></trkpt><trkpt lat="40.7354195" lon="-3.8476517"><ele>898.2</ele><time>2026-04-17T12:07:40.756Z</time></trkpt><trkpt lat="40.73547" lon="-3.8475542"><ele>899.4000000000001</ele><time>2026-04-17T12:07:41.756Z</time></trkpt><trkpt lat="40.7355246" lon="-3.8474498"><ele>900.5999999999999</ele><time>2026-04-17T12:07:42.756Z</time></trkpt><trkpt lat="40.7355737" lon="-3.8473423"><ele>901.8</ele><time>2026-04-17T12:07:43.756Z</time></trkpt><trkpt lat="40.7356222" lon="-3.8472418"><ele>903.0</ele><time>2026-04-17T12:07:44.757Z</time></trkpt><trkpt lat="40.7356635" lon="-3.8471521"><ele>903.0</ele><time>2026-04-17T12:07:45.757Z</time></trkpt><trkpt lat="40.7357119" lon="-3.8470722"><ele>903.0</ele><time>2026-04-17T12:07:46.756Z</time></trkpt><trkpt lat="40.7357759" lon="-3.8470097"><ele>903.0</ele><time>2026-04-17T12:07:47.756Z</time></trkpt><trkpt lat="40.7358411" lon="-3.8469415"><ele>903.0</ele><time>2026-04-17T12:07:48.756Z</time></trkpt><trkpt lat="40.7358967" lon="-3.8468622"><ele>903.0</ele><time>2026-04-17T12:07:49.756Z</time></trkpt><trkpt lat="40.7359523" lon="-3.8467683"><ele>903.0</ele><time>2026-04-17T12:07:50.756Z</time></trkpt><trkpt lat="40.7360117" lon="-3.8466677"><ele>903.0</ele><time>2026-04-17T12:07:51.756Z</time></trkpt><trkpt lat="40.7360697" lon="-3.8465649"><ele>903.0</ele><time>2026-04-17T12:07:52.756Z</time></trkpt><trkpt lat="40.7361213" lon="-3.8464665"><ele>903.0</ele><time>2026-04-17T12:07:53.756Z</time></trkpt><trkpt lat="40.7361721" lon="-3.8463913"><ele>903.0</ele><time>2026-04-17T12:07:54.757Z</time></trkpt><trkpt lat="40.7362319" lon="-3.8463241"><ele>903.0</ele><time>2026-04-17T12:07:55.756Z</time></trkpt><trkpt lat="40.7362865" lon="-3.8462577"><ele>903.0</ele><time>2026-04-17T12:07:56.756Z</time></trkpt><trkpt lat="40.7363336" lon="-3.8461821"><ele>903.0</ele><time>2026-04-17T12:07:57.757Z</time></trkpt><trkpt lat="40.7363687" lon="-3.8461095"><ele>903.0</ele><time>2026-04-17T12:07:58.756Z</time></trkpt><trkpt lat="40.7363948" lon="-3.8460321"><ele>903.0</ele><time>2026-04-17T12:07:59.756Z</time></trkpt><trkpt lat="40.7364263" lon="-3.8459374"><ele>903.0</ele><time>2026-04-17T12:08:00.757Z</time></trkpt><trkpt lat="40.7364695" lon="-3.8458392"><ele>903.0</ele><time>2026-04-17T12:08:01.756Z</time></trkpt><trkpt lat="40.7365279" lon="-3.8457494"><ele>903.0</ele><time>2026-04-17T12:08:02.757Z</time></trkpt><trkpt lat="40.736596" lon="-3.8456578"><ele>903.4</ele><time>2026-04-17T12:08:03.756Z</time></trkpt><trkpt lat="40.7366699" lon="-3.8455606"><ele>903.8</ele><time>2026-04-17T12:08:04.757Z</time></trkpt><trkpt lat="40.7367454" lon="-3.8454673"><ele>904.2</ele><time>2026-04-17T12:08:05.757Z</time></trkpt><trkpt lat="40.7368157" lon="-3.8453656"><ele>904.6</ele><time>2026-04-17T12:08:06.756Z</time></trkpt><trkpt lat="40.7368723" lon="-3.8452602"><ele>905.0</ele><time>2026-04-17T12:08:07.756Z</time></trkpt><trkpt lat="40.7369239" lon="-3.8451645"><ele>904.1666666666667</ele><time>2026-04-17T12:08:08.756Z</time></trkpt><trkpt lat="40.7369723" lon="-3.8450754"><ele>903.3333333333334</ele><time>2026-04-17T12:08:09.756Z</time></trkpt><trkpt lat="40.7370134" lon="-3.8449904"><ele>902.5</ele><time>2026-04-17T12:08:10.756Z</time></trkpt><trkpt lat="40.7370554" lon="-3.8449154"><ele>901.6666666666667</ele><time>2026-04-17T12:08:11.756Z</time></trkpt><trkpt lat="40.7371102" lon="-3.8448544"><ele>900.8333333333334</ele><time>2026-04-17T12:08:12.756Z</time></trkpt><trkpt lat="40.7371719" lon="-3.844785"><ele>900.0</ele><time>2026-04-17T12:08:13.756Z</time></trkpt><trkpt lat="40.7372342" lon="-3.8446987"><ele>900.0</ele><time>2026-04-17T12:08:14.756Z</time></trkpt><trkpt lat="40.7373022" lon="-3.8446085"><ele>900.0</ele><time>2026-04-17T12:08:15.756Z</time></trkpt><trkpt lat="40.7373699" lon="-3.8445161"><ele>900.0</ele><time>2026-04-17T12:08:16.756Z</time></trkpt><trkpt lat="40.7374424" lon="-3.8444276"><ele>900.0</ele><time>2026-04-17T12:08:17.757Z</time></trkpt><trkpt lat="40.7375178" lon="-3.8443388"><ele>900.0</ele><time>2026-04-17T12:08:18.756Z</time></trkpt><trkpt lat="40.7375957" lon="-3.8442531"><ele>900.0</ele><time>2026-04-17T12:08:19.756Z</time></trkpt><trkpt lat="40.737681" lon="-3.8441769"><ele>900.0</ele><time>2026-04-17T12:08:20.756Z</time></trkpt><trkpt lat="40.7377647" lon="-3.8441009"><ele>900.0</ele><time>2026-04-17T12:08:21.756Z</time></trkpt><trkpt lat="40.7378493" lon="-3.8440338"><ele>900.0</ele><time>2026-04-17T12:08:22.757Z</time></trkpt><trkpt lat="40.7379389" lon="-3.8439593"><ele>900.0</ele><time>2026-04-17T12:08:23.756Z</time></trkpt><trkpt lat="40.7380283" lon="-3.8438864"><ele>900.0</ele><time>2026-04-17T12:08:24.757Z</time></trkpt><trkpt lat="40.7381138" lon="-3.8438203"><ele>900.0</ele><time>2026-04-17T12:08:25.757Z</time></trkpt><trkpt lat="40.7381966" lon="-3.843753"><ele>900.0</ele><time>2026-04-17T12:08:26.756Z</time></trkpt><trkpt lat="40.7382723" lon="-3.8436958"><ele>900.0</ele><time>2026-04-17T12:08:27.756Z</time></trkpt><trkpt lat="40.738339" lon="-3.8436452"><ele>900.0</ele><time>2026-04-17T12:08:28.756Z</time></trkpt><trkpt lat="40.7384053" lon="-3.8435813"><ele>900.0</ele><time>2026-04-17T12:08:29.757Z</time></trkpt><trkpt lat="40.7384722" lon="-3.8435139"><ele>899.6</ele><time>2026-04-17T12:08:30.756Z</time></trkpt><trkpt lat="40.7385287" lon="-3.843454"><ele>899.2</ele><time>2026-04-17T12:08:31.756Z</time></trkpt><trkpt lat="40.7385955" lon="-3.8433551"><ele>898.8</ele><time>2026-04-17T12:08:33.757Z</time></trkpt><trkpt lat="40.7386519" lon="-3.843278"><ele>898.4</ele><time>2026-04-17T12:08:35.757Z</time></trkpt><trkpt lat="40.7387742" lon="-3.8432726"><ele>898.0</ele><time>2026-04-17T12:08:52.756Z</time></trkpt><trkpt lat="40.7388428" lon="-3.8432047"><ele>898.0</ele><time>2026-04-17T12:08:54.757Z</time></trkpt><trkpt lat="40.7389444" lon="-3.8431222"><ele>898.0</ele><time>2026-04-17T12:08:56.757Z</time></trkpt><trkpt lat="40.7390497" lon="-3.8430277"><ele>898.0</ele><time>2026-04-17T12:08:58.757Z</time></trkpt><trkpt lat="40.7391132" lon="-3.8429758"><ele>898.0</ele><time>2026-04-17T12:08:59.756Z</time></trkpt><trkpt lat="40.7391832" lon="-3.8429247"><ele>898.0</ele><time>2026-04-17T12:09:00.756Z</time></trkpt><trkpt lat="40.7392541" lon="-3.8428793"><ele>897.9999999999999</ele><time>2026-04-17T12:09:01.756Z</time></trkpt><trkpt lat="40.7393275" lon="-3.8428264"><ele>898.0</ele><time>2026-04-17T12:09:02.756Z</time></trkpt><trkpt lat="40.7393994" lon="-3.84276"><ele>898.0</ele><time>2026-04-17T12:09:03.757Z</time></trkpt><trkpt lat="40.7394652" lon="-3.8426895"><ele>898.0</ele><time>2026-04-17T12:09:04.756Z</time></trkpt><trkpt lat="40.7395237" lon="-3.8426128"><ele>897.9999999999999</ele><time>2026-04-17T12:09:05.756Z</time></trkpt><trkpt lat="40.7395814" lon="-3.8425297"><ele>898.0</ele><time>2026-04-17T12:09:06.757Z</time></trkpt><trkpt lat="40.7396367" lon="-3.8424481"><ele>898.8333333333333</ele><time>2026-04-17T12:09:07.757Z</time></trkpt><trkpt lat="40.7396972" lon="-3.8423649"><ele>899.6666666666666</ele><time>2026-04-17T12:09:08.756Z</time></trkpt><trkpt lat="40.7397476" lon="-3.8422718"><ele>900.5</ele><time>2026-04-17T12:09:09.756Z</time></trkpt><trkpt lat="40.7397892" lon="-3.8421712"><ele>901.3333333333333</ele><time>2026-04-17T12:09:10.757Z</time></trkpt><trkpt lat="40.73984" lon="-3.8420747"><ele>902.1666666666666</ele><time>2026-04-17T12:09:11.756Z</time></trkpt><trkpt lat="40.7398835" lon="-3.8419886"><ele>903.0</ele><time>2026-04-17T12:09:12.757Z</time></trkpt><trkpt lat="40.7399096" lon="-3.8418903"><ele>902.8</ele><time>2026-04-17T12:09:13.756Z</time></trkpt><trkpt lat="40.739933" lon="-3.8417808"><ele>902.5999999999999</ele><time>2026-04-17T12:09:14.756Z</time></trkpt><trkpt lat="40.7399586" lon="-3.8416586"><ele>902.4000000000001</ele><time>2026-04-17T12:09:15.756Z</time></trkpt><trkpt lat="40.7399918" lon="-3.8415228"><ele>902.2</ele><time>2026-04-17T12:09:16.757Z</time></trkpt><trkpt lat="40.7400299" lon="-3.8413924"><ele>902.0</ele><time>2026-04-17T12:09:17.757Z</time></trkpt><trkpt lat="40.7400885" lon="-3.8412725"><ele>902.0</ele><time>2026-04-17T12:09:18.756Z</time></trkpt><trkpt lat="40.7401481" lon="-3.8411513"><ele>902.0</ele><time>2026-04-17T12:09:19.757Z</time></trkpt><trkpt lat="40.7401996" lon="-3.8410381"><ele>902.0</ele><time>2026-04-17T12:09:20.756Z</time></trkpt><trkpt lat="40.7402403" lon="-3.8409362"><ele>902.0</ele><time>2026-04-17T12:09:21.756Z</time></trkpt><trkpt lat="40.7402777" lon="-3.8408366"><ele>902.0</ele><time>2026-04-17T12:09:22.756Z</time></trkpt><trkpt lat="40.7403166" lon="-3.8407537"><ele>902.1666666666667</ele><time>2026-04-17T12:09:23.756Z</time></trkpt><trkpt lat="40.7403689" lon="-3.8406728"><ele>902.3333333333334</ele><time>2026-04-17T12:09:24.757Z</time></trkpt><trkpt lat="40.7404247" lon="-3.8406097"><ele>902.5</ele><time>2026-04-17T12:09:25.756Z</time></trkpt><trkpt lat="40.7404795" lon="-3.8405511"><ele>902.6666666666667</ele><time>2026-04-17T12:09:26.756Z</time></trkpt><trkpt lat="40.7405657" lon="-3.8404487"><ele>902.8333333333334</ele><time>2026-04-17T12:09:28.756Z</time></trkpt><trkpt lat="40.7406274" lon="-3.840356"><ele>903.0</ele><time>2026-04-17T12:09:30.757Z</time></trkpt><trkpt lat="40.7406833" lon="-3.8402354"><ele>902.4</ele><time>2026-04-17T12:09:32.756Z</time></trkpt><trkpt lat="40.7407227" lon="-3.840103"><ele>901.8</ele><time>2026-04-17T12:09:34.757Z</time></trkpt><trkpt lat="40.7407498" lon="-3.8399818"><ele>901.2</ele><time>2026-04-17T12:09:36.756Z</time></trkpt><trkpt lat="40.7407864" lon="-3.8398639"><ele>900.6</ele><time>2026-04-17T12:09:38.756Z</time></trkpt><trkpt lat="40.740852" lon="-3.8397404"><ele>900.0</ele><time>2026-04-17T12:09:40.756Z</time></trkpt><trkpt lat="40.7408986" lon="-3.8396759"><ele>900.0</ele><time>2026-04-17T12:09:41.757Z</time></trkpt><trkpt lat="40.7409386" lon="-3.8395998"><ele>900.0</ele><time>2026-04-17T12:09:42.757Z</time></trkpt><trkpt lat="40.7409817" lon="-3.8395171"><ele>900.0</ele><time>2026-04-17T12:09:43.757Z</time></trkpt><trkpt lat="40.7410214" lon="-3.839422"><ele>900.0</ele><time>2026-04-17T12:09:44.757Z</time></trkpt><trkpt lat="40.7410519" lon="-3.8393234"><ele>900.0</ele><time>2026-04-17T12:09:45.756Z</time></trkpt><trkpt lat="40.7410765" lon="-3.8392224"><ele>900.0</ele><time>2026-04-17T12:09:46.757Z</time></trkpt><trkpt lat="40.7411149" lon="-3.8391182"><ele>900.3333333333334</ele><time>2026-04-17T12:09:47.756Z</time></trkpt><trkpt lat="40.741149" lon="-3.8390225"><ele>900.6666666666667</ele><time>2026-04-17T12:09:48.756Z</time></trkpt><trkpt lat="40.7411898" lon="-3.8389259"><ele>901.0</ele><time>2026-04-17T12:09:49.757Z</time></trkpt><trkpt lat="40.7412295" lon="-3.8388303"><ele>901.3333333333334</ele><time>2026-04-17T12:09:50.757Z</time></trkpt><trkpt lat="40.7412657" lon="-3.8387385"><ele>901.6666666666667</ele><time>2026-04-17T12:09:51.756Z</time></trkpt><trkpt lat="40.7413021" lon="-3.8386469"><ele>902.0</ele><time>2026-04-17T12:09:52.756Z</time></trkpt><trkpt lat="40.7413391" lon="-3.8385657"><ele>902.0000000000001</ele><time>2026-04-17T12:09:53.757Z</time></trkpt><trkpt lat="40.7413707" lon="-3.8384817"><ele>902.0</ele><time>2026-04-17T12:09:54.757Z</time></trkpt><trkpt lat="40.741399" lon="-3.8384001"><ele>902.0</ele><time>2026-04-17T12:09:55.757Z</time></trkpt><trkpt lat="40.7414246" lon="-3.8383117"><ele>902.0</ele><time>2026-04-17T12:09:56.757Z</time></trkpt><trkpt lat="40.7414393" lon="-3.8382255"><ele>902.0000000000001</ele><time>2026-04-17T12:09:57.757Z</time></trkpt><trkpt lat="40.741451" lon="-3.8380757"><ele>902.0</ele><time>2026-04-17T12:09:59.757Z</time></trkpt><trkpt lat="40.7414746" lon="-3.8379332"><ele>901.6666666666667</ele><time>2026-04-17T12:10:01.757Z</time></trkpt><trkpt lat="40.7415113" lon="-3.8378172"><ele>901.3333333333334</ele><time>2026-04-17T12:10:03.757Z</time></trkpt><trkpt lat="40.7415256" lon="-3.8377178"><ele>901.0</ele><time>2026-04-17T12:10:05.757Z</time></trkpt><trkpt lat="40.741564" lon="-3.8376021"><ele>900.6666666666667</ele><time>2026-04-17T12:10:07.756Z</time></trkpt><trkpt lat="40.7416032" lon="-3.8375044"><ele>900.3333333333334</ele><time>2026-04-17T12:10:09.756Z</time></trkpt><trkpt lat="40.7416072" lon="-3.8374212"><ele>900.0</ele><time>2026-04-17T12:10:12.756Z</time></trkpt><trkpt lat="40.7416035" lon="-3.8373157"><ele>899.4</ele><time>2026-04-17T12:10:17.756Z</time></trkpt><trkpt lat="40.7415751" lon="-3.837184"><ele>898.8</ele><time>2026-04-17T12:10:20.756Z</time></trkpt><trkpt lat="40.7415677" lon="-3.8370238"><ele>898.2</ele><time>2026-04-17T12:10:22.757Z</time></trkpt><trkpt lat="40.7415687" lon="-3.8369058"><ele>897.6</ele><time>2026-04-17T12:10:23.756Z</time></trkpt><trkpt lat="40.7415734" lon="-3.8367932"><ele>897.0</ele><time>2026-04-17T12:10:24.756Z</time></trkpt><trkpt lat="40.7415747" lon="-3.8366838"><ele>897.0</ele><time>2026-04-17T12:10:25.756Z</time></trkpt><trkpt lat="40.7415789" lon="-3.8365656"><ele>897.0</ele><time>2026-04-17T12:10:26.756Z</time></trkpt><trkpt lat="40.7415724" lon="-3.8364359"><ele>897.0</ele><time>2026-04-17T12:10:27.757Z</time></trkpt><trkpt lat="40.7415641" lon="-3.8363028"><ele>897.0</ele><time>2026-04-17T12:10:28.756Z</time></trkpt><trkpt lat="40.7415526" lon="-3.8361671"><ele>897.0</ele><time>2026-04-17T12:10:29.757Z</time></trkpt><trkpt lat="40.7415275" lon="-3.8360376"><ele>897.6</ele><time>2026-04-17T12:10:30.756Z</time></trkpt><trkpt lat="40.7415009" lon="-3.8359313"><ele>898.2</ele><time>2026-04-17T12:10:31.756Z</time></trkpt><trkpt lat="40.7414671" lon="-3.8358504"><ele>898.8</ele><time>2026-04-17T12:10:32.757Z</time></trkpt><trkpt lat="40.7413685" lon="-3.8357834"><ele>899.4</ele><time>2026-04-17T12:10:34.756Z</time></trkpt><trkpt lat="40.7412634" lon="-3.8357546"><ele>900.0</ele><time>2026-04-17T12:10:36.756Z</time></trkpt><trkpt lat="40.7411931" lon="-3.8356509"><ele>900.0</ele><time>2026-04-17T12:10:38.756Z</time></trkpt><trkpt lat="40.7411456" lon="-3.8355335"><ele>900.0</ele><time>2026-04-17T12:10:40.757Z</time></trkpt><trkpt lat="40.741114" lon="-3.835417"><ele>900.0</ele><time>2026-04-17T12:10:42.756Z</time></trkpt><trkpt lat="40.7410825" lon="-3.8353255"><ele>900.0</ele><time>2026-04-17T12:10:44.756Z</time></trkpt><trkpt lat="40.7410418" lon="-3.8352072"><ele>900.0</ele><time>2026-04-17T12:10:46.756Z</time></trkpt><trkpt lat="40.7410399" lon="-3.8351229"><ele>900.0</ele><time>2026-04-17T12:10:47.757Z</time></trkpt><trkpt lat="40.7410564" lon="-3.8350287"><ele>900.5</ele><time>2026-04-17T12:10:48.756Z</time></trkpt><trkpt lat="40.7410882" lon="-3.8349326"><ele>901.0</ele><time>2026-04-17T12:10:49.756Z</time></trkpt><trkpt lat="40.7411209" lon="-3.8348272"><ele>901.5</ele><time>2026-04-17T12:10:50.757Z</time></trkpt><trkpt lat="40.7411551" lon="-3.8347251"><ele>902.0</ele><time>2026-04-17T12:10:51.756Z</time></trkpt><trkpt lat="40.7411841" lon="-3.8346263"><ele>902.5</ele><time>2026-04-17T12:10:52.757Z</time></trkpt><trkpt lat="40.7411998" lon="-3.8345299"><ele>903.0</ele><time>2026-04-17T12:10:53.757Z</time></trkpt><trkpt lat="40.7411993" lon="-3.8344269"><ele>903.0</ele><time>2026-04-17T12:10:54.756Z</time></trkpt><trkpt lat="40.7411883" lon="-3.8343173"><ele>903.0</ele><time>2026-04-17T12:10:55.757Z</time></trkpt><trkpt lat="40.7411748" lon="-3.8342013"><ele>903.0</ele><time>2026-04-17T12:10:56.757Z</time></trkpt><trkpt lat="40.741161" lon="-3.8340748"><ele>903.0</ele><time>2026-04-17T12:10:57.756Z</time></trkpt><trkpt lat="40.7411538" lon="-3.8339448"><ele>903.0</ele><time>2026-04-17T12:10:58.756Z</time></trkpt><trkpt lat="40.741146" lon="-3.8338234"><ele>903.0</ele><time>2026-04-17T12:10:59.757Z</time></trkpt><trkpt lat="40.7411345" lon="-3.8337024"><ele>903.0</ele><time>2026-04-17T12:11:00.756Z</time></trkpt><trkpt lat="40.7411281" lon="-3.8335907"><ele>903.0</ele><time>2026-04-17T12:11:01.756Z</time></trkpt><trkpt lat="40.7411244" lon="-3.8334876"><ele>903.0</ele><time>2026-04-17T12:11:02.757Z</time></trkpt><trkpt lat="40.7411202" lon="-3.833401"><ele>903.0</ele><time>2026-04-17T12:11:03.756Z</time></trkpt><trkpt lat="40.7411154" lon="-3.83326"><ele>903.0</ele><time>2026-04-17T12:11:05.756Z</time></trkpt><trkpt lat="40.7411267" lon="-3.8331482"><ele>903.0</ele><time>2026-04-17T12:11:07.756Z</time></trkpt><trkpt lat="40.7411456" lon="-3.8330465"><ele>903.0</ele><time>2026-04-17T12:11:09.756Z</time></trkpt><trkpt lat="40.7411846" lon="-3.8329494"><ele>903.0</ele><time>2026-04-17T12:11:11.756Z</time></trkpt><trkpt lat="40.7411753" lon="-3.8328075"><ele>903.0</ele><time>2026-04-17T12:11:13.756Z</time></trkpt><trkpt lat="40.7411561" lon="-3.8327209"><ele>903.0</ele><time>2026-04-17T12:11:14.756Z</time></trkpt><trkpt lat="40.7411643" lon="-3.8325588"><ele>902.5</ele><time>2026-04-17T12:11:16.757Z</time></trkpt><trkpt lat="40.7411782" lon="-3.8324733"><ele>902.0</ele><time>2026-04-17T12:11:17.756Z</time></trkpt><trkpt lat="40.7411984" lon="-3.832377"><ele>901.5</ele><time>2026-04-17T12:11:18.756Z</time></trkpt><trkpt lat="40.7412213" lon="-3.832281"><ele>901.0</ele><time>2026-04-17T12:11:19.757Z</time></trkpt><trkpt lat="40.7412416" lon="-3.8321722"><ele>900.5</ele><time>2026-04-17T12:11:20.757Z</time></trkpt><trkpt lat="40.7412498" lon="-3.8320475"><ele>900.0</ele><time>2026-04-17T12:11:21.756Z</time></trkpt><trkpt lat="40.741259" lon="-3.8319128"><ele>899.6</ele><time>2026-04-17T12:11:22.757Z</time></trkpt><trkpt lat="40.7412725" lon="-3.8317798"><ele>899.2</ele><time>2026-04-17T12:11:23.757Z</time></trkpt><trkpt lat="40.7412999" lon="-3.8316492"><ele>898.8</ele><time>2026-04-17T12:11:24.756Z</time></trkpt><trkpt lat="40.7413344" lon="-3.8315165"><ele>898.4</ele><time>2026-04-17T12:11:25.756Z</time></trkpt><trkpt lat="40.7413624" lon="-3.8313872"><ele>898.0</ele><time>2026-04-17T12:11:26.756Z</time></trkpt><trkpt lat="40.7413946" lon="-3.8312592"><ele>898.0</ele><time>2026-04-17T12:11:27.756Z</time></trkpt><trkpt lat="40.7414219" lon="-3.8311201"><ele>898.0</ele><time>2026-04-17T12:11:28.756Z</time></trkpt><trkpt lat="40.7414425" lon="-3.8309711"><ele>898.0</ele><time>2026-04-17T12:11:29.756Z</time></trkpt><trkpt lat="40.7414604" lon="-3.8308202"><ele>898.0</ele><time>2026-04-17T12:11:30.756Z</time></trkpt><trkpt lat="40.7414779" lon="-3.8306678"><ele>897.5999999999999</ele><time>2026-04-17T12:11:31.757Z</time></trkpt><trkpt lat="40.7414944" lon="-3.8305165"><ele>897.1999999999999</ele><time>2026-04-17T12:11:32.757Z</time></trkpt><trkpt lat="40.7415129" lon="-3.8303722"><ele>896.8</ele><time>2026-04-17T12:11:33.756Z</time></trkpt><trkpt lat="40.7415429" lon="-3.8302355"><ele>896.4</ele><time>2026-04-17T12:11:34.756Z</time></trkpt><trkpt lat="40.741577" lon="-3.8301118"><ele>896.0</ele><time>2026-04-17T12:11:35.757Z</time></trkpt><trkpt lat="40.7416092" lon="-3.8300047"><ele>896.0000000000001</ele><time>2026-04-17T12:11:36.756Z</time></trkpt><trkpt lat="40.7416354" lon="-3.8298991"><ele>896.0</ele><time>2026-04-17T12:11:37.756Z</time></trkpt><trkpt lat="40.7416536" lon="-3.8297861"><ele>896.0</ele><time>2026-04-17T12:11:38.757Z</time></trkpt><trkpt lat="40.7416562" lon="-3.8296678"><ele>896.0</ele><time>2026-04-17T12:11:39.757Z</time></trkpt><trkpt lat="40.7416596" lon="-3.8295512"><ele>896.0000000000001</ele><time>2026-04-17T12:11:40.757Z</time></trkpt><trkpt lat="40.7416703" lon="-3.8294487"><ele>896.0</ele><time>2026-04-17T12:11:41.757Z</time></trkpt><trkpt lat="40.7416821" lon="-3.8293506"><ele>895.8</ele><time>2026-04-17T12:11:42.757Z</time></trkpt><trkpt lat="40.7416981" lon="-3.8292606"><ele>895.5999999999999</ele><time>2026-04-17T12:11:43.757Z</time></trkpt><trkpt lat="40.741697" lon="-3.829167"><ele>895.4</ele><time>2026-04-17T12:11:44.756Z</time></trkpt><trkpt lat="40.7416858" lon="-3.8290288"><ele>895.2</ele><time>2026-04-17T12:11:46.756Z</time></trkpt><trkpt lat="40.7417274" lon="-3.8289131"><ele>895.0</ele><time>2026-04-17T12:11:48.757Z</time></trkpt><trkpt lat="40.741768" lon="-3.8287807"><ele>894.9999999999999</ele><time>2026-04-17T12:11:50.757Z</time></trkpt><trkpt lat="40.7417226" lon="-3.8286299"><ele>895.0</ele><time>2026-04-17T12:11:52.756Z</time></trkpt><trkpt lat="40.7416934" lon="-3.8285439"><ele>895.0</ele><time>2026-04-17T12:11:53.756Z</time></trkpt><trkpt lat="40.7416751" lon="-3.8284556"><ele>895.0</ele><time>2026-04-17T12:11:54.756Z</time></trkpt><trkpt lat="40.7416561" lon="-3.82837"><ele>894.9999999999999</ele><time>2026-04-17T12:11:55.756Z</time></trkpt><trkpt lat="40.7416319" lon="-3.8282827"><ele>895.0</ele><time>2026-04-17T12:11:56.757Z</time></trkpt><trkpt lat="40.7416181" lon="-3.8281906"><ele>895.4</ele><time>2026-04-17T12:11:57.756Z</time></trkpt><trkpt lat="40.7416018" lon="-3.8280967"><ele>895.8</ele><time>2026-04-17T12:11:58.756Z</time></trkpt><trkpt lat="40.7415799" lon="-3.828007"><ele>896.2</ele><time>2026-04-17T12:11:59.757Z</time></trkpt><trkpt lat="40.7415545" lon="-3.827918"><ele>896.6</ele><time>2026-04-17T12:12:00.756Z</time></trkpt><trkpt lat="40.7415202" lon="-3.8277801"><ele>897.0</ele><time>2026-04-17T12:12:02.756Z</time></trkpt><trkpt lat="40.7414997" lon="-3.8276171"><ele>897.0</ele><time>2026-04-17T12:12:04.757Z</time></trkpt><trkpt lat="40.7415055" lon="-3.8274732"><ele>897.0</ele><time>2026-04-17T12:12:06.757Z</time></trkpt><trkpt lat="40.7414863" lon="-3.8273478"><ele>897.0</ele><time>2026-04-17T12:12:08.757Z</time></trkpt><trkpt lat="40.7414088" lon="-3.8272623"><ele>897.0</ele><time>2026-04-17T12:12:10.756Z</time></trkpt><trkpt lat="40.7413363" lon="-3.8271909"><ele>897.0</ele><time>2026-04-17T12:12:12.756Z</time></trkpt><trkpt lat="40.7412865" lon="-3.8270782"><ele>897.0</ele><time>2026-04-17T12:12:14.756Z</time></trkpt><trkpt lat="40.7412734" lon="-3.8269542"><ele>897.0</ele><time>2026-04-17T12:12:16.757Z</time></trkpt><trkpt lat="40.7411942" lon="-3.8268519"><ele>897.0</ele><time>2026-04-17T12:12:18.757Z</time></trkpt><trkpt lat="40.7411419" lon="-3.8268024"><ele>897.0</ele><time>2026-04-17T12:12:19.757Z</time></trkpt><trkpt lat="40.7410965" lon="-3.8267422"><ele>897.0</ele><time>2026-04-17T12:12:20.756Z</time></trkpt><trkpt lat="40.7410462" lon="-3.8266765"><ele>897.0</ele><time>2026-04-17T12:12:22.756Z</time></trkpt><trkpt lat="40.7409921" lon="-3.8266191"><ele>896.8333333333334</ele><time>2026-04-17T12:12:26.757Z</time></trkpt><trkpt lat="40.7409697" lon="-3.82654"><ele>896.6666666666667</ele><time>2026-04-17T12:12:31.756Z</time></trkpt><trkpt lat="40.7409664" lon="-3.8264292"><ele>896.5</ele><time>2026-04-17T12:12:36.757Z</time></trkpt><trkpt lat="40.7409864" lon="-3.8263338"><ele>896.3333333333334</ele><time>2026-04-17T12:12:39.757Z</time></trkpt><trkpt lat="40.7409889" lon="-3.8262425"><ele>896.1666666666667</ele><time>2026-04-17T12:12:41.756Z</time></trkpt><trkpt lat="40.7408972" lon="-3.8261342"><ele>896.0</ele><time>2026-04-17T12:12:43.756Z</time></trkpt><trkpt lat="40.7408375" lon="-3.8260938"><ele>896.0000000000001</ele><time>2026-04-17T12:12:44.756Z</time></trkpt><trkpt lat="40.7407771" lon="-3.8260588"><ele>896.0</ele><time>2026-04-17T12:12:45.757Z</time></trkpt><trkpt lat="40.740718" lon="-3.8260197"><ele>896.0</ele><time>2026-04-17T12:12:46.756Z</time></trkpt><trkpt lat="40.74065" lon="-3.825975"><ele>896.0</ele><time>2026-04-17T12:12:47.757Z</time></trkpt><trkpt lat="40.7405718" lon="-3.8259298"><ele>896.0000000000001</ele><time>2026-04-17T12:12:48.756Z</time></trkpt><trkpt lat="40.7404926" lon="-3.8258892"><ele>896.0</ele><time>2026-04-17T12:12:49.757Z</time></trkpt><trkpt lat="40.7404137" lon="-3.8258368"><ele>896.0000000000001</ele><time>2026-04-17T12:12:50.757Z</time></trkpt><trkpt lat="40.7403469" lon="-3.8257615"><ele>896.0</ele><time>2026-04-17T12:12:51.757Z</time></trkpt><trkpt lat="40.7402915" lon="-3.8256834"><ele>896.0</ele><time>2026-04-17T12:12:52.757Z</time></trkpt><trkpt lat="40.7402346" lon="-3.8256036"><ele>896.0</ele><time>2026-04-17T12:12:53.756Z</time></trkpt><trkpt lat="40.7401809" lon="-3.8255238"><ele>896.0000000000001</ele><time>2026-04-17T12:12:54.757Z</time></trkpt><trkpt lat="40.7401336" lon="-3.8254541"><ele>896.0</ele><time>2026-04-17T12:12:55.756Z</time></trkpt><trkpt lat="40.7400876" lon="-3.8253881"><ele>896.0000000000001</ele><time>2026-04-17T12:12:56.756Z</time></trkpt><trkpt lat="40.7400447" lon="-3.8253189"><ele>896.0</ele><time>2026-04-17T12:12:57.756Z</time></trkpt><trkpt lat="40.7399919" lon="-3.8252572"><ele>896.0</ele><time>2026-04-17T12:12:58.756Z</time></trkpt><trkpt lat="40.7399306" lon="-3.8252032"><ele>896.0</ele><time>2026-04-17T12:12:59.756Z</time></trkpt><trkpt lat="40.7398698" lon="-3.8251521"><ele>896.0000000000001</ele><time>2026-04-17T12:13:00.756Z</time></trkpt><trkpt lat="40.7398164" lon="-3.8250997"><ele>896.0</ele><time>2026-04-17T12:13:01.757Z</time></trkpt><trkpt lat="40.7397193" lon="-3.825017"><ele>896.1999999999999</ele><time>2026-04-17T12:13:03.756Z</time></trkpt><trkpt lat="40.7396033" lon="-3.8249739"><ele>896.3999999999999</ele><time>2026-04-17T12:13:05.757Z</time></trkpt><trkpt lat="40.7395045" lon="-3.8249254"><ele>896.6</ele><time>2026-04-17T12:13:07.756Z</time></trkpt><trkpt lat="40.7394187" lon="-3.8248181"><ele>896.8</ele><time>2026-04-17T12:13:09.756Z</time></trkpt><trkpt lat="40.7393639" lon="-3.8247576"><ele>897.0</ele><time>2026-04-17T12:13:10.757Z</time></trkpt><trkpt lat="40.739293" lon="-3.8246923"><ele>897.1666666666666</ele><time>2026-04-17T12:13:11.756Z</time></trkpt><trkpt lat="40.7392238" lon="-3.8246287"><ele>897.3333333333333</ele><time>2026-04-17T12:13:12.756Z</time></trkpt><trkpt lat="40.7391567" lon="-3.8245553"><ele>897.5</ele><time>2026-04-17T12:13:13.756Z</time></trkpt><trkpt lat="40.7390925" lon="-3.8244644"><ele>897.6666666666666</ele><time>2026-04-17T12:13:14.756Z</time></trkpt><trkpt lat="40.7390305" lon="-3.8243797"><ele>897.8333333333333</ele><time>2026-04-17T12:13:15.756Z</time></trkpt><trkpt lat="40.7389719" lon="-3.8243"><ele>898.0</ele><time>2026-04-17T12:13:16.756Z</time></trkpt><trkpt lat="40.7389155" lon="-3.8242306"><ele>897.7142857142857</ele><time>2026-04-17T12:13:17.756Z</time></trkpt><trkpt lat="40.7388747" lon="-3.8241609"><ele>897.4285714285713</ele><time>2026-04-17T12:13:18.756Z</time></trkpt><trkpt lat="40.7388386" lon="-3.8240802"><ele>897.1428571428571</ele><time>2026-04-17T12:13:19.756Z</time></trkpt><trkpt lat="40.738807" lon="-3.8239813"><ele>896.8571428571429</ele><time>2026-04-17T12:13:20.757Z</time></trkpt><trkpt lat="40.7387736" lon="-3.82389"><ele>896.5714285714286</ele><time>2026-04-17T12:13:21.756Z</time></trkpt><trkpt lat="40.7387356" lon="-3.8238081"><ele>896.2857142857142</ele><time>2026-04-17T12:13:22.756Z</time></trkpt><trkpt lat="40.7386886" lon="-3.8237351"><ele>896.0</ele><time>2026-04-17T12:13:23.756Z</time></trkpt><trkpt lat="40.7386385" lon="-3.8236763"><ele>896.0</ele><time>2026-04-17T12:13:24.757Z</time></trkpt><trkpt lat="40.7385761" lon="-3.8235545"><ele>895.9999999999999</ele><time>2026-04-17T12:13:26.756Z</time></trkpt><trkpt lat="40.7385368" lon="-3.8234195"><ele>895.9999999999999</ele><time>2026-04-17T12:13:28.756Z</time></trkpt><trkpt lat="40.7385133" lon="-3.823281"><ele>896.0</ele><time>2026-04-17T12:13:30.756Z</time></trkpt><trkpt lat="40.7384656" lon="-3.8231596"><ele>896.0</ele><time>2026-04-17T12:13:32.756Z</time></trkpt><trkpt lat="40.7383624" lon="-3.8230914"><ele>895.5999999999999</ele><time>2026-04-17T12:13:34.757Z</time></trkpt><trkpt lat="40.7382594" lon="-3.8229961"><ele>895.1999999999999</ele><time>2026-04-17T12:13:36.756Z</time></trkpt><trkpt lat="40.7382043" lon="-3.8229174"><ele>894.8000000000001</ele><time>2026-04-17T12:13:37.757Z</time></trkpt><trkpt lat="40.7381556" lon="-3.8228235"><ele>894.4000000000001</ele><time>2026-04-17T12:13:38.757Z</time></trkpt><trkpt lat="40.7381097" lon="-3.8227342"><ele>894.0</ele><time>2026-04-17T12:13:39.756Z</time></trkpt><trkpt lat="40.7380586" lon="-3.8226487"><ele>894.1666666666666</ele><time>2026-04-17T12:13:40.757Z</time></trkpt><trkpt lat="40.7379983" lon="-3.8225638"><ele>894.3333333333333</ele><time>2026-04-17T12:13:41.756Z</time></trkpt><trkpt lat="40.7379419" lon="-3.8224799"><ele>894.5</ele><time>2026-04-17T12:13:42.757Z</time></trkpt><trkpt lat="40.7378949" lon="-3.8223918"><ele>894.6666666666666</ele><time>2026-04-17T12:13:43.756Z</time></trkpt><trkpt lat="40.7378531" lon="-3.8223058"><ele>894.8333333333333</ele><time>2026-04-17T12:13:44.756Z</time></trkpt><trkpt lat="40.7378222" lon="-3.8222302"><ele>895.0</ele><time>2026-04-17T12:13:45.757Z</time></trkpt><trkpt lat="40.7377835" lon="-3.8220955"><ele>895.0</ele><time>2026-04-17T12:13:47.757Z</time></trkpt><trkpt lat="40.7377683" lon="-3.8219582"><ele>895.0</ele><time>2026-04-17T12:13:49.757Z</time></trkpt><trkpt lat="40.737747" lon="-3.8218236"><ele>895.0</ele><time>2026-04-17T12:13:51.757Z</time></trkpt><trkpt lat="40.7377129" lon="-3.8216614"><ele>895.0</ele><time>2026-04-17T12:13:53.756Z</time></trkpt><trkpt lat="40.7376904" lon="-3.8215639"><ele>895.0</ele><time>2026-04-17T12:13:54.756Z</time></trkpt><trkpt lat="40.7376682" lon="-3.8214612"><ele>895.0</ele><time>2026-04-17T12:13:55.757Z</time></trkpt><trkpt lat="40.737654" lon="-3.8213637"><ele>895.0</ele><time>2026-04-17T12:13:56.757Z</time></trkpt><trkpt lat="40.7376406" lon="-3.8212766"><ele>895.0</ele><time>2026-04-17T12:13:57.757Z</time></trkpt><trkpt lat="40.7376189" lon="-3.8211941"><ele>895.0</ele><time>2026-04-17T12:13:58.757Z</time></trkpt><trkpt lat="40.7376024" lon="-3.821112"><ele>895.0</ele><time>2026-04-17T12:13:59.756Z</time></trkpt><trkpt lat="40.7375921" lon="-3.8210279"><ele>895.0</ele><time>2026-04-17T12:14:00.756Z</time></trkpt><trkpt lat="40.7375814" lon="-3.8209403"><ele>895.0</ele><time>2026-04-17T12:14:01.756Z</time></trkpt><trkpt lat="40.7375745" lon="-3.8208548"><ele>895.0</ele><time>2026-04-17T12:14:02.757Z</time></trkpt><trkpt lat="40.7375415" lon="-3.8207113"><ele>895.0</ele><time>2026-04-17T12:14:04.756Z</time></trkpt><trkpt lat="40.7375233" lon="-3.8205897"><ele>895.0</ele><time>2026-04-17T12:14:06.756Z</time></trkpt><trkpt lat="40.7375507" lon="-3.8204785"><ele>895.0</ele><time>2026-04-17T12:14:08.757Z</time></trkpt><trkpt lat="40.7375542" lon="-3.8203691"><ele>895.0</ele><time>2026-04-17T12:14:10.756Z</time></trkpt><trkpt lat="40.7375416" lon="-3.8202511"><ele>895.1666666666666</ele><time>2026-04-17T12:14:12.757Z</time></trkpt><trkpt lat="40.7375104" lon="-3.8201075"><ele>895.3333333333333</ele><time>2026-04-17T12:14:14.756Z</time></trkpt><trkpt lat="40.7375078" lon="-3.8199443"><ele>895.5</ele><time>2026-04-17T12:14:16.757Z</time></trkpt><trkpt lat="40.737524" lon="-3.8198551"><ele>895.6666666666667</ele><time>2026-04-17T12:14:17.756Z</time></trkpt><trkpt lat="40.7375521" lon="-3.8197714"><ele>895.8333333333334</ele><time>2026-04-17T12:14:18.757Z</time></trkpt><trkpt lat="40.7375864" lon="-3.8196884"><ele>896.0</ele><time>2026-04-17T12:14:19.756Z</time></trkpt><trkpt lat="40.7376214" lon="-3.8195969"><ele>896.0000000000001</ele><time>2026-04-17T12:14:20.757Z</time></trkpt><trkpt lat="40.737663" lon="-3.8194978"><ele>896.0</ele><time>2026-04-17T12:14:21.757Z</time></trkpt><trkpt lat="40.7377013" lon="-3.8193979"><ele>896.0</ele><time>2026-04-17T12:14:22.756Z</time></trkpt><trkpt lat="40.7377301" lon="-3.8193185"><ele>896.0</ele><time>2026-04-17T12:14:23.757Z</time></trkpt><trkpt lat="40.7377705" lon="-3.8191853"><ele>896.0000000000001</ele><time>2026-04-17T12:14:25.757Z</time></trkpt><trkpt lat="40.7378083" lon="-3.8190649"><ele>896.0</ele><time>2026-04-17T12:14:27.756Z</time></trkpt><trkpt lat="40.7378332" lon="-3.8189839"><ele>896.1666666666667</ele><time>2026-04-17T12:14:29.756Z</time></trkpt><trkpt lat="40.7378602" lon="-3.8189039"><ele>896.3333333333334</ele><time>2026-04-17T12:14:31.756Z</time></trkpt><trkpt lat="40.737875" lon="-3.8187736"><ele>896.5</ele><time>2026-04-17T12:14:33.756Z</time></trkpt><trkpt lat="40.7378956" lon="-3.8186119"><ele>896.6666666666667</ele><time>2026-04-17T12:14:35.756Z</time></trkpt><trkpt lat="40.7379078" lon="-3.8185281"><ele>896.8333333333334</ele><time>2026-04-17T12:14:36.756Z</time></trkpt><trkpt lat="40.7379131" lon="-3.8184377"><ele>897.0</ele><time>2026-04-17T12:14:37.757Z</time></trkpt><trkpt lat="40.7379208" lon="-3.8183442"><ele>896.6666666666666</ele><time>2026-04-17T12:14:38.756Z</time></trkpt><trkpt lat="40.7379283" lon="-3.8182505"><ele>896.3333333333333</ele><time>2026-04-17T12:14:39.757Z</time></trkpt><trkpt lat="40.7379389" lon="-3.818157"><ele>896.0</ele><time>2026-04-17T12:14:40.756Z</time></trkpt><trkpt lat="40.7379537" lon="-3.8180624"><ele>895.6666666666666</ele><time>2026-04-17T12:14:41.757Z</time></trkpt><trkpt lat="40.7379771" lon="-3.8179622"><ele>895.3333333333333</ele><time>2026-04-17T12:14:42.756Z</time></trkpt><trkpt lat="40.7380084" lon="-3.817852"><ele>895.0</ele><time>2026-04-17T12:14:43.757Z</time></trkpt><trkpt lat="40.7380551" lon="-3.8177344"><ele>895.5</ele><time>2026-04-17T12:14:44.756Z</time></trkpt><trkpt lat="40.7381143" lon="-3.8176075"><ele>896.0</ele><time>2026-04-17T12:14:45.756Z</time></trkpt><trkpt lat="40.7381752" lon="-3.8174773"><ele>896.5</ele><time>2026-04-17T12:14:46.756Z</time></trkpt><trkpt lat="40.7382284" lon="-3.8173474"><ele>897.0</ele><time>2026-04-17T12:14:47.756Z</time></trkpt><trkpt lat="40.7382832" lon="-3.8172132"><ele>897.0</ele><time>2026-04-17T12:14:48.756Z</time></trkpt><trkpt lat="40.7383428" lon="-3.8170795"><ele>897.0</ele><time>2026-04-17T12:14:49.757Z</time></trkpt><trkpt lat="40.7384008" lon="-3.8169372"><ele>897.0</ele><time>2026-04-17T12:14:50.756Z</time></trkpt><trkpt lat="40.7384555" lon="-3.8167905"><ele>897.0</ele><time>2026-04-17T12:14:51.756Z</time></trkpt><trkpt lat="40.7385095" lon="-3.8166515"><ele>897.0</ele><time>2026-04-17T12:14:52.756Z</time></trkpt><trkpt lat="40.7385593" lon="-3.8165224"><ele>897.0</ele><time>2026-04-17T12:14:53.756Z</time></trkpt><trkpt lat="40.7386129" lon="-3.8164031"><ele>897.0</ele><time>2026-04-17T12:14:54.757Z</time></trkpt><trkpt lat="40.738663" lon="-3.8162958"><ele>897.0</ele><time>2026-04-17T12:14:55.757Z</time></trkpt><trkpt lat="40.7387043" lon="-3.8161895"><ele>897.0</ele><time>2026-04-17T12:14:56.756Z</time></trkpt><trkpt lat="40.7387424" lon="-3.816087"><ele>897.0</ele><time>2026-04-17T12:14:57.756Z</time></trkpt><trkpt lat="40.738772" lon="-3.8160118"><ele>897.0</ele><time>2026-04-17T12:14:58.756Z</time></trkpt><trkpt lat="40.7388058" lon="-3.8159383"><ele>897.0</ele><time>2026-04-17T12:14:59.756Z</time></trkpt><trkpt lat="40.7388569" lon="-3.8158312"><ele>897.0</ele><time>2026-04-17T12:15:01.757Z</time></trkpt><trkpt lat="40.7389128" lon="-3.8157797"><ele>897.0</ele><time>2026-04-17T12:15:03.756Z</time></trkpt><trkpt lat="40.7389484" lon="-3.8157022"><ele>897.0</ele><time>2026-04-17T12:15:05.756Z</time></trkpt><trkpt lat="40.7389975" lon="-3.815611"><ele>897.0</ele><time>2026-04-17T12:15:07.757Z</time></trkpt><trkpt lat="40.7390632" lon="-3.8155613"><ele>897.0</ele><time>2026-04-17T12:15:09.757Z</time></trkpt><trkpt lat="40.7391329" lon="-3.8155313"><ele>897.0</ele><time>2026-04-17T12:15:45.757Z</time></trkpt><trkpt lat="40.7391767" lon="-3.8154341"><ele>897.0</ele><time>2026-04-17T12:15:47.757Z</time></trkpt><trkpt lat="40.7392299" lon="-3.8152766"><ele>897.0</ele><time>2026-04-17T12:15:49.757Z</time></trkpt><trkpt lat="40.7392642" lon="-3.8151801"><ele>897.0</ele><time>2026-04-17T12:15:50.756Z</time></trkpt><trkpt lat="40.7392987" lon="-3.8150879"><ele>897.0</ele><time>2026-04-17T12:15:51.756Z</time></trkpt><trkpt lat="40.7393307" lon="-3.8149931"><ele>897.0</ele><time>2026-04-17T12:15:52.757Z</time></trkpt><trkpt lat="40.7393475" lon="-3.8148934"><ele>897.0</ele><time>2026-04-17T12:15:53.757Z</time></trkpt><trkpt lat="40.7393461" lon="-3.8147934"><ele>897.0</ele><time>2026-04-17T12:15:54.756Z</time></trkpt><trkpt lat="40.7393325" lon="-3.8146863"><ele>897.0</ele><time>2026-04-17T12:15:55.757Z</time></trkpt><trkpt lat="40.7393269" lon="-3.8145878"><ele>897.0</ele><time>2026-04-17T12:15:56.757Z</time></trkpt><trkpt lat="40.7393602" lon="-3.8144342"><ele>897.0</ele><time>2026-04-17T12:15:58.756Z</time></trkpt><trkpt lat="40.7394518" lon="-3.8143031"><ele>897.0</ele><time>2026-04-17T12:16:00.757Z</time></trkpt><trkpt lat="40.7395147" lon="-3.8142394"><ele>897.0</ele><time>2026-04-17T12:16:01.757Z</time></trkpt><trkpt lat="40.7395776" lon="-3.8141715"><ele>897.0</ele><time>2026-04-17T12:16:02.757Z</time></trkpt><trkpt lat="40.7396473" lon="-3.814091"><ele>897.0</ele><time>2026-04-17T12:16:03.757Z</time></trkpt><trkpt lat="40.7397093" lon="-3.8139879"><ele>897.0</ele><time>2026-04-17T12:16:04.756Z</time></trkpt><trkpt lat="40.739764" lon="-3.8138705"><ele>897.0</ele><time>2026-04-17T12:16:05.756Z</time></trkpt><trkpt lat="40.7398141" lon="-3.8137399"><ele>897.0</ele><time>2026-04-17T12:16:06.757Z</time></trkpt><trkpt lat="40.7398626" lon="-3.8136061"><ele>897.0</ele><time>2026-04-17T12:16:07.756Z</time></trkpt><trkpt lat="40.7399089" lon="-3.8134637"><ele>897.0</ele><time>2026-04-17T12:16:08.757Z</time></trkpt><trkpt lat="40.7399625" lon="-3.8133187"><ele>897.25</ele><time>2026-04-17T12:16:09.756Z</time></trkpt><trkpt lat="40.7400205" lon="-3.8131685"><ele>897.5</ele><time>2026-04-17T12:16:10.757Z</time></trkpt><trkpt lat="40.7400837" lon="-3.813018"><ele>897.75</ele><time>2026-04-17T12:16:11.757Z</time></trkpt><trkpt lat="40.7401501" lon="-3.8128605"><ele>898.0</ele><time>2026-04-17T12:16:12.756Z</time></trkpt><trkpt lat="40.7402178" lon="-3.8126999"><ele>898.75</ele><time>2026-04-17T12:16:13.757Z</time></trkpt><trkpt lat="40.7402937" lon="-3.8125393"><ele>899.5</ele><time>2026-04-17T12:16:14.756Z</time></trkpt><trkpt lat="40.7403722" lon="-3.8123813"><ele>900.25</ele><time>2026-04-17T12:16:15.757Z</time></trkpt><trkpt lat="40.7404443" lon="-3.8122383"><ele>901.0</ele><time>2026-04-17T12:16:16.756Z</time></trkpt><trkpt lat="40.7405193" lon="-3.8121184"><ele>900.9999999999999</ele><time>2026-04-17T12:16:17.757Z</time></trkpt><trkpt lat="40.740579" lon="-3.8120101"><ele>901.0</ele><time>2026-04-17T12:16:18.757Z</time></trkpt><trkpt lat="40.7406233" lon="-3.811924"><ele>901.0</ele><time>2026-04-17T12:16:19.756Z</time></trkpt><trkpt lat="40.740661" lon="-3.8118525"><ele>901.0</ele><time>2026-04-17T12:16:20.757Z</time></trkpt><trkpt lat="40.7407155" lon="-3.811734"><ele>900.9999999999999</ele><time>2026-04-17T12:16:22.756Z</time></trkpt><trkpt lat="40.7407414" lon="-3.8116284"><ele>901.0</ele><time>2026-04-17T12:16:24.756Z</time></trkpt><trkpt lat="40.7407224" lon="-3.8115193"><ele>901.3333333333333</ele><time>2026-04-17T12:16:26.757Z</time></trkpt><trkpt lat="40.7406968" lon="-3.8114121"><ele>901.6666666666666</ele><time>2026-04-17T12:16:28.757Z</time></trkpt><trkpt lat="40.7407189" lon="-3.8112766"><ele>902.0</ele><time>2026-04-17T12:16:30.757Z</time></trkpt><trkpt lat="40.7407536" lon="-3.8112003"><ele>902.3333333333333</ele><time>2026-04-17T12:16:31.757Z</time></trkpt><trkpt lat="40.7407922" lon="-3.8111188"><ele>902.6666666666666</ele><time>2026-04-17T12:16:32.757Z</time></trkpt><trkpt lat="40.7408303" lon="-3.8110362"><ele>903.0</ele><time>2026-04-17T12:16:33.757Z</time></trkpt><trkpt lat="40.7408716" lon="-3.8109664"><ele>903.0</ele><time>2026-04-17T12:16:34.756Z</time></trkpt><trkpt lat="40.7409079" lon="-3.8108957"><ele>903.0</ele><time>2026-04-17T12:16:35.757Z</time></trkpt><trkpt lat="40.7409532" lon="-3.8108334"><ele>903.0</ele><time>2026-04-17T12:16:36.756Z</time></trkpt><trkpt lat="40.7410028" lon="-3.810776"><ele>903.0</ele><time>2026-04-17T12:16:37.756Z</time></trkpt><trkpt lat="40.7410497" lon="-3.8107201"><ele>903.0</ele><time>2026-04-17T12:16:38.756Z</time></trkpt><trkpt lat="40.7411128" lon="-3.8105812"><ele>903.0</ele><time>2026-04-17T12:16:40.757Z</time></trkpt><trkpt lat="40.7411376" lon="-3.8105016"><ele>903.0</ele><time>2026-04-17T12:16:41.756Z</time></trkpt><trkpt lat="40.7411723" lon="-3.8104123"><ele>903.6666666666666</ele><time>2026-04-17T12:16:42.757Z</time></trkpt><trkpt lat="40.7412146" lon="-3.8103139"><ele>904.3333333333333</ele><time>2026-04-17T12:16:43.756Z</time></trkpt><trkpt lat="40.7412595" lon="-3.8102165"><ele>905.0</ele><time>2026-04-17T12:16:44.757Z</time></trkpt><trkpt lat="40.7413058" lon="-3.8101209"><ele>905.6666666666666</ele><time>2026-04-17T12:16:45.756Z</time></trkpt><trkpt lat="40.7413503" lon="-3.8100271"><ele>906.3333333333333</ele><time>2026-04-17T12:16:46.757Z</time></trkpt><trkpt lat="40.7413926" lon="-3.8099399"><ele>907.0</ele><time>2026-04-17T12:16:47.756Z</time></trkpt><trkpt lat="40.7414282" lon="-3.8098637"><ele>906.9999999999999</ele><time>2026-04-17T12:16:48.757Z</time></trkpt><trkpt lat="40.7414661" lon="-3.8097907"><ele>907.0</ele><time>2026-04-17T12:16:49.757Z</time></trkpt><trkpt lat="40.7414995" lon="-3.8097058"><ele>907.0</ele><time>2026-04-17T12:16:50.757Z</time></trkpt><trkpt lat="40.7415325" lon="-3.8096146"><ele>907.0</ele><time>2026-04-17T12:16:51.756Z</time></trkpt><trkpt lat="40.7415657" lon="-3.8095132"><ele>906.9999999999999</ele><time>2026-04-17T12:16:52.756Z</time></trkpt><trkpt lat="40.7416064" lon="-3.8094033"><ele>907.0</ele><time>2026-04-17T12:16:53.756Z</time></trkpt><trkpt lat="40.7416536" lon="-3.8092774"><ele>907.0</ele><time>2026-04-17T12:16:54.757Z</time></trkpt><trkpt lat="40.7417068" lon="-3.8091444"><ele>907.0</ele><time>2026-04-17T12:16:55.756Z</time></trkpt><trkpt lat="40.7417621" lon="-3.8090196"><ele>907.0</ele><time>2026-04-17T12:16:56.757Z</time></trkpt><trkpt lat="40.7418171" lon="-3.8088987"><ele>907.0</ele><time>2026-04-17T12:16:57.756Z</time></trkpt><trkpt lat="40.7418757" lon="-3.8087782"><ele>907.0</ele><time>2026-04-17T12:16:58.757Z</time></trkpt><trkpt lat="40.7419338" lon="-3.8086641"><ele>906.9999999999999</ele><time>2026-04-17T12:16:59.756Z</time></trkpt><trkpt lat="40.7419848" lon="-3.8085685"><ele>907.0</ele><time>2026-04-17T12:17:00.757Z</time></trkpt><trkpt lat="40.7420341" lon="-3.8084752"><ele>907.0</ele><time>2026-04-17T12:17:01.756Z</time></trkpt><trkpt lat="40.7420871" lon="-3.8083792"><ele>907.0</ele><time>2026-04-17T12:17:02.756Z</time></trkpt><trkpt lat="40.7421407" lon="-3.808283"><ele>906.9999999999999</ele><time>2026-04-17T12:17:03.757Z</time></trkpt><trkpt lat="40.7421855" lon="-3.8081905"><ele>907.0</ele><time>2026-04-17T12:17:04.757Z</time></trkpt><trkpt lat="40.7422147" lon="-3.8080953"><ele>906.6666666666666</ele><time>2026-04-17T12:17:05.757Z</time></trkpt><trkpt lat="40.7422396" lon="-3.8079943"><ele>906.3333333333333</ele><time>2026-04-17T12:17:06.757Z</time></trkpt><trkpt lat="40.7422664" lon="-3.8078949"><ele>906.0</ele><time>2026-04-17T12:17:07.756Z</time></trkpt><trkpt lat="40.7423011" lon="-3.8077974"><ele>905.6666666666667</ele><time>2026-04-17T12:17:08.757Z</time></trkpt><trkpt lat="40.742344" lon="-3.8076989"><ele>905.3333333333334</ele><time>2026-04-17T12:17:09.757Z</time></trkpt><trkpt lat="40.7423838" lon="-3.8076054"><ele>905.0</ele><time>2026-04-17T12:17:10.756Z</time></trkpt><trkpt lat="40.7424178" lon="-3.8075267"><ele>905.0</ele><time>2026-04-17T12:17:11.756Z</time></trkpt><trkpt lat="40.7424628" lon="-3.8074537"><ele>904.9999999999999</ele><time>2026-04-17T12:17:12.756Z</time></trkpt><trkpt lat="40.7425066" lon="-3.8073763"><ele>905.0</ele><time>2026-04-17T12:17:13.757Z</time></trkpt><trkpt lat="40.742549" lon="-3.8073011"><ele>905.0</ele><time>2026-04-17T12:17:14.756Z</time></trkpt><trkpt lat="40.7425915" lon="-3.807219"><ele>904.9999999999999</ele><time>2026-04-17T12:17:15.757Z</time></trkpt><trkpt lat="40.7426341" lon="-3.8071343"><ele>905.0</ele><time>2026-04-17T12:17:16.757Z</time></trkpt><trkpt lat="40.7426728" lon="-3.8070508"><ele>905.0</ele><time>2026-04-17T12:17:17.757Z</time></trkpt><trkpt lat="40.7427073" lon="-3.8069637"><ele>905.1428571428571</ele><time>2026-04-17T12:17:18.756Z</time></trkpt><trkpt lat="40.7427428" lon="-3.8068744"><ele>905.2857142857142</ele><time>2026-04-17T12:17:19.757Z</time></trkpt><trkpt lat="40.7427776" lon="-3.8067861"><ele>905.4285714285713</ele><time>2026-04-17T12:17:20.756Z</time></trkpt><trkpt lat="40.7428142" lon="-3.806703"><ele>905.5714285714284</ele><time>2026-04-17T12:17:21.757Z</time></trkpt><trkpt lat="40.742851" lon="-3.806622"><ele>905.7142857142857</ele><time>2026-04-17T12:17:22.757Z</time></trkpt><trkpt lat="40.7428891" lon="-3.8065469"><ele>905.8571428571427</ele><time>2026-04-17T12:17:23.756Z</time></trkpt><trkpt lat="40.7429248" lon="-3.8064575"><ele>905.9999999999999</ele><time>2026-04-17T12:17:24.756Z</time></trkpt><trkpt lat="40.7429625" lon="-3.8063602"><ele>906.1666666666666</ele><time>2026-04-17T12:17:25.756Z</time></trkpt><trkpt lat="40.7429963" lon="-3.8062604"><ele>906.3333333333333</ele><time>2026-04-17T12:17:26.756Z</time></trkpt><trkpt lat="40.7430264" lon="-3.8061601"><ele>906.5</ele><time>2026-04-17T12:17:27.756Z</time></trkpt><trkpt lat="40.7430609" lon="-3.8060581"><ele>906.6666666666666</ele><time>2026-04-17T12:17:28.756Z</time></trkpt><trkpt lat="40.7431033" lon="-3.8059641"><ele>906.8333333333333</ele><time>2026-04-17T12:17:29.757Z</time></trkpt><trkpt lat="40.7431517" lon="-3.8058878"><ele>907.0</ele><time>2026-04-17T12:17:30.757Z</time></trkpt><trkpt lat="40.7431874" lon="-3.8058056"><ele>906.6666666666666</ele><time>2026-04-17T12:17:31.757Z</time></trkpt><trkpt lat="40.7432102" lon="-3.8057233"><ele>906.3333333333333</ele><time>2026-04-17T12:17:32.757Z</time></trkpt><trkpt lat="40.7432263" lon="-3.8056426"><ele>906.0</ele><time>2026-04-17T12:17:33.757Z</time></trkpt><trkpt lat="40.7432826" lon="-3.8055126"><ele>905.6666666666667</ele><time>2026-04-17T12:17:35.757Z</time></trkpt><trkpt lat="40.7433112" lon="-3.8054268"><ele>905.3333333333334</ele><time>2026-04-17T12:17:37.757Z</time></trkpt><trkpt lat="40.74336" lon="-3.805326"><ele>905.0</ele><time>2026-04-17T12:17:40.756Z</time></trkpt><trkpt lat="40.7434041" lon="-3.8052405"><ele>904.8333333333334</ele><time>2026-04-17T12:17:42.756Z</time></trkpt><trkpt lat="40.7434653" lon="-3.8051299"><ele>904.6666666666667</ele><time>2026-04-17T12:17:44.757Z</time></trkpt><trkpt lat="40.7435415" lon="-3.804997"><ele>904.5</ele><time>2026-04-17T12:17:46.756Z</time></trkpt><trkpt lat="40.7435756" lon="-3.8049152"><ele>904.3333333333333</ele><time>2026-04-17T12:17:47.756Z</time></trkpt><trkpt lat="40.7436109" lon="-3.8048382"><ele>904.1666666666666</ele><time>2026-04-17T12:17:48.756Z</time></trkpt><trkpt lat="40.7436435" lon="-3.8047551"><ele>904.0</ele><time>2026-04-17T12:17:49.757Z</time></trkpt><trkpt lat="40.7436806" lon="-3.8046672"><ele>904.3333333333333</ele><time>2026-04-17T12:17:50.756Z</time></trkpt><trkpt lat="40.7437202" lon="-3.8045671"><ele>904.6666666666666</ele><time>2026-04-17T12:17:51.756Z</time></trkpt><trkpt lat="40.7437629" lon="-3.8044567"><ele>905.0</ele><time>2026-04-17T12:17:52.757Z</time></trkpt><trkpt lat="40.7438067" lon="-3.804351"><ele>905.3333333333333</ele><time>2026-04-17T12:17:53.756Z</time></trkpt><trkpt lat="40.7438515" lon="-3.8042558"><ele>905.6666666666666</ele><time>2026-04-17T12:17:54.756Z</time></trkpt><trkpt lat="40.7439087" lon="-3.8041736"><ele>906.0</ele><time>2026-04-17T12:17:55.757Z</time></trkpt><trkpt lat="40.7439727" lon="-3.8040934"><ele>906.0</ele><time>2026-04-17T12:17:56.756Z</time></trkpt><trkpt lat="40.7440209" lon="-3.8040092"><ele>906.0</ele><time>2026-04-17T12:17:57.756Z</time></trkpt><trkpt lat="40.7440514" lon="-3.8039158"><ele>906.0</ele><time>2026-04-17T12:17:58.756Z</time></trkpt><trkpt lat="40.7440693" lon="-3.8038158"><ele>906.0</ele><time>2026-04-17T12:17:59.756Z</time></trkpt><trkpt lat="40.744089" lon="-3.8037165"><ele>906.0</ele><time>2026-04-17T12:18:00.756Z</time></trkpt><trkpt lat="40.7441135" lon="-3.8036204"><ele>906.0</ele><time>2026-04-17T12:18:01.756Z</time></trkpt><trkpt lat="40.744145" lon="-3.8035377"><ele>906.5</ele><time>2026-04-17T12:18:02.756Z</time></trkpt><trkpt lat="40.744182" lon="-3.8034658"><ele>907.0</ele><time>2026-04-17T12:18:03.756Z</time></trkpt><trkpt lat="40.7442327" lon="-3.8034043"><ele>907.5</ele><time>2026-04-17T12:18:04.757Z</time></trkpt><trkpt lat="40.7442885" lon="-3.8033363"><ele>908.0</ele><time>2026-04-17T12:18:05.756Z</time></trkpt><trkpt lat="40.7443446" lon="-3.803265"><ele>908.5</ele><time>2026-04-17T12:18:06.756Z</time></trkpt><trkpt lat="40.7444038" lon="-3.8031933"><ele>909.0</ele><time>2026-04-17T12:18:07.757Z</time></trkpt><trkpt lat="40.7444619" lon="-3.8031192"><ele>909.1666666666666</ele><time>2026-04-17T12:18:08.757Z</time></trkpt><trkpt lat="40.7445235" lon="-3.8030464"><ele>909.3333333333333</ele><time>2026-04-17T12:18:09.756Z</time></trkpt><trkpt lat="40.7445807" lon="-3.802974"><ele>909.5</ele><time>2026-04-17T12:18:10.757Z</time></trkpt><trkpt lat="40.7446329" lon="-3.8029107"><ele>909.6666666666666</ele><time>2026-04-17T12:18:11.756Z</time></trkpt><trkpt lat="40.7446857" lon="-3.8028478"><ele>909.8333333333333</ele><time>2026-04-17T12:18:12.756Z</time></trkpt><trkpt lat="40.7447458" lon="-3.8027764"><ele>910.0</ele><time>2026-04-17T12:18:13.756Z</time></trkpt><trkpt lat="40.7448021" lon="-3.8027037"><ele>909.9999999999999</ele><time>2026-04-17T12:18:14.756Z</time></trkpt><trkpt lat="40.7448621" lon="-3.8026326"><ele>910.0</ele><time>2026-04-17T12:18:15.756Z</time></trkpt><trkpt lat="40.7449269" lon="-3.8025692"><ele>910.0</ele><time>2026-04-17T12:18:16.757Z</time></trkpt><trkpt lat="40.7449885" lon="-3.8025062"><ele>910.0</ele><time>2026-04-17T12:18:17.756Z</time></trkpt><trkpt lat="40.7450381" lon="-3.8024488"><ele>909.9999999999999</ele><time>2026-04-17T12:18:18.756Z</time></trkpt><trkpt lat="40.7451185" lon="-3.8023652"><ele>910.0</ele><time>2026-04-17T12:18:20.756Z</time></trkpt><trkpt lat="40.7451903" lon="-3.8023355"><ele>910.4</ele><time>2026-04-17T12:18:22.756Z</time></trkpt><trkpt lat="40.7452826" lon="-3.8023454"><ele>910.8</ele><time>2026-04-17T12:18:24.757Z</time></trkpt><trkpt lat="40.7454009" lon="-3.802345"><ele>911.2</ele><time>2026-04-17T12:18:26.756Z</time></trkpt><trkpt lat="40.7454974" lon="-3.8023125"><ele>911.6</ele><time>2026-04-17T12:18:28.756Z</time></trkpt><trkpt lat="40.7455843" lon="-3.8022707"><ele>912.0</ele><time>2026-04-17T12:18:30.756Z</time></trkpt><trkpt lat="40.7456559" lon="-3.8022238"><ele>912.0</ele><time>2026-04-17T12:18:32.756Z</time></trkpt><trkpt lat="40.7456984" lon="-3.8021604"><ele>912.0</ele><time>2026-04-17T12:18:33.756Z</time></trkpt><trkpt lat="40.7457417" lon="-3.8020653"><ele>912.0</ele><time>2026-04-17T12:18:34.756Z</time></trkpt><trkpt lat="40.745795" lon="-3.801962"><ele>912.0</ele><time>2026-04-17T12:18:35.756Z</time></trkpt><trkpt lat="40.7458515" lon="-3.8018523"><ele>912.0</ele><time>2026-04-17T12:18:36.756Z</time></trkpt><trkpt lat="40.7459041" lon="-3.8017446"><ele>912.0</ele><time>2026-04-17T12:18:37.756Z</time></trkpt><trkpt lat="40.7459621" lon="-3.8016372"><ele>911.75</ele><time>2026-04-17T12:18:38.756Z</time></trkpt><trkpt lat="40.7460189" lon="-3.8015227"><ele>911.5</ele><time>2026-04-17T12:18:39.756Z</time></trkpt><trkpt lat="40.7460813" lon="-3.8014034"><ele>911.25</ele><time>2026-04-17T12:18:40.756Z</time></trkpt><trkpt lat="40.7461507" lon="-3.8012764"><ele>911.0</ele><time>2026-04-17T12:18:41.757Z</time></trkpt><trkpt lat="40.7462205" lon="-3.8011422"><ele>911.75</ele><time>2026-04-17T12:18:42.757Z</time></trkpt><trkpt lat="40.746292" lon="-3.8010061"><ele>912.5</ele><time>2026-04-17T12:18:43.757Z</time></trkpt><trkpt lat="40.7463631" lon="-3.8008649"><ele>913.25</ele><time>2026-04-17T12:18:44.757Z</time></trkpt><trkpt lat="40.7464388" lon="-3.8007148"><ele>914.0</ele><time>2026-04-17T12:18:45.757Z</time></trkpt><trkpt lat="40.7465157" lon="-3.8005649"><ele>914.0</ele><time>2026-04-17T12:18:46.756Z</time></trkpt><trkpt lat="40.7465905" lon="-3.8004264"><ele>914.0</ele><time>2026-04-17T12:18:47.756Z</time></trkpt><trkpt lat="40.7466653" lon="-3.8002876"><ele>914.0</ele><time>2026-04-17T12:18:48.756Z</time></trkpt><trkpt lat="40.7467388" lon="-3.8001467"><ele>914.0</ele><time>2026-04-17T12:18:49.757Z</time></trkpt><trkpt lat="40.7468142" lon="-3.8000074"><ele>914.0</ele><time>2026-04-17T12:18:50.756Z</time></trkpt><trkpt lat="40.7468873" lon="-3.7998682"><ele>914.0</ele><time>2026-04-17T12:18:51.756Z</time></trkpt><trkpt lat="40.7469593" lon="-3.7997335"><ele>914.0</ele><time>2026-04-17T12:18:52.756Z</time></trkpt><trkpt lat="40.7470337" lon="-3.7995935"><ele>914.0</ele><time>2026-04-17T12:18:53.757Z</time></trkpt><trkpt lat="40.7471057" lon="-3.7994514"><ele>914.0</ele><time>2026-04-17T12:18:54.756Z</time></trkpt><trkpt lat="40.747182" lon="-3.7993064"><ele>914.0</ele><time>2026-04-17T12:18:55.757Z</time></trkpt><trkpt lat="40.7472563" lon="-3.7991598"><ele>914.0</ele><time>2026-04-17T12:18:56.757Z</time></trkpt><trkpt lat="40.7473311" lon="-3.7990094"><ele>914.0</ele><time>2026-04-17T12:18:57.756Z</time></trkpt><trkpt lat="40.7474132" lon="-3.79886"><ele>914.0</ele><time>2026-04-17T12:18:58.756Z</time></trkpt><trkpt lat="40.7474955" lon="-3.7987054"><ele>914.0</ele><time>2026-04-17T12:18:59.756Z</time></trkpt><trkpt lat="40.7475773" lon="-3.7985457"><ele>914.0</ele><time>2026-04-17T12:19:00.756Z</time></trkpt><trkpt lat="40.7476586" lon="-3.7983951"><ele>914.0</ele><time>2026-04-17T12:19:01.756Z</time></trkpt><trkpt lat="40.7477407" lon="-3.7982422"><ele>914.6666666666667</ele><time>2026-04-17T12:19:02.756Z</time></trkpt><trkpt lat="40.7478226" lon="-3.7980834"><ele>915.3333333333333</ele><time>2026-04-17T12:19:03.756Z</time></trkpt><trkpt lat="40.7479104" lon="-3.7979172"><ele>916.0</ele><time>2026-04-17T12:19:04.757Z</time></trkpt><trkpt lat="40.7479986" lon="-3.7977485"><ele>915.3333333333333</ele><time>2026-04-17T12:19:05.757Z</time></trkpt><trkpt lat="40.7480867" lon="-3.7975781"><ele>914.6666666666667</ele><time>2026-04-17T12:19:06.756Z</time></trkpt><trkpt lat="40.7481729" lon="-3.7974015"><ele>914.0</ele><time>2026-04-17T12:19:07.757Z</time></trkpt><trkpt lat="40.7482636" lon="-3.7972249"><ele>914.0</ele><time>2026-04-17T12:19:08.756Z</time></trkpt><trkpt lat="40.7483528" lon="-3.7970404"><ele>914.0</ele><time>2026-04-17T12:19:09.757Z</time></trkpt><trkpt lat="40.7484377" lon="-3.7968564"><ele>914.0</ele><time>2026-04-17T12:19:10.756Z</time></trkpt><trkpt lat="40.7485108" lon="-3.7966763"><ele>915.3333333333334</ele><time>2026-04-17T12:19:11.756Z</time></trkpt><trkpt lat="40.7485933" lon="-3.7965028"><ele>916.6666666666667</ele><time>2026-04-17T12:19:12.757Z</time></trkpt><trkpt lat="40.7486899" lon="-3.7963287"><ele>918.0</ele><time>2026-04-17T12:19:13.757Z</time></trkpt><trkpt lat="40.7487855" lon="-3.7961624"><ele>917.5</ele><time>2026-04-17T12:19:14.757Z</time></trkpt><trkpt lat="40.7488764" lon="-3.7960028"><ele>917.0</ele><time>2026-04-17T12:19:15.756Z</time></trkpt><trkpt lat="40.7489667" lon="-3.7958478"><ele>916.5</ele><time>2026-04-17T12:19:16.757Z</time></trkpt><trkpt lat="40.7490607" lon="-3.7957008"><ele>916.0</ele><time>2026-04-17T12:19:17.756Z</time></trkpt><trkpt lat="40.7491308" lon="-3.7955731"><ele>916.0</ele><time>2026-04-17T12:19:18.756Z</time></trkpt><trkpt lat="40.7491925" lon="-3.7954566"><ele>915.9999999999999</ele><time>2026-04-17T12:19:19.757Z</time></trkpt><trkpt lat="40.7492489" lon="-3.7953486"><ele>915.9999999999999</ele><time>2026-04-17T12:19:20.757Z</time></trkpt><trkpt lat="40.7493087" lon="-3.7952508"><ele>916.0</ele><time>2026-04-17T12:19:21.756Z</time></trkpt><trkpt lat="40.7493611" lon="-3.795158"><ele>916.0</ele><time>2026-04-17T12:19:22.756Z</time></trkpt><trkpt lat="40.749406" lon="-3.7950624"><ele>917.1999999999999</ele><time>2026-04-17T12:19:23.757Z</time></trkpt><trkpt lat="40.7494535" lon="-3.7949666"><ele>918.3999999999999</ele><time>2026-04-17T12:19:24.757Z</time></trkpt><trkpt lat="40.7495035" lon="-3.7948637"><ele>919.6</ele><time>2026-04-17T12:19:25.756Z</time></trkpt><trkpt lat="40.7495532" lon="-3.7947538"><ele>920.8</ele><time>2026-04-17T12:19:26.756Z</time></trkpt><trkpt lat="40.7496039" lon="-3.7946415"><ele>922.0</ele><time>2026-04-17T12:19:27.757Z</time></trkpt><trkpt lat="40.7496584" lon="-3.794524"><ele>922.0</ele><time>2026-04-17T12:19:28.757Z</time></trkpt><trkpt lat="40.7497123" lon="-3.7944058"><ele>922.0</ele><time>2026-04-17T12:19:29.756Z</time></trkpt><trkpt lat="40.7497636" lon="-3.7942988"><ele>922.0</ele><time>2026-04-17T12:19:30.756Z</time></trkpt><trkpt lat="40.7498084" lon="-3.7941934"><ele>922.0</ele><time>2026-04-17T12:19:31.756Z</time></trkpt><trkpt lat="40.7498509" lon="-3.7940962"><ele>922.0</ele><time>2026-04-17T12:19:32.756Z</time></trkpt><trkpt lat="40.7498839" lon="-3.794009"><ele>921.8333333333333</ele><time>2026-04-17T12:19:33.756Z</time></trkpt><trkpt lat="40.7499197" lon="-3.7939146"><ele>921.6666666666666</ele><time>2026-04-17T12:19:34.756Z</time></trkpt><trkpt lat="40.7499583" lon="-3.7938249"><ele>921.5</ele><time>2026-04-17T12:19:35.756Z</time></trkpt><trkpt lat="40.7500001" lon="-3.7937241"><ele>921.3333333333333</ele><time>2026-04-17T12:19:36.756Z</time></trkpt><trkpt lat="40.7500442" lon="-3.7936187"><ele>921.1666666666666</ele><time>2026-04-17T12:19:37.756Z</time></trkpt><trkpt lat="40.7500881" lon="-3.7935048"><ele>921.0</ele><time>2026-04-17T12:19:38.757Z</time></trkpt><trkpt lat="40.7501326" lon="-3.7933874"><ele>920.4</ele><time>2026-04-17T12:19:39.756Z</time></trkpt><trkpt lat="40.750179" lon="-3.7932646"><ele>919.8</ele><time>2026-04-17T12:19:40.757Z</time></trkpt><trkpt lat="40.7502267" lon="-3.7931392"><ele>919.1999999999999</ele><time>2026-04-17T12:19:41.756Z</time></trkpt><trkpt lat="40.7502715" lon="-3.793017"><ele>918.5999999999999</ele><time>2026-04-17T12:19:42.757Z</time></trkpt><trkpt lat="40.7503214" lon="-3.7929013"><ele>918.0</ele><time>2026-04-17T12:19:43.756Z</time></trkpt><trkpt lat="40.7503709" lon="-3.7927867"><ele>918.0</ele><time>2026-04-17T12:19:44.756Z</time></trkpt><trkpt lat="40.7504147" lon="-3.79267"><ele>918.0</ele><time>2026-04-17T12:19:45.756Z</time></trkpt><trkpt lat="40.7504611" lon="-3.7925498"><ele>918.0</ele><time>2026-04-17T12:19:46.757Z</time></trkpt><trkpt lat="40.7505051" lon="-3.7924254"><ele>918.0</ele><time>2026-04-17T12:19:47.757Z</time></trkpt><trkpt lat="40.7505478" lon="-3.7922949"><ele>918.0</ele><time>2026-04-17T12:19:48.757Z</time></trkpt><trkpt lat="40.7505885" lon="-3.7921588"><ele>918.0</ele><time>2026-04-17T12:19:49.756Z</time></trkpt><trkpt lat="40.7506283" lon="-3.7920183"><ele>918.0</ele><time>2026-04-17T12:19:50.757Z</time></trkpt><trkpt lat="40.7506646" lon="-3.7918863"><ele>918.0</ele><time>2026-04-17T12:19:51.756Z</time></trkpt><trkpt lat="40.7506996" lon="-3.7917526"><ele>918.0</ele><time>2026-04-17T12:19:52.757Z</time></trkpt><trkpt lat="40.7507209" lon="-3.7916124"><ele>918.0</ele><time>2026-04-17T12:19:53.756Z</time></trkpt><trkpt lat="40.750741" lon="-3.7914688"><ele>918.0</ele><time>2026-04-17T12:19:54.756Z</time></trkpt><trkpt lat="40.7507618" lon="-3.7913264"><ele>918.0</ele><time>2026-04-17T12:19:55.757Z</time></trkpt><trkpt lat="40.7507771" lon="-3.7911854"><ele>918.0</ele><time>2026-04-17T12:19:56.756Z</time></trkpt><trkpt lat="40.7507955" lon="-3.7910517"><ele>918.0</ele><time>2026-04-17T12:19:57.756Z</time></trkpt><trkpt lat="40.7508114" lon="-3.7909163"><ele>918.0</ele><time>2026-04-17T12:19:58.757Z</time></trkpt><trkpt lat="40.7508231" lon="-3.7907863"><ele>918.0</ele><time>2026-04-17T12:19:59.757Z</time></trkpt><trkpt lat="40.750834" lon="-3.7906609"><ele>918.0</ele><time>2026-04-17T12:20:00.756Z</time></trkpt><trkpt lat="40.7508448" lon="-3.7905456"><ele>918.0</ele><time>2026-04-17T12:20:01.756Z</time></trkpt><trkpt lat="40.7508617" lon="-3.7904336"><ele>918.0</ele><time>2026-04-17T12:20:02.757Z</time></trkpt><trkpt lat="40.7508707" lon="-3.7903291"><ele>918.0</ele><time>2026-04-17T12:20:03.756Z</time></trkpt><trkpt lat="40.7508861" lon="-3.7902192"><ele>918.0</ele><time>2026-04-17T12:20:04.757Z</time></trkpt><trkpt lat="40.7509006" lon="-3.7901032"><ele>918.1666666666666</ele><time>2026-04-17T12:20:05.757Z</time></trkpt><trkpt lat="40.7509141" lon="-3.7899904"><ele>918.3333333333333</ele><time>2026-04-17T12:20:06.756Z</time></trkpt><trkpt lat="40.7509286" lon="-3.789881"><ele>918.5</ele><time>2026-04-17T12:20:07.756Z</time></trkpt><trkpt lat="40.7509411" lon="-3.789781"><ele>918.6666666666666</ele><time>2026-04-17T12:20:08.756Z</time></trkpt><trkpt lat="40.7509515" lon="-3.789696"><ele>918.8333333333333</ele><time>2026-04-17T12:20:09.756Z</time></trkpt><trkpt lat="40.7509686" lon="-3.7895483"><ele>919.0</ele><time>2026-04-17T12:20:11.756Z</time></trkpt><trkpt lat="40.7509793" lon="-3.789415"><ele>918.8333333333333</ele><time>2026-04-17T12:20:13.757Z</time></trkpt><trkpt lat="40.7509958" lon="-3.7892622"><ele>918.6666666666666</ele><time>2026-04-17T12:20:15.757Z</time></trkpt><trkpt lat="40.7510099" lon="-3.7891127"><ele>918.5</ele><time>2026-04-17T12:20:17.756Z</time></trkpt><trkpt lat="40.7510211" lon="-3.7890272"><ele>918.3333333333333</ele><time>2026-04-17T12:20:18.756Z</time></trkpt><trkpt lat="40.7510357" lon="-3.7889311"><ele>918.1666666666666</ele><time>2026-04-17T12:20:19.757Z</time></trkpt><trkpt lat="40.7510564" lon="-3.7888324"><ele>918.0</ele><time>2026-04-17T12:20:20.757Z</time></trkpt><trkpt lat="40.7510786" lon="-3.7887353"><ele>918.0</ele><time>2026-04-17T12:20:21.756Z</time></trkpt><trkpt lat="40.7511175" lon="-3.7886309"><ele>918.0</ele><time>2026-04-17T12:20:22.757Z</time></trkpt><trkpt lat="40.7511683" lon="-3.7885263"><ele>918.0</ele><time>2026-04-17T12:20:23.756Z</time></trkpt><trkpt lat="40.7512264" lon="-3.7884227"><ele>918.0</ele><time>2026-04-17T12:20:24.757Z</time></trkpt><trkpt lat="40.7512873" lon="-3.7883281"><ele>918.0</ele><time>2026-04-17T12:20:25.756Z</time></trkpt><trkpt lat="40.7513402" lon="-3.7882363"><ele>918.0</ele><time>2026-04-17T12:20:26.757Z</time></trkpt><trkpt lat="40.7513916" lon="-3.7881472"><ele>918.0</ele><time>2026-04-17T12:20:27.756Z</time></trkpt><trkpt lat="40.7514421" lon="-3.7880555"><ele>918.0</ele><time>2026-04-17T12:20:28.756Z</time></trkpt><trkpt lat="40.7514933" lon="-3.7879673"><ele>918.0</ele><time>2026-04-17T12:20:29.756Z</time></trkpt><trkpt lat="40.7515446" lon="-3.7878866"><ele>918.0</ele><time>2026-04-17T12:20:30.756Z</time></trkpt><trkpt lat="40.7515907" lon="-3.7878087"><ele>918.0</ele><time>2026-04-17T12:20:31.756Z</time></trkpt><trkpt lat="40.7516343" lon="-3.7877444"><ele>918.1666666666666</ele><time>2026-04-17T12:20:32.757Z</time></trkpt><trkpt lat="40.751706" lon="-3.7876274"><ele>918.3333333333333</ele><time>2026-04-17T12:20:34.756Z</time></trkpt><trkpt lat="40.7517831" lon="-3.7874956"><ele>918.5</ele><time>2026-04-17T12:20:36.756Z</time></trkpt><trkpt lat="40.7518304" lon="-3.7874288"><ele>918.6666666666666</ele><time>2026-04-17T12:20:37.756Z</time></trkpt><trkpt lat="40.7518712" lon="-3.7873624"><ele>918.8333333333333</ele><time>2026-04-17T12:20:38.756Z</time></trkpt><trkpt lat="40.7519161" lon="-3.7872961"><ele>919.0</ele><time>2026-04-17T12:20:39.757Z</time></trkpt><trkpt lat="40.7519576" lon="-3.7872322"><ele>919.0</ele><time>2026-04-17T12:20:40.756Z</time></trkpt><trkpt lat="40.7520239" lon="-3.7871133"><ele>919.0000000000001</ele><time>2026-04-17T12:20:42.757Z</time></trkpt><trkpt lat="40.7520953" lon="-3.7869908"><ele>919.0000000000001</ele><time>2026-04-17T12:20:44.756Z</time></trkpt><trkpt lat="40.7521648" lon="-3.786876"><ele>919.0</ele><time>2026-04-17T12:20:46.756Z</time></trkpt><trkpt lat="40.7522294" lon="-3.7867732"><ele>919.0</ele><time>2026-04-17T12:20:48.756Z</time></trkpt><trkpt lat="40.7522901" lon="-3.7866518"><ele>918.9999999999999</ele><time>2026-04-17T12:20:50.757Z</time></trkpt><trkpt lat="40.7523574" lon="-3.7865272"><ele>919.0</ele><time>2026-04-17T12:20:52.756Z</time></trkpt><trkpt lat="40.7523967" lon="-3.78646"><ele>919.0</ele><time>2026-04-17T12:20:53.756Z</time></trkpt><trkpt lat="40.7524356" lon="-3.7863899"><ele>919.0</ele><time>2026-04-17T12:20:54.757Z</time></trkpt><trkpt lat="40.7525026" lon="-3.7862751"><ele>918.9999999999999</ele><time>2026-04-17T12:20:56.757Z</time></trkpt><trkpt lat="40.7525488" lon="-3.7861908"><ele>919.0</ele><time>2026-04-17T12:20:58.757Z</time></trkpt><trkpt lat="40.7525908" lon="-3.7861115"><ele>919.0</ele><time>2026-04-17T12:21:00.756Z</time></trkpt><trkpt lat="40.7525767" lon="-3.7860117"><ele>919.0000000000001</ele><time>2026-04-17T12:21:02.756Z</time></trkpt><trkpt lat="40.7525257" lon="-3.7859498"><ele>919.0000000000001</ele><time>2026-04-17T12:21:04.756Z</time></trkpt><trkpt lat="40.7524456" lon="-3.7858668"><ele>919.0</ele><time>2026-04-17T12:21:06.756Z</time></trkpt><trkpt lat="40.7523581" lon="-3.7857755"><ele>919.0</ele><time>2026-04-17T12:21:08.756Z</time></trkpt><trkpt lat="40.7522672" lon="-3.7856654"><ele>918.8333333333333</ele><time>2026-04-17T12:21:10.757Z</time></trkpt><trkpt lat="40.7521981" lon="-3.7855804"><ele>918.6666666666666</ele><time>2026-04-17T12:21:12.757Z</time></trkpt><trkpt lat="40.7521723" lon="-3.7854951"><ele>918.5</ele><time>2026-04-17T12:21:14.756Z</time></trkpt><trkpt lat="40.7522013" lon="-3.7853842"><ele>918.3333333333333</ele><time>2026-04-17T12:21:17.756Z</time></trkpt><trkpt lat="40.7522526" lon="-3.7852966"><ele>918.1666666666666</ele><time>2026-04-17T12:21:19.757Z</time></trkpt><trkpt lat="40.7523044" lon="-3.7852243"><ele>918.0</ele><time>2026-04-17T12:21:21.756Z</time></trkpt><trkpt lat="40.7523515" lon="-3.785147"><ele>918.0</ele><time>2026-04-17T12:21:23.756Z</time></trkpt><trkpt lat="40.7523946" lon="-3.7850598"><ele>918.0</ele><time>2026-04-17T12:21:25.757Z</time></trkpt><trkpt lat="40.7524574" lon="-3.7849465"><ele>918.0</ele><time>2026-04-17T12:21:27.756Z</time></trkpt><trkpt lat="40.7525253" lon="-3.7848375"><ele>918.0</ele><time>2026-04-17T12:21:29.756Z</time></trkpt><trkpt lat="40.7525631" lon="-3.7847701"><ele>918.0</ele><time>2026-04-17T12:21:30.756Z</time></trkpt><trkpt lat="40.7526314" lon="-3.784655"><ele>918.0</ele><time>2026-04-17T12:21:32.757Z</time></trkpt><trkpt lat="40.7526949" lon="-3.7845626"><ele>918.0</ele><time>2026-04-17T12:21:34.757Z</time></trkpt><trkpt lat="40.752748" lon="-3.7844614"><ele>918.0</ele><time>2026-04-17T12:21:36.756Z</time></trkpt><trkpt lat="40.7527696" lon="-3.784346"><ele>918.0</ele><time>2026-04-17T12:21:38.756Z</time></trkpt><trkpt lat="40.7527912" lon="-3.7842617"><ele>918.0</ele><time>2026-04-17T12:21:40.757Z</time></trkpt><trkpt lat="40.7528974" lon="-3.7842435"><ele>921.0</ele><time>2026-04-17T12:22:04.757Z</time></trkpt></trkseg></trk></gpx>